# Wetter Temperatur Luftdruck Luftfeuchtigkeit Sichtweite Windgeschwindigkeit Windrichtung Zeit
1 Clouds 16 1023 63 10000 3.6 240 12:30 22.04.2021
2 Clouds 16 1024 67 10000 4.12 230 11:50 22.04.2021
3 Clear 15 1024 72 10000 3.6 230 11:26 22.04.2021
4 Clear 15 1024 82 10000 4.12 230 10:48 22.04.2021
5 Clear 14 1024 82 10000 3.6 220 10:30 22.04.2021
6 Clear 14 1024 77 10000 3.6 210 09:59 22.04.2021
7 Clear 14 1023 77 10000 4.12 210 09:34 22.04.2021
8 Clear 14 1023 77 10000 4.12 220 08:48 22.04.2021
9 Clear 13 1023 82 10000 3.09 230 08:23 22.04.2021
10 Clear 13 1023 82 10000 4.12 240 07:49 22.04.2021
11 Clear 12 1023 87 10000 2.06 240 07:30 22.04.2021
12 Clear 12 1022 87 10000 1.54 230 06:44 22.04.2021
13 Clear 10 1022 93 10000 2.15 220 06:18 22.04.2021
14 Clear 9 1021 93 10000 0.51 0 05:21 22.04.2021
15 Clear 11 1021 87 10000 3.09 280 02:24 22.04.2021
16 Clear 12 1020 82 10000 3.09 210 23:55 21.04.2021
17 Clear 12 1020 82 10000 3.09 210 23:55 21.04.2021
18 Clear 12 1020 82 10000 3.09 210 23:37 21.04.2021
19 Clouds 12 1020 82 10000 3.09 210 22:59 21.04.2021
20 Clouds 12 1020 82 10000 3.09 210 22:38 21.04.2021
21 Clouds 12 1020 82 10000 2.06 220 22:18 21.04.2021
22 Clouds 12 1021 82 10000 2.57 260 21:41 21.04.2021
23 Clouds 12 1021 82 10000 2.57 260 21:41 21.04.2021
24 Clouds 13 1021 76 10000 4.12 220 21:19 21.04.2021
25 Clouds 13 1020 76 10000 2.57 250 20:31 21.04.2021
26 Clouds 14 1019 72 10000 2.06 220 19:49 21.04.2021
27 Clouds 14 1019 72 10000 2.57 270 19:27 21.04.2021
28 Rain 14 1019 77 10000 3.09 270 18:52 21.04.2021
29 Rain 14 1019 77 10000 3.09 270 18:52 21.04.2021
30 Rain 16 1019 55 10000 3.09 270 18:34 21.04.2021
31 Rain 16 1018 51 10000 4.63 300 17:59 21.04.2021
32 Rain 16 1018 51 10000 4.63 300 17:39 21.04.2021
33 Clouds 16 1018 58 10000 5.66 270 17:20 21.04.2021
34 Clouds 17 1018 51 10000 4.12 260 16:38 21.04.2021
35 Clouds 17 1018 55 10000 4.12 260 15:47 21.04.2021
36 Clouds 17 1018 55 10000 4.12 250 15:21 21.04.2021
37 Clouds 17 1018 48 10000 3.6 250 14:45 21.04.2021
38 Clouds 17 1018 55 10000 3.6 260 14:25 21.04.2021
39 Clouds 17 1018 55 10000 3.6 260 13:50 21.04.2021
40 Clouds 16 1019 63 10000 3.6 250 13:22 21.04.2021
41 Clouds 16 1019 67 10000 3.09 250 12:46 21.04.2021
42 Clouds 15 1019 67 10000 3.09 240 12:20 21.04.2021
43 Clouds 15 1019 72 10000 2.57 230 11:43 21.04.2021
44 Clouds 15 1019 72 10000 3.09 230 11:23 21.04.2021
45 Clouds 14 1019 72 10000 2.57 220 10:39 21.04.2021
46 Clear 14 1019 72 10000 2.06 190 09:56 21.04.2021
47 Clear 13 1019 76 10000 2.06 230 09:21 21.04.2021
48 Clear 13 1018 82 10000 3.09 210 08:46 21.04.2021
49 Clear 13 1018 82 10000 3.09 220 08:24 21.04.2021
50 Clear 12 1018 87 10000 3.09 210 07:52 21.04.2021
51 Clear 12 1018 94 10000 2.06 190 07:28 21.04.2021
52 Clear 9 1017 93 6000 2.06 140 05:57 21.04.2021
53 Clear 9 1016 87 10000 0.51 320 01:51 21.04.2021
54 Clear 9 1016 87 10000 1.36 92 00:20 21.04.2021
55 Clear 10 1016 87 10000 1.35 93 23:39 20.04.2021
56 Clear 10 1016 87 10000 0.51 0 22:49 20.04.2021
57 Clear 11 1016 82 10000 0.51 0 22:24 20.04.2021
58 Clear 11 1015 82 10000 1.03 280 21:56 20.04.2021
59 Clear 11 1015 87 10000 0.51 0 21:33 20.04.2021
60 Clear 11 1015 87 10000 1.03 280 20:59 20.04.2021
61 Clear 11 1015 87 10000 1.03 280 20:38 20.04.2021
62 Clouds 12 1015 82 10000 2.57 230 20:18 20.04.2021
63 Clouds 12 1015 82 10000 3.09 230 19:46 20.04.2021
64 Clouds 12 1014 82 10000 2.57 220 19:28 20.04.2021
65 Clouds 12 1014 82 10000 3.09 210 18:42 20.04.2021
66 Clouds 13 1014 76 10000 3.09 210 18:23 20.04.2021
67 Clouds 14 1014 67 10000 3.09 250 17:41 20.04.2021
68 Clouds 14 1014 72 10000 4.63 240 16:50 20.04.2021
69 Clouds 14 1014 67 10000 4.12 240 16:25 20.04.2021
70 Clouds 14 1014 72 10000 5.66 230 15:30 20.04.2021
71 Clouds 15 1014 67 10000 6.17 240 14:59 20.04.2021
72 Clouds 15 1014 67 10000 6.17 240 14:36 20.04.2021
73 Clouds 17 1013 55 10000 6.69 270 13:55 20.04.2021
74 Clouds 16 1013 59 10000 6.69 280 13:26 20.04.2021
75 Clouds 15 1013 67 10000 6.17 270 12:51 20.04.2021
76 Clouds 14 1013 72 10000 5.14 260 12:23 20.04.2021
77 Clouds 15 1013 72 10000 4.63 250 11:46 20.04.2021
78 Clouds 15 1013 72 10000 4.63 250 11:46 20.04.2021
79 Clouds 14 1013 72 10000 5.14 250 11:25 20.04.2021
80 Clouds 15 1013 72 10000 5.66 240 10:47 20.04.2021
81 Clouds 14 1012 77 10000 4.63 260 10:24 20.04.2021
82 Clouds 13 1012 76 10000 4.63 270 09:45 20.04.2021
83 Clouds 13 1012 76 10000 5.66 270 08:59 20.04.2021
84 Clouds 13 1012 76 10000 5.66 270 08:34 20.04.2021
85 Clouds 12 1011 87 10000 4.63 260 07:52 20.04.2021
86 Clouds 12 1011 87 10000 5.14 260 07:21 20.04.2021
87 Clouds 11 1010 87 10000 4.63 250 05:42 20.04.2021
88 Clouds 11 1009 87 10000 3.6 250 04:43 20.04.2021
89 Clouds 11 1009 87 10000 5.14 230 02:58 20.04.2021
90 Clouds 12 1009 87 10000 4.63 230 00:50 20.04.2021
91 Rain 11 1010 87 10000 2.06 220 23:52 19.04.2021
92 Rain 11 1009 87 10000 5.14 270 23:29 19.04.2021
93 Clouds 12 1010 82 10000 7.72 260 22:38 19.04.2021
94 Clouds 14 1009 72 10000 6.17 230 22:19 19.04.2021
95 Clouds 14 1009 72 10000 4.63 220 21:38 19.04.2021
96 Clouds 14 1009 72 10000 4.63 220 21:19 19.04.2021
97 Rain 14 1009 77 10000 2.57 220 20:40 19.04.2021
98 Rain 14 1009 88 10000 1.03 0 20:20 19.04.2021
99 Clouds 13 1009 88 10000 2.06 130 19:44 19.04.2021
100 Rain 13 1009 88 10000 2.57 60 19:25 19.04.2021
101 Rain 13 1010 88 10000 1.03 0 18:48 19.04.2021
102 Rain 13 1010 88 10000 1.03 0 18:48 19.04.2021
103 Rain 13 1010 94 10000 1.54 120 18:24 19.04.2021
104 Rain 12 1010 94 10000 3.6 110 17:56 19.04.2021
105 Rain 12 1010 94 10000 3.6 110 17:35 19.04.2021
106 Rain 12 1012 94 7000 1.03 0 16:59 19.04.2021
107 Rain 12 1012 94 7000 1.03 0 16:40 19.04.2021
108 Rain 12 1011 93 6000 1.54 50 16:21 19.04.2021
109 Rain 11 1013 93 4000 2.57 350 15:40 19.04.2021
110 Rain 11 1013 93 4000 2.57 350 15:20 19.04.2021
111 Rain 11 1012 93 7000 5.66 70 14:38 19.04.2021
112 Rain 11 1012 93 7000 6.17 40 14:19 19.04.2021
113 Rain 11 1013 87 10000 4.63 40 13:44 19.04.2021
114 Rain 11 1014 82 10000 5.14 50 13:24 19.04.2021
115 Rain 12 1014 82 10000 5.14 60 12:42 19.04.2021
116 Rain 12 1014 82 10000 5.14 50 12:23 19.04.2021
117 Rain 12 1013 82 10000 7.2 30 11:54 19.04.2021
118 Rain 11 1014 87 10000 6.17 30 11:25 19.04.2021
119 Rain 11 1015 87 10000 5.66 40 10:46 19.04.2021
120 Clouds 11 1015 87 10000 5.66 40 10:25 19.04.2021
121 Rain 11 1015 87 7000 5.66 40 09:49 19.04.2021
122 Clouds 11 1015 87 10000 5.66 30 09:28 19.04.2021
123 Rain 10 1015 82 10000 4.12 50 08:58 19.04.2021
124 Clouds 10 1015 87 10000 5.66 50 08:26 19.04.2021
125 Clouds 10 1014 82 10000 5.66 50 07:48 19.04.2021
126 Clouds 10 1015 87 10000 5.66 50 07:19 19.04.2021
127 Clouds 10 1015 82 10000 6.17 40 06:28 19.04.2021
128 Rain 10 1016 87 10000 4.12 40 02:35 19.04.2021
129 Rain 9 1016 93 10000 4.63 20 00:47 19.04.2021
130 Rain 10 1016 82 10000 4.12 30 23:49 18.04.2021
131 Clouds 10 1017 87 10000 4.12 20 23:18 18.04.2021
132 Clouds 10 1017 87 10000 3.6 20 22:46 18.04.2021
133 Clouds 10 1017 87 10000 4.12 20 22:24 18.04.2021
134 Clouds 10 1017 82 10000 3.09 10 21:29 18.04.2021
135 Rain 10 1016 82 10000 2.57 30 20:57 18.04.2021
136 Clouds 10 1016 82 10000 2.57 30 20:38 18.04.2021
137 Clouds 10 1016 82 10000 2.57 30 20:38 18.04.2021
138 Clouds 10 1016 82 7000 2.57 30 20:20 18.04.2021
139 Rain 10 1015 87 10000 2.57 20 19:45 18.04.2021
140 Clouds 10 1015 87 10000 3.09 10 19:25 18.04.2021
141 Clouds 11 1015 82 10000 3.6 360 18:54 18.04.2021
142 Clouds 12 1015 82 10000 3.6 360 18:30 18.04.2021
143 Clouds 12 1015 76 10000 3.09 10 17:50 18.04.2021
144 Clouds 12 1014 82 10000 4.12 10 17:31 18.04.2021
145 Clouds 13 1014 76 10000 3.6 360 16:54 18.04.2021
146 Clouds 13 1014 76 10000 4.12 350 16:36 18.04.2021
147 Clouds 13 1013 82 10000 4.12 360 15:51 18.04.2021
148 Clouds 13 1013 82 10000 4.12 360 15:32 18.04.2021
149 Clouds 13 1013 82 10000 4.12 350 14:58 18.04.2021
150 Clouds 14 1013 82 10000 3.6 360 14:40 18.04.2021
151 Clouds 14 1013 82 10000 3.6 360 14:18 18.04.2021
152 Clouds 14 1013 77 10000 4.12 350 13:44 18.04.2021
153 Clouds 14 1013 77 10000 4.12 360 13:26 18.04.2021
154 Clouds 14 1013 82 10000 2.57 20 12:36 18.04.2021
155 Clouds 14 1013 82 10000 3.09 360 11:52 18.04.2021
156 Clouds 14 1013 76 10000 2.57 30 11:27 18.04.2021
157 Clouds 13 1014 82 10000 2.57 40 10:54 18.04.2021
158 Clouds 12 1014 82 10000 3.09 30 10:35 18.04.2021
159 Clouds 12 1014 82 10000 3.6 50 09:58 18.04.2021
160 Clouds 12 1014 82 10000 3.6 50 09:39 18.04.2021
161 Clouds 12 1014 82 10000 3.6 50 09:39 18.04.2021
162 Clouds 11 1014 87 10000 3.6 30 09:19 18.04.2021
163 Clouds 11 1014 87 10000 4.63 30 08:40 18.04.2021
164 Clouds 11 1014 87 10000 4.63 30 08:19 18.04.2021
165 Clouds 10 1014 87 10000 4.12 30 07:39 18.04.2021
166 Clouds 9 1013 87 10000 5.14 50 05:45 18.04.2021
167 Clouds 9 1014 87 10000 4.63 40 05:25 18.04.2021
168 Clouds 9 1014 87 10000 5.14 50 03:37 18.04.2021
169 Clouds 9 1014 87 10000 5.14 30 02:22 18.04.2021
170 Clouds 9 1014 87 10000 6.17 30 00:41 18.04.2021
171 Rain 9 1014 87 10000 6.69 30 23:40 17.04.2021
172 Rain 9 1013 87 10000 7.72 30 22:59 17.04.2021
173 Rain 9 1013 87 10000 7.72 30 22:39 17.04.2021
174 Rain 9 1014 87 10000 7.72 30 22:20 17.04.2021
175 Rain 9 1014 87 10000 7.72 30 21:38 17.04.2021
176 Rain 10 1014 87 10000 7.2 40 21:19 17.04.2021
177 Clouds 10 1014 87 10000 7.72 50 20:28 17.04.2021
178 Clouds 10 1014 76 10000 7.2 40 19:46 17.04.2021
179 Clouds 10 1014 76 10000 8.23 50 19:22 17.04.2021
180 Clouds 11 1014 76 10000 8.23 40 18:58 17.04.2021
181 Clouds 11 1014 76 10000 8.23 40 18:37 17.04.2021
182 Clouds 12 1014 71 10000 8.75 50 18:00 17.04.2021
183 Clouds 12 1014 71 10000 8.75 50 17:40 17.04.2021
184 Clouds 13 1014 62 10000 8.23 40 16:55 17.04.2021
185 Clouds 14 1014 58 10000 7.72 40 16:28 17.04.2021
186 Clouds 14 1014 58 10000 9.26 50 15:53 17.04.2021
187 Clouds 15 1014 47 10000 9.26 60 14:51 17.04.2021
188 Clouds 15 1015 47 10000 9.26 50 14:32 17.04.2021
189 Clouds 13 1015 58 10000 8.75 60 13:49 17.04.2021
190 Clouds 13 1016 62 10000 8.23 70 13:25 17.04.2021
191 Clouds 11 1015 71 10000 9.77 60 12:42 17.04.2021
192 Clouds 11 1015 71 10000 9.77 60 12:18 17.04.2021
193 Rain 10 1016 76 10000 8.23 70 11:41 17.04.2021
194 Rain 10 1017 71 10000 7.2 70 11:22 17.04.2021
195 Rain 10 1017 71 10000 7.72 60 10:44 17.04.2021
196 Rain 11 1018 58 10000 6.17 70 10:25 17.04.2021
197 Rain 12 1018 58 10000 7.72 70 09:27 17.04.2021
198 Clouds 12 1017 58 10000 9.26 70 08:40 17.04.2021
199 Clouds 11 1018 62 10000 8.75 70 08:21 17.04.2021
200 Clouds 10 1018 71 10000 7.2 60 06:44 17.04.2021
201 Rain 9 1019 76 10000 7.72 50 03:53 17.04.2021
202 Clouds 9 1018 71 10000 5.14 40 02:58 17.04.2021
203 Rain 10 1019 76 10000 4.12 50 00:46 17.04.2021
204 Rain 10 1019 76 10000 5.14 60 00:24 17.04.2021
205 Rain 10 1019 76 10000 4.12 60 23:46 16.04.2021
206 Rain 10 1019 71 10000 5.14 70 23:23 16.04.2021
207 Rain 10 1020 66 10000 3.6 60 22:43 16.04.2021
208 Clouds 10 1020 71 10000 4.12 70 22:20 16.04.2021
209 Clouds 10 1020 66 10000 4.63 70 21:50 16.04.2021
210 Clouds 10 1020 66 10000 4.63 70 21:29 16.04.2021
211 Clouds 10 1020 66 10000 5.14 70 20:50 16.04.2021
212 Clouds 10 1020 58 10000 4.63 70 20:24 16.04.2021
213 Clouds 10 1019 58 10000 5.14 60 19:50 16.04.2021
214 Clear 11 1019 58 10000 5.14 50 19:28 16.04.2021
215 Clear 12 1019 54 10000 6.17 50 18:28 16.04.2021
216 Clear 13 1018 54 10000 6.17 50 17:55 16.04.2021
217 Clear 13 1018 54 10000 6.69 50 17:22 16.04.2021
218 Clouds 14 1019 51 10000 6.17 60 16:59 16.04.2021
219 Clouds 14 1019 51 10000 6.17 60 16:41 16.04.2021
220 Clouds 14 1019 51 10000 6.17 40 16:21 16.04.2021
221 Clouds 14 1019 51 10000 5.66 50 15:43 16.04.2021
222 Clouds 14 1019 51 10000 5.14 50 15:18 16.04.2021
223 Clouds 14 1019 54 10000 6.17 50 14:41 16.04.2021
224 Clouds 15 1019 55 10000 4.12 60 13:59 16.04.2021
225 Clouds 14 1020 58 10000 4.12 60 13:41 16.04.2021
226 Clouds 14 1020 58 10000 4.12 60 13:19 16.04.2021
227 Clouds 14 1020 58 10000 4.63 60 12:46 16.04.2021
228 Clouds 14 1020 54 10000 4.12 60 12:25 16.04.2021
229 Clouds 13 1020 62 10000 5.14 50 11:43 16.04.2021
230 Clouds 13 1020 62 10000 5.66 50 11:25 16.04.2021
231 Clouds 13 1020 62 10000 5.14 60 10:46 16.04.2021
232 Clouds 12 1020 62 10000 5.66 50 10:25 16.04.2021
233 Clouds 12 1020 62 10000 6.17 60 09:52 16.04.2021
234 Clouds 11 1020 76 10000 6.17 70 09:24 16.04.2021
235 Clouds 10 1020 71 10000 6.69 50 08:46 16.04.2021
236 Clouds 10 1020 76 10000 5.14 50 08:27 16.04.2021
237 Clouds 10 1019 81 10000 6.17 50 07:47 16.04.2021
238 Clouds 10 1019 76 10000 5.14 50 07:28 16.04.2021
239 Clouds 10 1019 76 10000 5.14 60 06:47 16.04.2021
240 Clouds 9 1018 81 10000 4.12 50 05:33 16.04.2021
241 Clouds 9 1018 76 10000 4.12 60 05:33 16.04.2021
242 Clouds 9 1018 81 10000 4.63 40 03:59 16.04.2021
243 Clouds 9 1017 87 10000 3.6 40 00:49 16.04.2021
244 Clouds 9 1017 81 10000 3.09 40 00:22 16.04.2021
245 Clouds 9 1017 76 10000 3.09 30 23:58 15.04.2021
246 Clouds 10 1017 76 10000 2.57 50 23:35 15.04.2021
247 Clouds 10 1017 76 10000 3.6 50 22:52 15.04.2021
248 Clouds 10 1018 81 10000 4.12 60 22:26 15.04.2021
249 Clouds 10 1018 81 10000 4.63 50 21:56 15.04.2021
250 Clouds 9 1018 87 10000 5.14 50 21:37 15.04.2021
251 Clouds 9 1018 87 10000 5.14 50 21:19 15.04.2021
252 Clouds 10 1017 81 10000 5.14 40 20:38 15.04.2021
253 Clouds 10 1017 81 10000 5.14 40 20:20 15.04.2021
254 Clouds 10 1017 76 10000 5.66 30 19:42 15.04.2021
255 Clouds 10 1016 76 10000 7.2 30 19:23 15.04.2021
256 Clouds 10 1016 76 10000 7.2 40 18:41 15.04.2021
257 Clouds 10 1016 76 10000 7.2 30 18:20 15.04.2021
258 Clouds 11 1016 76 10000 6.69 20 17:54 15.04.2021
259 Clouds 12 1016 71 10000 6.69 30 17:36 15.04.2021
260 Clouds 13 1016 62 10000 6.17 30 16:47 15.04.2021
261 Clouds 14 1016 62 10000 5.66 30 16:25 15.04.2021
262 Clear 14 1016 62 10000 6.17 40 15:51 15.04.2021
263 Clear 15 1016 63 10000 6.69 30 15:31 15.04.2021
264 Clear 15 1016 58 10000 6.69 20 14:57 15.04.2021
265 Clear 15 1016 58 10000 6.69 20 14:38 15.04.2021
266 Clear 16 1016 59 10000 6.17 50 14:19 15.04.2021
267 Clear 16 1016 55 10000 6.17 40 13:41 15.04.2021
268 Clouds 16 1017 59 10000 5.14 30 12:59 15.04.2021
269 Clouds 15 1017 63 10000 5.66 30 12:38 15.04.2021
270 Clouds 15 1017 63 10000 5.66 30 12:20 15.04.2021
271 Clouds 15 1017 63 10000 5.66 30 12:20 15.04.2021
272 Clouds 14 1017 62 10000 7.2 50 11:42 15.04.2021
273 Clouds 14 1017 62 10000 7.2 50 11:22 15.04.2021
274 Clouds 14 1017 67 10000 7.2 50 10:48 15.04.2021
275 Clouds 13 1018 67 10000 6.69 50 10:26 15.04.2021
276 Clouds 13 1017 67 10000 6.17 40 09:37 15.04.2021
277 Clouds 13 1017 67 10000 5.66 70 08:58 15.04.2021
278 Clouds 13 1017 67 10000 5.66 50 08:38 15.04.2021
279 Clouds 11 1017 71 10000 5.14 60 07:48 15.04.2021
280 Clouds 11 1017 71 10000 4.12 40 07:22 15.04.2021
281 Clouds 10 1017 76 10000 3.6 50 06:38 15.04.2021
282 Clouds 10 1017 76 10000 3.6 70 06:20 15.04.2021
283 Clouds 10 1016 76 10000 3.6 60 04:49 15.04.2021
284 Clouds 10 1016 76 10000 3.09 10 00:24 15.04.2021
285 Clouds 11 1016 71 10000 3.09 40 23:37 14.04.2021
286 Clouds 11 1016 71 10000 3.09 40 23:18 14.04.2021
287 Clouds 11 1016 71 10000 4.12 40 22:43 14.04.2021
288 Clouds 11 1016 71 10000 4.63 30 22:22 14.04.2021
289 Clouds 11 1016 71 10000 6.17 30 21:43 14.04.2021
290 Clouds 11 1016 76 10000 5.14 20 21:23 14.04.2021
291 Clouds 12 1015 62 10000 3.6 50 20:55 14.04.2021
292 Clouds 12 1015 62 10000 5.14 50 20:32 14.04.2021
293 Clouds 13 1015 67 10000 5.66 30 19:51 14.04.2021
294 Clouds 14 1014 67 10000 7.2 20 19:20 14.04.2021
295 Clouds 15 1014 63 10000 7.2 330 18:56 14.04.2021
296 Rain 16 1013 45 10000 6.69 280 18:21 14.04.2021
297 Clouds 17 1013 55 10000 5.66 280 17:58 14.04.2021
298 Clouds 18 1013 55 10000 7.2 270 17:25 14.04.2021
299 Clouds 19 1012 52 10000 6.17 270 16:54 14.04.2021
300 Clouds 19 1012 55 10000 6.17 260 16:25 14.04.2021
301 Clouds 19 1012 55 10000 5.66 270 15:42 14.04.2021
302 Clouds 20 1012 48 10000 5.14 270 15:23 14.04.2021
303 Clouds 20 1012 52 10000 3.6 240 14:48 14.04.2021
304 Clouds 19 1013 55 10000 4.12 250 14:25 14.04.2021
305 Clouds 19 1013 55 10000 4.12 250 14:25 14.04.2021
306 Clouds 19 1013 59 10000 3.09 250 13:57 14.04.2021
307 Clouds 18 1013 55 10000 3.09 230 13:36 14.04.2021
308 Clouds 19 1014 52 10000 3.09 230 12:39 14.04.2021
309 Clouds 18 1014 59 10000 3.6 240 11:43 14.04.2021
310 Clouds 17 1015 55 10000 3.6 240 11:25 14.04.2021
311 Clouds 16 1015 59 10000 3.6 230 10:50 14.04.2021
312 Clear 17 1015 63 10000 3.6 240 10:31 14.04.2021
313 Clear 15 1015 72 10000 3.6 250 09:42 14.04.2021
314 Clear 16 1015 67 10000 4.12 250 09:21 14.04.2021
315 Clear 15 1014 72 10000 2.57 240 08:45 14.04.2021
316 Clear 15 1015 72 10000 3.09 230 08:21 14.04.2021
317 Clear 14 1015 76 10000 0.51 0 07:20 14.04.2021
318 Clouds 12 1014 87 10000 1.03 80 06:25 14.04.2021
319 Clouds 12 1014 76 10000 1.54 130 04:53 14.04.2021
320 Clouds 11 1015 82 10000 1.03 50 01:52 14.04.2021
321 Clouds 11 1016 76 10000 1.54 100 00:40 14.04.2021
322 Rain 12 1016 71 10000 1.54 60 23:55 13.04.2021
323 Rain 12 1016 67 10000 2.57 80 23:30 13.04.2021
324 Rain 12 1017 62 10000 1.54 50 22:43 13.04.2021
325 Rain 12 1017 62 10000 1.03 0 22:19 13.04.2021
326 Rain 12 1017 71 10000 1.03 0 21:46 13.04.2021
327 Rain 12 1017 54 10000 1.54 250 21:28 13.04.2021
328 Rain 12 1017 54 10000 2.06 280 20:43 13.04.2021
329 Rain 13 1017 51 10000 2.06 260 20:23 13.04.2021
330 Rain 14 1017 38 10000 2.06 230 19:48 13.04.2021
331 Rain 15 1016 38 10000 0.08 159 19:24 13.04.2021
332 Clouds 16 1016 36 10000 0.08 159 18:44 13.04.2021
333 Clear 16 1016 38 10000 0.51 0 18:23 13.04.2021
334 Clear 17 1017 33 10000 0.51 0 17:37 13.04.2021
335 Clear 17 1017 33 10000 0.51 0 17:18 13.04.2021
336 Clear 17 1017 31 10000 1.03 0 16:44 13.04.2021
337 Clear 17 1017 31 10000 1.03 160 16:21 13.04.2021
338 Clear 17 1017 31 10000 1.03 0 15:50 13.04.2021
339 Clear 18 1018 31 10000 1.54 150 15:30 13.04.2021
340 Clear 17 1018 39 10000 1.03 0 14:47 13.04.2021
341 Clear 17 1018 36 10000 1.54 240 14:20 13.04.2021
342 Clear 17 1019 34 10000 2.06 220 13:45 13.04.2021
343 Clear 17 1019 41 10000 2.57 230 13:24 13.04.2021
344 Clear 17 1019 41 10000 2.06 230 12:56 13.04.2021
345 Clear 16 1019 47 10000 2.06 220 12:28 13.04.2021
346 Clear 16 1019 44 10000 1.54 160 11:56 13.04.2021
347 Clear 15 1020 51 10000 2.06 160 11:30 13.04.2021
348 Clear 15 1020 51 10000 2.06 160 11:30 13.04.2021
349 Clear 15 1020 51 10000 3.09 120 10:53 13.04.2021
350 Clear 14 1020 54 10000 3.6 120 10:21 13.04.2021
351 Clear 14 1020 54 10000 3.6 120 10:21 13.04.2021
352 Clear 13 1020 62 10000 3.09 120 09:59 13.04.2021
353 Clear 13 1020 62 10000 3.09 120 09:39 13.04.2021
354 Clear 11 1020 71 10000 3.09 120 08:57 13.04.2021
355 Clear 11 1020 71 10000 3.09 120 08:38 13.04.2021
356 Clear 11 1020 71 10000 3.09 130 08:20 13.04.2021
357 Clear 10 1020 76 10000 2.57 120 07:36 13.04.2021
358 Clear 9 1020 81 10000 1.54 100 06:31 13.04.2021
359 Clear 7 1020 81 10000 1.9 126 04:49 13.04.2021
360 Clear 9 1021 76 10000 1.54 100 02:37 13.04.2021
361 Clear 9 1021 81 10000 4.12 110 00:26 13.04.2021
362 Clear 9 1021 76 10000 3.09 110 23:48 12.04.2021
363 Clear 10 1022 71 10000 3.6 110 23:25 12.04.2021
364 Clear 10 1022 76 10000 3.09 110 22:39 12.04.2021
365 Clear 10 1022 71 10000 3.6 110 22:18 12.04.2021
366 Clear 10 1022 76 10000 3.09 120 21:45 12.04.2021
367 Clear 10 1022 71 10000 3.09 110 21:19 12.04.2021
368 Clear 10 1022 76 10000 2.57 120 20:38 12.04.2021
369 Clear 10 1022 58 10000 1.54 100 20:20 12.04.2021
370 Clear 11 1022 46 10000 1.54 90 19:55 12.04.2021
371 Clear 11 1022 46 10000 1.54 90 19:36 12.04.2021
372 Clear 12 1022 46 10000 2.06 130 19:18 12.04.2021
373 Clear 11 1022 40 10000 2.06 140 18:42 12.04.2021
374 Clear 12 1022 37 10000 1.54 150 18:24 12.04.2021
375 Clear 12 1022 43 10000 2.06 190 17:43 12.04.2021
376 Clear 13 1022 38 10000 1.54 220 17:23 12.04.2021
377 Clear 13 1022 38 10000 1.54 220 16:46 12.04.2021
378 Clear 13 1022 35 10000 2.57 220 16:27 12.04.2021
379 Clear 13 1022 47 10000 3.09 230 15:48 12.04.2021
380 Clear 13 1023 50 10000 4.12 220 15:27 12.04.2021
381 Clear 12 1023 62 10000 4.12 210 14:50 12.04.2021
382 Clear 12 1023 71 10000 5.14 220 14:30 12.04.2021
383 Clear 12 1023 71 10000 5.14 220 14:30 12.04.2021
384 Clear 12 1023 66 10000 4.63 220 13:46 12.04.2021
385 Clear 12 1024 62 10000 5.14 230 13:27 12.04.2021
386 Clear 12 1024 62 10000 5.14 230 12:48 12.04.2021
387 Clear 11 1024 62 10000 5.14 240 12:26 12.04.2021
388 Clear 12 1024 58 10000 5.14 230 11:59 12.04.2021
389 Clear 11 1024 58 10000 4.63 230 11:20 12.04.2021
390 Clear 11 1024 62 10000 4.63 230 10:43 12.04.2021
391 Clear 10 1025 57 10000 3.6 240 10:23 12.04.2021
392 Clear 10 1024 57 10000 4.12 240 09:46 12.04.2021
393 Clear 10 1025 50 10000 2.57 240 09:18 12.04.2021
394 Clear 9 1024 50 10000 2.06 240 08:36 12.04.2021
395 Clear 9 1024 49 10000 2.06 250 07:40 12.04.2021
396 Clear 8 1024 49 10000 2.06 250 07:20 12.04.2021
397 Clear 8 1024 49 10000 2.06 250 07:20 12.04.2021
398 Clear 8 1024 61 10000 2.57 260 05:52 12.04.2021
399 Clear 8 1024 71 10000 1.03 0 04:31 12.04.2021
400 Clear 8 1025 76 10000 2.57 310 01:23 12.04.2021
401 Clear 8 1026 71 10000 1.54 330 00:25 12.04.2021
402 Clear 8 1026 71 10000 2.06 350 23:46 11.04.2021
403 Clear 8 1026 71 10000 2.06 350 23:46 11.04.2021
404 Clear 8 1025 71 10000 2.06 350 23:27 11.04.2021
405 Clear 8 1025 71 10000 2.06 20 22:46 11.04.2021
406 Clear 7 1026 70 10000 2.06 20 22:25 11.04.2021
407 Clear 8 1026 61 10000 2.57 30 21:48 11.04.2021
408 Clear 9 1026 49 10000 2.57 60 21:30 11.04.2021
409 Clear 9 1025 43 10000 3.09 50 20:57 11.04.2021
410 Clear 8 1025 49 10000 2.57 20 20:30 11.04.2021
411 Clear 9 1025 37 10000 3.09 20 19:56 11.04.2021
412 Clear 9 1025 37 10000 3.09 20 19:37 11.04.2021
413 Clear 9 1025 37 10000 4.12 30 19:19 11.04.2021
414 Clear 10 1025 37 10000 5.14 20 18:42 11.04.2021
415 Clear 11 1025 35 10000 5.66 30 18:24 11.04.2021
416 Clear 11 1025 37 10000 4.63 30 17:46 11.04.2021
417 Clear 12 1025 35 10000 5.14 50 17:28 11.04.2021
418 Clear 12 1025 37 10000 5.14 40 16:52 11.04.2021
419 Clear 12 1025 37 10000 6.17 30 16:23 11.04.2021
420 Clear 13 1025 38 10000 3.09 30 15:57 11.04.2021
421 Clear 13 1025 38 10000 3.09 30 15:38 11.04.2021
422 Clear 13 1025 35 10000 3.09 0 15:19 11.04.2021
423 Clear 13 1025 38 10000 4.12 40 14:46 11.04.2021
424 Clear 12 1026 40 10000 2.57 0 13:53 11.04.2021
425 Clear 12 1026 37 10000 1.54 230 13:31 11.04.2021
426 Clear 12 1026 37 10000 1.54 230 13:31 11.04.2021
427 Clear 11 1026 58 10000 2.57 200 12:54 11.04.2021
428 Clear 11 1026 40 10000 3.6 40 12:22 11.04.2021
429 Clear 11 1026 43 10000 4.12 50 11:53 11.04.2021
430 Clear 11 1026 50 10000 3.6 20 11:29 11.04.2021
431 Clouds 10 1026 50 10000 3.09 30 10:50 11.04.2021
432 Clouds 10 1027 57 10000 3.09 40 10:32 11.04.2021
433 Clouds 9 1026 61 10000 4.12 350 09:59 11.04.2021
434 Clouds 8 1026 66 10000 3.09 30 09:37 11.04.2021
435 Clouds 9 1026 66 10000 3.09 30 09:19 11.04.2021
436 Clear 7 1026 81 10000 3.09 360 08:30 11.04.2021
437 Clear 7 1026 81 10000 3.09 360 08:30 11.04.2021
438 Clear 5 1026 87 10000 2.57 330 07:24 11.04.2021
439 Clear 4 1025 87 10000 2.57 350 06:56 11.04.2021
440 Clear 3 1025 93 10000 2.06 10 05:44 11.04.2021
441 Clear 3 1025 93 10000 2.57 360 05:21 11.04.2021
442 Clear 3 1025 93 10000 3.09 350 04:35 11.04.2021
443 Clear 4 1025 87 10000 2.06 340 02:45 11.04.2021
444 Clear 4 1026 81 10000 0.51 0 00:40 11.04.2021
445 Clear 4 1026 81 10000 2.06 70 00:40 11.04.2021
446 Clear 5 1026 70 10000 2.06 50 23:51 10.04.2021
447 Clear 5 1026 81 10000 2.06 30 23:26 10.04.2021
448 Clear 5 1026 70 10000 2.06 50 22:45 10.04.2021
449 Clear 6 1026 70 10000 2.06 50 22:45 10.04.2021
450 Clear 6 1026 71 10000 3.09 60 22:23 10.04.2021
451 Clear 6 1026 66 10000 3.6 60 21:50 10.04.2021
452 Clear 6 1026 66 10000 3.6 60 21:50 10.04.2021
453 Clear 6 1026 66 10000 3.09 60 21:23 10.04.2021
454 Clear 6 1026 66 10000 4.12 50 20:47 10.04.2021
455 Clear 7 1026 66 10000 3.6 60 20:24 10.04.2021
456 Clear 7 1025 53 10000 4.63 50 19:45 10.04.2021
457 Clear 7 1025 46 10000 5.66 50 19:26 10.04.2021
458 Clear 9 1025 43 10000 5.14 50 18:53 10.04.2021
459 Clear 10 1025 43 10000 5.14 40 18:33 10.04.2021
460 Clear 10 1025 40 10000 6.17 40 17:41 10.04.2021
461 Clear 11 1025 37 10000 6.69 40 17:21 10.04.2021
462 Clear 11 1025 37 10000 6.17 30 16:31 10.04.2021
463 Clear 11 1025 35 10000 6.69 20 15:55 10.04.2021
464 Clear 12 1026 32 10000 5.66 30 15:32 10.04.2021
465 Clear 11 1026 37 10000 6.17 10 14:47 10.04.2021
466 Clear 11 1026 37 10000 5.66 50 14:21 10.04.2021
467 Clear 12 1026 37 10000 6.17 20 13:43 10.04.2021
468 Clouds 11 1027 40 10000 6.17 40 12:55 10.04.2021
469 Clouds 12 1027 47 10000 6.17 40 12:34 10.04.2021
470 Clouds 11 1027 43 10000 6.17 40 11:52 10.04.2021
471 Clouds 10 1027 53 10000 5.14 20 11:26 10.04.2021
472 Clouds 10 1027 57 10000 5.14 350 10:53 10.04.2021
473 Clouds 9 1027 53 10000 4.12 350 10:31 10.04.2021
474 Clouds 10 1027 53 10000 3.6 40 09:52 10.04.2021
475 Clouds 9 1027 61 10000 3.6 20 09:28 10.04.2021
476 Clouds 9 1027 61 10000 5.14 40 08:49 10.04.2021
477 Clear 8 1027 71 10000 3.09 10 08:29 10.04.2021
478 Clear 7 1027 81 10000 2.57 360 07:50 10.04.2021
479 Clear 5 1027 87 10000 2.06 360 07:21 10.04.2021
480 Clear 2 1027 93 10000 2.06 330 06:26 10.04.2021
481 Clear 2 1027 80 10000 3.09 350 04:40 10.04.2021
482 Clear 3 1027 87 10000 3.09 350 02:53 10.04.2021
483 Clear 3 1027 87 10000 3.09 350 02:34 10.04.2021
484 Clear 3 1028 81 10000 3.09 350 00:45 10.04.2021
485 Clear 4 1028 81 10000 3.09 350 00:26 10.04.2021
486 Clear 4 1028 81 10000 3.09 350 23:42 09.04.2021
487 Clear 5 1028 65 10000 3.09 30 22:59 09.04.2021
488 Clear 5 1028 65 10000 3.09 30 22:38 09.04.2021
489 Clear 6 1028 57 10000 4.12 60 22:38 09.04.2021
490 Clear 5 1028 57 10000 4.12 50 21:59 09.04.2021
491 Clear 5 1028 57 10000 4.12 50 21:38 09.04.2021
492 Clear 5 1028 57 10000 3.6 40 21:19 09.04.2021
493 Clear 5 1028 57 10000 3.6 40 21:19 09.04.2021
494 Clear 5 1028 57 10000 4.12 50 20:43 09.04.2021
495 Clear 6 1028 53 10000 5.14 50 20:23 09.04.2021
496 Clouds 6 1028 57 10000 5.14 60 19:56 09.04.2021
497 Clouds 6 1028 57 10000 5.14 60 19:37 09.04.2021
498 Clouds 6 1027 53 10000 7.2 50 19:19 09.04.2021
499 Clouds 7 1027 49 10000 7.2 40 18:41 09.04.2021
500 Clouds 7 1027 46 10000 6.69 30 18:19 09.04.2021
501 Clouds 7 1027 40 10000 7.72 20 17:40 09.04.2021
502 Clouds 8 1027 40 10000 9.77 30 16:56 09.04.2021
503 Clouds 9 1027 40 10000 9.77 30 16:36 09.04.2021
504 Clouds 9 1027 62 10000 5.14 10 15:57 09.04.2021
505 Clouds 9 1027 62 10000 5.14 10 15:37 09.04.2021
506 Clouds 8 1027 65 10000 9.77 340 15:18 09.04.2021
507 Clouds 9 1027 66 6000 9.26 10 14:40 09.04.2021
508 Rain 10 1027 50 10000 8.23 20 13:53 09.04.2021
509 Rain 10 1027 46 10000 8.23 20 13:26 09.04.2021
510 Rain 10 1026 46 10000 9.26 20 12:54 09.04.2021
511 Clouds 10 1026 50 10000 6.69 20 12:36 09.04.2021
512 Clouds 10 1027 57 10000 5.66 20 11:46 09.04.2021
513 Clouds 9 1027 61 10000 3.09 130 11:22 09.04.2021
514 Rain 8 1027 70 10000 1.03 200 10:47 09.04.2021
515 Clouds 8 1027 76 10000 1.54 0 10:29 09.04.2021
516 Clouds 7 1026 71 10000 2.57 120 09:49 09.04.2021
517 Clouds 7 1026 81 10000 4.12 150 09:22 09.04.2021
518 Clouds 7 1026 81 10000 3.6 230 08:51 09.04.2021
519 Clouds 6 1026 81 10000 0.51 0 07:38 09.04.2021
520 Clouds 4 1025 87 10000 2.33 4 06:34 09.04.2021
521 Clouds 4 1025 87 10000 2.33 4 05:56 09.04.2021
522 Clouds 4 1025 81 10000 1.54 100 03:53 09.04.2021
523 Rain 5 1024 81 10000 3.6 360 01:35 09.04.2021
524 Rain 5 1024 70 10000 4.63 350 00:37 09.04.2021
525 Clouds 4 1024 70 10000 3.09 20 00:19 09.04.2021
526 Clouds 5 1023 65 10000 5.66 50 23:21 08.04.2021
527 Rain 5 1023 65 10000 5.66 50 22:43 08.04.2021
528 Rain 5 1023 65 10000 6.17 40 22:22 08.04.2021
529 Rain 4 1023 75 8000 6.69 40 21:55 08.04.2021
530 Rain 4 1023 75 8000 6.69 40 21:36 08.04.2021
531 Rain 4 1023 81 8000 7.72 30 21:18 08.04.2021
532 Rain 4 1023 81 8000 7.72 30 20:47 08.04.2021
533 Rain 4 1022 87 8000 9.26 30 20:25 08.04.2021
534 Rain 4 1022 87 6000 7.72 30 19:42 08.04.2021
535 Rain 4 1021 87 7000 9.26 20 19:19 08.04.2021
536 Rain 5 1021 87 8000 7.2 20 18:45 08.04.2021
537 Rain 5 1020 87 8000 7.2 30 18:20 08.04.2021
538 Rain 5 1020 87 8000 7.72 30 17:49 08.04.2021
539 Clouds 5 1019 87 8000 6.69 40 17:24 08.04.2021
540 Rain 6 1019 87 8000 7.2 50 16:49 08.04.2021
541 Rain 6 1019 81 8000 7.2 50 16:28 08.04.2021
542 Rain 6 1019 87 7000 6.17 60 15:47 08.04.2021
543 Rain 6 1018 81 10000 7.2 50 15:28 08.04.2021
544 Rain 6 1018 81 7000 4.77 40 14:45 08.04.2021
545 Rain 7 1018 81 10000 7.2 40 14:25 08.04.2021
546 Rain 7 1018 87 8000 7.2 40 13:56 08.04.2021
547 Rain 7 1018 87 8000 7.2 40 13:38 08.04.2021
548 Rain 7 1018 87 8000 7.2 40 13:38 08.04.2021
549 Rain 7 1018 87 10000 6.69 50 13:19 08.04.2021
550 Rain 6 1018 87 7000 6.17 30 12:38 08.04.2021
551 Rain 6 1018 87 6000 6.69 30 12:18 08.04.2021
552 Rain 6 1018 87 6000 7.2 30 11:42 08.04.2021
553 Rain 6 1017 87 7000 6.17 30 10:58 08.04.2021
554 Rain 5 1017 87 6000 7.72 20 10:32 08.04.2021
555 Rain 5 1016 87 6000 8.23 20 09:59 08.04.2021
556 Rain 5 1016 87 6000 8.23 20 09:40 08.04.2021
557 Rain 5 1016 93 2600 7.72 20 08:45 08.04.2021
558 Rain 5 1015 93 2800 7.72 30 08:27 08.04.2021
559 Rain 5 1015 93 7000 9.26 20 07:57 08.04.2021
560 Rain 5 1015 93 10000 8.75 20 07:27 08.04.2021
561 Clouds 7 1013 81 10000 7.72 20 03:31 08.04.2021
562 Clouds 8 1013 76 10000 8.75 50 00:54 08.04.2021
563 Clouds 9 1013 76 10000 8.23 50 23:57 07.04.2021
564 Clouds 9 1013 76 10000 8.23 50 23:38 07.04.2021
565 Clouds 9 1013 76 10000 8.75 60 23:19 07.04.2021
566 Clouds 9 1013 76 10000 9.26 50 22:43 07.04.2021
567 Clouds 9 1012 76 10000 9.26 50 22:25 07.04.2021
568 Clouds 9 1013 76 10000 8.23 40 21:44 07.04.2021
569 Clouds 9 1012 76 10000 8.23 40 21:22 07.04.2021
570 Clouds 9 1012 76 10000 8.23 30 20:43 07.04.2021
571 Clouds 9 1011 76 10000 8.23 20 20:21 07.04.2021
572 Clouds 9 1010 76 10000 9.77 20 19:43 07.04.2021
573 Clouds 11 1010 71 10000 7.2 10 19:24 07.04.2021
574 Clear 13 1009 67 10000 7.2 10 18:47 07.04.2021
575 Clear 17 1008 55 10000 6.69 320 18:19 07.04.2021
576 Clear 18 1008 48 10000 7.2 280 17:54 07.04.2021
577 Clear 19 1007 45 10000 8.23 280 17:36 07.04.2021
578 Clear 20 1007 45 10000 6.17 280 16:49 07.04.2021
579 Clear 19 1007 48 10000 6.69 270 16:23 07.04.2021
580 Clear 19 1007 52 10000 6.17 280 15:57 07.04.2021
581 Clear 19 1007 52 10000 6.17 280 15:38 07.04.2021
582 Clear 19 1007 52 10000 6.17 280 15:38 07.04.2021
583 Clear 18 1007 55 10000 5.14 270 14:56 07.04.2021
584 Clear 19 1007 55 10000 6.69 260 14:29 07.04.2021
585 Clouds 18 1007 63 10000 4.12 240 13:49 07.04.2021
586 Clouds 18 1007 67 10000 4.63 260 13:23 07.04.2021
587 Clouds 18 1007 72 10000 5.14 260 12:50 07.04.2021
588 Clouds 17 1006 72 10000 4.12 230 12:24 07.04.2021
589 Clouds 18 1006 72 10000 3.6 220 11:54 07.04.2021
590 Clouds 17 1006 72 10000 5.14 220 11:26 07.04.2021
591 Clouds 17 1006 77 10000 6.17 220 10:52 07.04.2021
592 Clouds 16 1006 82 10000 4.12 210 10:19 07.04.2021
593 Clouds 15 1006 82 10000 2.57 230 09:40 07.04.2021
594 Clouds 15 1006 82 10000 3.09 250 09:21 07.04.2021
595 Clouds 14 1005 82 10000 6.17 280 08:34 07.04.2021
596 Clouds 14 1005 88 10000 5.14 270 07:59 07.04.2021
597 Clouds 13 1005 88 10000 5.14 270 07:37 07.04.2021
598 Clouds 14 1005 88 10000 5.14 270 07:19 07.04.2021
599 Clouds 13 1005 94 10000 3.6 270 06:22 07.04.2021
600 Clouds 13 1004 94 10000 3.6 280 04:22 07.04.2021
601 Clouds 15 1002 77 10000 5.14 260 00:19 07.04.2021
602 Clouds 15 1002 82 10000 4.63 220 23:42 06.04.2021
603 Clear 13 1002 76 10000 2.57 220 23:18 06.04.2021
604 Clear 14 1002 93 10000 0.51 0 22:38 06.04.2021
605 Clear 14 1002 93 10000 0.51 0 22:18 06.04.2021
606 Clear 12 1002 87 10000 2.06 200 21:40 06.04.2021
607 Clear 12 1002 94 10000 2.57 250 21:21 06.04.2021
608 Clear 14 1002 82 10000 1.54 230 20:52 06.04.2021
609 Clear 16 1001 77 10000 4.63 270 20:22 06.04.2021
610 Clear 17 1000 77 10000 3.09 350 19:52 06.04.2021
611 Clear 17 1000 67 10000 2.06 260 19:33 06.04.2021
612 Clear 17 1001 77 10000 4.63 270 18:51 06.04.2021
613 Clear 18 1001 72 10000 3.09 280 18:32 06.04.2021
614 Clear 18 1001 67 10000 1.54 220 17:54 06.04.2021
615 Clear 18 1001 67 10000 1.54 220 17:36 06.04.2021
616 Clear 21 1001 46 10000 1.03 0 17:18 06.04.2021
617 Clear 20 1001 49 10000 2.57 80 16:40 06.04.2021
618 Rain 19 1003 48 10000 1.54 90 15:46 06.04.2021
619 Rain 18 1004 63 10000 0.51 0 15:22 06.04.2021
620 Clouds 17 1005 63 10000 0.51 0 14:40 06.04.2021
621 Rain 18 1005 59 10000 1.54 250 14:20 06.04.2021
622 Rain 19 1005 55 10000 1.54 0 13:46 06.04.2021
623 Clear 20 1006 63 10000 1.54 100 13:25 06.04.2021
624 Clear 18 1006 72 10000 2.06 140 12:42 06.04.2021
625 Clear 17 1007 72 10000 2.06 80 12:22 06.04.2021
626 Clear 17 1007 72 10000 2.06 150 11:52 06.04.2021
627 Clear 16 1008 72 10000 1.03 0 11:22 06.04.2021
628 Clouds 16 1008 77 9000 1.54 160 10:51 06.04.2021
629 Clouds 14 1009 76 7000 0.86 149 10:32 06.04.2021
630 Clouds 12 1009 82 7000 0.51 0 09:58 06.04.2021
631 Clouds 12 1009 82 7000 0.51 0 09:38 06.04.2021
632 Clouds 11 1009 87 6000 1.54 110 08:45 06.04.2021
633 Clouds 10 1010 93 6000 1.03 0 08:19 06.04.2021
634 Mist 9 1011 93 4000 0.51 0 06:56 06.04.2021
635 Clouds 9 1011 100 7000 0.51 120 06:23 06.04.2021
636 Rain 8 1011 93 10000 1.03 0 03:43 06.04.2021
637 Clouds 8 1013 93 10000 1.43 54 00:47 06.04.2021
638 Clouds 8 1014 93 10000 1.03 80 00:21 06.04.2021
639 Clouds 9 1014 87 10000 1.03 120 23:48 05.04.2021
640 Rain 9 1014 87 10000 1.03 120 23:24 05.04.2021
641 Clouds 8 1014 87 10000 1.03 0 22:53 05.04.2021
642 Clouds 8 1014 87 10000 1.03 90 22:32 05.04.2021
643 Clouds 8 1015 87 10000 1.03 90 21:45 05.04.2021
644 Clouds 8 1015 87 10000 1.03 100 21:23 05.04.2021
645 Clouds 8 1015 87 10000 2.06 110 20:48 05.04.2021
646 Clouds 8 1015 87 10000 2.06 110 20:30 05.04.2021
647 Clouds 8 1015 81 10000 2.57 100 19:44 05.04.2021
648 Clouds 8 1016 81 10000 1.54 100 19:25 05.04.2021
649 Clouds 8 1016 81 10000 2.06 110 18:55 05.04.2021
650 Clouds 8 1016 81 10000 3.09 100 18:37 05.04.2021
651 Clouds 8 1016 81 10000 3.09 100 18:18 05.04.2021
652 Clouds 8 1017 87 10000 3.6 110 17:45 05.04.2021
653 Clouds 8 1017 87 10000 3.09 110 17:21 05.04.2021
654 Clouds 9 1017 76 10000 2.06 90 16:44 05.04.2021
655 Clouds 9 1017 76 10000 2.06 90 16:21 05.04.2021
656 Clouds 9 1017 76 10000 1.03 0 15:54 05.04.2021
657 Clouds 9 1017 81 10000 2.57 20 15:30 05.04.2021
658 Clouds 8 1017 81 10000 2.57 10 14:54 05.04.2021
659 Clouds 8 1017 81 10000 2.57 10 14:35 05.04.2021
660 Clouds 8 1017 87 10000 3.6 360 13:32 05.04.2021
661 Rain 8 1016 87 10000 3.09 10 12:57 05.04.2021
662 Rain 8 1016 87 10000 5.14 10 12:37 05.04.2021
663 Rain 8 1016 87 10000 5.14 10 12:19 05.04.2021
664 Clouds 8 1016 87 10000 3.6 20 11:42 05.04.2021
665 Clouds 8 1015 87 10000 5.14 10 11:22 05.04.2021
666 Clouds 8 1015 87 10000 4.63 30 10:45 05.04.2021
667 Clouds 8 1015 87 10000 5.14 30 10:26 05.04.2021
668 Mist 8 1015 87 4500 4.63 30 09:47 05.04.2021
669 Clouds 7 1015 87 10000 3.6 30 09:23 05.04.2021
670 Clouds 7 1014 87 10000 3.6 20 08:45 05.04.2021
671 Clouds 7 1014 87 8000 5.66 20 08:25 05.04.2021
672 Rain 7 1013 93 7000 5.66 20 07:36 05.04.2021
673 Rain 7 1012 93 7000 5.66 20 06:20 05.04.2021
674 Clouds 8 1010 87 8000 6.69 30 01:41 05.04.2021
675 Clouds 9 1010 87 10000 6.17 40 00:49 05.04.2021
676 Clouds 9 1010 87 10000 7.72 50 23:51 04.04.2021
677 Clouds 9 1010 87 10000 7.2 50 23:24 04.04.2021
678 Clouds 9 1011 87 10000 7.2 40 22:52 04.04.2021
679 Clouds 9 1011 93 10000 6.69 40 22:30 04.04.2021
680 Clouds 9 1011 93 10000 8.23 30 21:28 04.04.2021
681 Clouds 9 1010 87 10000 8.23 30 20:58 04.04.2021
682 Clouds 9 1010 87 10000 7.2 40 20:30 04.04.2021
683 Clouds 9 1010 87 10000 7.72 40 19:58 04.04.2021
684 Clouds 9 1010 87 10000 7.72 40 19:37 04.04.2021
685 Clouds 9 1010 93 10000 7.2 40 19:18 04.04.2021
686 Clouds 9 1011 93 10000 7.72 40 18:44 04.04.2021
687 Clouds 9 1011 93 10000 6.69 30 18:21 04.04.2021
688 Clouds 10 1011 87 10000 7.72 40 17:44 04.04.2021
689 Clouds 10 1012 81 10000 7.2 30 17:23 04.04.2021
690 Clouds 10 1012 87 10000 7.72 40 16:44 04.04.2021
691 Clouds 10 1013 87 10000 8.23 40 16:19 04.04.2021
692 Clouds 12 1014 76 10000 6.17 40 15:34 04.04.2021
693 Clouds 12 1014 76 10000 7.2 40 14:46 04.04.2021
694 Clouds 12 1015 76 10000 6.69 30 14:27 04.04.2021
695 Clouds 11 1014 82 10000 6.69 10 13:50 04.04.2021
696 Rain 11 1015 82 10000 6.69 10 13:24 04.04.2021
697 Rain 12 1015 87 10000 6.69 10 12:43 04.04.2021
698 Clouds 12 1015 82 10000 7.2 10 12:24 04.04.2021
699 Clouds 12 1014 87 10000 7.2 360 11:42 04.04.2021
700 Clouds 12 1015 93 10000 8.75 360 11:23 04.04.2021
701 Rain 12 1014 82 10000 6.17 330 10:45 04.04.2021
702 Clouds 13 1013 72 10000 1.03 0 09:55 04.04.2021
703 Clouds 13 1013 71 10000 2.57 210 09:26 04.04.2021
704 Clouds 13 1013 82 10000 3.09 190 08:53 04.04.2021
705 Clouds 13 1013 82 10000 3.09 190 08:35 04.04.2021
706 Rain 13 1013 82 10000 4.63 230 07:55 04.04.2021
707 Rain 14 1013 71 10000 7.2 220 06:38 04.04.2021
708 Rain 13 1013 71 10000 4.63 240 05:33 04.04.2021
709 Clear 14 1013 72 10000 5.14 230 01:29 04.04.2021
710 Clear 15 1013 72 10000 3.6 230 00:22 04.04.2021
711 Clear 15 1013 72 10000 5.66 210 23:50 03.04.2021
712 Clear 15 1013 77 10000 3.6 260 23:31 03.04.2021
713 Clear 15 1013 77 10000 4.12 240 22:52 03.04.2021
714 Clear 15 1013 77 10000 5.66 240 22:22 03.04.2021
715 Clear 15 1012 72 10000 4.63 240 21:52 03.04.2021
716 Clear 14 1012 67 10000 0.51 0 21:25 03.04.2021
717 Clear 14 1012 71 10000 2.47 184 20:54 03.04.2021
718 Clear 15 1012 63 10000 0.51 0 20:28 03.04.2021
719 Clear 15 1012 63 10000 0.51 0 19:51 03.04.2021
720 Clear 16 1012 63 10000 1.03 230 19:28 03.04.2021
721 Clear 17 1012 59 10000 2.57 210 18:53 03.04.2021
722 Clear 18 1012 52 10000 2.06 190 18:34 03.04.2021
723 Clear 17 1012 59 10000 2.57 210 18:34 03.04.2021
724 Clear 18 1012 52 10000 2.06 180 17:55 03.04.2021
725 Clear 19 1012 48 10000 2.06 210 17:26 03.04.2021
726 Clear 19 1012 52 10000 1.54 210 16:54 03.04.2021
727 Clear 19 1012 48 10000 2.06 230 16:25 03.04.2021
728 Clear 19 1013 48 10000 2.57 240 15:52 03.04.2021
729 Clear 19 1013 48 10000 3.09 240 15:31 03.04.2021
730 Clear 18 1013 52 10000 2.57 240 14:49 03.04.2021
731 Clear 18 1013 52 10000 3.09 240 14:26 03.04.2021
732 Clear 18 1014 51 10000 2.57 240 13:55 03.04.2021
733 Clear 17 1014 55 10000 3.6 230 13:35 03.04.2021
734 Clear 17 1014 55 10000 4.12 230 12:59 03.04.2021
735 Clear 16 1014 58 10000 4.12 240 12:33 03.04.2021
736 Clear 17 1014 58 10000 3.6 250 11:44 03.04.2021
737 Clouds 16 1014 58 10000 3.6 240 11:26 03.04.2021
738 Clouds 15 1014 62 10000 3.6 240 10:45 03.04.2021
739 Clouds 15 1014 62 10000 3.09 240 10:26 03.04.2021
740 Clouds 13 1014 67 10000 3.6 260 09:39 03.04.2021
741 Clouds 13 1014 67 10000 3.6 260 09:21 03.04.2021
742 Clouds 13 1014 71 10000 3.6 260 08:35 03.04.2021
743 Clouds 12 1014 71 10000 3.09 270 07:47 03.04.2021
744 Clouds 12 1013 71 10000 3.09 260 07:26 03.04.2021
745 Clouds 12 1013 71 10000 4.63 250 04:24 03.04.2021
746 Clouds 11 1013 82 10000 3.6 280 02:56 03.04.2021
747 Clouds 12 1013 82 10000 3.6 250 02:31 03.04.2021
748 Clouds 12 1013 76 10000 3.6 260 00:45 03.04.2021
749 Rain 12 1013 82 10000 3.09 250 00:18 03.04.2021
750 Clouds 12 1013 82 10000 3.6 240 23:44 02.04.2021
751 Clouds 12 1013 82 10000 3.6 240 23:44 02.04.2021
752 Clear 12 1013 76 10000 4.12 260 23:18 02.04.2021
753 Clear 12 1013 76 10000 4.12 260 22:44 02.04.2021
754 Clear 12 1013 76 10000 4.12 280 22:25 02.04.2021
755 Clear 12 1013 76 10000 3.09 270 21:41 02.04.2021
756 Clear 12 1013 76 10000 2.06 290 21:19 02.04.2021
757 Clear 12 1013 66 10000 3.6 240 20:42 02.04.2021
758 Clear 12 1013 66 10000 3.6 230 20:21 02.04.2021
759 Clear 11 1013 76 10000 3.09 240 19:42 02.04.2021
760 Clear 11 1013 71 10000 2.06 250 19:23 02.04.2021
761 Clear 11 1013 81 10000 2.06 190 18:48 02.04.2021
762 Clear 12 1013 76 10000 2.06 220 18:30 02.04.2021
763 Clear 13 1013 66 10000 2.06 220 17:56 02.04.2021
764 Clear 13 1013 58 10000 2.06 220 17:30 02.04.2021
765 Clear 13 1014 62 10000 2.06 230 16:35 02.04.2021
766 Clear 13 1014 50 10000 3.09 240 15:46 02.04.2021
767 Clear 12 1014 62 10000 3.09 240 15:22 02.04.2021
768 Clear 12 1015 66 10000 3.09 230 14:33 02.04.2021
769 Clear 11 1015 66 10000 3.6 200 13:50 02.04.2021
770 Clear 11 1015 71 10000 4.12 220 13:28 02.04.2021
771 Clear 11 1016 71 10000 5.14 230 12:58 02.04.2021
772 Clear 11 1016 66 10000 5.14 240 12:36 02.04.2021
773 Clear 11 1016 66 10000 5.14 240 12:18 02.04.2021
774 Clear 11 1016 71 10000 5.14 250 11:44 02.04.2021
775 Clear 10 1016 71 10000 4.63 250 11:18 02.04.2021
776 Clouds 10 1016 71 10000 3.09 240 10:42 02.04.2021
777 Clouds 10 1016 71 10000 4.63 0 10:21 02.04.2021
778 Clouds 10 1017 71 10000 5.14 240 09:39 02.04.2021
779 Clouds 9 1017 76 10000 4.12 240 09:21 02.04.2021
780 Clouds 9 1017 76 10000 4.12 240 09:21 02.04.2021
781 Clouds 9 1016 76 10000 4.63 240 08:45 02.04.2021
782 Clouds 8 1016 76 10000 4.12 240 08:25 02.04.2021
783 Clouds 7 1016 87 6000 3.09 250 07:20 02.04.2021
784 Mist 6 1016 93 4000 1.54 260 06:34 02.04.2021
785 Clear 6 1016 93 10000 1.31 227 03:25 02.04.2021
786 Clear 6 1017 87 10000 0.35 10 01:37 02.04.2021
787 Clear 6 1017 87 10000 0.37 12 00:41 02.04.2021
788 Clear 6 1018 76 10000 1.54 90 23:44 01.04.2021
789 Clear 6 1018 76 10000 1.03 70 23:26 01.04.2021
790 Clouds 7 1018 66 10000 2.57 70 22:22 01.04.2021
791 Clouds 7 1018 71 10000 2.06 90 21:59 01.04.2021
792 Clouds 7 1018 71 10000 2.57 60 21:41 01.04.2021
793 Clouds 7 1018 71 10000 2.57 60 21:22 01.04.2021
794 Clouds 8 1018 71 10000 3.09 20 20:40 01.04.2021
795 Clouds 8 1018 71 10000 3.09 20 20:21 01.04.2021
796 Clouds 7 1018 71 10000 4.12 360 19:41 01.04.2021
797 Clouds 7 1018 66 10000 4.12 360 19:18 01.04.2021
798 Clouds 8 1018 66 10000 5.66 350 18:43 01.04.2021
799 Clouds 9 1018 61 10000 5.14 360 18:18 01.04.2021
800 Clouds 9 1018 57 10000 4.12 20 17:39 01.04.2021
801 Clouds 9 1018 53 10000 3.6 20 17:21 01.04.2021
802 Clouds 9 1018 53 10000 3.6 30 16:47 01.04.2021
803 Clouds 9 1018 53 10000 4.63 20 16:18 01.04.2021
804 Clouds 10 1018 57 10000 5.66 10 15:39 01.04.2021
805 Clouds 10 1018 54 10000 4.63 20 15:19 01.04.2021
806 Clouds 10 1018 57 10000 4.63 360 14:39 01.04.2021
807 Clouds 10 1018 57 10000 5.14 30 14:20 01.04.2021
808 Clouds 10 1019 57 10000 5.66 10 13:48 01.04.2021
809 Clouds 10 1019 57 10000 6.17 40 13:27 01.04.2021
810 Clouds 9 1019 53 10000 7.2 30 12:47 01.04.2021
811 Clouds 10 1019 53 10000 7.2 30 12:28 01.04.2021
812 Clouds 10 1019 53 10000 6.69 20 11:45 01.04.2021
813 Clouds 10 1019 57 10000 7.2 60 11:19 01.04.2021
814 Clouds 9 1019 61 10000 7.2 50 10:47 01.04.2021
815 Clouds 9 1019 57 10000 6.17 30 10:29 01.04.2021
816 Clouds 9 1018 57 10000 8.23 50 09:41 01.04.2021
817 Clouds 8 1018 66 10000 7.72 30 09:22 01.04.2021
818 Clouds 7 1018 70 10000 8.23 30 08:33 01.04.2021
819 Clouds 6 1018 70 10000 5.66 30 07:24 01.04.2021
820 Clouds 6 1018 70 10000 5.14 20 06:58 01.04.2021
821 Clouds 6 1018 70 10000 5.14 20 06:27 01.04.2021
822 Clouds 5 1019 75 10000 3.6 40 03:26 01.04.2021
823 Clouds 5 1020 70 10000 4.63 60 00:28 01.04.2021
824 Clouds 5 1020 70 10000 4.63 60 23:44 31.03.2021
825 Clouds 5 1021 70 10000 4.12 60 22:56 31.03.2021
826 Clouds 6 1021 65 10000 5.14 60 22:38 31.03.2021
827 Clouds 6 1021 65 10000 5.14 60 22:19 31.03.2021
828 Clouds 7 1022 70 10000 5.14 60 21:44 31.03.2021
829 Clouds 7 1022 70 10000 6.17 60 21:20 31.03.2021
830 Clouds 7 1022 70 10000 6.17 60 21:20 31.03.2021
831 Clouds 7 1022 70 10000 5.66 50 20:42 31.03.2021
832 Clouds 7 1022 76 10000 6.69 50 20:22 31.03.2021
833 Clouds 7 1022 70 10000 7.2 50 19:46 31.03.2021
834 Clouds 7 1022 66 10000 9.26 40 19:25 31.03.2021
835 Clouds 7 1022 66 10000 9.77 60 18:58 31.03.2021
836 Clouds 7 1022 66 10000 9.77 60 18:40 31.03.2021
837 Clouds 8 1022 71 10000 9.77 50 17:51 31.03.2021
838 Clouds 9 1022 66 10000 9.77 60 17:31 31.03.2021
839 Clouds 9 1022 62 10000 9.77 50 16:56 31.03.2021
840 Clouds 9 1022 62 10000 9.77 50 16:37 31.03.2021
841 Clouds 9 1022 62 10000 11.32 50 16:18 31.03.2021
842 Clouds 8 1022 61 10000 11.83 50 15:43 31.03.2021
843 Clouds 9 1022 53 10000 12.35 50 15:19 31.03.2021
844 Rain 9 1022 57 10000 11.32 50 14:42 31.03.2021
845 Rain 9 1022 57 10000 11.32 50 14:42 31.03.2021
846 Clouds 9 1023 57 10000 11.32 60 14:20 31.03.2021
847 Clouds 9 1023 62 10000 11.32 60 13:40 31.03.2021
848 Clouds 9 1023 71 10000 10.8 50 12:42 31.03.2021
849 Clouds 10 1023 66 10000 10.29 50 12:20 31.03.2021
850 Rain 9 1023 66 10000 11.32 50 11:47 31.03.2021
851 Clouds 9 1023 66 10000 10.8 50 11:20 31.03.2021
852 Clouds 9 1023 71 10000 10.29 60 10:46 31.03.2021
853 Clouds 9 1023 71 10000 8.23 50 10:24 31.03.2021
854 Clouds 10 1023 71 10000 9.26 50 09:38 31.03.2021
855 Clouds 9 1023 71 10000 7.72 50 08:55 31.03.2021
856 Clouds 8 1023 76 10000 8.23 60 08:33 31.03.2021
857 Clouds 7 1023 76 10000 9.26 60 07:49 31.03.2021
858 Clouds 7 1023 76 10000 6.69 50 06:38 31.03.2021
859 Clouds 6 1023 81 10000 5.14 40 03:46 31.03.2021
860 Clouds 6 1024 81 10000 5.14 50 01:38 31.03.2021
861 Clouds 6 1024 81 10000 4.63 40 00:48 31.03.2021
862 Clouds 6 1024 81 10000 4.63 60 00:19 31.03.2021
863 Clouds 6 1024 81 10000 5.66 40 23:33 30.03.2021
864 Clouds 6 1024 81 10000 6.17 40 22:58 30.03.2021
865 Clouds 6 1024 81 10000 6.17 40 22:39 30.03.2021
866 Clouds 6 1024 81 10000 5.14 60 22:21 30.03.2021
867 Clouds 6 1024 87 10000 5.66 40 21:46 30.03.2021
868 Clouds 6 1024 87 10000 5.66 50 21:19 30.03.2021
869 Clouds 7 1024 76 10000 5.14 30 20:51 30.03.2021
870 Rain 7 1024 76 10000 6.17 30 20:28 30.03.2021
871 Clouds 7 1024 76 10000 5.66 30 19:50 30.03.2021
872 Clouds 7 1024 71 10000 5.66 50 19:27 30.03.2021
873 Clouds 7 1025 71 10000 4.63 40 18:38 30.03.2021
874 Clouds 8 1024 66 10000 7.72 30 17:52 30.03.2021
875 Clouds 8 1024 66 10000 7.2 40 17:34 30.03.2021
876 Clouds 8 1024 66 10000 8.23 50 16:48 30.03.2021
877 Clouds 9 1025 71 10000 7.72 30 16:29 30.03.2021
878 Clouds 9 1025 71 10000 7.72 40 15:43 30.03.2021
879 Clouds 9 1025 76 10000 7.2 30 15:20 30.03.2021
880 Clouds 8 1025 81 10000 8.23 60 14:55 30.03.2021
881 Clouds 8 1025 87 10000 8.75 50 14:22 30.03.2021
882 Clouds 9 1025 76 10000 9.26 40 13:57 30.03.2021
883 Clouds 9 1025 76 10000 8.75 30 13:36 30.03.2021
884 Clouds 7 1025 81 10000 7.72 20 12:45 30.03.2021
885 Clouds 8 1025 76 10000 7.72 20 12:27 30.03.2021
886 Clouds 8 1025 76 10000 6.69 20 11:52 30.03.2021
887 Clouds 7 1026 81 10000 6.17 40 11:22 30.03.2021
888 Clouds 7 1026 81 10000 4.12 10 10:43 30.03.2021
889 Rain 6 1026 93 10000 3.6 310 10:20 30.03.2021
890 Rain 6 1026 87 10000 3.09 360 09:43 30.03.2021
891 Rain 5 1026 93 10000 4.12 20 09:25 30.03.2021
892 Rain 6 1026 81 8000 4.12 310 08:53 30.03.2021
893 Rain 6 1026 81 10000 3.6 310 08:35 30.03.2021
894 Rain 6 1026 81 10000 4.63 350 07:50 30.03.2021
895 Clouds 6 1026 65 10000 6.17 350 07:21 30.03.2021
896 Clear 6 1027 61 10000 2.06 340 05:25 30.03.2021
897 Clear 5 1026 75 10000 2.57 340 04:45 30.03.2021
898 Clear 7 1028 53 10000 1.03 60 00:26 30.03.2021
899 Clear 8 1029 43 10000 2.06 60 23:31 29.03.2021
900 Clear 8 1029 46 10000 1.54 80 22:44 29.03.2021
901 Clear 8 1029 46 10000 2.06 80 22:18 29.03.2021
902 Clear 8 1029 46 10000 2.57 100 21:43 29.03.2021
903 Clear 8 1029 46 10000 2.06 100 21:22 29.03.2021
904 Clear 8 1029 46 10000 3.09 110 20:44 29.03.2021
905 Clear 8 1029 46 10000 2.57 100 20:26 29.03.2021
906 Clear 8 1029 46 10000 3.6 90 19:46 29.03.2021
907 Clear 8 1029 46 10000 4.63 100 19:20 29.03.2021
908 Clear 9 1029 43 10000 4.63 80 18:40 29.03.2021
909 Clear 11 1029 37 10000 5.66 70 18:21 29.03.2021
910 Clear 11 1029 32 10000 5.66 70 17:45 29.03.2021
911 Clear 12 1029 40 10000 4.63 70 16:59 29.03.2021
912 Clear 12 1029 40 10000 4.63 70 16:36 29.03.2021
913 Clear 12 1030 40 10000 5.66 60 15:57 29.03.2021
914 Clear 13 1030 41 10000 6.17 80 15:34 29.03.2021
915 Clear 13 1030 50 10000 4.63 70 14:56 29.03.2021
916 Clear 13 1030 47 10000 4.12 80 14:34 29.03.2021
917 Clear 12 1031 54 10000 3.6 80 13:52 29.03.2021
918 Clear 12 1031 54 10000 4.12 30 13:26 29.03.2021
919 Clear 11 1031 50 10000 5.14 50 12:50 29.03.2021
920 Clear 11 1031 58 10000 5.14 30 12:29 29.03.2021
921 Clouds 11 1031 62 10000 5.14 50 11:41 29.03.2021
922 Clouds 12 1032 54 10000 5.14 30 11:22 29.03.2021
923 Clouds 11 1031 58 10000 4.63 50 10:38 29.03.2021
924 Clouds 10 1031 71 10000 5.14 40 09:48 29.03.2021
925 Rain 9 1031 76 10000 4.12 30 08:59 29.03.2021
926 Rain 9 1031 76 10000 5.66 30 08:28 29.03.2021
927 Clouds 9 1030 81 10000 5.66 20 07:41 29.03.2021
928 Clouds 8 1030 81 10000 3.6 20 06:42 29.03.2021
929 Clear 10 1028 87 10000 2.06 270 03:59 29.03.2021
930 Clear 10 1028 81 10000 1.03 0 01:58 29.03.2021
931 Clear 10 1028 71 10000 3.09 250 00:23 29.03.2021
932 Clear 10 1028 71 10000 2.06 280 23:50 28.03.2021
933 Clear 10 1028 81 10000 1.03 270 23:19 28.03.2021
934 Clear 10 1028 81 10000 2.18 220 22:41 28.03.2021
935 Clear 10 1028 81 10000 2.06 214 22:21 28.03.2021
936 Clear 10 1028 81 10000 0.51 150 21:42 28.03.2021
937 Clear 10 1028 71 10000 0.51 160 21:23 28.03.2021
938 Clear 10 1028 71 10000 0.51 130 20:50 28.03.2021
939 Clear 10 1028 62 10000 1.82 208 20:32 28.03.2021
940 Clear 11 1027 58 10000 1.79 208 19:46 28.03.2021
941 Clear 11 1027 54 10000 1.98 209 19:23 28.03.2021
942 Clear 12 1027 54 10000 0.51 190 18:58 28.03.2021
943 Clear 12 1027 54 10000 1.54 200 18:32 28.03.2021
944 Clear 13 1027 50 10000 2.06 220 17:55 28.03.2021
945 Clear 14 1028 47 10000 2.57 220 17:32 28.03.2021
946 Clear 14 1028 47 10000 2.57 230 16:46 28.03.2021
947 Clear 14 1028 47 10000 2.57 230 16:46 28.03.2021
948 Clear 14 1028 44 10000 2.57 220 16:23 28.03.2021
949 Clear 14 1028 44 10000 3.09 230 15:43 28.03.2021
950 Clear 14 1028 50 10000 2.57 240 15:22 28.03.2021
951 Clear 14 1029 58 10000 3.09 240 14:37 28.03.2021
952 Clear 14 1029 50 10000 3.09 240 13:49 28.03.2021
953 Clear 13 1029 58 10000 3.09 240 13:24 28.03.2021
954 Clear 13 1030 62 10000 3.6 250 12:52 28.03.2021
955 Clear 12 1030 66 10000 3.6 240 12:33 28.03.2021
956 Clear 12 1030 66 10000 4.12 250 11:46 28.03.2021
957 Clear 12 1030 66 10000 4.12 250 11:26 28.03.2021
958 Clear 12 1030 66 10000 3.09 230 10:45 28.03.2021
959 Clear 12 1030 66 10000 3.09 230 10:26 28.03.2021
960 Clear 11 1030 62 10000 3.09 230 09:47 28.03.2021
961 Clear 11 1030 66 10000 3.09 200 09:25 28.03.2021
962 Clear 11 1030 66 10000 1.54 170 08:46 28.03.2021
963 Clear 8 1029 93 10000 0.51 0 07:51 28.03.2021
964 Clear 7 1029 93 10000 0.51 150 07:19 28.03.2021
965 Clear 5 1029 87 10000 1.31 171 04:18 28.03.2021
966 Clear 6 1029 65 10000 0.95 160 01:25 28.03.2021
967 Clear 6 1029 75 10000 1.29 153 00:21 28.03.2021
968 Clear 6 1029 81 10000 1.29 154 23:43 27.03.2021
969 Clear 7 1029 75 10000 1.03 0 23:19 27.03.2021
970 Clear 6 1029 75 10000 0.51 60 22:37 27.03.2021
971 Clear 7 1029 75 10000 1.03 70 21:59 27.03.2021
972 Clear 7 1029 75 10000 1.03 70 21:38 27.03.2021
973 Clear 8 1029 70 10000 1.03 60 21:19 27.03.2021
974 Clear 8 1029 70 10000 1.03 0 20:38 27.03.2021
975 Clear 8 1029 70 10000 1.03 70 20:20 27.03.2021
976 Clear 8 1029 70 10000 0.51 0 19:42 27.03.2021
977 Clear 8 1029 66 10000 0.97 151 19:23 27.03.2021
978 Clear 9 1029 66 10000 0.51 0 18:49 27.03.2021
979 Clear 9 1028 66 10000 1.03 150 18:28 27.03.2021
980 Clear 10 1028 66 10000 1.03 160 17:56 27.03.2021
981 Clear 10 1028 62 10000 1.03 0 17:26 27.03.2021
982 Clear 11 1028 58 10000 1.54 220 16:51 27.03.2021
983 Clear 11 1028 58 10000 2.06 210 16:51 27.03.2021
984 Clear 11 1028 58 10000 2.06 210 16:30 27.03.2021
985 Clear 12 1028 58 10000 2.06 240 15:54 27.03.2021
986 Clear 12 1028 54 10000 2.57 240 15:27 27.03.2021
987 Clear 11 1029 58 10000 3.09 250 14:50 27.03.2021
988 Clear 11 1029 58 10000 3.09 250 13:56 27.03.2021
989 Clouds 11 1029 66 10000 4.12 220 13:26 27.03.2021
990 Clouds 11 1029 58 10000 4.63 220 12:56 27.03.2021
991 Clouds 11 1029 62 10000 5.14 230 12:27 27.03.2021
992 Clear 11 1029 62 10000 4.63 230 11:46 27.03.2021
993 Clear 10 1029 66 10000 5.66 230 11:25 27.03.2021
994 Clear 10 1030 66 10000 5.66 230 10:45 27.03.2021
995 Clear 10 1029 71 10000 5.14 230 10:24 27.03.2021
996 Clear 9 1029 76 10000 5.14 230 09:29 27.03.2021
997 Clear 10 1029 71 10000 4.63 230 08:48 27.03.2021
998 Clear 9 1029 71 10000 3.6 250 08:30 27.03.2021
999 Clear 9 1028 66 10000 3.6 250 07:35 27.03.2021
1000 Clear 8 1028 66 10000 3.6 260 06:47 27.03.2021
1001 Clear 7 1028 70 10000 3.09 260 06:28 27.03.2021
1002 Clear 6 1027 87 10000 4.12 260 04:40 27.03.2021
1003 Clear 7 1026 71 10000 4.63 240 00:54 27.03.2021
1004 Clear 7 1026 71 10000 5.14 230 00:30 27.03.2021
1005 Clear 7 1026 71 10000 4.63 230 23:54 26.03.2021
1006 Clear 7 1026 66 10000 4.63 230 23:21 26.03.2021
1007 Clear 7 1026 71 10000 4.12 230 22:35 26.03.2021
1008 Clear 7 1026 61 10000 3.09 240 21:37 26.03.2021
1009 Clear 7 1026 61 10000 3.09 240 21:18 26.03.2021
1010 Clear 7 1026 65 10000 3.09 230 20:39 26.03.2021
1011 Clear 7 1026 65 10000 3.09 230 20:20 26.03.2021
1012 Clear 7 1026 65 10000 2.57 230 19:48 26.03.2021
1013 Clear 6 1026 65 10000 2.57 230 19:29 26.03.2021
1014 Clear 7 1025 65 10000 2.57 220 18:44 26.03.2021
1015 Clear 6 1025 61 10000 3.09 230 18:26 26.03.2021
1016 Clouds 7 1025 57 10000 3.09 240 17:47 26.03.2021
1017 Clouds 8 1025 57 10000 2.57 240 16:57 26.03.2021
1018 Rain 8 1025 57 10000 3.6 250 16:33 26.03.2021
1019 Rain 8 1024 57 10000 4.12 250 15:57 26.03.2021
1020 Rain 8 1024 61 10000 4.63 250 15:23 26.03.2021
1021 Rain 8 1024 57 10000 5.14 260 14:33 26.03.2021
1022 Rain 8 1024 46 10000 5.14 320 13:41 26.03.2021
1023 Rain 8 1024 43 10000 3.6 340 12:56 26.03.2021
1024 Clouds 8 1024 66 10000 5.14 260 12:33 26.03.2021
1025 Clouds 8 1024 61 10000 6.17 260 11:38 26.03.2021
1026 Rain 8 1024 61 10000 6.17 260 11:18 26.03.2021
1027 Clouds 7 1024 65 10000 5.14 250 10:41 26.03.2021
1028 Rain 7 1024 61 10000 4.63 270 09:56 26.03.2021
1029 Rain 6 1024 65 10000 4.63 270 09:36 26.03.2021
1030 Clouds 6 1024 61 10000 3.6 280 08:44 26.03.2021
1031 Clouds 5 1023 60 10000 4.12 300 08:23 26.03.2021
1032 Clouds 5 1023 60 10000 4.63 300 07:40 26.03.2021
1033 Clouds 4 1023 60 10000 3.09 290 07:18 26.03.2021
1034 Clouds 4 1023 60 10000 3.6 290 06:53 26.03.2021
1035 Clouds 3 1022 70 10000 2.57 320 05:31 26.03.2021
1036 Clouds 2 1022 75 10000 2.06 290 02:31 26.03.2021
1037 Clouds 3 1022 75 10000 1.54 0 00:32 26.03.2021
1038 Clouds 3 1022 75 10000 1.54 300 23:45 25.03.2021
1039 Clouds 3 1022 81 10000 2.06 280 23:20 25.03.2021
1040 Clouds 3 1022 81 10000 2.06 280 23:20 25.03.2021
1041 Clouds 3 1022 81 10000 1.54 320 22:37 25.03.2021
1042 Clouds 3 1022 81 10000 1.54 310 21:53 25.03.2021
1043 Clouds 3 1022 81 10000 1.54 310 21:34 25.03.2021
1044 Clouds 3 1022 75 10000 2.06 330 20:45 25.03.2021
1045 Clouds 4 1022 75 10000 2.06 340 20:26 25.03.2021
1046 Clouds 4 1022 75 10000 2.06 350 19:49 25.03.2021
1047 Clouds 4 1022 75 10000 2.06 350 19:49 25.03.2021
1048 Clouds 4 1022 75 10000 2.06 350 19:49 25.03.2021
1049 Clouds 4 1022 75 10000 2.06 350 19:49 25.03.2021
1050 Clouds 4 1022 75 10000 2.06 350 19:49 25.03.2021
1051 Clouds 4 1021 75 10000 2.06 20 19:31 25.03.2021
1052 Clouds 4 1021 70 10000 3.09 20 18:51 25.03.2021
1053 Clouds 4 1021 70 10000 3.09 20 18:28 25.03.2021
1054 Clouds 4 1021 65 10000 3.09 10 17:57 25.03.2021
1055 Clouds 4 1021 65 10000 3.09 10 17:37 25.03.2021
1056 Clouds 5 1020 56 10000 5.14 20 16:56 25.03.2021
1057 Clouds 6 1020 56 10000 5.66 360 16:32 25.03.2021
1058 Clouds 7 1020 49 10000 5.14 360 15:46 25.03.2021
1059 Clouds 7 1020 49 10000 4.63 10 15:24 25.03.2021
1060 Clouds 7 1020 53 10000 5.14 10 14:48 25.03.2021
1061 Clouds 7 1019 49 10000 4.63 360 14:29 25.03.2021
1062 Clouds 7 1019 49 10000 6.17 360 13:25 25.03.2021
1063 Clouds 6 1019 53 10000 4.12 20 12:46 25.03.2021
1064 Clouds 6 1019 52 10000 5.14 20 12:22 25.03.2021
1065 Clouds 6 1019 56 10000 5.66 340 11:53 25.03.2021
1066 Clouds 5 1019 56 10000 5.14 350 11:33 25.03.2021
1067 Clouds 5 1019 60 10000 5.66 360 10:58 25.03.2021
1068 Clouds 5 1018 61 10000 5.66 360 10:39 25.03.2021
1069 Clouds 5 1018 61 10000 5.66 360 10:19 25.03.2021
1070 Clouds 4 1018 61 10000 6.69 360 09:43 25.03.2021
1071 Clouds 5 1018 61 10000 6.69 340 09:23 25.03.2021
1072 Clouds 3 1018 75 10000 6.17 340 08:31 25.03.2021
1073 Rain 3 1017 80 10000 5.14 340 07:29 25.03.2021
1074 Rain 2 1017 80 10000 5.14 340 06:43 25.03.2021
1075 Rain 1 1017 80 10000 5.14 340 06:22 25.03.2021
1076 Snow 1 1016 86 10000 5.66 340 04:51 25.03.2021
1077 Clear 2 1015 80 10000 5.14 320 01:25 25.03.2021
1078 Clear 2 1015 75 10000 5.14 330 00:19 25.03.2021
1079 Clear 2 1015 75 10000 4.12 330 23:40 24.03.2021
1080 Clear 2 1015 75 10000 4.12 330 23:19 24.03.2021
1081 Clear 2 1015 69 10000 2.57 320 22:39 24.03.2021
1082 Clear 2 1015 69 10000 2.57 360 21:51 24.03.2021
1083 Clear 2 1015 69 10000 2.57 360 21:32 24.03.2021
1084 Clouds 2 1015 64 10000 3.6 360 20:59 24.03.2021
1085 Clouds 2 1015 64 10000 3.6 360 20:41 24.03.2021
1086 Clouds 3 1015 60 10000 4.12 20 20:18 24.03.2021
1087 Clouds 3 1015 60 10000 5.14 10 19:33 24.03.2021
1088 Clouds 3 1015 60 10000 5.14 10 19:33 24.03.2021
1089 Clouds 3 1014 60 10000 6.17 20 18:53 24.03.2021
1090 Clouds 3 1014 60 10000 6.17 20 18:24 24.03.2021
1091 Clouds 3 1014 60 10000 7.2 360 17:53 24.03.2021
1092 Clouds 4 1014 60 10000 6.69 20 17:32 24.03.2021
1093 Clouds 4 1013 60 10000 8.23 10 16:57 24.03.2021
1094 Clouds 4 1013 65 10000 8.23 10 16:39 24.03.2021
1095 Clouds 5 1013 65 10000 8.23 10 16:19 24.03.2021
1096 Clouds 5 1013 65 10000 8.75 360 15:37 24.03.2021
1097 Clouds 4 1013 65 10000 8.75 360 15:18 24.03.2021
1098 Clouds 5 1012 56 10000 9.26 10 14:29 24.03.2021
1099 Clouds 5 1012 60 10000 9.77 360 13:58 24.03.2021
1100 Clouds 4 1012 60 10000 9.26 360 13:28 24.03.2021
1101 Clouds 5 1011 56 10000 7.72 10 12:50 24.03.2021
1102 Clouds 5 1011 61 10000 8.23 360 12:30 24.03.2021
1103 Rain 5 1011 75 8000 6.17 10 11:54 24.03.2021
1104 Clouds 5 1011 87 10000 3.09 360 11:36 24.03.2021
1105 Clouds 4 1012 87 8000 0.51 0 10:49 24.03.2021
1106 Clouds 3 1012 93 8000 1.54 10 10:28 24.03.2021
1107 Snow 4 1011 93 2500 7.2 20 09:54 24.03.2021
1108 Snow 3 1011 93 1500 5.66 360 09:29 24.03.2021
1109 Clouds 3 1011 100 7000 3.6 10 08:57 24.03.2021
1110 Clouds 5 1011 87 1500 2.06 30 08:34 24.03.2021
1111 Clouds 3 1011 87 10000 2.57 50 07:48 24.03.2021
1112 Rain 2 1011 93 10000 3.09 90 07:18 24.03.2021
1113 Snow 2 1010 93 4000 4.12 90 06:41 24.03.2021
1114 Clouds 4 1009 65 10000 4.12 20 01:26 24.03.2021
1115 Clouds 4 1009 56 10000 5.14 20 00:36 24.03.2021
1116 Clouds 4 1009 56 10000 5.66 20 23:43 23.03.2021
1117 Clouds 4 1009 60 10000 6.17 20 23:19 23.03.2021
1118 Clouds 4 1009 56 10000 5.66 20 22:47 23.03.2021
1119 Clouds 4 1009 56 10000 7.2 10 22:24 23.03.2021
1120 Clouds 5 1009 60 10000 7.72 10 21:45 23.03.2021
1121 Clouds 5 1009 60 10000 7.2 10 21:25 23.03.2021
1122 Clouds 5 1010 65 10000 8.23 10 20:44 23.03.2021
1123 Clouds 5 1010 70 10000 8.23 20 20:25 23.03.2021
1124 Clouds 5 1010 70 10000 7.72 20 19:47 23.03.2021
1125 Clouds 5 1010 70 10000 6.69 20 19:25 23.03.2021
1126 Clouds 5 1009 75 10000 7.2 10 18:43 23.03.2021
1127 Clouds 5 1009 75 10000 9.26 20 18:22 23.03.2021
1128 Clouds 5 1009 81 10000 8.23 20 17:45 23.03.2021
1129 Clouds 4 1009 81 10000 7.72 20 17:21 23.03.2021
1130 Clouds 5 1009 75 10000 8.75 10 16:39 23.03.2021
1131 Clouds 5 1008 75 10000 7.72 10 16:19 23.03.2021
1132 Clouds 5 1008 81 8000 8.75 30 15:38 23.03.2021
1133 Clouds 5 1008 87 8000 7.72 20 14:52 23.03.2021
1134 Clouds 5 1008 87 8000 7.72 20 14:21 23.03.2021
1135 Clouds 5 1008 87 8000 8.23 20 13:50 23.03.2021
1136 Clouds 6 1008 81 8000 10.8 40 13:27 23.03.2021
1137 Clouds 6 1008 87 10000 8.23 30 12:59 23.03.2021
1138 Clouds 6 1008 76 10000 8.75 40 12:39 23.03.2021
1139 Clouds 6 1008 76 10000 8.75 40 12:19 23.03.2021
1140 Clouds 6 1008 87 10000 9.77 30 11:42 23.03.2021
1141 Clouds 6 1008 81 10000 9.77 40 10:44 23.03.2021
1142 Clouds 6 1008 87 8000 9.77 40 10:23 23.03.2021
1143 Rain 6 1008 87 8000 8.23 30 09:58 23.03.2021
1144 Clouds 6 1008 87 10000 8.23 40 09:38 23.03.2021
1145 Clouds 6 1008 87 10000 8.23 40 09:19 23.03.2021
1146 Clouds 6 1008 87 10000 8.75 40 08:39 23.03.2021
1147 Clouds 6 1008 93 10000 6.69 30 08:21 23.03.2021
1148 Clouds 6 1008 93 10000 6.69 30 07:28 23.03.2021
1149 Clouds 6 1008 87 10000 7.72 20 06:59 23.03.2021
1150 Clouds 6 1008 93 10000 6.69 20 06:24 23.03.2021
1151 Clouds 6 1008 93 10000 6.17 20 03:21 23.03.2021
1152 Clouds 6 1008 93 10000 6.69 10 01:34 23.03.2021
1153 Rain 6 1006 87 8000 8.75 360 23:33 22.03.2021
1154 Rain 6 1006 87 8000 10.8 340 22:46 22.03.2021
1155 Rain 6 1005 87 7000 11.32 350 22:24 22.03.2021
1156 Rain 6 1005 93 5000 11.32 340 21:57 22.03.2021
1157 Rain 6 1005 93 5000 11.32 340 21:36 22.03.2021
1158 Rain 6 1005 93 5000 8.23 340 21:18 22.03.2021
1159 Rain 7 1004 93 10000 5.66 360 20:38 22.03.2021
1160 Rain 7 1004 93 10000 5.66 360 20:19 22.03.2021
1161 Rain 7 1004 93 10000 4.12 350 19:48 22.03.2021
1162 Rain 7 1003 93 10000 5.14 10 19:29 22.03.2021
1163 Clouds 7 1002 93 10000 5.66 360 18:46 22.03.2021
1164 Rain 7 1002 93 10000 5.66 360 18:27 22.03.2021
1165 Rain 7 1001 93 8000 5.66 350 17:57 22.03.2021
1166 Rain 7 1001 93 8000 5.66 350 17:37 22.03.2021
1167 Rain 7 1001 93 8000 7.2 10 17:18 22.03.2021
1168 Rain 8 1001 93 8000 5.66 360 16:43 22.03.2021
1169 Rain 8 1001 93 4000 9.77 350 15:59 22.03.2021
1170 Rain 8 1001 93 4000 9.77 350 15:37 22.03.2021
1171 Rain 9 999 93 7000 8.23 350 15:18 22.03.2021
1172 Rain 12 998 93 10000 12.86 350 14:50 22.03.2021
1173 Rain 14 998 82 10000 7.2 340 14:29 22.03.2021
1174 Clouds 12 998 76 10000 2.57 260 13:43 22.03.2021
1175 Clouds 13 998 76 10000 2.57 260 13:22 22.03.2021
1176 Clouds 13 998 76 10000 2.57 300 12:47 22.03.2021
1177 Clouds 13 998 76 10000 2.57 300 12:23 22.03.2021
1178 Clouds 11 999 87 10000 2.06 220 11:47 22.03.2021
1179 Clouds 11 999 87 10000 2.06 220 11:25 22.03.2021
1180 Clouds 11 1000 81 10000 2.06 210 10:44 22.03.2021
1181 Clouds 11 1000 81 10000 2.06 130 10:24 22.03.2021
1182 Clouds 10 1000 87 10000 1.03 0 09:43 22.03.2021
1183 Clouds 9 1001 81 10000 1.03 90 09:22 22.03.2021
1184 Clouds 9 1000 87 10000 3.6 140 08:44 22.03.2021
1185 Clouds 9 1001 87 10000 2.06 120 08:24 22.03.2021
1186 Clouds 9 1002 87 10000 2.06 90 07:45 22.03.2021
1187 Clouds 8 1002 87 10000 2.57 90 06:57 22.03.2021
1188 Clouds 7 1002 87 10000 3.09 60 06:35 22.03.2021
1189 Rain 7 1003 87 10000 8.23 50 02:33 22.03.2021
1190 Clouds 6 1006 93 10000 2.06 40 00:33 22.03.2021
1191 Rain 6 1005 87 10000 5.66 60 23:54 21.03.2021
1192 Rain 6 1005 87 10000 6.69 60 23:19 21.03.2021
1193 Rain 6 1005 87 10000 6.69 60 23:19 21.03.2021
1194 Rain 6 1005 87 10000 6.69 60 23:19 21.03.2021
1195 Rain 6 1006 87 10000 6.17 70 22:56 21.03.2021
1196 Clouds 6 1007 87 10000 5.14 80 22:18 21.03.2021
1197 Clouds 6 1008 87 10000 6.17 70 21:40 21.03.2021
1198 Clouds 6 1008 87 10000 6.17 70 21:22 21.03.2021
1199 Rain 6 1009 93 10000 6.17 70 20:43 21.03.2021
1200 Clouds 6 1010 93 10000 6.17 80 20:25 21.03.2021
1201 Rain 6 1010 93 10000 6.69 70 19:53 21.03.2021
1202 Clouds 5 1010 87 7000 8.75 70 19:21 21.03.2021
1203 Rain 5 1010 87 7000 8.23 70 18:48 21.03.2021
1204 Rain 5 1010 87 8000 7.72 60 18:27 21.03.2021
1205 Rain 6 1011 87 10000 8.23 60 17:48 21.03.2021
1206 Rain 6 1011 81 10000 8.23 60 17:21 21.03.2021
1207 Rain 6 1012 81 10000 7.72 70 16:58 21.03.2021
1208 Clouds 6 1012 93 8000 6.69 70 16:32 21.03.2021
1209 Rain 6 1012 93 7000 8.23 60 15:58 21.03.2021
1210 Rain 6 1012 93 7000 8.23 60 15:39 21.03.2021
1211 Rain 6 1013 87 10000 6.69 60 15:19 21.03.2021
1212 Rain 6 1013 87 10000 7.2 50 14:44 21.03.2021
1213 Rain 6 1013 87 10000 7.72 60 14:26 21.03.2021
1214 Rain 6 1013 87 8000 7.2 60 13:54 21.03.2021
1215 Rain 7 1014 87 8000 6.17 50 13:00 21.03.2021
1216 Rain 7 1014 87 8000 6.17 50 12:41 21.03.2021
1217 Rain 7 1014 87 8000 6.69 50 12:22 21.03.2021
1218 Rain 7 1014 87 8000 6.17 60 11:28 21.03.2021
1219 Rain 7 1014 87 8000 6.17 60 10:59 21.03.2021
1220 Rain 7 1014 87 8000 6.17 60 10:41 21.03.2021
1221 Rain 7 1014 87 10000 6.17 60 10:22 21.03.2021
1222 Rain 7 1014 87 10000 6.17 60 09:44 21.03.2021
1223 Rain 6 1015 93 8000 5.14 70 09:26 21.03.2021
1224 Rain 6 1015 87 10000 6.69 60 08:39 21.03.2021
1225 Rain 6 1015 87 10000 6.69 60 08:21 21.03.2021
1226 Rain 6 1014 81 10000 7.72 70 07:38 21.03.2021
1227 Rain 6 1014 87 10000 8.23 70 06:52 21.03.2021
1228 Rain 6 1014 81 10000 8.23 70 05:25 21.03.2021
1229 Rain 6 1015 87 10000 5.14 70 01:54 21.03.2021
1230 Rain 6 1016 81 10000 7.2 70 00:41 21.03.2021
1231 Rain 6 1016 81 10000 7.72 60 00:21 21.03.2021
1232 Rain 6 1016 87 10000 7.2 60 23:47 20.03.2021
1233 Rain 6 1016 87 10000 6.69 60 23:22 20.03.2021
1234 Rain 6 1016 87 10000 6.69 60 23:22 20.03.2021
1235 Rain 6 1016 87 10000 6.69 60 22:55 20.03.2021
1236 Rain 6 1016 87 10000 6.17 70 22:22 20.03.2021
1237 Rain 6 1016 81 6000 6.17 70 21:46 20.03.2021
1238 Rain 6 1017 81 10000 7.2 70 21:24 20.03.2021
1239 Rain 6 1017 81 8000 6.69 60 20:45 20.03.2021
1240 Rain 6 1016 81 8000 6.69 70 20:23 20.03.2021
1241 Rain 6 1017 87 8000 5.66 70 19:50 20.03.2021
1242 Rain 6 1017 81 10000 6.17 70 19:27 20.03.2021
1243 Rain 6 1017 81 10000 6.17 70 18:50 20.03.2021
1244 Rain 7 1017 81 10000 6.17 70 18:27 20.03.2021
1245 Rain 7 1017 81 8000 7.2 70 17:55 20.03.2021
1246 Rain 7 1017 81 8000 7.2 70 17:33 20.03.2021
1247 Rain 7 1017 81 10000 6.17 70 16:56 20.03.2021
1248 Rain 7 1017 81 10000 6.17 70 16:37 20.03.2021
1249 Rain 8 1017 76 10000 8.23 60 16:18 20.03.2021
1250 Rain 8 1017 76 10000 7.72 40 15:39 20.03.2021
1251 Rain 9 1017 66 10000 7.72 50 14:49 20.03.2021
1252 Rain 10 1017 66 10000 7.72 40 14:29 20.03.2021
1253 Rain 11 1017 62 10000 6.69 40 13:43 20.03.2021
1254 Rain 11 1017 62 10000 4.63 50 13:21 20.03.2021
1255 Rain 12 1018 58 10000 3.09 100 12:28 20.03.2021
1256 Clouds 11 1018 62 10000 3.09 80 11:50 20.03.2021
1257 Rain 12 1018 54 10000 4.63 60 11:31 20.03.2021
1258 Clouds 11 1018 58 10000 4.63 70 10:57 20.03.2021
1259 Clouds 11 1018 58 10000 4.63 70 10:38 20.03.2021
1260 Clouds 11 1018 58 10000 4.12 60 10:19 20.03.2021
1261 Clouds 11 1018 62 10000 4.63 70 09:42 20.03.2021
1262 Clear 10 1019 66 10000 4.63 80 09:21 20.03.2021
1263 Clear 9 1019 71 10000 4.63 80 08:45 20.03.2021
1264 Clear 8 1019 81 10000 3.6 70 07:55 20.03.2021
1265 Clear 7 1019 81 10000 3.09 70 07:32 20.03.2021
1266 Clear 7 1019 81 10000 3.09 70 07:32 20.03.2021
1267 Clouds 7 1018 81 10000 3.09 60 06:56 20.03.2021
1268 Clouds 6 1019 87 10000 3.09 60 06:27 20.03.2021
1269 Clouds 5 1019 87 10000 3.09 60 04:41 20.03.2021
1270 Clouds 5 1018 87 10000 2.06 60 03:42 20.03.2021
1271 Clouds 6 1018 81 10000 2.06 80 00:42 20.03.2021
1272 Clouds 6 1018 81 10000 3.09 20 23:36 19.03.2021
1273 Clouds 6 1018 87 10000 2.06 50 22:59 19.03.2021
1274 Clouds 6 1018 87 10000 2.06 50 22:40 19.03.2021
1275 Clouds 6 1017 87 10000 2.06 60 22:22 19.03.2021
1276 Clouds 6 1017 87 10000 2.06 60 22:22 19.03.2021
1277 Clouds 6 1017 87 10000 3.6 40 21:36 19.03.2021
1278 Clouds 6 1017 81 10000 3.6 40 21:18 19.03.2021
1279 Clouds 6 1016 81 10000 5.14 30 20:42 19.03.2021
1280 Clouds 6 1016 87 10000 5.14 30 20:24 19.03.2021
1281 Clouds 6 1016 81 10000 5.14 40 19:47 19.03.2021
1282 Clouds 6 1016 87 10000 5.14 30 19:21 19.03.2021
1283 Clouds 6 1015 81 10000 5.14 30 18:46 19.03.2021
1284 Clouds 6 1015 87 10000 5.14 40 18:20 19.03.2021
1285 Clouds 6 1015 87 10000 5.14 60 17:56 19.03.2021
1286 Clouds 6 1015 87 7000 5.14 40 17:36 19.03.2021
1287 Rain 6 1015 87 7000 4.63 40 16:57 19.03.2021
1288 Rain 6 1015 87 7000 3.6 30 16:36 19.03.2021
1289 Rain 7 1015 87 7000 3.6 30 16:18 19.03.2021
1290 Rain 7 1014 81 7000 3.09 40 15:32 19.03.2021
1291 Rain 8 1014 81 8000 4.12 50 14:49 19.03.2021
1292 Rain 8 1014 71 10000 2.57 10 14:29 19.03.2021
1293 Rain 8 1014 66 10000 2.06 10 13:45 19.03.2021
1294 Rain 9 1014 61 7000 1.03 0 13:18 19.03.2021
1295 Rain 10 1014 66 10000 1.54 150 12:38 19.03.2021
1296 Rain 10 1014 66 10000 1.03 0 11:53 19.03.2021
1297 Rain 11 1014 71 10000 1.54 220 10:59 19.03.2021
1298 Rain 11 1014 71 10000 1.54 220 10:40 19.03.2021
1299 Clouds 10 1015 66 10000 2.06 220 10:19 19.03.2021
1300 Clouds 10 1015 62 10000 2.06 230 09:43 19.03.2021
1301 Clouds 11 1015 71 10000 0.51 0 09:22 19.03.2021
1302 Clouds 10 1015 76 10000 1.03 0 08:47 19.03.2021
1303 Clouds 9 1015 81 10000 2.06 10 08:25 19.03.2021
1304 Rain 8 1015 87 10000 3.09 350 07:43 19.03.2021
1305 Clouds 7 1014 87 10000 2.57 330 06:58 19.03.2021
1306 Clouds 6 1014 81 10000 3.6 230 05:26 19.03.2021
1307 Clouds 7 1015 81 10000 2.57 200 00:58 19.03.2021
1308 Clouds 7 1014 81 10000 3.09 210 23:51 18.03.2021
1309 Clouds 7 1014 81 10000 3.09 210 23:26 18.03.2021
1310 Clouds 7 1014 76 10000 1.54 210 22:44 18.03.2021
1311 Clouds 7 1015 81 10000 2.06 210 22:25 18.03.2021
1312 Clouds 7 1014 76 10000 1.54 210 21:40 18.03.2021
1313 Clouds 7 1014 81 10000 2.06 220 21:21 18.03.2021
1314 Clouds 7 1014 76 10000 1.03 210 20:39 18.03.2021
1315 Clouds 7 1014 76 10000 1.03 210 20:20 18.03.2021
1316 Clouds 7 1014 76 10000 0.51 0 19:42 18.03.2021
1317 Clouds 7 1014 76 10000 0.46 210 19:22 18.03.2021
1318 Clouds 8 1014 71 10000 1.03 0 18:39 18.03.2021
1319 Clouds 7 1014 71 10000 1.03 0 17:51 18.03.2021
1320 Clouds 8 1013 76 10000 3.09 250 17:26 18.03.2021
1321 Clouds 9 1013 71 10000 3.6 230 16:51 18.03.2021
1322 Clouds 9 1013 71 10000 4.12 230 16:32 18.03.2021
1323 Clouds 9 1013 71 10000 4.12 240 15:56 18.03.2021
1324 Clouds 9 1013 71 10000 4.63 240 15:37 18.03.2021
1325 Clouds 9 1013 71 10000 4.63 240 15:18 18.03.2021
1326 Clouds 9 1013 71 10000 4.12 240 14:40 18.03.2021
1327 Clouds 9 1013 66 10000 4.12 240 13:57 18.03.2021
1328 Clouds 9 1013 66 10000 4.12 250 13:27 18.03.2021
1329 Clouds 9 1013 66 10000 3.6 250 12:57 18.03.2021
1330 Clouds 8 1013 71 10000 4.12 250 12:36 18.03.2021
1331 Clouds 8 1013 71 10000 4.12 250 12:36 18.03.2021
1332 Clouds 8 1013 71 10000 4.12 250 12:18 18.03.2021
1333 Clouds 8 1013 71 10000 4.12 250 11:40 18.03.2021
1334 Clouds 9 1013 76 10000 3.6 260 10:57 18.03.2021
1335 Clouds 8 1013 76 10000 3.6 260 10:38 18.03.2021
1336 Rain 8 1012 76 10000 2.06 270 10:20 18.03.2021
1337 Clouds 7 1012 70 10000 1.54 330 09:30 18.03.2021
1338 Clouds 7 1012 70 10000 2.57 350 08:59 18.03.2021
1339 Clouds 7 1012 70 10000 2.57 350 08:41 18.03.2021
1340 Rain 7 1012 76 10000 1.54 340 08:23 18.03.2021
1341 Rain 6 1011 81 10000 3.09 340 07:43 18.03.2021
1342 Rain 5 1010 81 10000 2.57 310 06:40 18.03.2021
1343 Clouds 5 1010 81 10000 3.09 290 06:22 18.03.2021
1344 Clouds 4 1009 87 10000 3.09 310 05:25 18.03.2021
1345 Clouds 5 1008 81 10000 2.06 290 00:40 18.03.2021
1346 Clouds 5 1008 81 10000 5.14 280 23:19 17.03.2021
1347 Clouds 5 1008 81 10000 4.63 270 22:38 17.03.2021
1348 Clouds 5 1008 81 10000 3.6 260 22:20 17.03.2021
1349 Clouds 5 1008 81 10000 3.6 270 21:49 17.03.2021
1350 Clouds 5 1007 81 10000 4.12 290 21:30 17.03.2021
1351 Clouds 5 1007 81 10000 5.14 280 20:48 17.03.2021
1352 Clouds 5 1007 81 10000 3.09 280 20:26 17.03.2021
1353 Clouds 5 1007 81 10000 2.57 310 19:58 17.03.2021
1354 Clouds 5 1007 81 10000 2.57 310 19:58 17.03.2021
1355 Clouds 5 1007 81 10000 2.57 310 19:36 17.03.2021
1356 Clouds 5 1007 87 10000 3.6 290 19:18 17.03.2021
1357 Rain 5 1007 87 10000 4.12 300 18:43 17.03.2021
1358 Rain 5 1006 87 10000 5.66 310 18:25 17.03.2021
1359 Rain 6 1005 87 8000 5.14 310 17:32 17.03.2021
1360 Rain 6 1005 87 10000 5.14 300 16:57 17.03.2021
1361 Rain 6 1005 87 10000 5.14 300 16:38 17.03.2021
1362 Rain 7 1004 76 10000 4.63 270 16:19 17.03.2021
1363 Rain 7 1004 76 10000 5.14 280 15:41 17.03.2021
1364 Rain 8 1004 76 10000 7.72 270 14:57 17.03.2021
1365 Rain 8 1004 76 10000 7.72 270 14:36 17.03.2021
1366 Clouds 8 1004 71 10000 5.66 260 14:18 17.03.2021
1367 Rain 8 1004 71 10000 5.66 260 14:18 17.03.2021
1368 Clouds 9 1003 71 10000 7.2 270 13:52 17.03.2021
1369 Clouds 8 1003 71 10000 7.72 280 13:22 17.03.2021
1370 Clouds 8 1003 71 10000 6.17 260 12:36 17.03.2021
1371 Clouds 8 1003 71 10000 6.17 260 12:18 17.03.2021
1372 Clouds 8 1003 76 10000 7.2 270 11:38 17.03.2021
1373 Clouds 8 1003 76 10000 7.2 270 11:20 17.03.2021
1374 Clouds 8 1003 81 10000 6.17 270 10:40 17.03.2021
1375 Rain 8 1003 81 10000 6.17 270 10:19 17.03.2021
1376 Rain 7 1003 81 10000 5.66 270 09:42 17.03.2021
1377 Rain 7 1003 81 10000 5.66 270 09:20 17.03.2021
1378 Rain 7 1003 81 10000 4.63 280 08:46 17.03.2021
1379 Rain 7 1002 81 10000 5.14 270 08:26 17.03.2021
1380 Rain 6 1002 93 8000 5.66 280 07:39 17.03.2021
1381 Rain 6 1002 81 10000 4.63 300 06:52 17.03.2021
1382 Rain 6 1002 81 10000 4.63 300 06:27 17.03.2021
1383 Clouds 6 1001 76 10000 3.09 280 03:32 17.03.2021
1384 Clouds 6 1001 76 10000 3.09 280 03:32 17.03.2021
1385 Clouds 6 1001 81 10000 2.57 260 02:37 17.03.2021
1386 Clouds 6 1002 81 10000 2.06 320 00:38 17.03.2021
1387 Clouds 7 1002 81 10000 2.57 290 23:27 16.03.2021
1388 Clouds 7 1002 81 10000 2.57 270 22:45 16.03.2021
1389 Rain 7 1002 76 10000 3.09 260 22:27 16.03.2021
1390 Clouds 7 1003 81 10000 3.09 270 21:44 16.03.2021
1391 Clouds 7 1003 76 10000 5.14 280 21:26 16.03.2021
1392 Clouds 7 1003 81 10000 4.63 260 20:57 16.03.2021
1393 Rain 8 1003 81 10000 5.14 290 20:20 16.03.2021
1394 Rain 8 1003 81 10000 5.14 290 20:20 16.03.2021
1395 Rain 7 1003 81 10000 5.66 280 19:51 16.03.2021
1396 Rain 8 1003 76 10000 6.17 280 19:29 16.03.2021
1397 Clouds 8 1002 76 10000 6.69 250 18:57 16.03.2021
1398 Clouds 8 1002 76 10000 6.69 250 18:39 16.03.2021
1399 Rain 8 1002 81 7000 7.2 260 17:59 16.03.2021
1400 Rain 8 1002 81 7000 7.2 260 17:59 16.03.2021
1401 Rain 8 1002 81 7000 7.2 260 17:40 16.03.2021
1402 Rain 10 1002 76 7000 9.26 220 17:21 16.03.2021
1403 Clouds 8 1001 81 8000 7.72 200 16:47 16.03.2021
1404 Clouds 8 1001 81 8000 8.75 210 16:25 16.03.2021
1405 Clouds 10 1001 81 10000 8.23 220 15:46 16.03.2021
1406 Clouds 10 1001 81 8000 8.75 220 15:20 16.03.2021
1407 Rain 10 1001 81 10000 9.77 210 14:57 16.03.2021
1408 Rain 11 1001 71 10000 9.77 220 14:38 16.03.2021
1409 Clouds 11 1001 71 10000 9.77 220 14:18 16.03.2021
1410 Clouds 12 1000 71 10000 10.8 220 13:44 16.03.2021
1411 Clouds 13 1000 66 10000 9.26 210 13:21 16.03.2021
1412 Clouds 12 1000 66 10000 9.26 220 12:46 16.03.2021
1413 Clouds 11 1000 71 10000 10.29 210 12:27 16.03.2021
1414 Clouds 12 1001 71 10000 8.23 220 11:38 16.03.2021
1415 Clouds 11 1000 76 10000 6.17 250 10:59 16.03.2021
1416 Clouds 11 1000 71 10000 8.23 220 10:27 16.03.2021
1417 Clouds 11 1000 76 10000 8.23 220 09:47 16.03.2021
1418 Clouds 10 1000 66 10000 9.77 230 09:29 16.03.2021
1419 Clouds 10 1000 76 10000 9.26 220 08:58 16.03.2021
1420 Clouds 10 1000 76 10000 9.26 220 08:40 16.03.2021
1421 Clouds 10 999 76 10000 10.8 220 08:18 16.03.2021
1422 Clouds 10 998 71 10000 10.29 210 07:33 16.03.2021
1423 Clouds 10 998 76 10000 7.72 210 06:39 16.03.2021
1424 Clouds 10 997 76 10000 8.23 210 05:40 16.03.2021
1425 Clouds 10 997 81 10000 6.69 210 05:21 16.03.2021
1426 Rain 10 997 81 10000 7.2 210 02:45 16.03.2021
1427 Clouds 10 998 87 10000 6.17 210 02:23 16.03.2021
1428 Clouds 10 998 93 10000 5.14 220 23:56 15.03.2021
1429 Clouds 10 998 93 10000 5.14 220 23:56 15.03.2021
1430 Rain 11 999 93 7000 7.2 250 23:28 15.03.2021
1431 Rain 12 999 87 10000 9.26 260 22:50 15.03.2021
1432 Clouds 13 998 76 10000 2.57 220 22:31 15.03.2021
1433 Clouds 13 998 71 10000 1.54 220 21:54 15.03.2021
1434 Rain 13 998 71 10000 1.54 220 21:34 15.03.2021
1435 Clouds 12 999 87 10000 2.06 210 20:57 15.03.2021
1436 Clouds 12 999 82 10000 3.09 180 20:39 15.03.2021
1437 Clouds 12 999 82 10000 3.09 180 20:21 15.03.2021
1438 Rain 13 1000 82 10000 5.14 190 19:49 15.03.2021
1439 Rain 13 1000 82 10000 5.14 190 19:49 15.03.2021
1440 Rain 14 1000 72 10000 5.14 200 19:31 15.03.2021
1441 Rain 14 1000 67 10000 4.63 180 18:50 15.03.2021
1442 Clouds 14 999 76 10000 3.6 220 18:26 15.03.2021
1443 Clouds 15 1000 63 10000 5.66 220 17:56 15.03.2021
1444 Rain 16 1000 59 10000 1.54 120 17:32 15.03.2021
1445 Clouds 16 1000 59 10000 2.57 130 16:50 15.03.2021
1446 Clouds 17 1000 55 10000 3.09 140 16:32 15.03.2021
1447 Clouds 17 1000 55 10000 3.09 140 15:45 15.03.2021
1448 Clouds 17 1001 51 10000 3.6 160 15:26 15.03.2021
1449 Clouds 17 1001 52 10000 4.12 160 14:44 15.03.2021
1450 Clouds 18 1001 51 10000 3.09 160 14:23 15.03.2021
1451 Clouds 18 1002 55 10000 3.09 160 13:47 15.03.2021
1452 Clouds 18 1003 48 10000 3.09 150 13:25 15.03.2021
1453 Clouds 16 1003 51 10000 3.09 160 12:49 15.03.2021
1454 Rain 16 1004 55 10000 3.09 160 12:20 15.03.2021
1455 Clear 17 1004 51 10000 3.09 150 11:52 15.03.2021
1456 Clear 17 1004 51 10000 4.12 130 11:33 15.03.2021
1457 Clear 17 1005 51 10000 4.12 130 10:55 15.03.2021
1458 Clear 15 1005 55 10000 3.09 130 10:31 15.03.2021
1459 Clear 15 1006 62 10000 2.57 120 09:53 15.03.2021
1460 Clear 14 1006 71 10000 2.57 140 09:35 15.03.2021
1461 Clear 15 1006 71 10000 2.06 150 08:54 15.03.2021
1462 Clear 13 1006 71 10000 2.06 130 08:34 15.03.2021
1463 Clear 13 1006 76 10000 2.06 120 07:55 15.03.2021
1464 Clear 13 1007 76 10000 2.57 110 07:32 15.03.2021
1465 Clear 11 1006 76 10000 1.54 130 06:40 15.03.2021
1466 Clear 9 1007 87 10000 1.54 110 05:33 15.03.2021
1467 Clear 8 1009 87 10000 0.51 70 01:47 15.03.2021
1468 Clear 9 1010 81 10000 2.4 156 23:58 14.03.2021
1469 Clear 10 1010 76 10000 2.24 138 23:20 14.03.2021
1470 Clear 11 1010 71 10000 2.26 137 22:47 14.03.2021
1471 Clear 10 1010 76 10000 1.03 90 22:23 14.03.2021
1472 Clear 11 1011 71 10000 1.03 0 21:45 14.03.2021
1473 Clear 11 1011 66 10000 1.03 0 21:19 14.03.2021
1474 Clear 11 1011 66 10000 1.54 100 20:49 14.03.2021
1475 Clear 11 1011 66 10000 1.03 100 20:26 14.03.2021
1476 Clear 11 1011 66 10000 1.03 100 20:26 14.03.2021
1477 Clear 11 1011 66 10000 1.03 90 19:48 14.03.2021
1478 Clear 12 1011 66 10000 1.03 0 19:23 14.03.2021
1479 Clear 12 1011 71 10000 0.51 100 18:49 14.03.2021
1480 Clear 12 1012 71 10000 1.03 130 18:27 14.03.2021
1481 Clear 13 1012 76 10000 1.03 150 17:41 14.03.2021
1482 Clear 14 1012 62 10000 1.03 0 17:22 14.03.2021
1483 Clear 14 1012 51 10000 1.03 230 16:46 14.03.2021
1484 Clear 14 1012 51 10000 1.03 230 16:46 14.03.2021
1485 Clear 15 1012 51 10000 1.54 230 16:27 14.03.2021
1486 Clear 15 1012 47 10000 1.54 220 15:53 14.03.2021
1487 Clear 16 1012 47 10000 1.54 230 15:34 14.03.2021
1488 Clear 15 1013 51 10000 2.57 250 14:41 14.03.2021
1489 Clear 15 1013 51 10000 2.57 230 14:21 14.03.2021
1490 Clear 15 1013 51 10000 2.57 240 13:49 14.03.2021
1491 Clear 15 1014 58 10000 2.57 250 13:28 14.03.2021
1492 Clear 15 1014 58 10000 3.09 260 12:47 14.03.2021
1493 Clear 14 1014 66 10000 3.09 250 12:28 14.03.2021
1494 Clear 14 1015 66 10000 3.09 250 11:51 14.03.2021
1495 Clear 13 1015 71 10000 3.09 250 11:33 14.03.2021
1496 Clear 13 1015 62 10000 3.09 250 10:56 14.03.2021
1497 Clear 14 1015 62 10000 3.09 250 10:36 14.03.2021
1498 Clear 14 1015 66 10000 2.06 250 10:18 14.03.2021
1499 Clear 14 1015 66 10000 2.06 250 10:18 14.03.2021
1500 Clear 14 1015 67 10000 1.54 200 09:43 14.03.2021
1501 Clear 14 1015 67 10000 1.54 200 09:43 14.03.2021
1502 Clear 13 1015 67 10000 1.03 0 09:22 14.03.2021
1503 Clear 13 1015 67 10000 1.03 0 09:22 14.03.2021
1504 Clear 12 1015 76 10000 1.54 150 08:41 14.03.2021
1505 Clear 12 1016 71 10000 0.51 0 08:18 14.03.2021
1506 Clear 10 1016 93 10000 0.51 100 07:37 14.03.2021
1507 Clouds 8 1015 100 6000 1.04 181 06:46 14.03.2021
1508 Clouds 6 1016 93 6000 0.84 217 03:54 14.03.2021
1509 Clear 7 1017 87 10000 0.99 188 00:51 14.03.2021
1510 Clear 7 1017 87 10000 0.99 194 00:19 14.03.2021
1511 Clear 7 1017 81 10000 0.99 194 23:47 13.03.2021
1512 Clear 8 1018 81 10000 1.25 199 23:24 13.03.2021
1513 Clear 8 1018 81 10000 1.25 199 22:52 13.03.2021
1514 Clear 8 1017 81 10000 1.33 197 22:26 13.03.2021
1515 Clear 8 1017 81 10000 1.33 197 21:43 13.03.2021
1516 Clear 8 1017 81 10000 1 190 21:25 13.03.2021
1517 Clear 9 1017 76 10000 1.03 100 20:50 13.03.2021
1518 Clear 9 1017 76 10000 1.03 100 20:30 13.03.2021
1519 Clear 9 1017 76 10000 1.03 100 20:30 13.03.2021
1520 Clear 9 1017 71 10000 1.03 0 19:53 13.03.2021
1521 Clear 9 1017 76 10000 1.54 150 19:29 13.03.2021
1522 Clear 9 1017 76 10000 1.54 130 18:43 13.03.2021
1523 Clear 9 1017 76 10000 2.06 160 18:22 13.03.2021
1524 Clear 10 1016 66 10000 1.03 0 17:58 13.03.2021
1525 Clear 10 1016 66 10000 1.54 210 17:35 13.03.2021
1526 Clear 10 1017 71 10000 1.54 0 16:59 13.03.2021
1527 Clear 10 1017 71 10000 1.54 0 16:39 13.03.2021
1528 Clear 12 1017 66 10000 2.57 220 15:58 13.03.2021
1529 Clear 13 1017 62 10000 2.06 230 15:25 13.03.2021
1530 Clear 12 1017 62 10000 2.57 240 14:46 13.03.2021
1531 Clear 12 1017 58 10000 3.09 250 14:25 13.03.2021
1532 Clear 12 1017 62 10000 3.09 250 13:46 13.03.2021
1533 Clear 12 1017 62 10000 3.09 250 13:23 13.03.2021
1534 Clear 11 1017 71 10000 4.12 250 12:43 13.03.2021
1535 Clear 11 1018 71 10000 4.12 250 12:18 13.03.2021
1536 Clear 11 1018 66 10000 4.63 240 11:43 13.03.2021
1537 Clear 11 1018 66 10000 4.63 240 11:24 13.03.2021
1538 Clear 11 1018 62 10000 4.63 250 10:49 13.03.2021
1539 Clear 11 1019 66 10000 4.63 230 10:25 13.03.2021
1540 Clear 11 1019 71 10000 4.12 230 09:42 13.03.2021
1541 Clear 10 1018 66 10000 3.6 220 08:58 13.03.2021
1542 Clear 10 1018 66 10000 3.6 220 08:39 13.03.2021
1543 Clear 9 1019 71 10000 4.12 230 08:19 13.03.2021
1544 Clear 8 1018 71 10000 3.6 220 07:39 13.03.2021
1545 Clear 5 1018 76 10000 2.57 210 05:50 13.03.2021
1546 Clear 5 1018 76 10000 2.06 210 02:43 13.03.2021
1547 Clear 4 1019 75 10000 1.54 240 00:50 13.03.2021
1548 Clear 4 1020 81 10000 1.03 230 23:51 12.03.2021
1549 Clear 5 1020 70 10000 1.54 220 23:32 12.03.2021
1550 Clear 5 1020 70 10000 1.54 210 22:42 12.03.2021
1551 Clear 6 1020 70 10000 1.54 210 22:23 12.03.2021
1552 Clear 6 1020 70 10000 1.54 210 21:43 12.03.2021
1553 Clear 6 1020 70 10000 2.06 200 21:24 12.03.2021
1554 Clear 6 1020 70 10000 1.54 190 20:55 12.03.2021
1555 Clear 6 1020 70 10000 1.03 180 20:32 12.03.2021
1556 Clear 6 1020 70 10000 0.51 0 19:56 12.03.2021
1557 Clear 6 1020 70 10000 2.06 250 19:38 12.03.2021
1558 Clear 6 1020 65 10000 2.06 240 18:59 12.03.2021
1559 Clear 6 1019 65 10000 2.57 260 18:35 12.03.2021
1560 Clear 6 1019 61 10000 2.57 250 17:49 12.03.2021
1561 Clear 7 1019 61 10000 2.57 250 17:30 12.03.2021
1562 Clear 7 1019 61 10000 2.57 240 16:55 12.03.2021
1563 Clear 8 1020 57 10000 2.57 240 16:36 12.03.2021
1564 Clear 8 1020 57 10000 2.57 240 15:52 12.03.2021
1565 Clear 8 1020 53 10000 2.57 220 15:28 12.03.2021
1566 Clear 8 1021 53 10000 2.57 220 14:48 12.03.2021
1567 Clear 8 1021 57 10000 2.57 240 14:21 12.03.2021
1568 Clear 8 1021 53 10000 3.09 260 13:44 12.03.2021
1569 Clear 7 1022 57 10000 2.57 0 13:21 12.03.2021
1570 Clear 8 1022 57 10000 3.6 270 12:57 12.03.2021
1571 Clear 8 1022 57 10000 3.6 270 12:38 12.03.2021
1572 Clear 7 1022 61 10000 2.57 260 12:19 12.03.2021
1573 Clouds 8 1023 61 10000 3.09 220 11:48 12.03.2021
1574 Clouds 7 1023 57 10000 2.06 190 11:21 12.03.2021
1575 Clouds 8 1023 57 10000 1.54 0 10:48 12.03.2021
1576 Clouds 7 1023 61 10000 1.54 0 10:24 12.03.2021
1577 Clouds 8 1023 57 10000 2.06 210 09:49 12.03.2021
1578 Clouds 7 1023 57 10000 1.54 160 09:19 12.03.2021
1579 Clouds 7 1024 57 10000 1.54 220 08:43 12.03.2021
1580 Clouds 5 1023 70 10000 1.54 300 07:54 12.03.2021
1581 Clear 2 1022 80 10000 2.06 20 07:31 12.03.2021
1582 Clear 2 1022 80 10000 2.06 20 06:45 12.03.2021
1583 Clear 2 1023 69 10000 2.57 340 05:57 12.03.2021
1584 Clouds 4 1023 60 10000 2.57 40 01:42 12.03.2021
1585 Clouds 4 1023 60 10000 4.12 10 23:59 11.03.2021
1586 Clouds 4 1023 56 10000 4.63 10 23:19 11.03.2021
1587 Clouds 4 1023 65 10000 5.14 360 22:41 11.03.2021
1588 Clouds 4 1023 56 10000 5.14 360 22:21 11.03.2021
1589 Clouds 4 1023 60 10000 6.69 10 21:46 11.03.2021
1590 Clouds 4 1023 56 10000 5.14 10 21:26 11.03.2021
1591 Clouds 4 1022 56 10000 6.69 40 20:49 11.03.2021
1592 Clouds 4 1022 52 10000 7.2 40 20:23 11.03.2021
1593 Clouds 4 1022 56 10000 7.72 40 19:56 11.03.2021
1594 Clouds 4 1022 56 10000 7.72 40 19:36 11.03.2021
1595 Clouds 4 1021 56 10000 8.23 20 18:54 11.03.2021
1596 Clouds 4 1020 52 10000 9.26 30 18:35 11.03.2021
1597 Clouds 4 1020 60 10000 9.26 20 17:54 11.03.2021
1598 Clouds 5 1020 60 10000 9.26 20 17:36 11.03.2021
1599 Clouds 5 1018 61 10000 11.32 30 16:38 11.03.2021
1600 Clouds 5 1018 65 10000 9.77 20 16:19 11.03.2021
1601 Clouds 6 1017 70 10000 9.26 20 15:44 11.03.2021
1602 Clouds 6 1017 70 10000 9.26 20 15:20 11.03.2021
1603 Clouds 6 1017 65 10000 10.29 20 14:45 11.03.2021
1604 Clouds 6 1017 65 10000 8.75 20 14:18 11.03.2021
1605 Clouds 7 1016 61 10000 9.77 20 13:45 11.03.2021
1606 Clouds 7 1016 65 10000 9.26 20 13:22 11.03.2021
1607 Clouds 7 1016 65 10000 10.29 40 12:55 11.03.2021
1608 Clouds 7 1015 70 10000 11.32 30 12:30 11.03.2021
1609 Clouds 7 1015 70 10000 8.75 30 11:48 11.03.2021
1610 Clouds 6 1015 81 10000 8.75 30 11:30 11.03.2021
1611 Clouds 6 1014 81 10000 10.29 30 10:56 11.03.2021
1612 Rain 6 1014 87 10000 10.8 30 10:27 11.03.2021
1613 Rain 6 1014 81 10000 9.77 40 09:52 11.03.2021
1614 Clouds 6 1013 81 10000 10.29 40 09:32 11.03.2021
1615 Clouds 6 1013 87 10000 10.29 40 08:50 11.03.2021
1616 Clouds 6 1012 87 10000 10.29 40 08:32 11.03.2021
1617 Clouds 6 1012 87 10000 11.32 50 07:48 11.03.2021
1618 Rain 6 1011 87 10000 10.29 50 07:21 11.03.2021
1619 Rain 6 1011 87 10000 11.32 50 06:42 11.03.2021
1620 Rain 6 1011 87 10000 7.72 60 06:22 11.03.2021
1621 Rain 8 1010 93 10000 2.57 50 02:26 11.03.2021
1622 Rain 8 1010 93 10000 4.12 40 00:29 11.03.2021
1623 Rain 8 1010 93 10000 5.14 50 23:23 10.03.2021
1624 Rain 8 1010 87 10000 5.14 40 22:42 10.03.2021
1625 Rain 8 1010 87 10000 5.14 40 22:41 10.03.2021
1626 Rain 8 1010 87 10000 5.14 40 22:41 10.03.2021
1627 Rain 8 1010 87 10000 5.14 40 22:41 10.03.2021
1628 Rain 8 1010 87 10000 5.14 40 22:41 10.03.2021
1629 Rain 8 1011 87 10000 6.17 40 22:19 10.03.2021
1630 Rain 8 1011 81 10000 6.17 30 21:41 10.03.2021
1631 Rain 8 1011 81 10000 6.17 30 21:21 10.03.2021
1632 Rain 8 1011 81 10000 5.14 30 20:43 10.03.2021
1633 Rain 8 1011 81 10000 5.14 20 20:24 10.03.2021
1634 Rain 8 1011 81 10000 4.63 30 19:41 10.03.2021
1635 Rain 8 1010 81 10000 6.17 40 19:21 10.03.2021
1636 Clouds 8 1011 81 10000 6.17 30 18:44 10.03.2021
1637 Clouds 9 1010 76 10000 5.66 20 18:24 10.03.2021
1638 Rain 9 1010 81 10000 5.66 20 17:46 10.03.2021
1639 Rain 10 1010 76 10000 5.66 30 17:21 10.03.2021
1640 Rain 10 1010 76 10000 5.66 360 16:57 10.03.2021
1641 Clouds 10 1010 76 10000 5.66 360 16:37 10.03.2021
1642 Clouds 10 1010 71 10000 4.63 30 16:19 10.03.2021
1643 Rain 12 1011 66 10000 4.12 30 15:41 10.03.2021
1644 Rain 12 1010 66 10000 4.12 30 15:21 10.03.2021
1645 Rain 13 1011 62 10000 2.57 40 14:41 10.03.2021
1646 Rain 13 1011 62 10000 2.57 40 14:41 10.03.2021
1647 Rain 13 1011 62 10000 2.57 40 14:41 10.03.2021
1648 Rain 13 1011 62 10000 3.09 40 14:19 10.03.2021
1649 Clouds 13 1011 62 10000 2.57 10 13:46 10.03.2021
1650 Clear 14 1012 58 10000 3.09 20 13:24 10.03.2021
1651 Clear 14 1012 58 10000 3.6 50 12:44 10.03.2021
1652 Clear 13 1012 62 10000 4.63 50 12:18 10.03.2021
1653 Clear 13 1013 58 10000 3.6 20 11:32 10.03.2021
1654 Clear 13 1013 58 10000 3.6 50 10:57 10.03.2021
1655 Clear 12 1014 58 10000 5.14 50 10:34 10.03.2021
1656 Clear 12 1014 62 10000 4.63 60 09:59 10.03.2021
1657 Clear 12 1014 62 10000 4.63 60 09:41 10.03.2021
1658 Clear 11 1014 62 10000 5.14 70 09:21 10.03.2021
1659 Clear 11 1015 66 10000 6.17 60 08:46 10.03.2021
1660 Clear 9 1015 71 10000 7.2 70 08:28 10.03.2021
1661 Clear 9 1015 76 10000 7.2 70 07:55 10.03.2021
1662 Clear 8 1015 76 10000 6.17 70 07:29 10.03.2021
1663 Clear 8 1015 81 10000 5.66 70 06:54 10.03.2021
1664 Clouds 7 1015 81 10000 5.66 70 05:59 10.03.2021
1665 Clear 7 1018 81 10000 4.12 60 00:48 10.03.2021
1666 Clear 7 1018 81 10000 4.12 60 23:49 09.03.2021
1667 Clear 7 1018 87 10000 4.63 60 22:58 09.03.2021
1668 Clear 7 1018 87 10000 5.66 60 22:38 09.03.2021
1669 Clear 7 1018 87 10000 5.66 60 22:18 09.03.2021
1670 Clear 8 1019 81 10000 6.69 50 21:44 09.03.2021
1671 Clear 8 1019 81 10000 6.69 50 21:24 09.03.2021
1672 Clear 8 1019 81 10000 5.14 50 20:56 09.03.2021
1673 Clear 8 1019 81 10000 5.66 50 20:38 09.03.2021
1674 Clear 8 1019 81 10000 5.66 50 20:19 09.03.2021
1675 Clear 8 1019 81 10000 7.2 40 19:45 09.03.2021
1676 Clear 8 1019 81 10000 6.69 30 19:25 09.03.2021
1677 Clear 8 1019 76 10000 6.17 40 18:42 09.03.2021
1678 Clear 8 1018 76 10000 5.14 40 18:23 09.03.2021
1679 Clear 9 1018 66 10000 6.17 30 17:49 09.03.2021
1680 Clear 9 1018 66 10000 6.17 20 17:28 09.03.2021
1681 Clear 10 1018 57 10000 7.72 30 16:41 09.03.2021
1682 Clear 11 1018 58 10000 6.17 10 16:22 09.03.2021
1683 Clear 11 1018 54 10000 7.72 30 15:57 09.03.2021
1684 Clear 12 1018 43 10000 7.2 20 15:28 09.03.2021
1685 Clear 12 1018 47 10000 6.69 10 14:52 09.03.2021
1686 Clear 13 1018 40 10000 6.17 10 14:27 09.03.2021
1687 Clear 13 1018 44 10000 5.66 20 13:43 09.03.2021
1688 Clear 13 1018 41 10000 5.14 20 13:21 09.03.2021
1689 Clear 13 1019 41 10000 4.63 20 12:55 09.03.2021
1690 Clear 13 1019 47 10000 2.06 50 12:37 09.03.2021
1691 Clear 13 1019 58 10000 2.06 180 11:58 09.03.2021
1692 Clear 12 1019 66 10000 2.06 180 11:39 09.03.2021
1693 Clear 12 1019 66 10000 2.06 180 11:19 09.03.2021
1694 Clear 12 1019 62 10000 1.54 160 10:41 09.03.2021
1695 Clear 12 1019 62 10000 1.54 160 10:22 09.03.2021
1696 Clear 12 1019 76 10000 1.54 230 09:47 09.03.2021
1697 Clear 11 1019 71 10000 1.03 0 09:28 09.03.2021
1698 Clear 11 1019 71 10000 0.93 266 08:58 09.03.2021
1699 Clear 10 1019 76 10000 0.51 0 08:34 09.03.2021
1700 Clear 10 1019 81 10000 1.54 70 07:47 09.03.2021
1701 Clear 7 1019 93 10000 1.03 30 07:28 09.03.2021
1702 Clear 7 1019 93 10000 1.03 30 07:28 09.03.2021
1703 Clear 5 1018 93 10000 1.13 191 06:59 09.03.2021
1704 Clear 4 1018 93 10000 1.03 60 05:53 09.03.2021
1705 Clear 4 1017 93 10000 1.14 207 01:48 09.03.2021
1706 Clear 3 1017 87 10000 1.03 150 23:59 08.03.2021
1707 Clear 3 1017 87 10000 1.03 150 23:39 08.03.2021
1708 Clear 5 1017 87 10000 0.51 150 23:20 08.03.2021
1709 Clear 3 1018 87 10000 1.81 187 22:41 08.03.2021
1710 Clear 4 1017 87 10000 1.78 187 22:23 08.03.2021
1711 Clear 4 1017 81 10000 1.78 187 21:50 08.03.2021
1712 Clear 4 1017 81 10000 1.78 187 21:50 08.03.2021
1713 Clear 5 1017 81 10000 1.03 0 21:30 08.03.2021
1714 Clear 5 1017 81 10000 0.51 50 20:44 08.03.2021
1715 Clear 5 1017 70 10000 0.51 0 20:23 08.03.2021
1716 Clear 5 1017 75 10000 1.03 210 19:53 08.03.2021
1717 Clear 7 1017 65 10000 1.03 200 19:27 08.03.2021
1718 Clear 7 1017 65 10000 1.54 230 18:38 08.03.2021
1719 Clear 7 1017 65 10000 1.54 230 18:19 08.03.2021
1720 Clear 7 1016 65 10000 1.03 0 17:46 08.03.2021
1721 Clear 7 1016 65 10000 2.57 230 17:24 08.03.2021
1722 Clear 8 1017 61 10000 2.57 240 16:44 08.03.2021
1723 Clear 8 1017 57 10000 3.09 230 16:25 08.03.2021
1724 Clear 8 1017 57 10000 3.09 240 15:47 08.03.2021
1725 Clear 9 1017 53 10000 3.09 220 15:24 08.03.2021
1726 Clouds 8 1017 57 10000 3.6 220 14:22 08.03.2021
1727 Clouds 9 1018 57 10000 4.12 220 13:58 08.03.2021
1728 Clouds 9 1018 53 10000 4.63 220 13:24 08.03.2021
1729 Clouds 9 1018 57 10000 5.14 220 12:59 08.03.2021
1730 Clouds 10 1018 57 10000 5.14 220 12:40 08.03.2021
1731 Clouds 9 1019 66 10000 5.14 220 12:20 08.03.2021
1732 Clouds 9 1020 71 10000 5.14 220 11:35 08.03.2021
1733 Clouds 8 1020 66 10000 5.14 210 10:58 08.03.2021
1734 Clouds 8 1020 66 10000 5.14 210 10:40 08.03.2021
1735 Clouds 8 1020 61 10000 4.63 210 10:19 08.03.2021
1736 Clouds 8 1020 66 10000 4.63 210 09:30 08.03.2021
1737 Clouds 7 1020 61 10000 4.63 220 08:54 08.03.2021
1738 Clouds 6 1020 70 10000 0.51 0 08:25 08.03.2021
1739 Clouds 3 1020 93 10000 1.54 70 07:22 08.03.2021
1740 Clear 0 1020 93 10000 1.03 0 06:33 08.03.2021
1741 Clear 0 1020 93 10000 1.03 0 02:57 08.03.2021
1742 Clear 2 1022 75 10000 0.51 0 00:43 08.03.2021
1743 Clear 3 1022 75 10000 2.06 60 23:53 07.03.2021
1744 Clear 2 1022 75 10000 2.06 50 23:22 07.03.2021
1745 Clear 3 1022 70 10000 2.06 70 22:49 07.03.2021
1746 Clear 3 1023 65 10000 2.57 40 22:29 07.03.2021
1747 Clear 3 1023 65 10000 3.6 70 21:56 07.03.2021
1748 Clear 4 1023 65 10000 3.6 60 21:34 07.03.2021
1749 Clear 4 1023 60 10000 4.12 80 20:59 07.03.2021
1750 Clear 4 1023 60 10000 4.12 80 20:41 07.03.2021
1751 Clear 4 1023 56 10000 4.12 80 20:19 07.03.2021
1752 Clear 5 1024 52 10000 5.14 50 19:41 07.03.2021
1753 Clear 5 1024 52 10000 5.14 50 19:22 07.03.2021
1754 Clear 5 1024 52 10000 5.14 50 19:22 07.03.2021
1755 Clear 5 1024 52 10000 5.14 60 18:56 07.03.2021
1756 Clear 5 1024 52 10000 5.14 60 18:38 07.03.2021
1757 Clear 5 1024 52 10000 5.14 50 18:18 07.03.2021
1758 Clear 6 1025 52 10000 4.63 50 17:39 07.03.2021
1759 Clear 6 1025 52 10000 5.14 40 17:20 07.03.2021
1760 Clear 6 1025 52 10000 5.14 50 16:43 07.03.2021
1761 Clouds 7 1025 49 10000 6.17 50 16:21 07.03.2021
1762 Clouds 7 1025 53 10000 5.66 50 15:52 07.03.2021
1763 Clouds 7 1025 53 10000 5.66 60 15:32 07.03.2021
1764 Clouds 7 1025 57 10000 5.66 50 14:56 07.03.2021
1765 Clouds 7 1026 61 10000 6.17 50 14:29 07.03.2021
1766 Clouds 7 1026 57 10000 6.17 50 13:51 07.03.2021
1767 Clouds 7 1026 49 10000 5.66 60 13:30 07.03.2021
1768 Clouds 7 1027 53 10000 6.17 50 12:56 07.03.2021
1769 Clouds 7 1027 53 10000 6.17 50 12:37 07.03.2021
1770 Clouds 7 1027 53 10000 7.2 50 12:18 07.03.2021
1771 Clouds 6 1027 61 10000 7.72 60 11:24 07.03.2021
1772 Clouds 6 1027 70 10000 6.17 70 10:55 07.03.2021
1773 Clouds 6 1027 70 10000 6.17 70 10:37 07.03.2021
1774 Clouds 6 1028 70 10000 7.2 60 09:54 07.03.2021
1775 Clouds 6 1028 75 10000 7.2 60 09:29 07.03.2021
1776 Rain 6 1028 81 10000 7.2 50 08:59 07.03.2021
1777 Rain 6 1028 81 10000 7.2 50 08:39 07.03.2021
1778 Rain 6 1028 81 10000 7.2 50 08:39 07.03.2021
1779 Rain 5 1028 81 10000 7.2 60 08:21 07.03.2021
1780 Rain 5 1028 81 10000 5.66 40 06:25 07.03.2021
1781 Rain 6 1027 87 10000 7.2 40 02:39 07.03.2021
1782 Rain 6 1028 87 8000 6.17 40 00:34 07.03.2021
1783 Rain 6 1027 87 8000 6.69 40 23:40 06.03.2021
1784 Rain 6 1027 87 8000 6.17 40 23:20 06.03.2021
1785 Rain 6 1028 93 8000 6.69 50 22:45 06.03.2021
1786 Rain 6 1028 87 8000 6.69 50 22:21 06.03.2021
1787 Rain 6 1027 87 8000 6.17 40 21:47 06.03.2021
1788 Rain 6 1027 93 8000 6.17 50 21:20 06.03.2021
1789 Rain 6 1027 93 8000 6.17 50 20:43 06.03.2021
1790 Rain 6 1027 87 8000 7.72 50 20:18 06.03.2021
1791 Rain 6 1027 87 8000 6.69 40 19:38 06.03.2021
1792 Rain 6 1027 87 8000 6.69 40 19:18 06.03.2021
1793 Rain 6 1026 87 8000 8.23 40 18:41 06.03.2021
1794 Rain 6 1025 87 8000 6.69 40 18:21 06.03.2021
1795 Rain 6 1025 93 5000 7.72 30 17:54 06.03.2021
1796 Rain 7 1024 87 10000 7.72 20 17:32 06.03.2021
1797 Rain 7 1024 87 10000 8.23 20 16:58 06.03.2021
1798 Rain 7 1023 87 10000 8.23 20 16:33 06.03.2021
1799 Rain 8 1023 81 10000 10.29 30 15:56 06.03.2021
1800 Clouds 8 1023 81 10000 8.23 20 15:38 06.03.2021
1801 Clouds 8 1023 81 10000 8.23 20 15:19 06.03.2021
1802 Clouds 9 1022 87 10000 8.23 20 14:31 06.03.2021
1803 Rain 10 1022 87 8000 7.2 10 13:55 06.03.2021
1804 Clouds 10 1022 87 8000 7.2 10 13:37 06.03.2021
1805 Rain 10 1021 93 7000 6.17 10 13:18 06.03.2021
1806 Rain 11 1021 82 10000 6.17 350 12:42 06.03.2021
1807 Rain 12 1021 76 10000 2.06 230 12:18 06.03.2021
1808 Rain 14 1021 71 10000 3.09 270 11:38 06.03.2021
1809 Rain 14 1021 71 10000 2.06 250 11:19 06.03.2021
1810 Rain 14 1021 71 10000 1.54 270 10:43 06.03.2021
1811 Rain 13 1021 71 10000 2.06 260 09:57 06.03.2021
1812 Clear 13 1020 71 10000 1.54 280 09:26 06.03.2021
1813 Clear 12 1020 76 10000 1.54 240 08:56 06.03.2021
1814 Clouds 12 1020 76 10000 0.51 0 08:31 06.03.2021
1815 Clear 12 1020 87 10000 0.51 340 07:55 06.03.2021
1816 Clear 11 1020 87 10000 1.54 330 07:22 06.03.2021
1817 Clear 10 1019 87 10000 3.82 235 06:27 06.03.2021
1818 Clear 12 1018 76 10000 2.57 280 03:49 06.03.2021
1819 Clear 12 1018 76 10000 4.12 270 01:42 06.03.2021
1820 Clear 12 1018 76 10000 4.63 270 00:46 06.03.2021
1821 Clear 12 1018 76 10000 3.09 290 23:49 05.03.2021
1822 Clear 11 1018 71 10000 3.09 250 23:19 05.03.2021
1823 Clear 10 1018 81 10000 2.06 230 22:44 05.03.2021
1824 Clear 9 1018 81 10000 1.54 200 22:22 05.03.2021
1825 Clear 10 1018 71 10000 2.57 250 21:51 05.03.2021
1826 Clear 10 1018 71 10000 1.03 210 21:31 05.03.2021
1827 Clear 10 1017 71 10000 1.03 0 20:50 05.03.2021
1828 Clear 10 1017 71 10000 1.54 250 20:26 05.03.2021
1829 Clear 10 1017 71 10000 1.54 250 20:26 05.03.2021
1830 Clear 11 1017 66 10000 1.54 200 19:54 05.03.2021
1831 Clear 11 1017 66 10000 1.54 180 19:26 05.03.2021
1832 Clear 12 1017 54 10000 1.54 180 18:55 05.03.2021
1833 Clear 12 1017 50 10000 2.06 280 18:36 05.03.2021
1834 Clear 12 1017 50 10000 2.06 280 18:18 05.03.2021
1835 Clear 14 1016 41 10000 1.54 280 17:33 05.03.2021
1836 Clear 16 1016 38 10000 1.54 270 16:45 05.03.2021
1837 Clear 16 1016 38 10000 2.06 260 16:24 05.03.2021
1838 Clear 16 1016 44 10000 2.06 240 15:56 05.03.2021
1839 Clear 16 1017 47 10000 2.57 250 15:29 05.03.2021
1840 Clear 15 1017 51 10000 3.6 260 14:58 05.03.2021
1841 Clear 15 1017 51 10000 3.6 250 14:38 05.03.2021
1842 Clear 15 1017 51 10000 3.6 250 13:46 05.03.2021
1843 Clear 15 1017 54 10000 2.57 240 13:21 05.03.2021
1844 Clear 15 1017 54 10000 3.6 250 12:48 05.03.2021
1845 Clear 14 1018 54 10000 5.14 250 11:41 05.03.2021
1846 Clear 14 1018 54 10000 5.14 250 11:41 05.03.2021
1847 Clear 14 1018 58 10000 5.14 250 11:21 05.03.2021
1848 Clear 13 1018 58 10000 5.14 250 10:59 05.03.2021
1849 Clear 13 1019 58 10000 5.66 240 10:39 05.03.2021
1850 Clear 13 1019 58 10000 5.66 240 10:20 05.03.2021
1851 Clear 12 1019 62 10000 5.66 240 09:46 05.03.2021
1852 Clear 12 1019 62 10000 5.14 240 09:26 05.03.2021
1853 Clear 11 1018 62 10000 4.63 230 08:40 05.03.2021
1854 Clear 11 1018 62 10000 4.63 230 08:21 05.03.2021
1855 Clear 10 1018 66 10000 4.12 240 07:37 05.03.2021
1856 Clear 8 1018 71 10000 4.12 240 06:45 05.03.2021
1857 Clear 7 1018 76 10000 4.12 250 06:27 05.03.2021
1858 Clear 7 1019 76 10000 3.6 210 01:40 05.03.2021
1859 Clear 6 1019 93 10000 1.03 160 00:19 05.03.2021
1860 Clear 5 1019 93 10000 0.51 0 23:26 04.03.2021
1861 Clear 6 1019 81 10000 1.03 0 22:37 04.03.2021
1862 Clear 5 1020 87 10000 1.03 210 21:56 04.03.2021
1863 Clear 6 1020 81 10000 1.54 200 21:34 04.03.2021
1864 Clear 6 1020 81 10000 1.03 220 20:59 04.03.2021
1865 Clear 6 1020 81 10000 1.03 220 20:40 04.03.2021
1866 Clear 7 1020 81 10000 1.54 210 20:21 04.03.2021
1867 Clear 7 1020 81 10000 1.54 210 19:51 04.03.2021
1868 Clear 7 1020 75 10000 1.54 200 19:26 04.03.2021
1869 Clear 7 1020 81 10000 1.54 200 18:52 04.03.2021
1870 Clear 7 1021 81 10000 1.54 210 18:30 04.03.2021
1871 Clear 7 1021 76 10000 1.54 230 17:51 04.03.2021
1872 Clear 7 1021 76 10000 2.06 220 17:31 04.03.2021
1873 Clear 8 1021 71 10000 2.57 240 16:56 04.03.2021
1874 Clear 8 1021 71 10000 2.57 240 16:38 04.03.2021
1875 Clear 9 1021 61 10000 2.57 260 16:19 04.03.2021
1876 Clear 9 1022 61 10000 2.57 240 15:45 04.03.2021
1877 Clear 9 1022 66 10000 3.09 230 15:24 04.03.2021
1878 Clear 9 1023 66 10000 3.09 250 14:40 04.03.2021
1879 Clear 9 1023 66 10000 3.09 240 13:59 04.03.2021
1880 Clear 9 1023 66 10000 3.09 230 13:40 04.03.2021
1881 Clear 9 1023 66 10000 3.09 230 13:19 04.03.2021
1882 Clouds 8 1024 71 10000 3.09 220 12:41 04.03.2021
1883 Clouds 9 1025 71 10000 3.09 190 11:51 04.03.2021
1884 Clouds 9 1025 71 10000 3.09 200 11:32 04.03.2021
1885 Clouds 9 1025 71 10000 3.09 190 10:58 04.03.2021
1886 Clouds 9 1026 71 10000 2.57 180 10:36 04.03.2021
1887 Clouds 8 1026 76 10000 2.57 180 09:53 04.03.2021
1888 Clear 8 1026 71 10000 2.06 150 09:27 04.03.2021
1889 Clear 7 1026 71 10000 2.06 170 08:49 04.03.2021
1890 Clear 7 1026 76 10000 1.54 170 08:24 04.03.2021
1891 Clear 5 1027 87 10000 0.51 10 07:36 04.03.2021
1892 Clear 2 1027 93 10000 0.51 0 06:31 04.03.2021
1893 Clear 3 1027 86 7000 2.06 60 05:57 04.03.2021
1894 Clouds 2 1028 86 10000 1.54 20 02:29 04.03.2021
1895 Clouds 4 1029 81 10000 3.09 60 23:42 03.03.2021
1896 Clouds 5 1029 81 10000 2.06 70 22:29 03.03.2021
1897 Clear 5 1030 75 10000 2.06 60 21:59 03.03.2021
1898 Clear 5 1030 75 10000 2.06 60 21:41 03.03.2021
1899 Clouds 4 1030 87 10000 2.06 40 21:22 03.03.2021
1900 Clouds 6 1030 70 10000 2.06 40 20:43 03.03.2021
1901 Clouds 6 1030 70 10000 3.6 40 20:24 03.03.2021
1902 Clouds 6 1030 70 10000 4.12 40 19:48 03.03.2021
1903 Clouds 6 1030 70 10000 4.12 40 19:29 03.03.2021
1904 Clouds 7 1030 70 10000 4.63 20 18:53 03.03.2021
1905 Clouds 7 1030 70 10000 4.63 20 18:34 03.03.2021
1906 Clouds 7 1030 76 10000 3.6 20 17:57 03.03.2021
1907 Clouds 7 1030 70 10000 5.14 30 17:21 03.03.2021
1908 Clouds 8 1029 71 10000 4.63 20 16:51 03.03.2021
1909 Clouds 8 1030 71 10000 4.63 10 16:27 03.03.2021
1910 Clouds 9 1030 66 10000 5.14 50 15:51 03.03.2021
1911 Clouds 9 1030 66 10000 5.66 30 15:31 03.03.2021
1912 Clouds 10 1030 62 10000 5.14 20 14:39 03.03.2021
1913 Clouds 10 1030 62 10000 5.14 20 14:20 03.03.2021
1914 Clouds 10 1030 62 10000 4.63 30 13:39 03.03.2021
1915 Clouds 10 1030 62 10000 5.66 50 13:21 03.03.2021
1916 Clouds 10 1030 62 10000 6.69 50 12:41 03.03.2021
1917 Clouds 10 1030 71 10000 6.69 40 12:22 03.03.2021
1918 Clouds 10 1030 66 10000 5.14 50 11:44 03.03.2021
1919 Clouds 10 1030 71 10000 3.6 40 11:26 03.03.2021
1920 Clouds 9 1030 66 10000 5.14 40 10:45 03.03.2021
1921 Clouds 9 1030 66 10000 4.63 20 10:21 03.03.2021
1922 Clouds 9 1030 61 10000 3.6 20 09:41 03.03.2021
1923 Clear 7 1030 70 10000 1.54 320 08:52 03.03.2021
1924 Clear 7 1030 70 10000 1.54 330 08:24 03.03.2021
1925 Clear 5 1030 75 10000 1.54 0 07:55 03.03.2021
1926 Clear 4 1029 81 10000 2.06 340 07:28 03.03.2021
1927 Clear 2 1029 100 10000 2.57 350 06:22 03.03.2021
1928 Clear 3 1028 100 10000 2.57 340 05:44 03.03.2021
1929 Clear 3 1028 93 10000 2.06 350 04:36 03.03.2021
1930 Clear 2 1028 93 10000 2.57 350 03:54 03.03.2021
1931 Clouds 5 1029 81 10000 4.12 20 00:34 03.03.2021
1932 Clouds 4 1030 87 10000 4.12 10 23:35 02.03.2021
1933 Clouds 4 1030 87 10000 2.57 360 22:53 02.03.2021
1934 Clouds 4 1030 87 10000 2.57 20 22:22 02.03.2021
1935 Clouds 5 1030 87 10000 4.12 20 21:54 02.03.2021
1936 Clouds 5 1030 87 10000 4.12 40 21:36 02.03.2021
1937 Clouds 6 1030 81 10000 4.12 40 20:56 02.03.2021
1938 Clouds 6 1030 81 10000 4.12 40 20:38 02.03.2021
1939 Clouds 6 1030 81 10000 4.12 40 20:20 02.03.2021
1940 Clouds 6 1030 87 10000 5.14 40 19:47 02.03.2021
1941 Clouds 6 1030 87 10000 4.63 40 19:28 02.03.2021
1942 Clouds 5 1030 93 10000 4.12 40 18:42 02.03.2021
1943 Clouds 5 1030 93 10000 4.12 40 18:22 02.03.2021
1944 Clouds 6 1030 81 10000 5.14 10 17:58 02.03.2021
1945 Clouds 5 1030 87 10000 7.2 20 17:39 02.03.2021
1946 Clouds 5 1030 87 10000 7.2 20 17:19 02.03.2021
1947 Clouds 5 1030 87 10000 7.2 20 17:19 02.03.2021
1948 Clouds 5 1030 87 10000 6.69 20 16:45 02.03.2021
1949 Clouds 6 1029 87 8000 6.69 20 15:54 02.03.2021
1950 Clouds 6 1030 81 10000 7.2 20 15:27 02.03.2021
1951 Clouds 6 1030 87 10000 7.2 10 14:49 02.03.2021
1952 Clouds 7 1030 87 10000 7.2 10 14:19 02.03.2021
1953 Clouds 6 1030 87 8000 7.2 10 13:44 02.03.2021
1954 Rain 6 1030 87 10000 6.17 10 13:24 02.03.2021
1955 Rain 7 1030 81 10000 8.23 360 12:47 02.03.2021
1956 Clouds 7 1030 87 10000 6.17 10 12:25 02.03.2021
1957 Clouds 6 1031 87 10000 6.69 10 11:45 02.03.2021
1958 Clouds 7 1030 81 10000 6.17 20 11:23 02.03.2021
1959 Clouds 6 1030 81 10000 6.69 20 10:49 02.03.2021
1960 Clouds 6 1030 81 10000 7.2 20 10:29 02.03.2021
1961 Clouds 7 1030 81 10000 5.14 20 09:41 02.03.2021
1962 Clouds 7 1030 81 10000 7.2 20 09:22 02.03.2021
1963 Clouds 6 1030 87 10000 2.57 20 08:43 02.03.2021
1964 Clouds 6 1031 81 10000 5.14 50 08:25 02.03.2021
1965 Clouds 5 1030 87 10000 5.14 20 07:41 02.03.2021
1966 Clouds 5 1030 87 10000 4.12 20 06:37 02.03.2021
1967 Clouds 5 1030 81 10000 5.14 20 05:47 02.03.2021
1968 Clouds 5 1030 81 10000 6.17 30 05:29 02.03.2021
1969 Clouds 5 1029 81 10000 5.14 20 02:35 02.03.2021
1970 Rain 5 1029 87 10000 6.17 20 01:42 02.03.2021
1971 Clouds 5 1030 87 10000 6.17 30 01:18 02.03.2021
1972 Clouds 5 1029 87 10000 4.63 20 23:29 01.03.2021
1973 Clouds 5 1029 87 10000 4.12 20 22:43 01.03.2021
1974 Clouds 5 1029 81 10000 6.17 30 22:24 01.03.2021
1975 Clouds 5 1029 81 10000 6.17 30 21:52 01.03.2021
1976 Clouds 5 1029 87 10000 5.14 20 21:24 01.03.2021
1977 Rain 5 1029 87 10000 5.14 20 20:55 01.03.2021
1978 Rain 5 1029 87 10000 5.14 20 20:37 01.03.2021
1979 Rain 5 1029 87 8000 5.14 20 20:18 01.03.2021
1980 Rain 6 1028 87 8000 4.63 20 19:41 01.03.2021
1981 Rain 6 1028 81 10000 4.12 20 19:18 01.03.2021
1982 Rain 6 1028 87 8000 4.63 20 18:37 01.03.2021
1983 Rain 6 1028 87 8000 4.63 20 18:19 01.03.2021
1984 Rain 6 1028 81 8000 6.69 10 17:42 01.03.2021
1985 Rain 6 1027 87 10000 7.2 10 17:19 01.03.2021
1986 Rain 7 1027 76 10000 8.23 10 16:45 01.03.2021
1987 Rain 8 1027 66 10000 7.2 10 16:26 01.03.2021
1988 Rain 8 1026 66 10000 7.2 360 15:42 01.03.2021
1989 Clouds 9 1026 61 10000 5.66 10 15:21 01.03.2021
1990 Clouds 9 1026 57 10000 3.09 290 14:49 01.03.2021
1991 Clouds 9 1026 61 10000 3.6 260 14:30 01.03.2021
1992 Clouds 10 1026 62 10000 4.12 240 13:44 01.03.2021
1993 Clouds 10 1026 66 10000 4.12 240 13:25 01.03.2021
1994 Clouds 10 1026 66 10000 4.12 240 13:24 01.03.2021
1995 Clouds 10 1026 62 10000 4.12 240 12:58 01.03.2021
1996 Clouds 10 1026 62 10000 4.12 240 12:38 01.03.2021
1997 Clouds 9 1027 66 10000 3.6 250 12:19 01.03.2021
1998 Clouds 9 1027 71 10000 3.6 240 11:42 01.03.2021
1999 Clear 9 1027 66 10000 3.09 240 10:45 01.03.2021
2000 Clear 9 1027 71 10000 3.09 240 10:23 01.03.2021
2001 Clear 9 1027 71 10000 2.57 240 09:59 01.03.2021
2002 Clear 9 1027 71 10000 2.57 240 09:40 01.03.2021
2003 Clear 8 1028 76 10000 2.06 240 09:21 01.03.2021
2004 Clear 8 1028 76 10000 2.06 220 08:51 01.03.2021
2005 Clear 8 1028 71 10000 1.54 230 08:18 01.03.2021
2006 Clear 4 1027 93 10000 0.36 202 06:53 01.03.2021
2007 Clear 3 1027 93 10000 1.54 340 04:21 01.03.2021
2008 Clear 4 1028 87 10000 0.51 0 00:56 01.03.2021
2009 Clear 5 1029 81 10000 1.03 340 23:36 28.02.2021
2010 Clear 5 1029 87 10000 1.54 340 22:51 28.02.2021
2011 Clouds 5 1029 81 10000 2.06 340 22:23 28.02.2021
2012 Clear 5 1029 81 10000 1.54 350 21:51 28.02.2021
2013 Clear 5 1029 81 10000 2.57 360 21:28 28.02.2021
2014 Clear 5 1029 81 10000 2.57 360 21:28 28.02.2021
2015 Clear 5 1029 81 10000 1.54 30 20:56 28.02.2021
2016 Clear 6 1029 70 10000 3.6 30 20:36 28.02.2021
2017 Clouds 7 1029 65 10000 4.12 40 19:47 28.02.2021
2018 Clouds 7 1029 65 10000 3.09 50 19:28 28.02.2021
2019 Clouds 7 1029 65 10000 4.12 30 18:57 28.02.2021
2020 Clouds 7 1029 65 10000 4.12 30 18:57 28.02.2021
2021 Clouds 7 1029 65 10000 4.12 30 18:37 28.02.2021
2022 Clouds 7 1029 65 10000 5.14 30 18:18 28.02.2021
2023 Clouds 7 1029 65 10000 5.14 30 17:45 28.02.2021
2024 Clouds 7 1029 70 10000 4.63 30 17:27 28.02.2021
2025 Clouds 8 1029 66 10000 5.14 30 16:50 28.02.2021
2026 Clouds 8 1029 70 10000 7.2 20 16:30 28.02.2021
2027 Clouds 9 1028 57 10000 6.17 20 15:53 28.02.2021
2028 Clouds 9 1028 57 10000 6.69 10 15:31 28.02.2021
2029 Clouds 9 1028 50 10000 7.2 30 14:59 28.02.2021
2030 Clouds 9 1028 53 10000 7.2 40 14:39 28.02.2021
2031 Clouds 9 1028 53 10000 7.2 40 14:20 28.02.2021
2032 Clouds 10 1028 57 10000 6.17 30 13:42 28.02.2021
2033 Clouds 10 1028 46 10000 7.2 30 13:19 28.02.2021
2034 Clouds 10 1029 53 10000 7.2 20 12:55 28.02.2021
2035 Clouds 10 1029 53 10000 7.2 20 12:36 28.02.2021
2036 Clouds 10 1028 50 10000 7.2 30 12:18 28.02.2021
2037 Clouds 11 1029 50 10000 7.2 30 11:42 28.02.2021
2038 Clouds 10 1029 57 10000 7.2 30 11:22 28.02.2021
2039 Clouds 10 1028 61 10000 6.69 20 10:49 28.02.2021
2040 Clouds 8 1028 66 10000 6.69 10 10:26 28.02.2021
2041 Clouds 8 1028 66 10000 6.69 20 09:42 28.02.2021
2042 Clouds 8 1028 66 10000 6.69 20 09:42 28.02.2021
2043 Clouds 9 1028 71 10000 6.69 20 09:24 28.02.2021
2044 Clouds 8 1028 71 10000 7.72 30 08:47 28.02.2021
2045 Clouds 8 1027 76 10000 5.66 40 08:29 28.02.2021
2046 Clouds 8 1027 76 10000 6.17 30 07:52 28.02.2021
2047 Rain 8 1027 76 10000 8.23 40 07:30 28.02.2021
2048 Clouds 8 1026 87 10000 7.72 30 06:27 28.02.2021
2049 Clouds 7 1026 87 10000 7.2 20 05:24 28.02.2021
2050 Clouds 9 1025 81 10000 7.2 30 03:26 28.02.2021
2051 Clouds 9 1024 76 10000 6.69 40 01:41 28.02.2021
2052 Mist 9 1023 81 4000 11.32 40 00:49 28.02.2021
2053 Mist 9 1022 81 4000 10.29 40 00:25 28.02.2021
2054 Clouds 9 1022 87 6000 9.77 30 23:44 27.02.2021
2055 Clouds 9 1022 87 6000 8.23 30 23:19 27.02.2021
2056 Clear 9 1021 87 6000 8.75 20 22:44 27.02.2021
2057 Clear 8 1021 93 8000 6.17 10 22:19 27.02.2021
2058 Clear 9 1020 81 10000 7.72 10 21:41 27.02.2021
2059 Clear 9 1020 76 9000 5.14 10 21:23 27.02.2021
2060 Clear 8 1020 81 6000 2.57 360 20:48 27.02.2021
2061 Clear 8 1019 87 7000 1.64 10 20:27 27.02.2021
2062 Clear 8 1019 93 7000 1.54 360 19:45 27.02.2021
2063 Clear 8 1019 87 7000 0.51 0 19:27 27.02.2021
2064 Clear 9 1019 87 7000 1.03 200 18:45 27.02.2021
2065 Clear 9 1019 87 7000 1.54 0 18:21 27.02.2021
2066 Clear 9 1019 87 10000 0.51 270 17:55 27.02.2021
2067 Clear 9 1019 87 10000 0.51 270 17:36 27.02.2021
2068 Clear 9 1019 87 10000 0.51 270 17:36 27.02.2021
2069 Clear 10 1019 81 10000 1.03 0 17:18 27.02.2021
2070 Clear 10 1019 87 10000 1.54 240 16:48 27.02.2021
2071 Clear 11 1018 82 10000 2.06 240 16:25 27.02.2021
2072 Clear 12 1019 71 10000 2.57 220 15:41 27.02.2021
2073 Clear 12 1019 71 10000 2.57 210 14:57 27.02.2021
2074 Clear 12 1019 71 10000 2.57 210 14:39 27.02.2021
2075 Clear 12 1019 66 10000 2.57 220 14:19 27.02.2021
2076 Clear 12 1019 71 10000 2.06 220 13:37 27.02.2021
2077 Clear 12 1019 76 10000 2.57 220 13:18 27.02.2021
2078 Clear 12 1020 82 10000 3.09 240 12:40 27.02.2021
2079 Clear 12 1020 82 10000 4.12 220 12:22 27.02.2021
2080 Clear 13 1020 82 10000 4.12 230 11:43 27.02.2021
2081 Clear 13 1021 82 10000 3.09 240 11:24 27.02.2021
2082 Clear 11 1021 81 10000 3.09 240 10:47 27.02.2021
2083 Clear 12 1021 76 10000 2.06 220 10:28 27.02.2021
2084 Clear 11 1021 81 10000 2.57 220 09:51 27.02.2021
2085 Clear 11 1021 81 10000 2.57 210 09:26 27.02.2021
2086 Clear 10 1021 81 10000 2.57 190 08:42 27.02.2021
2087 Clear 9 1021 81 10000 2.06 190 08:21 27.02.2021
2088 Clear 9 1021 81 10000 1.03 160 07:42 27.02.2021
2089 Clear 2 1021 93 10000 1.03 37 05:18 27.02.2021
2090 Clear 5 1023 81 10000 3.09 360 00:56 27.02.2021
2091 Clear 5 1023 87 10000 2.57 350 23:54 26.02.2021
2092 Clear 4 1023 87 10000 2.06 360 23:30 26.02.2021
2093 Clear 6 1023 81 10000 2.06 20 22:59 26.02.2021
2094 Clear 6 1024 87 10000 2.06 360 22:30 26.02.2021
2095 Clear 6 1024 81 10000 2.06 30 21:47 26.02.2021
2096 Clear 7 1024 76 10000 3.09 30 21:28 26.02.2021
2097 Clear 8 1024 66 10000 2.57 60 20:44 26.02.2021
2098 Clear 8 1024 66 10000 2.57 60 20:44 26.02.2021
2099 Clear 8 1024 66 10000 2.57 70 20:22 26.02.2021
2100 Clear 8 1025 66 10000 2.57 60 19:52 26.02.2021
2101 Clear 9 1025 66 10000 2.06 70 19:25 26.02.2021
2102 Clear 10 1025 66 10000 4.12 40 18:46 26.02.2021
2103 Clear 10 1025 58 10000 4.12 40 18:23 26.02.2021
2104 Clear 11 1025 58 10000 3.6 40 17:44 26.02.2021
2105 Clear 11 1025 54 10000 4.12 40 17:26 26.02.2021
2106 Clear 13 1026 50 10000 3.6 40 16:53 26.02.2021
2107 Clear 14 1026 51 10000 4.12 70 16:32 26.02.2021
2108 Clear 14 1026 62 10000 1.54 240 15:58 26.02.2021
2109 Clear 14 1026 62 10000 1.54 240 15:39 26.02.2021
2110 Clear 12 1026 71 10000 3.09 260 15:20 26.02.2021
2111 Clear 13 1026 62 10000 2.57 260 14:47 26.02.2021
2112 Clear 13 1026 58 10000 2.06 240 14:26 26.02.2021
2113 Clear 14 1027 58 10000 2.06 230 13:46 26.02.2021
2114 Clear 12 1027 66 10000 2.57 240 13:25 26.02.2021
2115 Clear 13 1028 66 10000 3.6 250 12:40 26.02.2021
2116 Clear 13 1029 58 10000 3.6 230 11:58 26.02.2021
2117 Clear 13 1029 58 10000 3.6 230 11:38 26.02.2021
2118 Clear 13 1029 50 10000 1.54 80 10:54 26.02.2021
2119 Clear 11 1030 58 10000 1.54 80 10:20 26.02.2021
2120 Clear 11 1030 62 10000 2.57 80 09:46 26.02.2021
2121 Clear 10 1030 71 10000 3.09 80 09:26 26.02.2021
2122 Clear 7 1031 81 10000 2.06 50 08:29 26.02.2021
2123 Clear 7 1031 87 10000 3.6 50 07:52 26.02.2021
2124 Clear 5 1031 87 10000 3.09 40 06:48 26.02.2021
2125 Clear 4 1031 87 10000 2.57 30 05:39 26.02.2021
2126 Clear 4 1031 87 10000 2.06 90 03:51 26.02.2021
2127 Clear 5 1031 81 10000 3.09 70 02:36 26.02.2021
2128 Clear 6 1032 87 10000 0.51 0 00:24 26.02.2021
2129 Clear 5 1032 87 10000 3.09 60 23:29 25.02.2021
2130 Clear 6 1033 81 10000 3.6 70 22:50 25.02.2021
2131 Clear 6 1033 81 10000 3.6 70 22:31 25.02.2021
2132 Clear 6 1033 81 10000 3.6 70 21:47 25.02.2021
2133 Clear 6 1033 81 10000 5.14 60 21:28 25.02.2021
2134 Clear 6 1033 81 10000 5.14 60 20:42 25.02.2021
2135 Clear 6 1033 81 10000 6.17 60 20:23 25.02.2021
2136 Clear 7 1033 81 10000 4.63 70 19:52 25.02.2021
2137 Clear 7 1033 76 10000 4.12 80 19:22 25.02.2021
2138 Clear 7 1033 76 10000 3.6 60 18:58 25.02.2021
2139 Clear 8 1033 76 10000 4.12 30 18:31 25.02.2021
2140 Clouds 8 1033 76 10000 4.12 40 17:51 25.02.2021
2141 Clouds 9 1033 71 10000 5.66 50 17:29 25.02.2021
2142 Clouds 9 1033 71 10000 6.69 60 16:52 25.02.2021
2143 Clouds 10 1033 66 10000 7.2 60 16:26 25.02.2021
2144 Clouds 11 1033 62 10000 6.17 40 15:36 25.02.2021
2145 Clouds 11 1033 62 10000 5.66 40 15:18 25.02.2021
2146 Clouds 11 1033 62 10000 6.17 60 14:28 25.02.2021
2147 Clouds 11 1033 62 10000 5.14 50 13:56 25.02.2021
2148 Clouds 11 1033 62 10000 5.14 50 13:36 25.02.2021
2149 Clouds 11 1033 62 10000 6.17 60 13:18 25.02.2021
2150 Clouds 10 1034 71 10000 6.17 40 12:22 25.02.2021
2151 Clouds 10 1035 76 10000 4.63 40 11:47 25.02.2021
2152 Clouds 8 1035 81 10000 6.17 30 11:21 25.02.2021
2153 Clouds 8 1035 81 10000 6.17 40 10:46 25.02.2021
2154 Clouds 8 1035 81 10000 6.17 50 10:26 25.02.2021
2155 Clouds 8 1035 81 10000 5.66 60 09:43 25.02.2021
2156 Clouds 8 1035 81 10000 5.66 50 08:56 25.02.2021
2157 Clouds 8 1035 81 10000 6.17 40 08:25 25.02.2021
2158 Clouds 7 1035 87 10000 6.17 30 07:56 25.02.2021
2159 Clouds 7 1035 87 10000 6.17 30 07:34 25.02.2021
2160 Clouds 7 1034 87 10000 5.66 30 06:55 25.02.2021
2161 Clouds 7 1034 87 8000 5.66 30 02:39 25.02.2021
2162 Clouds 7 1035 87 7000 5.14 30 01:38 25.02.2021
2163 Clouds 7 1034 93 10000 6.17 50 00:42 25.02.2021
2164 Clouds 7 1034 93 10000 3.6 30 23:53 24.02.2021
2165 Clouds 8 1034 93 10000 4.63 30 23:28 24.02.2021
2166 Clouds 8 1034 93 10000 5.66 20 22:45 24.02.2021
2167 Clouds 8 1035 87 8000 3.6 30 22:25 24.02.2021
2168 Clouds 8 1035 87 8000 4.12 20 21:46 24.02.2021
2169 Clouds 8 1034 81 8000 5.66 40 20:59 24.02.2021
2170 Clouds 8 1034 81 8000 5.66 40 20:40 24.02.2021
2171 Clouds 8 1034 81 8000 4.12 30 20:20 24.02.2021
2172 Clouds 8 1034 81 8000 5.14 50 19:29 24.02.2021
2173 Clouds 8 1034 81 8000 5.66 40 18:59 24.02.2021
2174 Clouds 8 1034 81 8000 5.66 40 18:39 24.02.2021
2175 Clouds 8 1034 81 8000 4.12 30 18:21 24.02.2021
2176 Clouds 8 1033 81 8000 5.66 20 17:38 24.02.2021
2177 Clouds 8 1033 76 8000 6.17 20 17:18 24.02.2021
2178 Clouds 8 1033 76 8000 6.17 10 16:43 24.02.2021
2179 Clouds 8 1033 76 10000 6.17 30 16:19 24.02.2021
2180 Clouds 8 1033 76 10000 4.12 30 15:40 24.02.2021
2181 Clouds 8 1033 71 10000 5.66 40 14:55 24.02.2021
2182 Clouds 8 1033 71 10000 4.63 20 14:35 24.02.2021
2183 Clouds 9 1033 71 8000 6.17 10 13:58 24.02.2021
2184 Clouds 8 1034 71 8000 4.12 30 13:39 24.02.2021
2185 Clouds 9 1034 71 8000 4.12 30 13:21 24.02.2021
2186 Clouds 9 1033 76 8000 4.12 20 12:44 24.02.2021
2187 Clouds 8 1034 76 8000 5.14 10 12:23 24.02.2021
2188 Clouds 8 1034 76 10000 4.63 30 11:46 24.02.2021
2189 Clouds 8 1034 76 10000 6.17 30 10:52 24.02.2021
2190 Clouds 8 1034 76 8000 5.66 40 10:30 24.02.2021
2191 Clouds 8 1034 81 7000 5.14 20 09:44 24.02.2021
2192 Clouds 7 1034 87 6000 5.66 20 09:20 24.02.2021
2193 Mist 7 1034 87 4000 4.12 20 08:34 24.02.2021
2194 Mist 7 1033 87 4000 5.66 20 07:57 24.02.2021
2195 Mist 7 1033 87 4000 3.09 10 07:20 24.02.2021
2196 Mist 7 1032 87 3500 4.12 20 06:23 24.02.2021
2197 Mist 7 1032 93 2400 4.63 20 03:28 24.02.2021
2198 Mist 5 1032 81 4500 3.6 360 00:22 24.02.2021
2199 Mist 5 1031 81 3200 3.09 360 23:21 23.02.2021
2200 Mist 5 1031 81 4000 2.06 360 22:37 23.02.2021
2201 Mist 5 1031 81 4000 2.06 360 22:19 23.02.2021
2202 Mist 6 1031 81 4000 2.06 350 21:42 23.02.2021
2203 Mist 6 1031 81 4000 2.06 350 21:22 23.02.2021
2204 Clear 7 1031 81 6000 1.54 340 20:48 23.02.2021
2205 Clear 7 1031 81 6000 1.54 340 20:29 23.02.2021
2206 Clear 7 1031 70 8000 1.79 33 19:48 23.02.2021
2207 Clear 7 1031 75 8000 2.02 40 19:27 23.02.2021
2208 Clear 7 1031 81 7000 1.03 0 18:55 23.02.2021
2209 Clear 8 1031 81 7000 2.28 41 18:32 23.02.2021
2210 Clear 9 1031 81 7000 1.03 0 17:54 23.02.2021
2211 Clear 9 1031 81 7000 1.54 250 17:33 23.02.2021
2212 Clear 10 1030 76 8000 1.03 0 16:50 23.02.2021
2213 Clear 10 1031 76 8000 1.03 230 16:27 23.02.2021
2214 Clear 11 1031 71 8000 2.06 250 15:57 23.02.2021
2215 Clear 11 1031 71 8000 2.06 250 15:38 23.02.2021
2216 Clear 12 1031 76 7000 2.06 230 15:18 23.02.2021
2217 Clear 12 1031 76 7000 2.57 240 14:42 23.02.2021
2218 Clear 12 1031 76 7000 2.57 240 14:42 23.02.2021
2219 Clear 11 1031 76 7000 2.57 230 14:24 23.02.2021
2220 Clear 11 1031 76 8000 3.09 220 13:43 23.02.2021
2221 Clear 12 1031 66 8000 2.57 220 13:23 23.02.2021
2222 Clear 11 1031 71 8000 3.09 250 12:51 23.02.2021
2223 Clear 11 1031 71 8000 3.09 230 12:20 23.02.2021
2224 Clear 11 1031 71 10000 3.09 240 11:46 23.02.2021
2225 Clear 11 1032 66 8000 2.57 230 11:21 23.02.2021
2226 Clear 11 1032 71 8000 2.06 170 10:40 23.02.2021
2227 Clear 11 1032 71 6000 1.54 140 10:21 23.02.2021
2228 Clear 11 1032 76 6000 2.06 110 09:42 23.02.2021
2229 Mist 10 1032 76 4500 2.06 110 09:22 23.02.2021
2230 Mist 9 1032 76 4500 2.06 110 08:48 23.02.2021
2231 Mist 8 1032 76 4000 1.03 90 08:21 23.02.2021
2232 Mist 6 1032 93 4000 1.54 60 07:48 23.02.2021
2233 Clear 1 1031 93 8000 0.51 40 05:30 23.02.2021
2234 Clear 2 1031 93 8000 0.8 64 04:25 23.02.2021
2235 Clear 2 1030 93 10000 2.06 340 02:34 23.02.2021
2236 Clear 2 1031 93 10000 1.03 360 00:20 23.02.2021
2237 Clear 2 1030 93 10000 0.51 350 23:46 22.02.2021
2238 Clear 3 1030 87 10000 0.51 340 23:20 22.02.2021
2239 Clear 4 1031 87 10000 0.51 0 22:39 22.02.2021
2240 Clear 4 1031 87 10000 1.11 37 22:20 22.02.2021
2241 Clear 3 1030 87 10000 1.03 0 21:40 22.02.2021
2242 Clear 4 1030 87 10000 0.51 20 21:21 22.02.2021
2243 Clear 4 1030 81 10000 1.03 0 20:50 22.02.2021
2244 Clear 6 1030 75 10000 1.03 50 20:27 22.02.2021
2245 Clear 5 1030 81 10000 1.54 70 19:51 22.02.2021
2246 Clear 6 1030 70 10000 2.06 70 19:30 22.02.2021
2247 Clear 8 1031 66 10000 2.06 80 18:56 22.02.2021
2248 Clear 6 1031 70 10000 1.29 46 18:37 22.02.2021
2249 Clear 6 1031 70 10000 1.29 46 18:18 22.02.2021
2250 Clear 8 1030 61 10000 1.54 0 17:22 22.02.2021
2251 Clear 8 1030 61 10000 1.54 0 17:22 22.02.2021
2252 Clear 8 1030 61 10000 1.54 0 17:22 22.02.2021
2253 Clear 8 1030 66 10000 3.09 270 16:54 22.02.2021
2254 Clear 9 1030 57 10000 3.09 240 16:31 22.02.2021
2255 Clear 10 1031 61 10000 3.09 270 15:42 22.02.2021
2256 Clear 10 1031 61 10000 3.09 250 15:21 22.02.2021
2257 Clear 10 1031 57 10000 3.09 250 14:44 22.02.2021
2258 Clear 11 1031 46 10000 2.06 230 14:22 22.02.2021
2259 Clear 11 1031 50 10000 3.09 230 13:45 22.02.2021
2260 Clear 10 1031 53 10000 2.06 170 12:56 22.02.2021
2261 Clear 10 1031 62 10000 3.09 180 12:23 22.02.2021
2262 Clear 10 1031 57 10000 2.57 170 11:57 22.02.2021
2263 Clear 9 1032 61 10000 2.06 120 11:33 22.02.2021
2264 Clear 9 1032 61 10000 3.6 120 10:59 22.02.2021
2265 Clear 9 1032 61 10000 3.6 120 10:41 22.02.2021
2266 Clear 8 1032 61 10000 3.6 120 10:21 22.02.2021
2267 Clear 8 1032 66 10000 3.09 100 09:40 22.02.2021
2268 Clear 8 1032 61 10000 2.57 100 09:22 22.02.2021
2269 Clear 7 1032 70 10000 3.09 70 08:49 22.02.2021
2270 Clear 6 1032 70 10000 2.06 70 08:21 22.02.2021
2271 Clear 5 1032 81 8000 1.03 0 07:50 22.02.2021
2272 Clouds 3 1032 93 8000 1.54 10 07:22 22.02.2021
2273 Clouds 1 1031 93 8000 2.06 360 06:28 22.02.2021
2274 Clouds 1 1032 93 8000 1.03 30 04:55 22.02.2021
2275 Clear 1 1031 93 10000 1.54 20 03:23 22.02.2021
2276 Clear 1 1032 86 10000 2.57 60 01:59 22.02.2021
2277 Clear 1 1032 86 10000 1.54 50 00:44 22.02.2021
2278 Clear 2 1032 87 10000 2.06 60 00:18 22.02.2021
2279 Clear 2 1032 87 10000 2.57 40 23:27 21.02.2021
2280 Clear 3 1032 75 10000 3.09 60 22:37 21.02.2021
2281 Clear 3 1032 75 10000 3.09 40 21:59 21.02.2021
2282 Clear 4 1032 70 10000 3.09 50 21:35 21.02.2021
2283 Clear 4 1032 70 10000 3.6 50 20:58 21.02.2021
2284 Clear 5 1032 70 10000 3.6 60 20:39 21.02.2021
2285 Clear 5 1032 70 10000 3.6 60 20:18 21.02.2021
2286 Clear 5 1032 70 10000 3.6 60 19:46 21.02.2021
2287 Clear 5 1031 70 10000 3.6 60 19:26 21.02.2021
2288 Clear 5 1032 70 10000 4.63 60 18:39 21.02.2021
2289 Clear 5 1032 70 10000 5.14 60 18:21 21.02.2021
2290 Clouds 6 1031 61 10000 5.66 50 17:29 21.02.2021
2291 Clouds 6 1031 61 10000 5.66 50 17:29 21.02.2021
2292 Clouds 6 1031 61 10000 5.66 40 16:55 21.02.2021
2293 Clouds 7 1031 57 10000 6.69 60 16:33 21.02.2021
2294 Clouds 8 1031 57 10000 6.17 40 15:54 21.02.2021
2295 Clouds 9 1031 57 10000 6.69 40 15:21 21.02.2021
2296 Clouds 9 1031 53 10000 5.66 60 14:42 21.02.2021
2297 Clouds 9 1031 53 10000 5.66 60 14:42 21.02.2021
2298 Clouds 9 1031 57 10000 5.14 60 14:22 21.02.2021
2299 Clouds 10 1031 50 10000 4.63 70 13:46 21.02.2021
2300 Clouds 9 1031 53 10000 4.63 70 13:23 21.02.2021
2301 Clouds 9 1031 53 10000 5.66 60 12:31 21.02.2021
2302 Clouds 8 1031 57 10000 5.66 40 11:45 21.02.2021
2303 Clouds 8 1032 57 10000 3.6 100 10:59 21.02.2021
2304 Clouds 7 1032 65 10000 3.6 110 10:24 21.02.2021
2305 Clouds 7 1032 61 10000 3.09 130 09:55 21.02.2021
2306 Clouds 7 1032 65 10000 3.09 120 09:31 21.02.2021
2307 Clouds 6 1032 61 10000 4.63 80 08:58 21.02.2021
2308 Clouds 5 1032 70 10000 3.6 70 08:23 21.02.2021
2309 Clouds 4 1032 81 10000 2.57 60 07:35 21.02.2021
2310 Clouds 2 1031 86 10000 2.57 60 06:55 21.02.2021
2311 Clear 0 1030 80 10000 2.57 40 03:39 21.02.2021
2312 Clear 2 1030 70 10000 3.6 50 02:30 21.02.2021
2313 Clear 2 1030 70 10000 3.09 60 00:47 21.02.2021
2314 Clear 2 1030 70 10000 3.6 60 00:20 21.02.2021
2315 Clear 2 1030 65 10000 5.14 60 23:25 20.02.2021
2316 Clear 2 1030 60 10000 4.63 60 22:46 20.02.2021
2317 Clear 2 1029 56 10000 4.12 60 22:27 20.02.2021
2318 Clear 2 1029 56 10000 5.14 70 21:45 20.02.2021
2319 Clear 2 1029 56 10000 5.14 60 21:26 20.02.2021
2320 Clear 2 1029 56 10000 4.12 60 20:48 20.02.2021
2321 Clear 3 1029 60 10000 4.12 60 20:24 20.02.2021
2322 Clear 3 1029 56 10000 4.63 70 19:52 20.02.2021
2323 Clear 3 1028 56 10000 4.12 60 19:30 20.02.2021
2324 Clear 4 1028 49 10000 3.6 70 18:41 20.02.2021
2325 Clear 4 1028 49 10000 3.6 60 18:21 20.02.2021
2326 Clear 4 1028 52 10000 2.57 80 17:39 20.02.2021
2327 Clear 5 1028 56 10000 2.57 110 16:57 20.02.2021
2328 Clear 6 1028 56 10000 3.6 120 16:32 20.02.2021
2329 Clouds 6 1028 56 10000 4.12 120 15:55 20.02.2021
2330 Clouds 6 1028 56 10000 4.12 120 15:36 20.02.2021
2331 Clouds 6 1028 61 10000 3.6 140 14:48 20.02.2021
2332 Clouds 6 1028 56 10000 3.6 140 14:24 20.02.2021
2333 Clouds 6 1028 56 10000 3.6 130 13:48 20.02.2021
2334 Clouds 7 1028 57 10000 3.6 140 13:24 20.02.2021
2335 Clouds 6 1029 56 10000 3.09 120 12:50 20.02.2021
2336 Clouds 6 1029 56 10000 3.09 120 12:24 20.02.2021
2337 Clouds 6 1029 61 10000 3.09 130 11:44 20.02.2021
2338 Clouds 6 1029 61 10000 3.09 140 11:25 20.02.2021
2339 Clouds 5 1029 65 10000 3.09 130 10:50 20.02.2021
2340 Clouds 5 1029 65 10000 3.09 120 09:55 20.02.2021
2341 Clouds 4 1030 56 10000 2.06 120 09:30 20.02.2021
2342 Clouds 4 1030 60 10000 2.06 130 08:43 20.02.2021
2343 Clouds 3 1030 65 10000 2.06 110 08:18 20.02.2021
2344 Clear 0 1029 80 10000 2.06 70 03:32 20.02.2021
2345 Clear 0 1030 86 10000 1.03 360 02:25 20.02.2021
2346 Clear 0 1030 93 10000 1.54 10 01:49 20.02.2021
2347 Clear 0 1030 93 10000 1.54 10 00:45 20.02.2021
2348 Clear 1 1030 86 10000 2.06 360 00:20 20.02.2021
2349 Clear 1 1030 80 10000 1.54 10 23:18 19.02.2021
2350 Clouds 1 1030 69 10000 2.57 50 22:28 19.02.2021
2351 Clouds 1 1030 69 10000 2.57 60 21:58 19.02.2021
2352 Clouds 1 1030 69 10000 2.57 60 21:32 19.02.2021
2353 Clouds 2 1031 65 10000 2.57 60 20:49 19.02.2021
2354 Clouds 2 1031 65 10000 3.09 60 20:30 19.02.2021
2355 Clouds 2 1031 65 10000 3.6 50 19:57 19.02.2021
2356 Clouds 2 1031 65 10000 3.6 60 19:27 19.02.2021
2357 Clouds 2 1031 70 10000 3.6 60 18:57 19.02.2021
2358 Clouds 2 1031 60 10000 3.09 70 18:34 19.02.2021
2359 Clouds 4 1031 65 10000 3.09 50 17:51 19.02.2021
2360 Clouds 4 1031 65 10000 4.12 60 17:22 19.02.2021
2361 Clouds 4 1031 65 10000 3.6 50 16:38 19.02.2021
2362 Clouds 4 1031 65 10000 3.6 50 16:18 19.02.2021
2363 Clouds 4 1031 60 10000 4.63 60 15:41 19.02.2021
2364 Clouds 4 1031 60 10000 4.63 60 15:20 19.02.2021
2365 Clouds 4 1031 60 10000 4.12 50 14:38 19.02.2021
2366 Clouds 4 1031 60 10000 3.6 60 14:20 19.02.2021
2367 Clouds 5 1031 60 10000 3.09 70 13:44 19.02.2021
2368 Clouds 4 1031 65 10000 4.12 80 13:24 19.02.2021
2369 Clouds 4 1031 65 10000 4.12 50 12:42 19.02.2021
2370 Clouds 4 1031 65 10000 4.63 50 12:23 19.02.2021
2371 Clouds 4 1031 65 10000 5.14 60 11:51 19.02.2021
2372 Clouds 4 1031 65 10000 5.66 40 11:23 19.02.2021
2373 Clouds 4 1031 70 10000 6.69 50 10:51 19.02.2021
2374 Clouds 3 1031 70 10000 6.17 50 10:22 19.02.2021
2375 Clouds 3 1031 70 10000 7.2 40 09:47 19.02.2021
2376 Clouds 3 1030 75 10000 7.2 40 09:25 19.02.2021
2377 Clouds 3 1030 75 10000 7.72 30 08:50 19.02.2021
2378 Rain 3 1030 81 10000 7.2 30 08:24 19.02.2021
2379 Clouds 3 1030 81 10000 7.2 40 07:48 19.02.2021
2380 Rain 2 1029 81 10000 6.69 30 07:29 19.02.2021
2381 Clouds 3 1028 75 10000 6.17 40 06:53 19.02.2021
2382 Clouds 4 1028 81 10000 3.6 10 05:27 19.02.2021
2383 Clouds 3 1027 87 10000 2.06 20 04:41 19.02.2021
2384 Clouds 3 1025 81 10000 2.06 340 01:47 19.02.2021
2385 Clouds 3 1025 87 10000 1.03 0 00:37 19.02.2021
2386 Clouds 4 1025 87 10000 2.06 300 23:55 18.02.2021
2387 Clouds 4 1024 87 10000 1.54 290 23:35 18.02.2021
2388 Rain 4 1024 87 10000 2.12 19 22:50 18.02.2021
2389 Rain 4 1024 87 10000 1.03 320 22:29 18.02.2021
2390 Rain 4 1024 87 10000 1.03 340 21:48 18.02.2021
2391 Rain 4 1023 87 10000 1.03 0 21:25 18.02.2021
2392 Clouds 3 1023 87 10000 1.54 290 20:43 18.02.2021
2393 Clouds 3 1023 87 10000 1.54 280 20:23 18.02.2021
2394 Clouds 3 1022 87 10000 2.06 310 19:47 18.02.2021
2395 Clouds 4 1022 87 10000 1.54 310 19:26 18.02.2021
2396 Clouds 4 1022 87 10000 3.09 340 18:53 18.02.2021
2397 Rain 4 1022 87 10000 2.57 350 18:30 18.02.2021
2398 Rain 4 1021 87 10000 3.09 340 17:53 18.02.2021
2399 Rain 4 1021 87 10000 2.57 330 17:26 18.02.2021
2400 Clouds 5 1020 87 10000 3.6 330 16:56 18.02.2021
2401 Clouds 5 1020 87 10000 3.6 330 16:38 18.02.2021
2402 Clouds 5 1020 87 10000 2.06 310 16:18 18.02.2021
2403 Rain 5 1019 93 7000 3.09 310 15:38 18.02.2021
2404 Rain 5 1019 93 7000 3.09 310 15:19 18.02.2021
2405 Rain 4 1019 93 7000 5.66 240 14:46 18.02.2021
2406 Rain 4 1019 87 8000 7.72 230 14:27 18.02.2021
2407 Rain 4 1019 93 10000 7.2 210 13:45 18.02.2021
2408 Rain 4 1019 87 10000 7.72 220 13:18 18.02.2021
2409 Rain 4 1019 87 10000 7.2 210 12:44 18.02.2021
2410 Clouds 4 1019 87 10000 8.75 220 12:22 18.02.2021
2411 Rain 4 1019 81 10000 7.2 230 11:46 18.02.2021
2412 Rain 4 1019 81 10000 6.69 230 11:25 18.02.2021
2413 Rain 4 1019 87 10000 7.2 210 10:45 18.02.2021
2414 Clouds 4 1019 81 10000 6.69 220 10:27 18.02.2021
2415 Rain 3 1019 75 10000 7.2 220 09:46 18.02.2021
2416 Rain 4 1019 75 10000 8.23 220 09:24 18.02.2021
2417 Rain 4 1019 65 10000 7.72 230 08:41 18.02.2021
2418 Rain 4 1019 65 10000 7.72 230 08:23 18.02.2021
2419 Clouds 4 1019 70 10000 8.23 220 07:32 18.02.2021
2420 Clouds 4 1019 65 10000 7.2 220 06:53 18.02.2021
2421 Clear 4 1019 56 10000 5.66 230 02:54 18.02.2021
2422 Clear 2 1020 60 10000 5.14 250 23:55 17.02.2021
2423 Clear 2 1020 56 10000 5.14 240 23:24 17.02.2021
2424 Clear 1 1020 60 10000 4.12 250 22:52 17.02.2021
2425 Snow 0 1021 80 10000 1.03 0 22:26 17.02.2021
2426 Snow -1 1021 93 10000 2.06 320 21:54 17.02.2021
2427 Clear -1 1021 86 10000 2.06 330 21:22 17.02.2021
2428 Clear -2 1021 93 10000 1.24 247 20:49 17.02.2021
2429 Clear -1 1021 93 10000 0.95 275 20:31 17.02.2021
2430 Clear -1 1021 86 10000 0.95 275 19:50 17.02.2021
2431 Clear 0 1022 80 10000 0.94 276 19:32 17.02.2021
2432 Clear 0 1022 86 10000 2.06 340 18:45 17.02.2021
2433 Clear 0 1022 86 10000 1.54 350 18:25 17.02.2021
2434 Clear 1 1021 80 10000 3.6 340 17:42 17.02.2021
2435 Clear 1 1021 80 10000 3.6 340 17:20 17.02.2021
2436 Clear 2 1021 75 10000 3.6 330 16:46 17.02.2021
2437 Clouds 3 1021 65 10000 4.12 340 16:27 17.02.2021
2438 Clouds 3 1021 70 10000 4.63 360 15:45 17.02.2021
2439 Clouds 3 1021 70 10000 4.63 360 15:26 17.02.2021
2440 Clouds 3 1021 70 10000 5.66 350 14:50 17.02.2021
2441 Clouds 3 1021 70 10000 7.2 350 14:29 17.02.2021
2442 Clouds 3 1021 75 10000 7.72 360 13:50 17.02.2021
2443 Clouds 3 1021 75 10000 6.69 360 13:32 17.02.2021
2444 Clouds 3 1021 75 10000 7.72 350 12:50 17.02.2021
2445 Clouds 2 1021 80 10000 8.23 350 12:25 17.02.2021
2446 Clouds 2 1021 80 7000 7.72 350 11:46 17.02.2021
2447 Snow 1 1020 93 2000 3.6 10 11:28 17.02.2021
2448 Snow 0 1021 100 700 4.12 20 10:49 17.02.2021
2449 Snow 1 1021 93 700 5.66 10 10:31 17.02.2021
2450 Snow 1 1021 93 700 4.12 360 09:56 17.02.2021
2451 Snow 0 1020 100 1200 2.57 360 09:36 17.02.2021
2452 Snow 0 1020 100 350 3.6 360 08:45 17.02.2021
2453 Clouds 2 1020 80 800 3.09 40 08:23 17.02.2021
2454 Snow 0 1020 93 4000 3.6 20 07:37 17.02.2021
2455 Snow 0 1020 93 7000 4.12 10 06:37 17.02.2021
2456 Snow 0 1021 69 10000 6.69 340 03:52 17.02.2021
2457 Snow -1 1021 69 10000 6.17 350 02:31 17.02.2021
2458 Snow 0 1022 69 10000 6.17 360 01:34 17.02.2021
2459 Snow -1 1022 64 10000 6.69 10 00:25 17.02.2021
2460 Snow -1 1022 59 10000 6.69 10 23:39 16.02.2021
2461 Clouds -1 1023 69 10000 7.72 10 22:47 16.02.2021
2462 Snow -1 1023 64 7000 6.69 20 22:26 16.02.2021
2463 Snow -1 1024 69 10000 5.66 10 21:59 16.02.2021
2464 Snow -1 1024 69 10000 6.17 20 21:39 16.02.2021
2465 Snow -1 1024 69 10000 6.17 20 21:39 16.02.2021
2466 Snow -1 1024 69 10000 6.17 20 21:39 16.02.2021
2467 Snow -1 1024 69 10000 6.17 20 21:21 16.02.2021
2468 Snow -1 1024 69 10000 6.69 20 20:50 16.02.2021
2469 Snow -1 1024 69 10000 7.72 20 20:24 16.02.2021
2470 Snow -1 1024 69 10000 6.69 20 19:49 16.02.2021
2471 Snow -1 1024 69 10000 7.2 30 19:29 16.02.2021
2472 Snow -1 1024 74 10000 8.75 10 18:53 16.02.2021
2473 Snow -1 1024 74 10000 8.75 20 18:26 16.02.2021
2474 Snow -1 1024 69 10000 9.77 30 17:56 16.02.2021
2475 Snow -1 1024 69 10000 9.77 30 17:37 16.02.2021
2476 Clouds 0 1024 64 10000 10.29 30 17:19 16.02.2021
2477 Clouds 0 1023 59 10000 8.75 20 16:42 16.02.2021
2478 Clouds 1 1023 55 10000 9.77 20 16:20 16.02.2021
2479 Clouds 1 1023 51 10000 10.29 30 15:36 16.02.2021
2480 Clouds 1 1023 55 10000 10.29 30 15:18 16.02.2021
2481 Clouds 2 1022 55 10000 10.29 20 14:41 16.02.2021
2482 Clouds 2 1022 55 10000 10.29 20 14:23 16.02.2021
2483 Snow 2 1022 55 10000 10.8 10 13:47 16.02.2021
2484 Clouds 2 1022 55 10000 11.32 20 13:18 16.02.2021
2485 Snow 1 1022 64 8000 11.83 20 12:42 16.02.2021
2486 Clouds 2 1022 64 8000 12.35 20 12:20 16.02.2021
2487 Snow 2 1022 60 10000 12.35 20 11:44 16.02.2021
2488 Snow 1 1022 69 7000 9.77 10 11:22 16.02.2021
2489 Snow 1 1022 75 4000 10.29 20 10:49 16.02.2021
2490 Snow 0 1022 86 2000 9.77 10 10:30 16.02.2021
2491 Snow 0 1021 93 350 8.23 40 09:55 16.02.2021
2492 Snow 0 1021 93 900 7.2 30 09:29 16.02.2021
2493 Snow 0 1020 93 800 9.26 20 08:53 16.02.2021
2494 Snow 0 1020 93 800 9.26 20 08:32 16.02.2021
2495 Snow 1 1021 64 6000 8.75 10 07:59 16.02.2021
2496 Snow 1 1021 64 7000 7.72 10 07:18 16.02.2021
2497 Clouds 0 1022 80 10000 7.72 20 03:21 16.02.2021
2498 Snow -1 1023 100 1100 9.77 30 00:43 16.02.2021
2499 Snow 0 1023 93 4000 5.66 10 23:31 15.02.2021
2500 Snow 0 1023 93 4000 5.14 10 22:52 15.02.2021
2501 Snow 1 1022 80 7000 8.23 40 22:33 15.02.2021
2502 Snow 1 1022 80 7000 9.26 40 21:55 15.02.2021
2503 Snow 1 1023 80 7000 8.23 40 21:36 15.02.2021
2504 Snow 1 1024 80 3500 6.17 20 21:18 15.02.2021
2505 Snow 1 1024 80 7000 7.2 10 20:41 15.02.2021
2506 Snow 1 1024 75 7000 6.69 10 20:19 15.02.2021
2507 Clouds 1 1024 69 10000 7.72 20 19:43 15.02.2021
2508 Clouds 1 1024 75 7000 7.2 20 19:21 15.02.2021
2509 Snow 1 1024 80 6000 4.63 20 18:42 15.02.2021
2510 Snow 1 1024 80 6000 4.63 20 18:21 15.02.2021
2511 Snow 0 1025 93 4000 7.72 20 17:41 15.02.2021
2512 Snow 1 1025 93 4000 6.69 30 17:21 15.02.2021
2513 Snow 1 1025 86 8000 5.66 10 16:48 15.02.2021
2514 Snow 2 1024 75 10000 7.72 20 16:26 15.02.2021
2515 Clouds 2 1024 70 10000 8.23 30 15:49 15.02.2021
2516 Snow 2 1024 70 10000 8.23 40 15:22 15.02.2021
2517 Snow 1 1025 93 4000 9.26 20 14:49 15.02.2021
2518 Clouds 2 1025 80 4000 8.23 30 14:21 15.02.2021
2519 Snow 2 1025 87 4000 7.2 40 13:51 15.02.2021
2520 Snow 1 1024 100 1500 7.2 20 13:28 15.02.2021
2521 Snow 1 1025 86 1000 9.26 30 12:54 15.02.2021
2522 Snow 1 1025 93 1000 9.26 30 12:36 15.02.2021
2523 Clouds 2 1025 87 3500 7.72 30 11:59 15.02.2021
2524 Clouds 2 1025 87 3500 7.72 30 11:39 15.02.2021
2525 Snow 2 1025 80 3500 6.69 20 11:18 15.02.2021
2526 Snow 1 1025 87 10000 6.17 20 10:42 15.02.2021
2527 Snow 2 1025 80 4000 8.75 40 10:21 15.02.2021
2528 Snow 1 1025 75 4000 9.77 30 09:52 15.02.2021
2529 Snow 1 1025 75 4000 9.77 30 09:32 15.02.2021
2530 Snow 1 1025 86 4000 7.72 20 09:32 15.02.2021
2531 Snow 1 1025 86 8000 8.23 20 08:34 15.02.2021
2532 Snow 1 1024 75 3000 6.69 30 07:34 15.02.2021
2533 Snow 1 1024 80 3000 7.2 30 06:44 15.02.2021
2534 Snow 1 1024 86 3000 6.69 30 04:59 15.02.2021
2535 Snow 0 1024 100 3000 7.72 30 02:21 15.02.2021
2536 Snow 1 1024 93 4000 7.72 30 00:24 15.02.2021
2537 Snow 0 1024 100 4000 6.69 30 23:30 14.02.2021
2538 Snow 1 1024 93 4000 6.69 30 22:51 14.02.2021
2539 Snow 1 1024 93 4000 8.75 40 22:30 14.02.2021
2540 Snow 1 1024 93 4000 7.72 40 21:56 14.02.2021
2541 Snow 1 1024 93 4000 6.17 40 21:32 14.02.2021
2542 Snow 1 1024 93 3000 6.69 50 20:56 14.02.2021
2543 Snow 0 1023 100 3000 9.26 40 20:31 14.02.2021
2544 Snow 0 1023 100 3000 7.2 40 19:57 14.02.2021
2545 Snow 0 1023 100 3000 8.23 30 19:36 14.02.2021
2546 Snow 0 1023 100 1500 8.23 40 18:47 14.02.2021
2547 Snow 1 1023 93 900 9.26 30 18:28 14.02.2021
2548 Snow 1 1023 93 2500 8.23 30 17:45 14.02.2021
2549 Snow 1 1022 93 2500 8.23 40 17:26 14.02.2021
2550 Snow 0 1022 100 900 8.23 40 16:40 14.02.2021
2551 Snow 0 1022 100 2500 7.72 40 16:21 14.02.2021
2552 Snow 0 1022 100 2500 8.75 40 15:45 14.02.2021
2553 Snow 0 1022 100 900 7.2 40 14:59 14.02.2021
2554 Snow 0 1022 100 1100 8.23 40 14:33 14.02.2021
2555 Snow 0 1022 100 1400 7.72 30 13:58 14.02.2021
2556 Snow 0 1022 100 1400 8.23 40 13:32 14.02.2021
2557 Snow 1 1022 93 1400 9.77 40 12:54 14.02.2021
2558 Snow 1 1022 93 1400 8.23 40 12:22 14.02.2021
2559 Snow 1 1022 93 1400 7.72 40 11:51 14.02.2021
2560 Snow 1 1022 93 900 8.23 50 11:26 14.02.2021
2561 Snow 1 1022 93 600 6.69 50 10:53 14.02.2021
2562 Snow 1 1022 93 900 8.23 50 09:58 14.02.2021
2563 Snow 0 1022 100 900 7.2 50 09:39 14.02.2021
2564 Snow 0 1022 100 900 7.2 50 09:21 14.02.2021
2565 Snow 0 1022 100 900 8.23 50 08:43 14.02.2021
2566 Snow 0 1022 100 900 8.23 50 07:58 14.02.2021
2567 Snow 0 1023 93 900 6.69 30 06:54 14.02.2021
2568 Snow 0 1023 93 1600 6.69 40 05:43 14.02.2021
2569 Snow 0 1024 93 2500 7.2 60 03:33 14.02.2021
2570 Snow -1 1025 100 2500 6.69 50 02:29 14.02.2021
2571 Snow 0 1026 86 4000 8.75 50 00:49 14.02.2021
2572 Snow -1 1026 93 4000 8.75 40 00:31 14.02.2021
2573 Snow -1 1027 93 4000 8.23 50 23:42 13.02.2021
2574 Snow -1 1027 93 4000 8.23 50 23:21 13.02.2021
2575 Snow -1 1027 93 4000 7.72 40 22:44 13.02.2021
2576 Snow -1 1027 86 4000 8.23 40 22:20 13.02.2021
2577 Snow -1 1027 86 4000 8.23 40 21:43 13.02.2021
2578 Snow -1 1027 86 6000 8.23 30 21:22 13.02.2021
2579 Snow 1 1027 60 9000 10.29 30 20:30 13.02.2021
2580 Snow 1 1027 60 10000 8.23 40 19:58 13.02.2021
2581 Snow 1 1027 60 10000 8.23 40 19:39 13.02.2021
2582 Clouds 1 1026 60 10000 8.23 40 19:21 13.02.2021
2583 Snow 1 1026 60 10000 8.75 40 18:44 13.02.2021
2584 Clouds 1 1027 60 10000 8.75 40 18:23 13.02.2021
2585 Snow 1 1027 60 10000 8.23 50 17:43 13.02.2021
2586 Clouds 1 1027 60 10000 7.2 40 17:23 13.02.2021
2587 Snow 1 1026 60 10000 7.2 40 16:44 13.02.2021
2588 Clouds 1 1027 60 10000 6.17 50 16:26 13.02.2021
2589 Rain 2 1027 55 10000 6.17 30 15:40 13.02.2021
2590 Clouds 3 1027 56 10000 5.14 40 14:58 13.02.2021
2591 Clouds 3 1027 52 10000 5.66 40 14:32 13.02.2021
2592 Clouds 3 1027 52 10000 4.12 60 13:48 13.02.2021
2593 Clouds 3 1027 52 10000 3.6 80 13:25 13.02.2021
2594 Clouds 3 1027 52 10000 3.6 50 12:46 13.02.2021
2595 Clouds 3 1028 52 10000 3.6 60 12:19 13.02.2021
2596 Clouds 2 1028 55 10000 4.63 50 11:45 13.02.2021
2597 Clouds 2 1028 55 10000 5.14 40 11:20 13.02.2021
2598 Clouds 2 1029 55 10000 4.63 20 10:46 13.02.2021
2599 Clouds 1 1029 64 10000 5.66 30 10:26 13.02.2021
2600 Clouds 1 1029 60 10000 6.17 40 09:56 13.02.2021
2601 Clouds 1 1029 55 10000 6.69 20 09:30 13.02.2021
2602 Clouds 1 1028 55 10000 6.69 10 08:59 13.02.2021
2603 Clouds 1 1028 55 10000 6.69 10 08:39 13.02.2021
2604 Clouds 0 1028 59 10000 7.2 10 07:52 13.02.2021
2605 Clear -1 1027 69 10000 6.69 10 06:41 13.02.2021
2606 Clear -1 1027 64 10000 6.69 360 05:27 13.02.2021
2607 Clear 0 1026 59 10000 7.2 10 03:59 13.02.2021
2608 Clouds 1 1026 60 10000 6.17 10 01:49 13.02.2021
2609 Clouds 1 1025 64 10000 4.12 360 00:51 13.02.2021
2610 Clouds 2 1025 60 10000 3.09 30 23:54 12.02.2021
2611 Clouds 2 1025 60 10000 2.57 60 23:28 12.02.2021
2612 Clouds 2 1024 60 10000 3.6 70 22:45 12.02.2021
2613 Clouds 2 1024 60 10000 2.06 80 22:26 12.02.2021
2614 Clouds 2 1024 60 10000 2.57 80 21:50 12.02.2021
2615 Clouds 2 1024 60 10000 3.09 70 21:29 12.02.2021
2616 Clouds 2 1024 60 10000 3.09 60 20:49 12.02.2021
2617 Clouds 2 1023 60 10000 3.09 60 20:30 12.02.2021
2618 Clouds 2 1023 65 10000 3.6 80 19:58 12.02.2021
2619 Clouds 2 1023 65 10000 3.6 80 19:38 12.02.2021
2620 Clouds 2 1023 60 10000 3.6 60 18:58 12.02.2021
2621 Clouds 2 1023 60 10000 3.09 60 18:30 12.02.2021
2622 Clouds 3 1023 60 10000 3.6 70 17:47 12.02.2021
2623 Clouds 3 1022 65 10000 3.09 60 17:22 12.02.2021
2624 Clouds 3 1022 60 10000 3.09 50 16:35 12.02.2021
2625 Clouds 3 1022 60 10000 2.57 60 15:47 12.02.2021
2626 Clouds 4 1022 65 10000 3.6 70 15:21 12.02.2021
2627 Clouds 3 1021 65 10000 2.06 70 14:43 12.02.2021
2628 Clouds 4 1021 65 10000 3.6 90 14:24 12.02.2021
2629 Clouds 4 1021 60 10000 3.09 30 13:41 12.02.2021
2630 Clouds 3 1021 65 10000 3.09 30 13:22 12.02.2021
2631 Clouds 3 1021 65 10000 2.57 10 12:49 12.02.2021
2632 Clouds 3 1021 70 10000 4.12 30 12:30 12.02.2021
2633 Clouds 3 1020 65 10000 4.12 10 11:42 12.02.2021
2634 Clouds 3 1020 70 10000 5.14 20 11:20 12.02.2021
2635 Clouds 3 1020 75 10000 6.17 30 10:44 12.02.2021
2636 Snow 2 1020 80 8000 6.17 10 09:50 12.02.2021
2637 Snow 2 1019 87 9000 5.14 10 09:29 12.02.2021
2638 Snow 2 1019 87 7000 6.69 360 08:51 12.02.2021
2639 Snow 2 1018 93 7000 5.14 360 08:29 12.02.2021
2640 Snow 2 1018 93 8000 5.14 350 07:57 12.02.2021
2641 Snow 2 1017 93 7000 8.23 350 07:35 12.02.2021
2642 Snow 2 1016 93 8000 7.72 340 06:55 12.02.2021
2643 Rain 3 1014 93 10000 9.26 360 05:48 12.02.2021
2644 Rain 4 1010 93 10000 12.35 360 04:32 12.02.2021
2645 Rain 11 1007 93 10000 9.26 210 01:35 12.02.2021
2646 Rain 12 1007 87 10000 5.14 260 23:41 11.02.2021
2647 Rain 12 1006 82 10000 5.14 260 23:22 11.02.2021
2648 Clouds 12 1006 82 10000 4.12 250 22:57 11.02.2021
2649 Clouds 12 1006 82 10000 6.17 250 22:38 11.02.2021
2650 Clouds 12 1006 82 10000 6.17 250 22:20 11.02.2021
2651 Clouds 12 1007 82 10000 10.8 270 21:38 11.02.2021
2652 Clear 12 1007 76 10000 8.23 280 21:18 11.02.2021
2653 Clear 16 1007 71 10000 12.86 280 20:42 11.02.2021
2654 Clear 16 1007 71 10000 12.86 280 20:22 11.02.2021
2655 Clear 16 1006 63 10000 5.66 210 19:48 11.02.2021
2656 Clear 15 1006 58 10000 5.14 180 19:28 11.02.2021
2657 Clear 16 1006 55 10000 6.69 200 18:53 11.02.2021
2658 Clear 16 1006 55 10000 7.2 210 18:29 11.02.2021
2659 Clear 16 1007 55 10000 5.14 210 17:53 11.02.2021
2660 Clear 15 1007 63 10000 3.6 220 17:22 11.02.2021
2661 Clear 17 1007 48 10000 4.12 230 16:57 11.02.2021
2662 Clear 17 1007 48 10000 4.12 230 16:39 11.02.2021
2663 Clear 17 1007 59 10000 2.57 190 16:20 11.02.2021
2664 Clear 18 1008 51 10000 5.66 190 15:41 11.02.2021
2665 Clear 18 1008 51 10000 5.66 190 15:23 11.02.2021
2666 Clear 17 1008 59 10000 5.66 210 14:44 11.02.2021
2667 Clear 17 1008 59 10000 3.6 240 14:25 11.02.2021
2668 Clear 18 1009 55 10000 6.69 220 13:38 11.02.2021
2669 Clear 18 1009 55 10000 6.69 220 13:19 11.02.2021
2670 Clear 17 1009 63 10000 6.69 220 12:47 11.02.2021
2671 Clear 17 1009 59 10000 7.72 210 12:23 11.02.2021
2672 Clear 17 1010 67 10000 6.69 210 11:45 11.02.2021
2673 Clear 17 1010 63 10000 7.2 210 11:21 11.02.2021
2674 Clear 17 1011 63 10000 5.66 200 10:44 11.02.2021
2675 Clear 16 1011 63 10000 6.69 210 10:25 11.02.2021
2676 Clear 15 1011 62 10000 5.66 210 09:45 11.02.2021
2677 Clear 16 1012 58 10000 6.69 220 09:19 11.02.2021
2678 Clear 15 1012 58 10000 5.66 220 08:50 11.02.2021
2679 Clear 15 1012 62 10000 5.66 210 08:18 11.02.2021
2680 Clear 13 1012 71 10000 3.09 220 06:52 11.02.2021
2681 Clear 13 1012 71 10000 7.2 220 06:33 11.02.2021
2682 Clear 12 1012 76 10000 5.66 200 04:55 11.02.2021
2683 Clear 13 1013 76 10000 6.17 220 02:28 11.02.2021
2684 Clear 14 1013 67 10000 7.2 230 00:46 11.02.2021
2685 Clear 13 1013 76 10000 6.69 230 00:19 11.02.2021
2686 Clear 13 1013 76 10000 5.66 230 23:39 10.02.2021
2687 Clear 13 1013 76 10000 4.63 230 22:51 10.02.2021
2688 Clear 13 1013 76 10000 4.63 230 22:27 10.02.2021
2689 Clear 14 1013 76 10000 4.12 240 21:57 10.02.2021
2690 Clear 14 1013 76 10000 4.12 240 21:37 10.02.2021
2691 Clear 13 1013 76 10000 5.14 230 21:19 10.02.2021
2692 Clear 14 1013 72 10000 4.63 230 20:40 10.02.2021
2693 Clear 14 1013 72 10000 5.14 230 20:22 10.02.2021
2694 Clear 13 1013 76 10000 3.09 230 19:44 10.02.2021
2695 Clear 14 1013 72 10000 4.12 240 19:23 10.02.2021
2696 Clear 13 1013 82 10000 1.54 210 18:40 10.02.2021
2697 Clear 14 1014 82 10000 1.54 220 18:21 10.02.2021
2698 Clear 13 1014 82 10000 1.03 160 17:50 10.02.2021
2699 Clear 13 1013 87 10000 1.03 0 17:23 10.02.2021
2700 Clear 14 1013 82 10000 1.03 210 16:52 10.02.2021
2701 Clear 15 1013 77 10000 1.54 240 16:29 10.02.2021
2702 Clear 15 1013 77 10000 1.54 280 15:47 10.02.2021
2703 Clear 15 1013 77 10000 2.06 270 15:22 10.02.2021
2704 Clear 16 1013 72 10000 3.09 0 14:42 10.02.2021
2705 Clear 16 1013 72 10000 3.09 0 14:21 10.02.2021
2706 Clear 16 1014 72 10000 2.57 170 13:50 10.02.2021
2707 Clear 16 1014 77 10000 2.06 200 13:27 10.02.2021
2708 Clear 15 1014 72 10000 2.57 200 12:48 10.02.2021
2709 Clear 15 1014 77 10000 3.09 210 12:29 10.02.2021
2710 Clear 15 1014 77 10000 4.12 230 11:47 10.02.2021
2711 Clear 15 1014 72 10000 4.63 220 11:29 10.02.2021
2712 Clear 15 1014 77 10000 5.14 220 10:49 10.02.2021
2713 Clear 14 1014 77 10000 5.14 230 10:20 10.02.2021
2714 Clear 13 1014 82 10000 5.14 210 09:43 10.02.2021
2715 Clouds 13 1014 82 10000 4.63 230 09:22 10.02.2021
2716 Clouds 13 1013 82 10000 4.63 210 08:50 10.02.2021
2717 Clouds 12 1013 87 10000 4.63 200 08:29 10.02.2021
2718 Clouds 12 1012 87 10000 5.66 200 07:19 10.02.2021
2719 Rain 11 1012 87 10000 6.17 210 04:47 10.02.2021
2720 Clouds 15 1011 67 10000 4.12 230 01:20 10.02.2021
2721 Clouds 15 1011 67 10000 7.2 210 23:40 09.02.2021
2722 Rain 15 1011 67 10000 7.2 210 23:19 09.02.2021
2723 Clouds 15 1011 72 10000 7.72 210 22:41 09.02.2021
2724 Clouds 14 1011 72 10000 7.2 210 22:23 09.02.2021
2725 Clear 14 1011 72 10000 7.72 220 21:40 09.02.2021
2726 Clear 14 1012 77 10000 6.17 230 21:19 09.02.2021
2727 Clear 15 1012 77 10000 6.17 220 20:41 09.02.2021
2728 Clear 15 1012 77 10000 7.2 230 20:23 09.02.2021
2729 Clear 15 1011 72 10000 8.75 220 19:40 09.02.2021
2730 Clear 16 1012 72 10000 7.72 220 19:21 09.02.2021
2731 Clear 16 1012 72 10000 9.26 210 18:42 09.02.2021
2732 Clear 16 1012 67 10000 7.2 220 18:21 09.02.2021
2733 Clear 16 1012 72 10000 7.72 210 17:45 09.02.2021
2734 Clear 16 1012 72 10000 6.17 220 17:25 09.02.2021
2735 Clear 16 1012 72 10000 6.69 220 16:50 09.02.2021
2736 Clear 17 1012 67 10000 7.2 210 16:19 09.02.2021
2737 Clear 17 1012 67 10000 6.17 210 15:50 09.02.2021
2738 Clear 16 1012 67 10000 5.14 210 15:28 09.02.2021
2739 Clear 16 1013 72 10000 4.12 210 14:57 09.02.2021
2740 Clear 16 1013 72 10000 3.6 210 14:29 09.02.2021
2741 Clear 16 1013 72 10000 3.09 210 13:55 09.02.2021
2742 Clear 17 1013 72 10000 4.12 220 13:29 09.02.2021
2743 Clear 16 1013 72 10000 2.57 250 12:59 09.02.2021
2744 Clear 17 1014 63 10000 4.12 230 12:40 09.02.2021
2745 Clear 17 1014 63 10000 4.12 230 12:21 09.02.2021
2746 Clear 16 1014 72 10000 3.6 0 11:43 09.02.2021
2747 Clear 17 1014 67 10000 4.12 230 11:21 09.02.2021
2748 Clear 17 1014 67 10000 4.12 230 11:21 09.02.2021
2749 Clear 16 1014 72 10000 4.12 230 10:55 09.02.2021
2750 Clear 16 1014 72 10000 5.66 230 10:20 09.02.2021
2751 Clear 16 1014 77 10000 4.12 240 09:44 09.02.2021
2752 Clear 15 1014 77 10000 5.14 240 09:26 09.02.2021
2753 Clear 14 1014 77 10000 5.14 230 08:52 09.02.2021
2754 Clear 14 1013 82 10000 6.17 230 08:27 09.02.2021
2755 Clear 14 1013 82 10000 4.12 260 07:36 09.02.2021
2756 Clouds 14 1010 82 10000 8.23 230 04:59 09.02.2021
2757 Clouds 14 1009 82 10000 7.2 240 03:42 09.02.2021
2758 Clouds 15 1008 77 10000 8.75 230 01:20 09.02.2021
2759 Rain 15 1006 77 10000 9.26 220 23:58 08.02.2021
2760 Clouds 15 1006 72 10000 9.26 230 23:22 08.02.2021
2761 Clouds 16 1005 63 10000 10.8 220 22:46 08.02.2021
2762 Clouds 16 1006 67 10000 8.23 220 22:26 08.02.2021
2763 Clouds 15 1006 72 10000 5.66 230 21:58 08.02.2021
2764 Clouds 15 1006 72 10000 5.66 230 21:38 08.02.2021
2765 Clouds 14 1005 76 10000 4.12 210 21:18 08.02.2021
2766 Clouds 14 1004 72 10000 7.2 200 20:42 08.02.2021
2767 Clouds 14 1004 72 10000 7.2 200 20:22 08.02.2021
2768 Clouds 15 1004 72 8000 9.26 190 19:49 08.02.2021
2769 Rain 16 1007 67 4000 16.98 210 19:27 08.02.2021
2770 Rain 18 1005 48 10000 8.23 230 18:50 08.02.2021
2771 Clouds 16 1005 59 10000 4.12 260 18:25 08.02.2021
2772 Clear 18 1005 45 10000 6.69 250 17:47 08.02.2021
2773 Clear 18 1005 48 10000 6.17 250 17:27 08.02.2021
2774 Clear 18 1005 42 10000 7.72 240 16:57 08.02.2021
2775 Clear 19 1004 42 10000 8.75 230 16:39 08.02.2021
2776 Clear 19 1004 42 10000 8.75 230 16:18 08.02.2021
2777 Clear 19 1005 39 10000 5.66 260 15:37 08.02.2021
2778 Clear 19 1005 39 10000 5.66 260 15:18 08.02.2021
2779 Clear 20 1006 37 10000 6.69 240 14:48 08.02.2021
2780 Clear 19 1006 45 10000 6.17 270 14:28 08.02.2021
2781 Clear 20 1006 42 10000 7.2 260 13:46 08.02.2021
2782 Clear 20 1007 42 10000 7.2 250 13:27 08.02.2021
2783 Clear 21 1008 42 10000 2.06 220 12:39 08.02.2021
2784 Clear 20 1009 39 10000 3.09 280 11:58 08.02.2021
2785 Clear 20 1009 39 10000 3.09 280 11:35 08.02.2021
2786 Clear 20 1009 37 10000 2.06 110 10:46 08.02.2021
2787 Clear 19 1009 39 10000 2.06 0 10:26 08.02.2021
2788 Clear 16 1009 58 10000 3.6 130 09:56 08.02.2021
2789 Clear 15 1010 55 10000 4.63 180 09:36 08.02.2021
2790 Clear 15 1010 55 10000 4.63 180 09:36 08.02.2021
2791 Rain 15 1010 55 10000 4.12 190 08:55 08.02.2021
2792 Rain 16 1011 48 10000 3.6 230 08:26 08.02.2021
2793 Rain 16 1011 51 10000 1.54 0 07:42 08.02.2021
2794 Rain 14 1011 62 10000 4.12 280 06:38 08.02.2021
2795 Clear 14 1011 62 10000 1.54 250 05:18 08.02.2021
2796 Clear 15 1011 58 10000 4.12 250 02:26 08.02.2021
2797 Clear 13 1012 71 10000 5.14 250 00:25 08.02.2021
2798 Clear 13 1011 71 10000 4.63 250 23:54 07.02.2021
2799 Clear 15 1011 63 10000 7.2 240 23:28 07.02.2021
2800 Clear 15 1011 63 10000 6.69 230 22:57 07.02.2021
2801 Clear 15 1011 63 10000 6.69 230 22:38 07.02.2021
2802 Clear 15 1012 63 10000 6.17 230 22:20 07.02.2021
2803 Clear 14 1012 67 10000 2.06 220 21:49 07.02.2021
2804 Clear 14 1013 67 10000 2.06 240 21:24 07.02.2021
2805 Clear 14 1013 67 10000 2.06 240 21:24 07.02.2021
2806 Clear 14 1013 72 10000 2.06 270 20:50 07.02.2021
2807 Clouds 14 1013 67 9000 1.54 250 20:29 07.02.2021
2808 Clear 14 1013 67 10000 1.54 260 19:49 07.02.2021
2809 Clear 13 1013 71 10000 1.03 0 19:29 07.02.2021
2810 Clear 13 1013 76 10000 1.03 0 18:48 07.02.2021
2811 Clear 13 1013 67 10000 1.03 100 18:27 07.02.2021
2812 Clear 14 1013 71 10000 1.03 110 17:58 07.02.2021
2813 Clear 14 1013 71 10000 1.03 110 17:39 07.02.2021
2814 Clear 14 1013 71 10000 1.03 130 17:18 07.02.2021
2815 Clear 15 1013 67 10000 0.51 150 16:42 07.02.2021
2816 Clear 15 1013 67 10000 0.51 150 16:21 07.02.2021
2817 Clear 16 1013 63 10000 0.51 0 15:44 07.02.2021
2818 Clear 16 1014 67 10000 1.03 160 15:22 07.02.2021
2819 Clear 17 1014 59 10000 1.03 220 14:46 07.02.2021
2820 Clear 17 1014 55 10000 2.06 220 14:27 07.02.2021
2821 Clear 17 1014 55 10000 2.06 230 13:51 07.02.2021
2822 Clear 17 1015 55 10000 1.54 0 13:30 07.02.2021
2823 Clear 17 1015 55 10000 1.54 0 13:30 07.02.2021
2824 Clear 16 1015 67 10000 1.03 0 12:42 07.02.2021
2825 Clear 16 1015 67 10000 1.03 0 12:22 07.02.2021
2826 Clear 15 1016 77 10000 1.03 0 11:46 07.02.2021
2827 Clear 15 1016 77 10000 1.03 0 11:46 07.02.2021
2828 Clear 15 1016 77 10000 1.54 150 11:26 07.02.2021
2829 Clear 14 1016 82 10000 1.54 150 10:44 07.02.2021
2830 Clear 14 1017 82 10000 2.06 160 10:23 07.02.2021
2831 Clear 14 1016 72 10000 1.54 250 09:44 07.02.2021
2832 Clear 14 1017 72 10000 1.03 250 09:21 07.02.2021
2833 Clouds 12 1017 87 7000 1.03 0 08:22 07.02.2021
2834 Fog 9 1016 100 2000 2.06 320 06:34 07.02.2021
2835 Fog 8 1016 100 1800 1.54 40 05:57 07.02.2021
2836 Fog 8 1015 100 800 2.06 350 03:50 07.02.2021
2837 Fog 9 1015 93 2500 1.54 160 01:24 07.02.2021
2838 Mist 9 1015 93 4000 2.06 270 00:32 07.02.2021
2839 Mist 8 1015 93 4000 1.03 290 23:44 06.02.2021
2840 Mist 9 1015 93 4000 1.03 0 22:40 06.02.2021
2841 Mist 8 1015 100 4000 1.95 206 21:39 06.02.2021
2842 Mist 8 1015 93 4000 0.51 50 21:21 06.02.2021
2843 Mist 9 1015 100 3500 0.51 0 20:50 06.02.2021
2844 Mist 9 1016 93 4000 1.03 0 20:25 06.02.2021
2845 Mist 9 1015 100 4000 1.54 150 19:56 06.02.2021
2846 Mist 10 1015 100 4000 2.06 160 19:30 06.02.2021
2847 Clear 9 1016 100 6000 1.03 160 18:47 06.02.2021
2848 Clear 10 1016 93 8000 1.03 0 18:28 06.02.2021
2849 Clear 10 1015 93 10000 1.54 230 17:46 06.02.2021
2850 Clear 10 1015 100 10000 1.54 220 17:22 06.02.2021
2851 Clear 11 1015 93 10000 2.06 200 16:59 06.02.2021
2852 Clear 11 1015 93 10000 2.06 200 16:37 06.02.2021
2853 Clear 12 1015 82 10000 2.06 230 16:19 06.02.2021
2854 Clear 12 1015 87 10000 2.06 230 15:41 06.02.2021
2855 Clear 13 1016 82 10000 3.09 250 15:20 06.02.2021
2856 Clear 14 1016 77 10000 4.12 260 14:45 06.02.2021
2857 Clear 13 1016 82 10000 4.63 270 14:24 06.02.2021
2858 Clear 15 1016 82 7000 5.14 270 13:48 06.02.2021
2859 Mist 12 1017 93 1800 3.6 280 12:57 06.02.2021
2860 Mist 12 1017 87 1600 4.12 260 12:21 06.02.2021
2861 Mist 12 1017 93 1200 4.12 260 11:47 06.02.2021
2862 Fog 12 1017 100 800 5.14 250 11:22 06.02.2021
2863 Fog 12 1018 100 800 4.63 250 10:57 06.02.2021
2864 Fog 11 1018 100 300 4.63 260 10:30 06.02.2021
2865 Fog 11 1018 100 300 4.12 250 09:59 06.02.2021
2866 Fog 11 1018 100 300 4.12 250 09:37 06.02.2021
2867 Fog 11 1018 100 350 5.14 260 09:18 06.02.2021
2868 Fog 11 1018 100 700 6.17 270 08:33 06.02.2021
2869 Fog 9 1018 100 200 4.12 270 08:00 06.02.2021
2870 Fog 9 1017 100 700 2.57 250 05:44 06.02.2021
2871 Mist 10 1017 93 4000 3.09 260 04:36 06.02.2021
2872 Clouds 9 1018 93 7000 1.03 350 02:26 06.02.2021
2873 Mist 11 1018 87 4000 1.03 0 00:48 06.02.2021
2874 Mist 11 1018 87 4000 1.03 0 00:48 06.02.2021
2875 Mist 9 1018 93 4000 1.54 240 00:20 06.02.2021
2876 Clouds 9 1018 93 6000 0.51 0 23:44 05.02.2021
2877 Clouds 10 1019 93 6000 0.51 210 23:26 05.02.2021
2878 Clouds 9 1019 93 7000 2.07 125 22:47 05.02.2021
2879 Clear 9 1019 87 10000 1.03 160 22:23 05.02.2021
2880 Clear 9 1019 87 10000 0.51 50 21:47 05.02.2021
2881 Clear 9 1019 87 10000 1.77 128 21:28 05.02.2021
2882 Clear 10 1019 81 10000 1.76 128 20:47 05.02.2021
2883 Clear 10 1020 87 10000 1.03 40 19:53 05.02.2021
2884 Clear 11 1019 87 10000 1.03 110 19:20 05.02.2021
2885 Clear 12 1020 82 10000 0.51 110 18:54 05.02.2021
2886 Clear 12 1020 82 10000 1.03 80 18:28 05.02.2021
2887 Clear 12 1020 87 10000 1.03 0 17:47 05.02.2021
2888 Clear 13 1020 87 10000 2.06 260 17:27 05.02.2021
2889 Clear 14 1020 82 10000 1.54 230 16:50 05.02.2021
2890 Clear 14 1020 82 10000 1.54 230 16:50 05.02.2021
2891 Clear 15 1020 82 10000 1.03 0 16:24 05.02.2021
2892 Clear 15 1020 77 10000 2.06 250 15:58 05.02.2021
2893 Clear 15 1020 77 10000 2.06 240 15:27 05.02.2021
2894 Clear 16 1021 72 10000 1.54 240 14:55 05.02.2021
2895 Clear 16 1021 67 10000 1.54 240 14:36 05.02.2021
2896 Clear 16 1021 67 10000 1.54 240 14:18 05.02.2021
2897 Clear 16 1021 67 10000 1.54 240 14:18 05.02.2021
2898 Clouds 15 1021 72 10000 2.06 240 13:39 05.02.2021
2899 Clouds 15 1021 72 10000 1.54 230 13:18 05.02.2021
2900 Clouds 15 1021 77 10000 2.06 240 12:40 05.02.2021
2901 Clouds 15 1022 77 8000 1.03 0 11:58 05.02.2021
2902 Clouds 15 1022 82 8000 2.06 190 11:36 05.02.2021
2903 Clouds 15 1022 82 8000 2.06 190 11:18 05.02.2021
2904 Clouds 15 1022 82 8000 2.06 230 10:41 05.02.2021
2905 Clear 14 1022 88 7000 2.06 230 10:21 05.02.2021
2906 Clear 14 1022 88 7000 2.06 270 09:41 05.02.2021
2907 Mist 13 1022 94 4000 2.06 270 09:21 05.02.2021
2908 Fog 12 1022 100 1600 3.09 260 08:36 05.02.2021
2909 Fog 9 1021 100 2000 1.54 270 07:39 05.02.2021
2910 Fog 8 1021 93 800 1.54 300 06:58 05.02.2021
2911 Fog 9 1020 93 800 1.03 180 05:40 05.02.2021
2912 Mist 10 1020 93 4000 2.06 220 04:50 05.02.2021
2913 Mist 10 1019 100 4000 3.6 260 02:25 05.02.2021
2914 Clear 11 1019 100 6000 3.09 250 00:41 05.02.2021
2915 Clear 10 1018 93 7000 0.51 0 00:21 05.02.2021
2916 Clear 10 1018 93 10000 1.03 240 23:59 04.02.2021
2917 Clear 11 1018 93 10000 4.12 250 23:40 04.02.2021
2918 Clear 11 1018 93 10000 4.12 250 23:21 04.02.2021
2919 Clear 11 1018 93 10000 3.6 250 22:52 04.02.2021
2920 Clear 11 1018 93 10000 1.03 0 22:29 04.02.2021
2921 Clear 11 1018 93 10000 2.57 260 21:43 04.02.2021
2922 Clear 11 1017 87 10000 2.06 250 21:22 04.02.2021
2923 Clear 12 1017 87 10000 3.6 250 20:53 04.02.2021
2924 Clear 12 1017 87 10000 3.09 250 20:34 04.02.2021
2925 Clear 12 1017 82 10000 3.6 250 19:49 04.02.2021
2926 Clear 13 1016 82 10000 4.12 260 19:21 04.02.2021
2927 Clear 13 1016 82 10000 3.6 240 18:39 04.02.2021
2928 Clear 14 1016 77 10000 3.09 250 18:20 04.02.2021
2929 Clear 14 1016 77 10000 2.06 270 17:44 04.02.2021
2930 Clear 14 1016 76 10000 3.09 300 17:21 04.02.2021
2931 Clear 14 1015 67 10000 4.63 260 16:46 04.02.2021
2932 Clear 14 1015 67 10000 4.63 260 16:19 04.02.2021
2933 Clear 15 1015 67 10000 4.12 270 15:41 04.02.2021
2934 Clear 15 1015 67 10000 4.12 270 15:21 04.02.2021
2935 Clear 15 1015 72 10000 3.6 270 14:55 04.02.2021
2936 Clear 15 1015 72 10000 3.6 270 14:37 04.02.2021
2937 Clear 15 1015 72 10000 3.6 270 14:18 04.02.2021
2938 Clear 14 1015 76 10000 5.14 260 13:41 04.02.2021
2939 Clear 14 1016 82 10000 3.09 260 12:57 04.02.2021
2940 Clear 14 1016 82 10000 3.6 260 12:21 04.02.2021
2941 Clear 14 1016 82 10000 3.6 260 11:50 04.02.2021
2942 Clear 14 1016 82 10000 4.12 230 11:32 04.02.2021
2943 Clear 14 1016 76 10000 3.6 230 10:44 04.02.2021
2944 Clear 13 1017 82 10000 3.6 250 10:18 04.02.2021
2945 Clear 13 1017 82 10000 3.6 250 09:43 04.02.2021
2946 Clear 13 1017 82 10000 4.12 250 09:18 04.02.2021
2947 Clear 12 1017 87 10000 4.12 250 08:41 04.02.2021
2948 Clear 12 1017 87 10000 3.09 260 08:20 04.02.2021
2949 Clear 11 1017 87 10000 3.6 240 07:42 04.02.2021
2950 Clouds 10 1016 87 8000 3.6 240 06:55 04.02.2021
2951 Clouds 10 1016 87 8000 3.6 240 06:37 04.02.2021
2952 Mist 9 1016 93 4000 0.51 0 03:53 04.02.2021
2953 Clouds 8 1017 93 6000 1.03 210 02:26 04.02.2021
2954 Clouds 7 1017 93 7000 1.43 220 00:48 04.02.2021
2955 Clouds 8 1017 93 7000 0.51 0 23:40 03.02.2021
2956 Clouds 9 1017 93 7000 1.27 205 22:44 03.02.2021
2957 Clouds 9 1017 93 7000 0.51 0 22:22 03.02.2021
2958 Clear 9 1018 100 10000 1.53 190 21:58 03.02.2021
2959 Clear 9 1018 100 10000 1.54 190 21:38 03.02.2021
2960 Clouds 9 1018 93 7000 1.74 165 21:20 03.02.2021
2961 Clear 9 1018 93 10000 1.74 165 20:45 03.02.2021
2962 Clear 10 1017 93 10000 1.03 130 20:24 03.02.2021
2963 Clear 10 1017 87 10000 1.03 160 19:45 03.02.2021
2964 Clear 10 1018 87 10000 0.51 160 19:22 03.02.2021
2965 Clear 10 1018 87 10000 0.51 0 18:48 03.02.2021
2966 Clear 10 1018 87 10000 0.7 212 18:21 03.02.2021
2967 Clear 11 1017 82 10000 1.54 250 17:53 03.02.2021
2968 Clear 11 1017 82 10000 1.54 250 17:33 03.02.2021
2969 Clear 13 1017 71 10000 2.06 240 16:57 03.02.2021
2970 Clear 13 1017 71 10000 2.06 240 16:35 03.02.2021
2971 Clear 15 1017 67 10000 2.57 250 15:46 03.02.2021
2972 Clear 15 1017 67 10000 2.57 270 15:26 03.02.2021
2973 Clear 15 1017 72 10000 2.06 250 14:54 03.02.2021
2974 Clouds 15 1017 72 10000 2.57 230 14:30 03.02.2021
2975 Clouds 15 1017 77 10000 3.09 200 13:56 03.02.2021
2976 Clouds 15 1017 67 10000 2.57 220 13:29 03.02.2021
2977 Clouds 15 1017 67 10000 3.09 230 12:55 03.02.2021
2978 Clear 15 1017 77 10000 3.09 240 12:36 03.02.2021
2979 Clear 15 1017 77 10000 3.09 240 12:18 03.02.2021
2980 Clouds 15 1018 72 10000 3.09 250 11:38 03.02.2021
2981 Clouds 15 1018 72 10000 3.09 250 10:59 03.02.2021
2982 Clouds 14 1019 72 10000 2.57 220 10:23 03.02.2021
2983 Clouds 14 1018 82 10000 1.54 200 09:51 03.02.2021
2984 Clouds 13 1018 76 10000 2.06 200 09:32 03.02.2021
2985 Clear 12 1018 87 10000 1.54 160 08:55 03.02.2021
2986 Clear 12 1018 87 10000 1.03 0 08:36 03.02.2021
2987 Clear 11 1018 93 10000 0.51 0 07:43 03.02.2021
2988 Clouds 10 1017 93 6000 2.06 260 06:42 03.02.2021
2989 Clouds 10 1017 87 10000 1.54 220 04:55 03.02.2021
2990 Clouds 10 1017 93 10000 1.54 240 04:34 03.02.2021
2991 Clouds 10 1017 87 10000 1.03 0 03:48 03.02.2021
2992 Rain 12 1016 82 10000 0.51 0 02:38 03.02.2021
2993 Clouds 11 1016 87 10000 1.03 200 01:21 03.02.2021
2994 Clouds 11 1016 87 10000 1.54 320 00:23 03.02.2021
2995 Clouds 11 1016 87 10000 4.24 204 23:41 02.02.2021
2996 Clouds 11 1016 87 10000 4.24 204 23:41 02.02.2021
2997 Clouds 12 1016 82 10000 1.54 240 23:22 02.02.2021
2998 Clouds 12 1016 76 10000 1.03 220 22:39 02.02.2021
2999 Clouds 12 1016 82 10000 2.06 290 22:19 02.02.2021
3000 Clouds 12 1016 82 10000 2.06 290 22:19 02.02.2021
3001 Clouds 12 1016 82 10000 1.03 0 21:44 02.02.2021
3002 Clouds 13 1016 76 10000 1.54 220 21:23 02.02.2021
3003 Clouds 13 1016 82 10000 1.54 160 20:48 02.02.2021
3004 Clouds 13 1016 82 10000 2.06 150 20:21 02.02.2021
3005 Clouds 13 1016 76 10000 2.06 200 19:50 02.02.2021
3006 Clouds 13 1016 76 10000 2.57 210 19:32 02.02.2021
3007 Clouds 14 1016 72 10000 3.09 210 18:54 02.02.2021
3008 Clouds 14 1016 72 10000 1.54 0 18:36 02.02.2021
3009 Clouds 14 1016 72 10000 1.54 0 18:18 02.02.2021
3010 Clouds 13 1015 76 10000 1.03 0 17:37 02.02.2021
3011 Clouds 13 1015 76 10000 1.03 0 17:19 02.02.2021
3012 Rain 13 1015 82 10000 2.57 240 16:43 02.02.2021
3013 Rain 13 1015 82 10000 1.54 210 16:24 02.02.2021
3014 Clouds 14 1015 77 10000 2.57 190 15:42 02.02.2021
3015 Clouds 14 1015 72 10000 4.12 190 15:23 02.02.2021
3016 Clouds 15 1015 67 10000 1.54 170 14:50 02.02.2021
3017 Rain 15 1014 67 10000 0.51 0 14:31 02.02.2021
3018 Clouds 15 1014 67 10000 1.54 170 13:56 02.02.2021
3019 Clouds 15 1014 67 10000 1.54 170 13:37 02.02.2021
3020 Clouds 15 1014 67 10000 0.51 0 13:19 02.02.2021
3021 Clouds 15 1014 67 10000 1.03 0 12:41 02.02.2021
3022 Clouds 15 1015 67 10000 2.57 180 11:45 02.02.2021
3023 Clouds 15 1015 67 10000 2.06 150 11:24 02.02.2021
3024 Clouds 15 1015 63 10000 2.57 190 10:56 02.02.2021
3025 Clouds 15 1015 67 10000 2.06 150 10:27 02.02.2021
3026 Clouds 15 1015 67 10000 1.54 110 09:47 02.02.2021
3027 Clouds 13 1015 76 10000 3.09 120 09:26 02.02.2021
3028 Clouds 13 1014 71 10000 3.6 210 08:55 02.02.2021
3029 Clouds 12 1014 82 10000 4.12 180 08:28 02.02.2021
3030 Clear 12 1013 76 10000 4.63 190 07:31 02.02.2021
3031 Clear 12 1013 76 10000 5.14 200 06:43 02.02.2021
3032 Clear 11 1013 82 10000 5.14 190 05:53 02.02.2021
3033 Clear 12 1012 82 10000 6.17 200 04:57 02.02.2021
3034 Rain 10 1012 93 10000 8.75 190 02:44 02.02.2021
3035 Rain 10 1012 93 7000 7.72 190 02:23 02.02.2021
3036 Rain 11 1012 87 7000 5.14 210 00:35 02.02.2021
3037 Rain 11 1012 93 4800 7.2 260 23:20 01.02.2021
3038 Rain 12 1012 82 10000 4.12 210 22:50 01.02.2021
3039 Rain 12 1012 82 10000 4.12 210 22:32 01.02.2021
3040 Clear 13 1010 72 10000 5.66 270 21:53 01.02.2021
3041 Clear 13 1010 76 10000 2.57 350 21:34 01.02.2021
3042 Clear 13 1010 76 10000 5.14 310 20:57 01.02.2021
3043 Clear 14 1010 76 10000 5.14 310 20:37 01.02.2021
3044 Clear 14 1010 76 10000 5.14 310 20:19 01.02.2021
3045 Clear 15 1010 76 10000 6.69 330 19:38 01.02.2021
3046 Clear 16 1009 72 10000 8.23 330 19:19 01.02.2021
3047 Rain 17 1008 55 10000 4.12 270 18:47 01.02.2021
3048 Clear 16 1008 58 10000 1.54 0 18:27 01.02.2021
3049 Clear 17 1008 55 10000 3.09 230 17:47 01.02.2021
3050 Clear 17 1007 55 10000 3.6 220 17:23 01.02.2021
3051 Clear 17 1007 51 10000 3.09 220 16:47 01.02.2021
3052 Clear 17 1007 55 10000 4.63 200 16:28 01.02.2021
3053 Rain 17 1006 55 10000 6.17 190 15:43 01.02.2021
3054 Rain 17 1006 55 10000 6.17 190 15:43 01.02.2021
3055 Clear 17 1006 55 10000 5.66 200 15:19 01.02.2021
3056 Clear 17 1007 55 10000 5.66 200 14:52 01.02.2021
3057 Clear 17 1007 59 10000 5.66 210 14:27 01.02.2021
3058 Clear 17 1007 55 10000 4.12 200 13:49 01.02.2021
3059 Clear 17 1007 63 10000 5.14 220 13:26 01.02.2021
3060 Clear 17 1007 63 10000 4.63 210 12:45 01.02.2021
3061 Clear 16 1007 63 10000 3.6 210 12:25 01.02.2021
3062 Clear 16 1007 58 10000 7.2 200 11:51 01.02.2021
3063 Clear 16 1008 58 10000 7.2 190 11:22 01.02.2021
3064 Clear 16 1008 55 10000 7.72 190 10:55 01.02.2021
3065 Clear 16 1007 55 10000 10.29 190 10:36 01.02.2021
3066 Clear 16 1007 55 10000 10.29 190 10:18 01.02.2021
3067 Clear 15 1008 58 10000 8.23 200 09:42 01.02.2021
3068 Clear 15 1007 51 10000 9.77 200 08:56 01.02.2021
3069 Clear 15 1007 51 10000 9.77 200 08:56 01.02.2021
3070 Clear 15 1007 51 10000 6.69 190 08:27 01.02.2021
3071 Clear 13 1007 62 10000 4.63 200 07:34 01.02.2021
3072 Clear 12 1006 66 10000 1.54 0 05:27 01.02.2021
3073 Clear 12 1007 76 10000 1.54 110 02:40 01.02.2021
3074 Clear 11 1008 81 10000 2.06 160 00:26 01.02.2021
3075 Clear 11 1008 76 10000 0.51 0 23:26 31.01.2021
3076 Clear 11 1008 76 10000 1.54 90 22:41 31.01.2021
3077 Clear 11 1008 76 10000 2.06 160 22:22 31.01.2021
3078 Clear 12 1008 76 10000 2.06 150 21:47 31.01.2021
3079 Clear 11 1008 76 10000 2.06 150 21:21 31.01.2021
3080 Clear 12 1008 76 10000 2.06 150 20:44 31.01.2021
3081 Clear 12 1008 76 10000 1.54 140 20:21 31.01.2021
3082 Clear 12 1008 66 10000 2.06 130 19:41 31.01.2021
3083 Clear 12 1008 66 10000 2.57 140 19:23 31.01.2021
3084 Clear 11 1009 71 10000 2.06 130 18:56 31.01.2021
3085 Clear 11 1009 71 10000 2.06 130 18:38 31.01.2021
3086 Clear 11 1009 71 10000 1.54 110 18:19 31.01.2021
3087 Clear 11 1009 76 10000 2.06 150 17:43 31.01.2021
3088 Clear 12 1009 71 10000 2.57 170 17:22 31.01.2021
3089 Clear 12 1009 71 10000 1.54 160 16:42 31.01.2021
3090 Clear 12 1009 71 10000 1.54 160 16:22 31.01.2021
3091 Clear 13 1009 71 10000 3.6 190 15:50 31.01.2021
3092 Clear 13 1009 71 10000 4.12 190 15:28 31.01.2021
3093 Clear 14 1010 67 10000 2.06 220 14:40 31.01.2021
3094 Clear 14 1010 67 10000 3.09 210 14:19 31.01.2021
3095 Clear 14 1010 62 10000 3.6 210 13:48 31.01.2021
3096 Clear 14 1010 62 10000 3.09 200 13:23 31.01.2021
3097 Clear 13 1010 62 10000 3.09 190 12:47 31.01.2021
3098 Clear 13 1010 66 10000 3.09 180 12:21 31.01.2021
3099 Clear 13 1010 62 10000 2.57 170 11:41 31.01.2021
3100 Clear 13 1010 67 10000 2.06 140 11:21 31.01.2021
3101 Clear 12 1010 71 10000 3.09 130 10:48 31.01.2021
3102 Clear 12 1010 66 10000 4.63 170 10:30 31.01.2021
3103 Clear 11 1010 71 10000 5.14 190 09:49 31.01.2021
3104 Clear 10 1010 76 10000 5.66 200 08:58 31.01.2021
3105 Clear 9 1010 76 10000 5.14 200 08:32 31.01.2021
3106 Clear 7 1009 81 10000 5.66 210 06:54 31.01.2021
3107 Clear 7 1009 87 10000 6.17 200 05:30 31.01.2021
3108 Clear 8 1007 81 10000 4.63 260 00:40 31.01.2021
3109 Clear 9 1007 81 10000 5.14 240 00:21 31.01.2021
3110 Clouds 9 1007 81 10000 3.6 250 23:28 30.01.2021
3111 Clouds 8 1006 81 10000 4.63 250 22:49 30.01.2021
3112 Clouds 8 1006 81 10000 6.17 260 22:28 30.01.2021
3113 Clouds 8 1006 87 10000 4.12 260 21:39 30.01.2021
3114 Clouds 8 1005 87 10000 3.6 270 21:20 30.01.2021
3115 Clouds 8 1005 87 10000 3.6 270 21:20 30.01.2021
3116 Clouds 8 1005 87 10000 2.06 260 20:44 30.01.2021
3117 Clouds 8 1004 87 10000 2.06 340 20:26 30.01.2021
3118 Clouds 7 1003 93 10000 3.6 360 19:43 30.01.2021
3119 Rain 7 1002 93 10000 6.69 350 19:24 30.01.2021
3120 Clouds 8 1002 87 10000 6.69 350 18:41 30.01.2021
3121 Clouds 8 1001 87 10000 6.17 360 18:21 30.01.2021
3122 Rain 8 1001 93 10000 6.17 360 17:54 30.01.2021
3123 Clouds 10 1000 93 10000 3.09 240 17:19 30.01.2021
3124 Clouds 10 999 87 10000 6.17 220 16:44 30.01.2021
3125 Clouds 11 999 82 10000 6.17 220 16:24 30.01.2021
3126 Clouds 11 998 82 10000 6.69 220 15:54 30.01.2021
3127 Clouds 11 998 82 10000 6.69 220 15:36 30.01.2021
3128 Clouds 11 997 82 10000 6.17 210 15:18 30.01.2021
3129 Clouds 11 997 82 10000 5.66 210 14:41 30.01.2021
3130 Clouds 11 997 82 10000 3.6 210 14:19 30.01.2021
3131 Clouds 10 998 87 8000 6.17 210 13:29 30.01.2021
3132 Clouds 10 998 87 8000 4.63 190 12:48 30.01.2021
3133 Clouds 9 998 93 8000 6.17 190 12:28 30.01.2021
3134 Rain 9 999 87 7000 6.69 180 11:56 30.01.2021
3135 Rain 9 999 93 7000 8.23 180 11:26 30.01.2021
3136 Rain 8 999 93 4000 5.66 160 10:47 30.01.2021
3137 Rain 8 999 87 4000 6.17 130 09:48 30.01.2021
3138 Rain 8 1000 87 4000 6.17 130 09:29 30.01.2021
3139 Rain 8 1000 87 6000 6.17 120 08:47 30.01.2021
3140 Rain 8 1001 87 7000 3.09 120 07:48 30.01.2021
3141 Rain 9 1002 76 10000 4.12 110 06:49 30.01.2021
3142 Clouds 9 1003 71 10000 4.12 120 04:59 30.01.2021
3143 Clouds 9 1005 66 10000 6.69 200 03:35 30.01.2021
3144 Clouds 10 1006 66 10000 6.17 190 02:24 30.01.2021
3145 Clouds 9 1007 71 10000 7.2 200 01:29 30.01.2021
3146 Clouds 9 1008 71 10000 6.69 200 00:36 30.01.2021
3147 Clouds 9 1008 71 10000 6.69 210 00:18 30.01.2021
3148 Clouds 9 1009 71 10000 8.23 210 23:44 29.01.2021
3149 Clouds 9 1009 71 10000 9.26 210 23:20 29.01.2021
3150 Clouds 9 1008 71 10000 9.26 210 22:40 29.01.2021
3151 Clouds 9 1009 71 10000 8.23 210 22:18 29.01.2021
3152 Clouds 9 1010 71 10000 7.72 210 21:28 29.01.2021
3153 Clouds 9 1010 71 10000 8.23 210 20:45 29.01.2021
3154 Clouds 9 1010 71 10000 8.23 210 20:25 29.01.2021
3155 Clouds 9 1009 71 10000 8.23 210 19:43 29.01.2021
3156 Clouds 9 1009 71 10000 8.75 210 19:22 29.01.2021
3157 Clouds 9 1009 71 10000 8.75 210 18:58 29.01.2021
3158 Clouds 9 1010 71 10000 8.75 210 18:18 29.01.2021
3159 Clouds 9 1010 66 10000 9.77 210 17:37 29.01.2021
3160 Clouds 9 1010 66 10000 9.26 210 17:18 29.01.2021
3161 Clouds 9 1010 66 10000 9.26 210 16:40 29.01.2021
3162 Clouds 9 1010 66 10000 8.75 210 16:21 29.01.2021
3163 Clouds 9 1010 71 10000 8.23 210 15:42 29.01.2021
3164 Clouds 9 1010 66 10000 9.26 210 15:23 29.01.2021
3165 Clouds 8 1010 66 10000 10.29 210 14:31 29.01.2021
3166 Clouds 8 1011 66 10000 10.29 220 13:59 29.01.2021
3167 Clouds 8 1011 66 10000 9.77 210 13:36 29.01.2021
3168 Clouds 8 1011 66 10000 8.75 210 12:49 29.01.2021
3169 Clouds 8 1011 61 10000 9.26 210 12:22 29.01.2021
3170 Clouds 7 1012 61 10000 9.26 210 11:46 29.01.2021
3171 Clouds 7 1012 61 10000 9.26 210 11:18 29.01.2021
3172 Clouds 7 1013 65 10000 9.77 210 10:47 29.01.2021
3173 Clouds 6 1013 65 10000 9.26 210 10:26 29.01.2021
3174 Clouds 6 1013 65 10000 9.77 210 09:44 29.01.2021
3175 Clouds 6 1013 65 10000 9.77 210 08:52 29.01.2021
3176 Clouds 6 1013 65 10000 9.26 200 08:28 29.01.2021
3177 Clouds 5 1013 70 10000 8.75 210 07:54 29.01.2021
3178 Clouds 4 1013 65 10000 8.23 210 07:35 29.01.2021
3179 Clouds 4 1013 70 10000 7.72 210 06:58 29.01.2021
3180 Clouds 4 1013 75 10000 6.69 200 05:19 29.01.2021
3181 Clouds 4 1013 65 10000 5.14 230 02:48 29.01.2021
3182 Clear 3 1014 56 10000 4.12 240 00:38 29.01.2021
3183 Clear 2 1014 69 10000 3.09 270 00:19 29.01.2021
3184 Clear 2 1014 69 10000 2.06 310 23:41 28.01.2021
3185 Clear 2 1014 64 10000 2.06 310 23:41 28.01.2021
3186 Clear 2 1014 69 10000 2.06 310 23:23 28.01.2021
3187 Clear 3 1014 60 10000 2.06 300 22:45 28.01.2021
3188 Clear 3 1014 60 10000 3.6 290 22:26 28.01.2021
3189 Clear 3 1014 60 10000 2.57 310 21:53 28.01.2021
3190 Clear 2 1014 69 10000 2.06 320 21:33 28.01.2021
3191 Clear 2 1014 69 10000 2.57 320 20:55 28.01.2021
3192 Clear 2 1014 69 10000 2.57 320 20:37 28.01.2021
3193 Clear 3 1014 69 10000 3.09 320 20:18 28.01.2021
3194 Clouds 3 1014 70 10000 4.12 300 19:40 28.01.2021
3195 Clouds 3 1014 70 10000 4.12 300 19:19 28.01.2021
3196 Clear 4 1014 60 10000 4.12 280 18:43 28.01.2021
3197 Clear 3 1014 65 10000 3.09 290 18:20 28.01.2021
3198 Clear 3 1014 60 10000 3.09 290 17:44 28.01.2021
3199 Clear 4 1014 56 10000 4.63 280 17:26 28.01.2021
3200 Clear 4 1013 56 10000 4.12 270 16:44 28.01.2021
3201 Clear 4 1013 56 10000 4.12 260 16:22 28.01.2021
3202 Clear 4 1013 56 10000 4.12 260 16:22 28.01.2021
3203 Clouds 5 1013 56 10000 5.14 260 15:41 28.01.2021
3204 Clouds 5 1013 56 10000 4.12 250 14:59 28.01.2021
3205 Clouds 5 1013 56 10000 4.12 250 14:41 28.01.2021
3206 Clouds 5 1013 60 10000 4.12 240 14:23 28.01.2021
3207 Clouds 5 1013 60 10000 4.12 260 13:45 28.01.2021
3208 Clouds 5 1013 60 10000 5.14 250 12:54 28.01.2021
3209 Clouds 5 1013 60 10000 5.14 250 12:35 28.01.2021
3210 Clear 5 1013 56 10000 4.12 260 11:59 28.01.2021
3211 Clear 5 1013 56 10000 3.6 250 11:40 28.01.2021
3212 Clear 5 1013 56 10000 3.6 250 11:20 28.01.2021
3213 Clear 5 1013 56 10000 3.09 270 10:52 28.01.2021
3214 Clear 5 1013 56 10000 3.09 270 10:33 28.01.2021
3215 Clear 4 1013 60 10000 2.06 310 09:48 28.01.2021
3216 Clear 4 1012 65 10000 2.57 340 09:23 28.01.2021
3217 Clear 3 1012 70 10000 3.09 320 08:54 28.01.2021
3218 Clear 3 1012 70 10000 2.57 330 08:19 28.01.2021
3219 Clear 2 1012 75 10000 2.06 320 07:44 28.01.2021
3220 Clear 1 1012 80 10000 1.54 300 06:50 28.01.2021
3221 Clouds 2 1011 80 10000 2.06 310 05:56 28.01.2021
3222 Snow 1 1010 86 10000 3.09 310 04:27 28.01.2021
3223 Snow 1 1009 86 10000 4.63 320 01:38 28.01.2021
3224 Snow 2 1008 87 10000 6.17 340 23:48 27.01.2021
3225 Snow 2 1008 87 10000 6.69 350 23:24 27.01.2021
3226 Snow 2 1008 87 10000 6.69 360 22:42 27.01.2021
3227 Snow 2 1007 87 10000 6.69 350 22:22 27.01.2021
3228 Snow 1 1007 93 10000 7.2 340 21:43 27.01.2021
3229 Snow 2 1007 87 7000 8.75 340 21:23 27.01.2021
3230 Snow 2 1007 87 7000 8.75 340 21:23 27.01.2021
3231 Snow 2 1007 93 7000 7.72 350 20:52 27.01.2021
3232 Snow 2 1007 87 7000 8.75 350 20:27 27.01.2021
3233 Rain 2 1007 93 9000 8.23 340 19:50 27.01.2021
3234 Rain 2 1006 93 8000 8.23 340 19:23 27.01.2021
3235 Rain 2 1006 93 7000 7.2 340 18:46 27.01.2021
3236 Rain 2 1005 93 7000 7.72 340 18:26 27.01.2021
3237 Rain 2 1005 93 8000 6.17 340 17:56 27.01.2021
3238 Rain 2 1005 93 8000 6.17 340 17:38 27.01.2021
3239 Rain 2 1004 93 7000 8.23 340 16:58 27.01.2021
3240 Rain 2 1004 93 7000 8.75 350 16:39 27.01.2021
3241 Clouds 2 1004 93 7000 8.75 350 16:21 27.01.2021
3242 Rain 2 1003 93 7000 9.77 350 15:49 27.01.2021
3243 Rain 3 1003 87 7000 9.77 350 15:29 27.01.2021
3244 Rain 3 1002 87 8000 9.26 350 14:24 27.01.2021
3245 Rain 3 1001 87 8000 11.32 350 13:53 27.01.2021
3246 Clouds 3 1002 87 8000 10.29 360 13:35 27.01.2021
3247 Rain 3 1001 87 7000 10.29 350 12:42 27.01.2021
3248 Rain 3 1001 93 5000 10.8 340 12:24 27.01.2021
3249 Rain 3 1001 87 6000 11.83 340 11:48 27.01.2021
3250 Rain 3 1000 93 7000 10.29 350 11:26 27.01.2021
3251 Rain 3 999 93 4000 11.32 350 10:47 27.01.2021
3252 Rain 3 999 93 4000 10.8 350 10:25 27.01.2021
3253 Rain 4 999 93 4000 10.8 350 09:56 27.01.2021
3254 Rain 4 998 93 4000 12.35 350 09:28 27.01.2021
3255 Rain 5 998 87 6000 12.35 350 08:45 27.01.2021
3256 Rain 5 998 93 6000 10.8 350 07:57 27.01.2021
3257 Rain 5 999 93 6000 11.83 350 07:37 27.01.2021
3258 Rain 5 999 93 4000 11.83 340 06:38 27.01.2021
3259 Rain 6 997 93 7000 10.29 360 05:55 27.01.2021
3260 Rain 6 997 93 6000 9.26 360 05:34 27.01.2021
3261 Rain 11 998 93 7000 7.72 360 02:46 27.01.2021
3262 Rain 11 999 93 7000 4.63 360 02:20 27.01.2021
3263 Rain 14 1000 67 10000 2.57 280 00:58 27.01.2021
3264 Rain 13 1000 76 10000 1.03 0 00:22 27.01.2021
3265 Rain 14 1001 67 10000 2.06 160 23:38 26.01.2021
3266 Rain 14 1001 67 10000 2.06 160 23:19 26.01.2021
3267 Rain 13 1002 76 10000 3.09 170 22:38 26.01.2021
3268 Rain 13 1002 76 10000 3.09 170 22:19 26.01.2021
3269 Clouds 13 1003 82 10000 3.6 200 21:51 26.01.2021
3270 Clouds 13 1003 77 10000 3.6 210 21:23 26.01.2021
3271 Rain 12 1004 82 10000 6.17 200 20:43 26.01.2021
3272 Rain 12 1004 82 10000 5.14 210 20:43 26.01.2021
3273 Rain 12 1004 82 10000 6.17 200 20:23 26.01.2021
3274 Clouds 13 1004 72 10000 5.66 210 19:51 26.01.2021
3275 Clouds 13 1004 72 10000 5.66 220 19:30 26.01.2021
3276 Clouds 13 1004 72 10000 4.63 200 18:58 26.01.2021
3277 Clouds 13 1004 72 10000 4.63 200 18:58 26.01.2021
3278 Clouds 13 1004 72 10000 4.63 200 18:40 26.01.2021
3279 Clouds 12 1004 76 10000 4.63 210 18:21 26.01.2021
3280 Clouds 12 1004 76 10000 5.14 220 17:47 26.01.2021
3281 Clouds 13 1005 72 10000 5.66 240 17:22 26.01.2021
3282 Rain 12 1005 82 10000 3.6 220 16:43 26.01.2021
3283 Rain 13 1005 82 10000 3.09 250 16:20 26.01.2021
3284 Rain 12 1005 87 8000 3.6 280 15:50 26.01.2021
3285 Rain 12 1006 87 8000 3.6 270 15:30 26.01.2021
3286 Rain 12 1006 87 8000 4.12 240 14:49 26.01.2021
3287 Rain 12 1006 87 8000 5.14 250 14:30 26.01.2021
3288 Rain 12 1006 87 8000 5.14 260 13:42 26.01.2021
3289 Rain 13 1006 87 8000 6.69 280 13:24 26.01.2021
3290 Rain 13 1007 87 10000 4.63 280 12:45 26.01.2021
3291 Rain 13 1007 87 10000 3.6 250 12:25 26.01.2021
3292 Rain 13 1007 87 10000 3.09 240 11:59 26.01.2021
3293 Rain 13 1007 87 10000 3.09 240 11:39 26.01.2021
3294 Rain 13 1008 76 10000 5.14 230 10:50 26.01.2021
3295 Rain 13 1008 76 10000 6.69 230 10:31 26.01.2021
3296 Rain 13 1008 76 10000 6.17 230 09:48 26.01.2021
3297 Rain 13 1008 76 10000 6.69 220 09:28 26.01.2021
3298 Clouds 14 1008 72 10000 8.75 220 08:53 26.01.2021
3299 Clouds 14 1008 72 10000 8.23 220 08:33 26.01.2021
3300 Clouds 14 1008 72 10000 8.23 210 07:47 26.01.2021
3301 Clear 12 1008 76 10000 6.17 200 06:24 26.01.2021
3302 Clear 13 1008 76 10000 5.14 210 05:43 26.01.2021
3303 Clear 12 1008 76 10000 6.17 210 05:23 26.01.2021
3304 Clear 11 1009 87 10000 2.06 220 02:46 26.01.2021
3305 Clear 11 1010 87 10000 3.09 200 00:57 26.01.2021
3306 Clear 11 1010 87 10000 4.12 200 23:40 25.01.2021
3307 Clear 12 1010 82 10000 3.6 200 23:18 25.01.2021
3308 Clear 12 1010 82 10000 4.12 220 22:39 25.01.2021
3309 Clear 11 1010 87 10000 3.6 200 21:58 25.01.2021
3310 Clear 11 1010 87 10000 4.12 210 21:39 25.01.2021
3311 Clear 12 1010 82 10000 5.14 210 20:53 25.01.2021
3312 Clear 11 1010 87 10000 4.12 200 20:33 25.01.2021
3313 Clear 11 1009 87 10000 5.66 210 19:52 25.01.2021
3314 Clear 12 1009 82 10000 6.17 220 19:32 25.01.2021
3315 Clear 11 1009 87 10000 6.17 220 18:59 25.01.2021
3316 Clear 11 1009 87 10000 6.17 220 18:41 25.01.2021
3317 Clouds 11 1009 87 10000 6.17 210 18:21 25.01.2021
3318 Clouds 11 1008 87 10000 6.17 210 17:42 25.01.2021
3319 Clouds 12 1007 82 10000 7.2 210 17:23 25.01.2021
3320 Clouds 11 1006 87 10000 6.69 200 16:41 25.01.2021
3321 Clouds 12 1006 82 10000 8.23 200 16:23 25.01.2021
3322 Clouds 12 1005 82 10000 8.23 200 15:50 25.01.2021
3323 Clouds 11 1005 87 10000 7.72 200 15:32 25.01.2021
3324 Clouds 11 1005 87 10000 7.72 200 14:50 25.01.2021
3325 Rain 10 1005 93 10000 10.29 210 14:20 25.01.2021
3326 Rain 10 1005 93 10000 10.29 210 14:20 25.01.2021
3327 Rain 11 1005 87 10000 12.35 210 13:54 25.01.2021
3328 Rain 11 1005 87 10000 12.35 210 13:34 25.01.2021
3329 Rain 11 1004 87 10000 9.77 210 12:46 25.01.2021
3330 Rain 12 1005 87 10000 11.32 220 12:24 25.01.2021
3331 Rain 12 1005 82 7000 12.35 230 11:57 25.01.2021
3332 Rain 13 1005 82 10000 12.86 220 11:20 25.01.2021
3333 Rain 14 1006 71 10000 9.26 230 10:43 25.01.2021
3334 Rain 14 1005 71 10000 7.72 220 10:20 25.01.2021
3335 Rain 14 1006 71 10000 5.66 220 09:46 25.01.2021
3336 Rain 14 1005 82 10000 6.17 230 09:28 25.01.2021
3337 Rain 13 1006 87 10000 6.17 230 08:32 25.01.2021
3338 Rain 13 1006 82 10000 5.14 240 07:46 25.01.2021
3339 Rain 13 1006 76 10000 5.14 220 07:27 25.01.2021
3340 Rain 12 1006 76 10000 6.17 210 06:23 25.01.2021
3341 Clear 12 1009 71 10000 3.6 200 01:35 25.01.2021
3342 Clear 13 1010 67 10000 5.14 200 00:35 25.01.2021
3343 Clear 12 1010 71 10000 5.14 200 23:20 24.01.2021
3344 Clear 13 1011 71 10000 5.66 220 22:47 24.01.2021
3345 Clear 12 1011 76 10000 4.63 220 22:27 24.01.2021
3346 Clear 12 1011 76 10000 4.63 220 22:27 24.01.2021
3347 Clear 12 1011 76 10000 4.63 220 22:27 24.01.2021
3348 Clear 12 1011 76 10000 4.63 220 22:27 24.01.2021
3349 Clear 13 1011 76 10000 4.12 210 21:55 24.01.2021
3350 Clear 12 1011 76 10000 4.12 210 21:27 24.01.2021
3351 Clear 12 1011 76 10000 5.14 200 20:46 24.01.2021
3352 Clear 12 1011 76 10000 4.12 200 20:23 24.01.2021
3353 Clear 12 1011 76 10000 5.14 200 19:56 24.01.2021
3354 Clear 13 1011 76 10000 4.12 210 19:36 24.01.2021
3355 Clear 13 1011 76 10000 4.12 210 19:18 24.01.2021
3356 Clear 13 1011 71 10000 6.69 220 18:41 24.01.2021
3357 Clear 12 1011 82 10000 5.66 210 18:21 24.01.2021
3358 Clear 12 1011 82 10000 5.66 210 17:57 24.01.2021
3359 Clear 12 1011 82 10000 5.66 210 17:38 24.01.2021
3360 Clear 12 1011 76 10000 6.69 220 17:18 24.01.2021
3361 Clear 12 1011 76 10000 6.17 210 16:41 24.01.2021
3362 Clear 12 1011 82 10000 5.66 210 16:20 24.01.2021
3363 Clear 12 1011 82 10000 6.17 210 15:45 24.01.2021
3364 Clouds 13 1011 76 10000 6.69 220 15:20 24.01.2021
3365 Clouds 14 1010 76 10000 7.72 220 14:47 24.01.2021
3366 Clear 14 1010 76 10000 7.72 200 14:24 24.01.2021
3367 Clear 13 1010 76 10000 6.69 210 13:34 24.01.2021
3368 Clear 13 1011 76 10000 6.17 220 12:51 24.01.2021
3369 Clear 13 1011 76 10000 7.72 220 12:23 24.01.2021
3370 Clouds 12 1011 76 10000 7.72 220 11:56 24.01.2021
3371 Clouds 11 1011 76 10000 8.23 210 11:27 24.01.2021
3372 Clouds 11 1011 82 10000 9.26 200 10:59 24.01.2021
3373 Rain 12 1011 82 10000 9.26 230 10:35 24.01.2021
3374 Rain 11 1012 93 10000 3.09 230 09:47 24.01.2021
3375 Rain 11 1012 93 10000 4.12 230 09:19 24.01.2021
3376 Rain 12 1011 82 10000 4.63 200 08:38 24.01.2021
3377 Clouds 12 1011 71 10000 1.54 150 04:23 24.01.2021
3378 Rain 11 1012 76 10000 2.57 170 02:20 24.01.2021
3379 Clouds 11 1013 76 10000 2.57 190 00:57 24.01.2021
3380 Clouds 12 1013 71 10000 2.57 180 00:21 24.01.2021
3381 Clouds 12 1014 71 10000 3.09 210 23:41 23.01.2021
3382 Clouds 11 1014 71 10000 3.09 210 23:20 23.01.2021
3383 Clouds 12 1014 71 10000 1.03 0 22:41 23.01.2021
3384 Clouds 12 1014 71 10000 1.03 0 22:41 23.01.2021
3385 Clouds 12 1014 71 10000 2.06 180 22:20 23.01.2021
3386 Clouds 12 1015 71 10000 2.57 180 21:24 23.01.2021
3387 Clouds 12 1015 67 10000 3.6 180 20:58 23.01.2021
3388 Clouds 12 1015 71 10000 4.12 200 20:38 23.01.2021
3389 Clouds 12 1015 71 10000 4.12 200 20:38 23.01.2021
3390 Clouds 12 1015 71 10000 4.12 200 20:20 23.01.2021
3391 Clouds 12 1015 71 10000 3.6 190 19:43 23.01.2021
3392 Clouds 12 1016 67 10000 4.12 220 19:20 23.01.2021
3393 Clouds 12 1015 67 10000 4.12 220 18:43 23.01.2021
3394 Clouds 12 1016 71 10000 4.12 220 18:23 23.01.2021
3395 Clouds 12 1016 76 10000 4.63 230 17:44 23.01.2021
3396 Clouds 13 1016 67 10000 5.14 230 17:25 23.01.2021
3397 Clear 13 1016 67 10000 5.14 210 16:46 23.01.2021
3398 Clouds 13 1016 67 10000 6.17 210 16:24 23.01.2021
3399 Clear 13 1016 71 10000 2.06 220 15:31 23.01.2021
3400 Clear 14 1016 67 10000 3.09 220 14:53 23.01.2021
3401 Clear 14 1016 67 10000 4.12 220 14:28 23.01.2021
3402 Clear 14 1016 62 10000 4.63 210 13:50 23.01.2021
3403 Clear 14 1016 62 10000 4.63 210 13:50 23.01.2021
3404 Clear 14 1016 62 10000 4.63 210 13:32 23.01.2021
3405 Clear 14 1017 58 10000 5.66 210 12:49 23.01.2021
3406 Clear 14 1017 62 10000 5.66 200 12:26 23.01.2021
3407 Clear 14 1017 62 10000 6.17 210 11:45 23.01.2021
3408 Clear 13 1018 62 10000 6.69 210 11:19 23.01.2021
3409 Clear 13 1019 62 10000 6.69 220 10:29 23.01.2021
3410 Clear 13 1019 66 10000 6.69 210 09:57 23.01.2021
3411 Clouds 12 1019 66 10000 6.69 220 09:32 23.01.2021
3412 Clouds 12 1019 66 10000 6.69 210 08:45 23.01.2021
3413 Clouds 12 1019 66 10000 6.17 210 07:57 23.01.2021
3414 Clouds 11 1019 71 10000 5.14 210 07:18 23.01.2021
3415 Clouds 11 1020 71 10000 5.14 210 03:35 23.01.2021
3416 Clouds 11 1020 76 10000 5.14 220 00:34 23.01.2021
3417 Clouds 11 1021 76 10000 5.66 210 23:36 22.01.2021
3418 Clouds 11 1021 76 10000 4.12 220 22:45 22.01.2021
3419 Clouds 11 1021 76 10000 4.63 220 22:22 22.01.2021
3420 Clouds 11 1021 76 10000 4.12 210 21:45 22.01.2021
3421 Clouds 11 1021 76 10000 4.12 210 21:45 22.01.2021
3422 Clouds 11 1021 76 10000 3.09 210 21:25 22.01.2021
3423 Clouds 11 1021 76 10000 4.63 210 20:54 22.01.2021
3424 Clouds 11 1021 71 10000 5.66 210 20:32 22.01.2021
3425 Clouds 12 1021 71 10000 6.17 210 19:48 22.01.2021
3426 Clouds 12 1021 71 10000 5.14 210 19:21 22.01.2021
3427 Rain 12 1022 76 10000 4.63 210 18:48 22.01.2021
3428 Clouds 12 1022 71 10000 6.17 210 18:26 22.01.2021
3429 Clouds 12 1022 71 10000 6.69 210 17:52 22.01.2021
3430 Clouds 12 1022 76 10000 5.14 200 17:33 22.01.2021
3431 Clouds 12 1021 71 10000 6.17 210 16:56 22.01.2021
3432 Clouds 12 1021 71 10000 6.17 210 16:31 22.01.2021
3433 Clouds 12 1021 71 10000 7.2 210 15:48 22.01.2021
3434 Clouds 13 1021 71 10000 5.14 210 15:25 22.01.2021
3435 Clouds 13 1021 71 10000 5.14 210 15:25 22.01.2021
3436 Clouds 13 1022 62 10000 5.14 210 14:37 22.01.2021
3437 Clouds 13 1022 62 10000 5.14 210 14:18 22.01.2021
3438 Clouds 13 1022 58 10000 5.66 210 13:36 22.01.2021
3439 Clear 13 1022 58 10000 5.66 210 12:59 22.01.2021
3440 Clear 13 1023 62 10000 5.66 210 12:28 22.01.2021
3441 Clear 13 1023 58 10000 6.17 200 11:51 22.01.2021
3442 Clear 13 1023 58 10000 6.69 200 11:32 22.01.2021
3443 Clear 13 1024 58 10000 6.17 200 10:48 22.01.2021
3444 Clear 13 1024 58 10000 6.17 200 10:48 22.01.2021
3445 Clear 13 1024 58 10000 6.17 210 10:23 22.01.2021
3446 Clear 12 1024 62 10000 5.66 200 09:43 22.01.2021
3447 Clear 11 1025 62 10000 5.14 200 08:57 22.01.2021
3448 Clear 10 1025 66 10000 5.14 200 08:32 22.01.2021
3449 Clear 10 1025 66 10000 5.14 200 08:32 22.01.2021
3450 Clear 10 1025 66 10000 5.66 200 07:45 22.01.2021
3451 Clear 10 1025 71 10000 5.14 210 04:59 22.01.2021
3452 Clear 9 1026 71 10000 5.66 210 01:20 22.01.2021
3453 Clear 9 1026 66 10000 6.17 210 00:27 22.01.2021
3454 Clear 9 1026 66 10000 6.69 210 23:43 21.01.2021
3455 Clear 9 1026 71 10000 7.72 210 23:20 21.01.2021
3456 Clear 9 1026 71 10000 5.66 210 22:42 21.01.2021
3457 Clear 9 1026 66 10000 6.69 200 21:44 21.01.2021
3458 Clear 9 1026 66 10000 6.69 200 21:24 21.01.2021
3459 Clear 9 1026 66 10000 6.69 200 20:59 21.01.2021
3460 Clear 9 1026 66 10000 6.17 200 20:41 21.01.2021
3461 Clear 9 1026 66 10000 6.17 200 20:20 21.01.2021
3462 Clear 10 1026 66 10000 6.17 200 19:47 21.01.2021
3463 Clear 9 1026 66 10000 5.66 200 19:25 21.01.2021
3464 Clear 9 1026 66 10000 6.17 210 18:43 21.01.2021
3465 Clear 9 1026 62 10000 6.69 200 18:21 21.01.2021
3466 Clouds 9 1026 66 10000 5.66 200 17:57 21.01.2021
3467 Clouds 9 1026 66 10000 5.66 200 17:57 21.01.2021
3468 Clouds 9 1026 62 10000 5.66 210 17:21 21.01.2021
3469 Clouds 9 1026 66 10000 6.17 200 16:56 21.01.2021
3470 Clouds 9 1026 66 10000 6.17 200 16:38 21.01.2021
3471 Clouds 10 1026 62 10000 6.17 200 16:19 21.01.2021
3472 Clouds 10 1026 57 10000 6.69 210 15:47 21.01.2021
3473 Clouds 10 1026 57 10000 6.69 200 15:24 21.01.2021
3474 Clouds 10 1026 57 10000 6.17 200 14:45 21.01.2021
3475 Clouds 10 1026 57 10000 7.2 210 14:23 21.01.2021
3476 Clouds 9 1026 61 10000 7.2 200 13:43 21.01.2021
3477 Clouds 10 1026 53 10000 7.2 210 13:23 21.01.2021
3478 Clear 10 1027 53 10000 6.69 200 12:43 21.01.2021
3479 Clear 10 1027 53 10000 7.2 200 12:24 21.01.2021
3480 Clear 10 1027 57 10000 7.72 210 11:51 21.01.2021
3481 Clear 10 1028 57 10000 6.69 210 11:30 21.01.2021
3482 Clear 9 1028 61 10000 7.2 210 10:52 21.01.2021
3483 Clear 9 1028 57 10000 8.23 210 10:33 21.01.2021
3484 Clear 9 1029 57 10000 7.2 210 09:45 21.01.2021
3485 Clear 9 1028 57 10000 7.2 200 09:25 21.01.2021
3486 Clear 8 1028 61 10000 7.72 210 08:48 21.01.2021
3487 Clear 8 1028 61 10000 7.2 200 08:25 21.01.2021
3488 Clear 7 1028 65 10000 7.2 210 07:28 21.01.2021
3489 Clear 7 1028 65 10000 7.2 210 06:58 21.01.2021
3490 Clear 6 1027 65 10000 8.23 210 05:24 21.01.2021
3491 Clear 7 1027 65 10000 9.77 220 02:59 21.01.2021
3492 Clear 7 1028 65 10000 7.72 210 01:21 21.01.2021
3493 Clear 7 1027 65 10000 7.72 220 23:56 20.01.2021
3494 Clouds 7 1027 61 10000 8.23 220 23:36 20.01.2021
3495 Clouds 7 1027 61 10000 8.23 220 23:18 20.01.2021
3496 Clouds 7 1027 65 10000 8.75 210 22:46 20.01.2021
3497 Clouds 7 1027 57 10000 8.75 210 22:28 20.01.2021
3498 Clouds 7 1027 57 10000 8.75 210 22:28 20.01.2021
3499 Clouds 7 1027 61 10000 7.2 210 21:43 20.01.2021
3500 Clouds 6 1027 65 10000 7.2 200 21:22 20.01.2021
3501 Clouds 6 1027 61 10000 8.23 210 20:50 20.01.2021
3502 Clouds 6 1027 65 10000 7.72 210 20:19 20.01.2021
3503 Clouds 6 1027 65 10000 7.2 210 19:46 20.01.2021
3504 Clouds 6 1027 70 10000 6.17 200 19:27 20.01.2021
3505 Clear 6 1027 65 10000 6.69 210 18:42 20.01.2021
3506 Clouds 6 1027 65 10000 6.69 210 18:19 20.01.2021
3507 Clouds 6 1027 65 10000 6.17 210 17:42 20.01.2021
3508 Clouds 6 1027 61 10000 6.69 210 17:23 20.01.2021
3509 Clear 6 1027 65 10000 7.2 220 16:44 20.01.2021
3510 Clear 5 1027 60 10000 7.2 220 15:55 20.01.2021
3511 Clear 5 1027 60 10000 7.2 220 15:36 20.01.2021
3512 Clouds 5 1027 60 10000 6.69 210 14:51 20.01.2021
3513 Clouds 5 1027 60 10000 6.69 200 14:28 20.01.2021
3514 Clear 4 1027 60 10000 6.69 210 13:59 20.01.2021
3515 Clouds 4 1027 65 10000 6.17 210 13:36 20.01.2021
3516 Clouds 5 1027 60 10000 6.17 210 12:48 20.01.2021
3517 Clouds 4 1027 65 10000 5.14 220 12:21 20.01.2021
3518 Clouds 5 1027 56 10000 6.69 210 11:39 20.01.2021
3519 Clouds 4 1027 65 10000 7.72 210 11:18 20.01.2021
3520 Clouds 4 1028 70 10000 6.69 220 10:43 20.01.2021
3521 Clouds 4 1028 70 10000 6.69 220 10:18 20.01.2021
3522 Clouds 3 1027 75 10000 6.17 210 09:31 20.01.2021
3523 Clouds 3 1027 70 10000 7.2 230 08:59 20.01.2021
3524 Clouds 3 1027 70 10000 5.66 230 08:34 20.01.2021
3525 Clouds 0 1027 74 10000 2.06 290 07:59 20.01.2021
3526 Clouds 0 1027 80 10000 2.57 300 07:37 20.01.2021
3527 Clear 0 1027 80 10000 2.06 300 06:56 20.01.2021
3528 Clear -4 1026 86 10000 1.54 310 03:30 20.01.2021
3529 Clear -4 1026 86 10000 2.06 320 01:50 20.01.2021
3530 Clear -3 1026 80 10000 1.03 40 00:47 20.01.2021
3531 Clouds -3 1026 74 10000 1.54 10 23:50 19.01.2021
3532 Clouds -3 1026 80 10000 2.06 350 23:27 19.01.2021
3533 Clouds -2 1026 80 10000 2.57 350 22:57 19.01.2021
3534 Clouds -1 1026 69 10000 1.54 20 22:37 19.01.2021
3535 Clouds -1 1026 69 10000 1.54 20 22:19 19.01.2021
3536 Clouds -2 1026 80 10000 2.06 340 21:51 19.01.2021
3537 Clouds -2 1026 80 10000 1.54 340 21:27 19.01.2021
3538 Clear -1 1025 80 10000 1.54 360 20:47 19.01.2021
3539 Clouds -2 1025 80 10000 2.06 10 20:24 19.01.2021
3540 Clouds -2 1025 80 10000 2.06 360 19:55 19.01.2021
3541 Clouds -1 1025 80 10000 2.57 360 19:30 19.01.2021
3542 Clouds -1 1025 80 10000 2.57 360 18:49 19.01.2021
3543 Clouds -1 1025 80 10000 1.54 10 18:30 19.01.2021
3544 Clouds -1 1025 80 10000 1.03 20 17:47 19.01.2021
3545 Clouds -1 1024 80 10000 1.54 50 17:29 19.01.2021
3546 Clouds 0 1024 74 10000 1.54 350 16:50 19.01.2021
3547 Clouds 1 1024 69 10000 1.54 350 16:31 19.01.2021
3548 Clouds 1 1024 64 10000 0.51 0 15:59 19.01.2021
3549 Clouds 2 1024 60 10000 1.54 50 15:40 19.01.2021
3550 Clouds 2 1024 60 10000 1.54 50 15:19 19.01.2021
3551 Clouds 2 1024 60 10000 2.06 20 14:41 19.01.2021
3552 Clouds 2 1024 65 10000 3.09 40 14:22 19.01.2021
3553 Clouds 3 1024 60 10000 0.51 0 13:41 19.01.2021
3554 Clouds 3 1024 60 10000 1.03 0 13:21 19.01.2021
3555 Clouds 3 1024 60 10000 2.06 20 12:48 19.01.2021
3556 Clouds 2 1024 64 10000 2.57 20 12:29 19.01.2021
3557 Clouds 2 1025 69 10000 4.12 330 11:43 19.01.2021
3558 Clouds 1 1025 75 10000 4.63 340 11:24 19.01.2021
3559 Clouds 1 1025 75 10000 4.63 340 10:51 19.01.2021
3560 Clouds 1 1025 69 10000 4.12 330 10:31 19.01.2021
3561 Clouds 1 1025 64 10000 3.09 330 09:53 19.01.2021
3562 Clouds 0 1025 69 10000 3.09 340 09:30 19.01.2021
3563 Clouds 0 1025 69 10000 2.06 350 08:56 19.01.2021
3564 Clouds -1 1025 74 10000 2.57 350 08:21 19.01.2021
3565 Clouds -3 1024 80 10000 3.6 350 07:38 19.01.2021
3566 Clear -5 1024 86 10000 3.09 360 06:50 19.01.2021
3567 Clear -5 1024 80 10000 1.03 10 02:31 19.01.2021
3568 Clear -4 1024 74 10000 3.09 360 00:49 19.01.2021
3569 Clear -3 1024 80 10000 3.09 360 23:58 18.01.2021
3570 Clouds -3 1024 80 10000 3.6 360 23:31 18.01.2021
3571 Clear -3 1024 80 10000 2.57 350 22:51 18.01.2021
3572 Clear -4 1023 80 10000 1.03 10 22:25 18.01.2021
3573 Clear -4 1023 80 10000 1.03 10 21:51 18.01.2021
3574 Clouds -3 1023 80 10000 2.06 360 21:24 18.01.2021
3575 Clouds -3 1023 80 10000 1.54 10 20:59 18.01.2021
3576 Clouds -3 1023 80 10000 2.06 10 20:39 18.01.2021
3577 Clouds -3 1023 80 10000 2.06 10 20:20 18.01.2021
3578 Clouds -3 1023 74 10000 2.06 360 19:48 18.01.2021
3579 Clouds -3 1023 80 10000 2.06 360 19:29 18.01.2021
3580 Clouds -2 1023 74 10000 3.09 360 18:44 18.01.2021
3581 Clouds -2 1023 74 10000 2.57 350 18:22 18.01.2021
3582 Clouds -2 1023 80 10000 2.57 10 17:41 18.01.2021
3583 Clear -1 1022 74 10000 2.06 360 17:19 18.01.2021
3584 Clear -1 1022 74 10000 1.54 330 16:46 18.01.2021
3585 Clear 1 1022 55 10000 0.51 0 16:20 18.01.2021
3586 Clouds 1 1022 55 10000 0.51 0 15:42 18.01.2021
3587 Clouds 1 1022 55 10000 1.03 340 15:20 18.01.2021
3588 Clouds 1 1021 55 10000 0.51 0 14:43 18.01.2021
3589 Clouds 1 1021 60 10000 2.06 360 14:25 18.01.2021
3590 Clouds 1 1021 51 10000 2.06 360 13:46 18.01.2021
3591 Snow 1 1021 55 10000 1.03 0 13:26 18.01.2021
3592 Snow 1 1022 55 10000 2.06 60 12:52 18.01.2021
3593 Clouds 1 1022 64 10000 2.06 350 12:20 18.01.2021
3594 Clouds 1 1022 64 10000 2.06 350 12:20 18.01.2021
3595 Clouds 1 1022 60 10000 2.57 360 11:56 18.01.2021
3596 Clouds 1 1022 64 10000 1.54 30 11:37 18.01.2021
3597 Clouds 1 1022 64 10000 1.54 30 11:18 18.01.2021
3598 Clouds 0 1022 74 10000 3.09 360 10:39 18.01.2021
3599 Snow -1 1022 80 10000 3.09 340 09:43 18.01.2021
3600 Snow -2 1022 93 7000 2.06 330 09:24 18.01.2021
3601 Clouds -3 1022 100 10000 2.06 330 08:50 18.01.2021
3602 Snow -3 1021 93 2000 4.12 350 07:56 18.01.2021
3603 Snow -3 1021 93 6000 3.09 350 07:27 18.01.2021
3604 Clouds -3 1019 80 10000 5.14 330 04:59 18.01.2021
3605 Clouds -4 1019 80 10000 6.69 350 04:33 18.01.2021
3606 Clouds -4 1019 80 10000 5.14 360 03:59 18.01.2021
3607 Clouds -4 1019 80 10000 5.14 360 03:39 18.01.2021
3608 Clouds -4 1019 80 10000 1.54 360 03:19 18.01.2021
3609 Clouds -4 1019 74 10000 3.09 350 02:37 18.01.2021
3610 Clouds -3 1018 74 10000 4.12 360 00:43 18.01.2021
3611 Snow -3 1018 74 10000 3.6 360 00:23 18.01.2021
3612 Snow -2 1018 69 10000 6.17 340 23:44 17.01.2021
3613 Snow -2 1018 69 10000 6.17 340 23:20 17.01.2021
3614 Clouds -2 1018 74 10000 5.14 350 22:28 17.01.2021
3615 Clouds -2 1018 80 10000 3.09 360 21:59 17.01.2021
3616 Clouds -2 1018 86 10000 4.63 350 21:39 17.01.2021
3617 Clouds -2 1018 86 10000 4.63 350 21:21 17.01.2021
3618 Clouds -1 1018 74 10000 6.17 340 20:47 17.01.2021
3619 Clouds -1 1018 74 10000 6.17 340 20:47 17.01.2021
3620 Clouds -1 1017 74 10000 3.6 340 20:25 17.01.2021
3621 Snow -1 1017 69 10000 3.6 350 19:42 17.01.2021
3622 Clouds -1 1017 64 10000 4.12 340 19:22 17.01.2021
3623 Snow -1 1017 69 10000 4.12 340 18:41 17.01.2021
3624 Clouds -1 1017 80 10000 3.09 10 18:21 17.01.2021
3625 Clouds -1 1017 80 10000 3.6 10 17:47 17.01.2021
3626 Snow -1 1016 80 10000 6.17 10 17:26 17.01.2021
3627 Clouds -1 1016 80 10000 5.66 360 16:44 17.01.2021
3628 Clouds -1 1016 80 10000 5.66 10 16:20 17.01.2021
3629 Clouds -1 1015 86 10000 5.14 10 15:43 17.01.2021
3630 Clouds -1 1015 86 10000 6.69 360 15:24 17.01.2021
3631 Clouds -1 1015 86 10000 6.69 360 14:48 17.01.2021
3632 Clouds -1 1015 86 10000 6.17 10 14:26 17.01.2021
3633 Snow -1 1015 86 4000 8.23 360 13:45 17.01.2021
3634 Snow -1 1014 86 4000 7.2 360 13:27 17.01.2021
3635 Snow -1 1014 93 3500 7.2 360 12:52 17.01.2021
3636 Snow -1 1014 86 4000 8.75 360 12:31 17.01.2021
3637 Snow -1 1014 86 4000 8.23 360 11:54 17.01.2021
3638 Snow -1 1014 93 4500 10.29 350 11:22 17.01.2021
3639 Snow 0 1014 86 4500 9.77 350 10:46 17.01.2021
3640 Snow 0 1013 86 7000 10.8 350 10:21 17.01.2021
3641 Snow 0 1013 86 8000 10.29 360 09:21 17.01.2021
3642 Snow 1 1012 80 8000 10.29 360 08:44 17.01.2021
3643 Snow 1 1011 86 10000 9.26 350 06:52 17.01.2021
3644 Snow 0 1010 93 4000 11.32 350 04:28 17.01.2021
3645 Snow 1 1010 86 9000 7.72 350 02:42 17.01.2021
3646 Snow 2 1009 87 6000 7.72 360 00:47 17.01.2021
3647 Snow 2 1009 87 8000 8.23 10 00:18 17.01.2021
3648 Snow 2 1009 87 9000 7.2 360 23:48 16.01.2021
3649 Rain 2 1009 87 9000 7.72 10 23:19 16.01.2021
3650 Snow 2 1008 87 7000 7.72 10 22:36 16.01.2021
3651 Snow 2 1009 87 7000 7.2 10 21:58 16.01.2021
3652 Snow 1 1009 93 8000 6.17 10 21:24 16.01.2021
3653 Snow 2 1009 93 7000 5.14 10 20:59 16.01.2021
3654 Snow 2 1008 93 8000 6.17 30 20:40 16.01.2021
3655 Snow 2 1008 93 8000 6.17 30 20:18 16.01.2021
3656 Snow 2 1008 93 8000 5.66 30 19:41 16.01.2021
3657 Snow 1 1008 100 8000 6.17 30 19:23 16.01.2021
3658 Snow 1 1008 93 10000 4.12 30 18:42 16.01.2021
3659 Snow 1 1008 93 4000 3.6 30 18:21 16.01.2021
3660 Snow 1 1009 93 4000 2.06 50 17:41 16.01.2021
3661 Snow 1 1009 100 4000 2.57 20 17:23 16.01.2021
3662 Snow 1 1009 100 4000 3.09 10 16:45 16.01.2021
3663 Snow 1 1009 93 4000 3.6 20 16:25 16.01.2021
3664 Snow 2 1009 93 4000 3.6 20 15:48 16.01.2021
3665 Snow 3 1009 87 7000 4.12 40 15:18 16.01.2021
3666 Snow 3 1009 87 8000 5.14 80 14:19 16.01.2021
3667 Rain 4 1009 87 8000 5.14 60 13:48 16.01.2021
3668 Rain 5 1009 75 10000 5.66 80 13:21 16.01.2021
3669 Rain 5 1010 65 10000 4.63 70 12:39 16.01.2021
3670 Rain 5 1010 65 10000 4.63 70 12:20 16.01.2021
3671 Rain 5 1011 61 10000 3.6 80 11:46 16.01.2021
3672 Rain 5 1011 65 10000 4.12 80 11:24 16.01.2021
3673 Clouds 5 1011 65 10000 4.12 70 10:45 16.01.2021
3674 Clouds 4 1012 65 10000 4.63 70 10:20 16.01.2021
3675 Rain 4 1013 60 10000 3.6 80 09:32 16.01.2021
3676 Clear 3 1012 65 10000 3.09 70 08:35 16.01.2021
3677 Clear 2 1013 70 10000 3.09 50 07:32 16.01.2021
3678 Clear 2 1013 70 10000 3.09 40 06:43 16.01.2021
3679 Clear 2 1013 70 10000 3.09 60 04:39 16.01.2021
3680 Clear 1 1015 75 10000 2.06 40 02:56 16.01.2021
3681 Clouds 2 1016 70 10000 2.57 70 00:50 16.01.2021
3682 Clouds 1 1016 80 10000 2.06 50 00:28 16.01.2021
3683 Clouds 3 1016 70 10000 2.06 50 23:55 15.01.2021
3684 Clouds 0 1016 86 10000 1.03 0 22:56 15.01.2021
3685 Clouds 0 1017 86 10000 1.54 20 22:24 15.01.2021
3686 Clear 1 1017 86 10000 2.06 40 21:46 15.01.2021
3687 Clouds 3 1017 70 10000 2.06 70 20:59 15.01.2021
3688 Clouds 2 1017 75 10000 1.03 0 20:40 15.01.2021
3689 Clouds 2 1017 75 10000 1.03 0 20:21 15.01.2021
3690 Clouds 2 1017 80 10000 1.03 40 19:40 15.01.2021
3691 Clouds 2 1017 75 10000 1.54 360 19:22 15.01.2021
3692 Clouds 3 1017 75 10000 0.51 340 18:43 15.01.2021
3693 Clouds 3 1017 75 10000 1.03 0 18:19 15.01.2021
3694 Clouds 4 1017 65 10000 2.06 360 17:51 15.01.2021
3695 Clouds 3 1017 70 10000 2.06 20 17:25 15.01.2021
3696 Clouds 3 1016 70 10000 1.54 360 16:52 15.01.2021
3697 Clouds 4 1016 70 10000 3.09 360 16:25 15.01.2021
3698 Clouds 5 1016 65 10000 3.09 10 15:42 15.01.2021
3699 Clouds 5 1016 65 10000 3.09 360 15:22 15.01.2021
3700 Clouds 5 1016 60 10000 2.57 10 14:51 15.01.2021
3701 Clouds 5 1015 49 10000 2.57 340 14:27 15.01.2021
3702 Clouds 6 1015 49 10000 3.09 360 13:44 15.01.2021
3703 Clouds 6 1015 56 10000 3.6 10 13:24 15.01.2021
3704 Clouds 6 1015 56 10000 4.12 330 12:59 15.01.2021
3705 Clouds 5 1015 65 10000 5.14 330 12:36 15.01.2021
3706 Clouds 5 1015 65 10000 5.14 330 12:18 15.01.2021
3707 Clouds 5 1015 60 10000 5.14 330 11:41 15.01.2021
3708 Clouds 4 1015 70 10000 6.17 320 10:58 15.01.2021
3709 Clouds 4 1015 70 10000 6.17 320 10:39 15.01.2021
3710 Clouds 4 1015 65 10000 6.17 320 10:19 15.01.2021
3711 Clouds 4 1015 65 10000 6.17 320 10:19 15.01.2021
3712 Clouds 4 1015 70 10000 6.69 320 09:46 15.01.2021
3713 Clouds 3 1014 70 10000 6.17 310 09:27 15.01.2021
3714 Clouds 2 1014 87 10000 2.06 330 08:27 15.01.2021
3715 Snow 2 1013 93 10000 1.54 330 07:41 15.01.2021
3716 Snow 1 1013 100 8000 1.54 360 07:21 15.01.2021
3717 Snow 1 1010 93 6000 7.2 340 05:36 15.01.2021
3718 Clouds 3 1010 93 7000 1.54 360 02:26 15.01.2021
3719 Clouds 4 1009 70 10000 4.63 210 00:32 15.01.2021
3720 Clouds 5 1009 65 10000 4.12 220 23:29 14.01.2021
3721 Clouds 5 1009 65 10000 4.63 200 22:50 14.01.2021
3722 Clouds 5 1009 65 10000 4.12 200 22:27 14.01.2021
3723 Clouds 5 1010 70 10000 3.6 210 21:56 14.01.2021
3724 Clouds 5 1009 70 10000 4.12 210 21:38 14.01.2021
3725 Clouds 5 1009 70 10000 4.12 210 21:19 14.01.2021
3726 Clouds 5 1009 65 10000 3.09 220 20:42 14.01.2021
3727 Clouds 5 1010 60 10000 2.57 230 19:57 14.01.2021
3728 Clouds 5 1010 60 10000 2.57 230 19:36 14.01.2021
3729 Clouds 5 1010 60 10000 2.06 240 18:58 14.01.2021
3730 Clouds 5 1010 60 10000 2.06 240 18:39 14.01.2021
3731 Clouds 5 1010 65 10000 3.09 250 17:57 14.01.2021
3732 Clouds 5 1010 65 10000 3.09 260 17:30 14.01.2021
3733 Clouds 5 1010 65 10000 3.09 240 16:54 14.01.2021
3734 Clouds 4 1009 65 10000 3.09 230 16:31 14.01.2021
3735 Clouds 4 1009 65 10000 1.54 240 15:54 14.01.2021
3736 Clouds 5 1008 61 10000 0.51 0 15:30 14.01.2021
3737 Clouds 4 1009 65 10000 3.6 350 14:45 14.01.2021
3738 Clouds 4 1009 65 10000 3.6 350 14:24 14.01.2021
3739 Clouds 4 1009 70 10000 3.6 330 13:56 14.01.2021
3740 Clouds 4 1009 70 10000 4.12 330 13:24 14.01.2021
3741 Rain 4 1010 70 10000 2.57 290 12:57 14.01.2021
3742 Rain 5 1010 70 10000 3.09 320 12:22 14.01.2021
3743 Rain 5 1010 70 10000 4.12 310 11:58 14.01.2021
3744 Rain 5 1010 70 10000 3.09 310 11:38 14.01.2021
3745 Rain 5 1010 70 10000 3.09 310 11:18 14.01.2021
3746 Rain 5 1010 70 10000 5.14 330 10:40 14.01.2021
3747 Rain 5 1010 70 10000 5.14 330 10:18 14.01.2021
3748 Rain 5 1010 70 10000 4.63 340 09:42 14.01.2021
3749 Rain 5 1010 70 10000 3.09 340 09:20 14.01.2021
3750 Rain 4 1010 75 10000 5.14 340 08:33 14.01.2021
3751 Clouds 4 1009 75 10000 6.17 360 07:57 14.01.2021
3752 Clouds 4 1009 75 10000 6.17 360 07:31 14.01.2021
3753 Clouds 4 1009 75 10000 5.66 360 06:34 14.01.2021
3754 Clouds 5 1009 70 10000 6.69 350 04:57 14.01.2021
3755 Clouds 6 1009 81 10000 2.57 10 00:27 14.01.2021
3756 Clouds 6 1009 81 10000 3.09 360 23:31 13.01.2021
3757 Clouds 6 1009 81 10000 3.6 360 22:49 13.01.2021
3758 Clouds 6 1009 81 10000 2.57 360 22:22 13.01.2021
3759 Clouds 6 1009 81 10000 2.57 10 21:43 13.01.2021
3760 Clouds 6 1009 81 10000 4.12 10 21:22 13.01.2021
3761 Clouds 6 1009 81 10000 3.6 360 20:51 13.01.2021
3762 Clouds 6 1009 81 10000 3.6 20 20:26 13.01.2021
3763 Clouds 6 1009 81 10000 4.12 20 19:52 13.01.2021
3764 Clouds 6 1009 81 10000 4.12 10 19:27 13.01.2021
3765 Clouds 6 1008 81 10000 3.6 20 18:52 13.01.2021
3766 Clouds 6 1008 81 10000 3.6 20 18:33 13.01.2021
3767 Clouds 6 1008 81 10000 4.63 10 17:50 13.01.2021
3768 Clouds 6 1008 81 10000 4.63 30 17:18 13.01.2021
3769 Clouds 6 1008 81 10000 4.12 360 16:46 13.01.2021
3770 Clouds 6 1008 81 10000 4.12 10 16:21 13.01.2021
3771 Clouds 6 1008 81 10000 3.6 10 15:49 13.01.2021
3772 Clouds 6 1008 81 10000 4.12 10 15:31 13.01.2021
3773 Clouds 7 1008 76 10000 4.63 10 14:33 13.01.2021
3774 Clouds 7 1008 76 10000 5.66 360 13:49 13.01.2021
3775 Clouds 7 1007 76 10000 5.14 10 13:25 13.01.2021
3776 Clouds 7 1007 76 10000 5.66 10 12:46 13.01.2021
3777 Clouds 6 1007 81 10000 5.66 10 12:27 13.01.2021
3778 Clouds 6 1007 81 10000 5.14 360 11:53 13.01.2021
3779 Clouds 6 1008 81 10000 5.14 10 11:34 13.01.2021
3780 Clouds 6 1008 87 10000 5.66 20 10:50 13.01.2021
3781 Clouds 6 1008 87 10000 4.63 10 10:29 13.01.2021
3782 Clouds 6 1008 87 10000 5.66 360 09:49 13.01.2021
3783 Clouds 6 1007 87 10000 6.69 360 09:28 13.01.2021
3784 Clouds 6 1007 87 10000 6.69 350 08:48 13.01.2021
3785 Clouds 6 1007 93 10000 6.17 350 08:25 13.01.2021
3786 Clouds 6 1006 93 9000 8.23 350 07:30 13.01.2021
3787 Clouds 6 1005 93 9000 5.66 360 06:26 13.01.2021
3788 Rain 8 1005 87 7000 8.23 350 04:19 13.01.2021
3789 Clouds 8 1004 93 6000 6.69 360 03:44 13.01.2021
3790 Clouds 10 1004 82 6000 7.72 240 03:23 13.01.2021
3791 Rain 10 1002 76 8000 7.2 170 00:54 13.01.2021
3792 Rain 10 1004 87 10000 7.2 160 23:44 12.01.2021
3793 Rain 10 1004 93 6000 8.75 150 23:19 12.01.2021
3794 Rain 10 1006 93 6000 5.14 140 22:39 12.01.2021
3795 Rain 10 1006 93 6000 5.14 140 22:20 12.01.2021
3796 Rain 10 1006 93 6000 4.63 120 21:44 12.01.2021
3797 Rain 9 1007 100 4000 4.63 120 21:26 12.01.2021
3798 Rain 9 1008 93 3500 1.54 70 20:48 12.01.2021
3799 Rain 9 1008 93 3500 2.06 360 20:27 12.01.2021
3800 Rain 9 1008 93 3500 4.63 360 19:47 12.01.2021
3801 Rain 10 1008 93 3500 6.17 360 19:26 12.01.2021
3802 Rain 11 1007 93 4000 7.72 330 18:41 12.01.2021
3803 Rain 11 1007 93 4000 5.14 320 18:22 12.01.2021
3804 Rain 12 1006 87 10000 7.72 340 17:37 12.01.2021
3805 Rain 12 1006 87 10000 7.72 330 17:19 12.01.2021
3806 Rain 13 1005 87 8000 12.35 340 16:43 12.01.2021
3807 Rain 16 1005 82 8000 6.17 300 16:22 12.01.2021
3808 Rain 18 1004 63 10000 5.14 240 15:29 12.01.2021
3809 Rain 17 1005 63 10000 5.66 240 14:58 12.01.2021
3810 Rain 17 1005 67 10000 6.69 220 14:40 12.01.2021
3811 Rain 17 1005 67 10000 6.69 220 14:19 12.01.2021
3812 Rain 18 1005 63 10000 4.12 220 13:47 12.01.2021
3813 Rain 18 1006 63 10000 4.63 210 12:40 12.01.2021
3814 Rain 18 1007 63 10000 6.17 200 12:21 12.01.2021
3815 Clouds 18 1007 63 10000 5.14 200 11:40 12.01.2021
3816 Clouds 17 1009 72 10000 5.66 200 10:50 12.01.2021
3817 Clouds 17 1010 72 10000 5.14 200 10:20 12.01.2021
3818 Clouds 15 1010 77 10000 2.57 200 09:55 12.01.2021
3819 Clouds 15 1010 88 10000 1.03 0 09:26 12.01.2021
3820 Clouds 14 1011 88 10000 2.09 130 08:46 12.01.2021
3821 Clouds 13 1011 88 10000 1.13 87 08:23 12.01.2021
3822 Clouds 12 1011 94 10000 1.03 0 07:35 12.01.2021
3823 Clouds 12 1012 94 10000 3.09 340 06:26 12.01.2021
3824 Clouds 12 1013 94 10000 3.09 360 05:30 12.01.2021
3825 Clouds 12 1014 94 10000 1.03 60 03:26 12.01.2021
3826 Rain 13 1014 94 10000 2.06 110 02:19 12.01.2021
3827 Clouds 13 1015 94 10000 2.57 80 01:28 12.01.2021
3828 Clouds 13 1015 88 10000 2.57 50 23:54 11.01.2021
3829 Clouds 13 1015 88 10000 3.09 30 23:23 11.01.2021
3830 Clouds 13 1016 94 10000 7.72 360 22:59 11.01.2021
3831 Clouds 13 1016 94 10000 7.72 360 22:40 11.01.2021
3832 Clouds 13 1016 94 8000 3.09 350 22:19 11.01.2021
3833 Rain 13 1015 88 8000 2.06 20 21:38 11.01.2021
3834 Clouds 13 1015 88 8000 4.63 360 21:20 11.01.2021
3835 Clouds 14 1015 88 8000 3.09 360 20:41 11.01.2021
3836 Rain 15 1016 88 8000 3.6 360 20:23 11.01.2021
3837 Clouds 15 1016 88 8000 4.12 350 19:55 11.01.2021
3838 Clouds 16 1015 88 8000 0.51 0 19:25 11.01.2021
3839 Rain 16 1015 88 10000 5.1 254 18:45 11.01.2021
3840 Rain 16 1015 88 10000 5.1 254 18:45 11.01.2021
3841 Rain 16 1015 88 10000 0.51 360 18:26 11.01.2021
3842 Clouds 17 1015 82 10000 1.03 280 17:54 11.01.2021
3843 Rain 17 1015 82 10000 1.03 280 17:36 11.01.2021
3844 Rain 18 1015 72 10000 2.06 260 17:18 11.01.2021
3845 Clouds 18 1015 72 10000 2.06 290 16:38 11.01.2021
3846 Rain 18 1014 72 10000 3.09 310 16:19 11.01.2021
3847 Clouds 18 1014 72 10000 3.6 310 15:47 11.01.2021
3848 Clear 18 1014 72 10000 2.06 290 15:26 11.01.2021
3849 Clear 19 1014 68 10000 2.57 280 14:39 11.01.2021
3850 Clear 19 1014 68 10000 1.54 230 13:50 11.01.2021
3851 Clear 19 1014 68 10000 2.57 300 13:26 11.01.2021
3852 Clear 19 1014 68 10000 4.63 300 12:51 11.01.2021
3853 Clear 18 1014 72 10000 5.66 280 12:32 11.01.2021
3854 Clear 18 1015 77 10000 5.66 270 11:56 11.01.2021
3855 Clear 17 1015 72 10000 5.66 270 11:34 11.01.2021
3856 Clear 17 1015 77 10000 4.12 270 10:51 11.01.2021
3857 Clear 17 1014 72 10000 3.09 260 10:25 11.01.2021
3858 Clouds 14 1014 88 10000 1.03 230 09:43 11.01.2021
3859 Clouds 14 1014 88 10000 1.03 230 09:21 11.01.2021
3860 Clouds 12 1014 100 8000 0.51 0 08:45 11.01.2021
3861 Clouds 11 1013 100 8000 0.99 105 08:18 11.01.2021
3862 Rain 9 1013 93 4000 0.51 0 07:27 11.01.2021
3863 Rain 9 1013 93 4000 1.69 120 06:58 11.01.2021
3864 Rain 10 1014 93 10000 3.09 350 03:57 11.01.2021
3865 Rain 9 1015 100 10000 1.54 20 01:33 11.01.2021
3866 Rain 9 1015 93 10000 2.57 350 00:34 11.01.2021
3867 Clouds 9 1015 100 10000 2.57 90 23:35 10.01.2021
3868 Clouds 9 1016 93 10000 0.51 90 22:48 10.01.2021
3869 Clouds 9 1017 93 10000 1.54 10 22:24 10.01.2021
3870 Clouds 9 1017 93 10000 1.54 10 22:24 10.01.2021
3871 Clouds 10 1017 87 10000 1.03 60 21:46 10.01.2021
3872 Clouds 9 1017 93 10000 2.57 50 21:21 10.01.2021
3873 Clouds 9 1017 93 10000 2.57 50 21:21 10.01.2021
3874 Clouds 9 1017 93 10000 3.09 90 20:56 10.01.2021
3875 Clouds 9 1017 93 10000 3.09 90 20:33 10.01.2021
3876 Clouds 9 1017 93 10000 3.09 90 20:33 10.01.2021
3877 Clouds 9 1018 93 10000 4.12 70 19:44 10.01.2021
3878 Clouds 9 1019 93 8000 4.12 40 19:26 10.01.2021
3879 Clouds 9 1019 93 8000 4.12 40 19:26 10.01.2021
3880 Clouds 9 1019 93 8000 2.57 50 18:56 10.01.2021
3881 Rain 9 1018 93 8000 3.6 90 18:37 10.01.2021
3882 Clouds 9 1018 93 8000 3.6 90 18:18 10.01.2021
3883 Clouds 9 1018 93 10000 5.14 70 17:21 10.01.2021
3884 Clouds 9 1019 93 10000 3.6 80 16:37 10.01.2021
3885 Rain 9 1020 93 5000 5.14 40 16:18 10.01.2021
3886 Rain 9 1019 93 10000 4.12 70 15:25 10.01.2021
3887 Rain 9 1020 93 10000 5.14 60 14:52 10.01.2021
3888 Rain 9 1019 93 10000 5.66 60 14:33 10.01.2021
3889 Rain 9 1019 87 10000 6.17 60 13:55 10.01.2021
3890 Clouds 9 1020 87 10000 5.14 50 13:37 10.01.2021
3891 Clouds 9 1020 87 10000 5.14 50 13:18 10.01.2021
3892 Clouds 9 1020 87 8000 4.63 50 12:50 10.01.2021
3893 Clouds 8 1020 93 10000 4.63 60 12:31 10.01.2021
3894 Clouds 8 1019 100 6000 5.66 70 11:40 10.01.2021
3895 Rain 8 1020 93 8000 7.2 50 11:19 10.01.2021
3896 Rain 8 1020 93 8000 7.2 50 11:19 10.01.2021
3897 Clouds 9 1020 87 8000 7.2 50 10:38 10.01.2021
3898 Clouds 8 1020 93 10000 7.2 70 10:20 10.01.2021
3899 Rain 8 1020 93 6000 5.66 60 09:27 10.01.2021
3900 Rain 8 1019 93 10000 7.2 50 08:22 10.01.2021
3901 Clouds 9 1019 87 8000 6.17 40 07:31 10.01.2021
3902 Clouds 9 1018 93 10000 5.66 40 06:20 10.01.2021
3903 Clouds 9 1017 93 10000 5.66 30 05:37 10.01.2021
3904 Clouds 9 1016 93 7000 5.14 40 03:26 10.01.2021
3905 Clouds 9 1017 93 8000 4.63 50 01:28 10.01.2021
3906 Clouds 9 1017 93 7000 5.66 60 23:51 09.01.2021
3907 Clouds 9 1017 93 7000 6.17 50 23:33 09.01.2021
3908 Clouds 9 1017 93 8000 7.2 50 22:49 09.01.2021
3909 Clouds 9 1018 93 7000 5.66 40 22:19 09.01.2021
3910 Clouds 9 1018 93 7000 6.69 40 21:57 09.01.2021
3911 Clouds 9 1018 93 7000 6.69 60 21:39 09.01.2021
3912 Clouds 9 1018 93 7000 6.69 60 21:19 09.01.2021
3913 Clouds 9 1018 93 7000 7.2 50 20:44 09.01.2021
3914 Clouds 9 1018 93 10000 7.2 50 19:45 09.01.2021
3915 Clouds 9 1018 93 10000 6.69 40 19:24 09.01.2021
3916 Clouds 9 1018 93 8000 7.2 30 18:59 09.01.2021
3917 Clouds 9 1018 93 8000 7.2 30 18:35 09.01.2021
3918 Clouds 9 1017 93 7000 6.17 30 17:50 09.01.2021
3919 Clouds 9 1017 93 8000 7.2 20 17:32 09.01.2021
3920 Clouds 9 1017 93 8000 7.2 30 16:36 09.01.2021
3921 Clouds 9 1016 93 8000 8.23 20 15:53 09.01.2021
3922 Clouds 9 1016 93 8000 6.69 20 15:34 09.01.2021
3923 Rain 9 1016 93 8000 7.72 20 14:42 09.01.2021
3924 Rain 9 1015 93 8000 6.17 10 14:21 09.01.2021
3925 Rain 9 1015 93 8000 7.2 10 13:50 09.01.2021
3926 Rain 9 1015 93 10000 5.66 10 13:31 09.01.2021
3927 Rain 9 1015 93 10000 6.69 10 12:59 09.01.2021
3928 Rain 10 1015 93 10000 5.66 10 12:27 09.01.2021
3929 Clouds 10 1015 93 8000 6.69 360 11:57 09.01.2021
3930 Clouds 9 1015 93 10000 5.14 10 11:36 09.01.2021
3931 Rain 10 1016 93 10000 4.12 10 10:56 09.01.2021
3932 Clouds 9 1016 93 10000 5.66 10 10:37 09.01.2021
3933 Rain 9 1016 93 10000 6.17 10 09:59 09.01.2021
3934 Rain 9 1016 93 10000 6.17 10 09:40 09.01.2021
3935 Rain 10 1015 93 10000 6.17 10 09:18 09.01.2021
3936 Rain 13 1014 87 10000 7.2 360 07:46 09.01.2021
3937 Rain 15 1012 72 10000 2.57 290 06:41 09.01.2021
3938 Rain 15 1012 72 10000 2.57 270 06:22 09.01.2021
3939 Clear 15 1012 72 10000 4.12 270 03:47 09.01.2021
3940 Clear 15 1012 72 10000 4.63 270 02:39 09.01.2021
3941 Clear 15 1012 72 10000 3.6 250 02:19 09.01.2021
3942 Clear 15 1012 72 10000 4.12 220 00:46 09.01.2021
3943 Clear 15 1012 72 10000 5.14 230 00:22 09.01.2021
3944 Clear 15 1012 72 10000 6.17 230 23:30 08.01.2021
3945 Clear 15 1012 72 10000 7.2 220 22:38 08.01.2021
3946 Clear 16 1012 67 10000 8.23 230 21:47 08.01.2021
3947 Clear 16 1012 67 10000 7.2 220 20:58 08.01.2021
3948 Clear 16 1012 72 10000 5.14 220 20:33 08.01.2021
3949 Clear 16 1013 72 10000 5.66 220 19:57 08.01.2021
3950 Clear 16 1012 67 10000 6.69 220 19:23 08.01.2021
3951 Clear 17 1012 67 10000 8.23 230 18:50 08.01.2021
3952 Clear 16 1012 67 10000 8.75 230 18:30 08.01.2021
3953 Clear 16 1012 67 10000 7.72 230 17:50 08.01.2021
3954 Clear 16 1011 67 10000 8.23 230 17:22 08.01.2021
3955 Clear 16 1011 67 10000 6.17 220 16:44 08.01.2021
3956 Clear 16 1012 72 10000 5.14 230 15:44 08.01.2021
3957 Clear 16 1012 72 10000 3.6 200 15:18 08.01.2021
3958 Clear 17 1012 63 10000 3.6 240 14:35 08.01.2021
3959 Clear 17 1012 67 10000 4.63 240 13:47 08.01.2021
3960 Clear 16 1012 72 10000 4.63 240 13:18 08.01.2021
3961 Clear 17 1013 72 10000 4.63 240 12:49 08.01.2021
3962 Clear 17 1013 67 10000 4.12 240 12:20 08.01.2021
3963 Clear 17 1013 67 10000 4.12 230 11:45 08.01.2021
3964 Clear 17 1013 67 10000 4.63 240 11:27 08.01.2021
3965 Clouds 17 1014 67 10000 5.66 230 10:52 08.01.2021
3966 Clouds 16 1015 72 10000 5.14 220 10:32 08.01.2021
3967 Clear 15 1015 72 10000 6.69 220 09:45 08.01.2021
3968 Clear 15 1015 72 10000 6.69 220 09:27 08.01.2021
3969 Clear 14 1015 77 10000 4.63 230 08:33 08.01.2021
3970 Clear 12 1015 82 10000 2.57 190 07:26 08.01.2021
3971 Clear 12 1015 82 10000 3.6 210 05:51 08.01.2021
3972 Clear 12 1018 82 10000 1.54 180 23:47 07.01.2021
3973 Clear 13 1018 76 10000 2.57 220 23:29 07.01.2021
3974 Clear 13 1018 72 10000 3.6 220 22:46 07.01.2021
3975 Clear 14 1018 72 10000 5.14 220 22:26 07.01.2021
3976 Clear 14 1018 72 10000 5.14 210 21:45 07.01.2021
3977 Clear 14 1018 72 10000 6.17 220 21:26 07.01.2021
3978 Clear 14 1018 72 10000 6.17 220 20:47 07.01.2021
3979 Clear 14 1018 72 10000 6.17 220 20:47 07.01.2021
3980 Clear 14 1018 72 10000 6.17 210 20:28 07.01.2021
3981 Clear 14 1018 67 10000 6.69 220 19:45 07.01.2021
3982 Clear 14 1018 72 10000 6.17 210 19:21 07.01.2021
3983 Clear 14 1018 72 10000 5.14 210 18:30 07.01.2021
3984 Clear 14 1018 72 10000 5.66 210 17:56 07.01.2021
3985 Clear 13 1018 82 10000 3.09 210 17:28 07.01.2021
3986 Clear 13 1018 82 10000 3.09 200 16:53 07.01.2021
3987 Clear 14 1017 72 10000 3.6 220 16:28 07.01.2021
3988 Clear 14 1017 82 10000 4.12 220 15:41 07.01.2021
3989 Clear 14 1017 77 10000 4.63 210 15:22 07.01.2021
3990 Clear 14 1017 77 10000 4.63 210 14:27 07.01.2021
3991 Clear 15 1017 77 10000 2.57 210 13:46 07.01.2021
3992 Clear 15 1017 77 10000 3.09 230 13:18 07.01.2021
3993 Clear 15 1016 62 10000 12.3 220 12:43 07.01.2021
3994 Clear 15 1017 67 10000 5.7 200 11:57 07.01.2021
3995 Clear 15 1017 67 10000 5.7 200 11:57 07.01.2021
3996 Clear 15 1018 67 10000 6.7 200 11:36 07.01.2021
3997 Clear 14 1019 67 10000 4.6 200 10:51 07.01.2021
3998 Clear 14 1019 67 10000 4.6 200 10:31 07.01.2021
3999 Clear 14 1019 71 10000 4.6 200 09:48 07.01.2021
4000 Clear 13 1018 71 10000 6.2 210 09:20 07.01.2021
4001 Clear 12 1019 76 10000 6.7 210 08:29 07.01.2021
4002 Clear 11 1018 71 10000 5.1 210 07:53 07.01.2021
4003 Clear 11 1018 71 10000 5.1 210 07:32 07.01.2021
4004 Clear 10 1018 76 10000 5.7 190 05:26 07.01.2021
4005 Clear 10 1020 76 10000 3.1 190 00:32 07.01.2021
4006 Clear 10 1020 76 10000 4.6 190 23:51 06.01.2021
4007 Clear 10 1021 81 10000 2.6 170 22:47 06.01.2021
4008 Clear 10 1021 81 10000 1 0 21:56 06.01.2021
4009 Clear 10 1021 81 10000 1 0 21:38 06.01.2021
4010 Clear 10 1021 76 10000 2.1 180 21:19 06.01.2021
4011 Clear 10 1021 76 10000 1.5 160 20:39 06.01.2021
4012 Clear 10 1021 87 10000 3.1 180 20:18 06.01.2021
4013 Clear 11 1021 81 10000 2.6 190 19:38 06.01.2021
4014 Clear 11 1021 81 10000 1.5 150 19:19 06.01.2021
4015 Clear 11 1021 81 10000 1.5 150 18:42 06.01.2021
4016 Clear 11 1021 76 10000 1 0 18:24 06.01.2021
4017 Clear 11 1021 76 10000 1.5 180 17:43 06.01.2021
4018 Clear 12 1021 76 10000 1.5 180 17:24 06.01.2021
4019 Clear 12 1021 71 10000 1 0 16:45 06.01.2021
4020 Clear 13 1022 66 10000 1 0 16:20 06.01.2021
4021 Clear 13 1022 66 10000 1 0 15:54 06.01.2021
4022 Clear 14 1022 62 10000 1.5 190 15:32 06.01.2021
4023 Clear 14 1022 54 10000 2.1 200 14:52 06.01.2021
4024 Clear 14 1022 62 10000 2.1 110 14:21 06.01.2021
4025 Clear 14 1022 58 10000 2.6 160 13:47 06.01.2021
4026 Clear 14 1022 58 10000 2.6 160 13:24 06.01.2021
4027 Clear 14 1022 54 10000 3.1 190 12:48 06.01.2021
4028 Clear 14 1022 62 10000 2.1 170 12:20 06.01.2021
4029 Clear 14 1023 62 10000 2.6 150 11:36 06.01.2021
4030 Clear 14 1023 67 10000 3.1 130 11:18 06.01.2021
4031 Clear 13 1023 76 10000 2.6 120 10:22 06.01.2021
4032 Clear 12 1023 71 10000 2.6 130 09:50 06.01.2021
4033 Clear 12 1023 81 10000 2.1 120 08:58 06.01.2021
4034 Clear 10 1023 87 10000 2.1 110 08:38 06.01.2021
4035 Clear 9 1022 87 10000 2.1 190 07:54 06.01.2021
4036 Clear 9 1022 81 10000 3.1 200 06:48 06.01.2021
4037 Clear 9 1022 93 10000 3.1 210 05:34 06.01.2021
4038 Clear 10 1021 81 10000 3.1 220 04:34 06.01.2021
4039 Clear 9 1021 81 10000 1 0 02:47 06.01.2021
4040 Clear 10 1021 87 10000 1 0 02:25 06.01.2021
4041 Clear 9 1020 93 10000 0.5 260 00:51 06.01.2021
4042 Clear 10 1020 87 10000 1.5 310 23:31 05.01.2021
4043 Clear 10 1020 93 10000 2.6 230 22:44 05.01.2021
4044 Clear 10 1019 93 10000 1.5 200 22:21 05.01.2021
4045 Clear 10 1019 93 10000 1.5 200 21:56 05.01.2021
4046 Clear 11 1019 81 10000 2.6 270 20:56 05.01.2021
4047 Clear 11 1019 81 10000 4.1 270 20:25 05.01.2021
4048 Clear 11 1018 81 10000 3.6 250 19:44 05.01.2021
4049 Clear 12 1018 81 10000 2.6 260 19:21 05.01.2021
4050 Clear 12 1017 81 10000 2.6 280 18:44 05.01.2021
4051 Clear 12 1017 71 10000 3.1 270 18:25 05.01.2021
4052 Clear 13 1017 71 10000 3.6 280 17:50 05.01.2021
4053 Clear 13 1017 71 10000 3.6 280 17:29 05.01.2021
4054 Clear 13 1016 82 10000 2.1 260 16:53 05.01.2021
4055 Clouds 14 1016 82 10000 2.6 250 16:22 05.01.2021
4056 Clouds 14 1015 76 10000 3.1 240 15:50 05.01.2021
4057 Clouds 15 1015 76 10000 3.6 230 15:25 05.01.2021
4058 Clouds 15 1015 71 10000 5.1 230 14:41 05.01.2021
4059 Clouds 15 1015 72 10000 5.1 220 13:51 05.01.2021
4060 Clear 15 1015 72 10000 6.7 230 13:32 05.01.2021
4061 Clear 15 1015 72 10000 5.7 230 12:50 05.01.2021
4062 Clear 15 1015 72 10000 5.1 240 12:29 05.01.2021
4063 Clear 15 1015 72 10000 3.1 240 11:40 05.01.2021
4064 Clear 15 1015 72 10000 3.6 240 11:22 05.01.2021
4065 -273 0 0 0 0 0 11:21 05.01.2021
4066 Clear 15 1014 72 10000 5.7 230 10:43 05.01.2021
4067 Clear 14 1015 71 10000 5.1 210 09:58 05.01.2021
4068 Clear 14 1014 71 10000 5.1 200 09:38 05.01.2021
4069 Clear 13 1014 71 10000 5.7 200 08:42 05.01.2021
4070 Clear 12 1013 76 10000 6.2 200 08:18 05.01.2021
4071 Clouds 12 1011 87 10000 6.7 170 05:29 05.01.2021
4072 Rain 14 1012 76 10000 5.7 290 02:37 05.01.2021
4073 Clear 13 1011 58 10000 4.1 110 00:22 05.01.2021
4074 Clear 12 1011 62 10000 4.1 120 23:39 04.01.2021
4075 Clear 13 1011 58 10000 4.1 120 23:20 04.01.2021
4076 Clear 13 1011 58 10000 3.6 110 22:44 04.01.2021
4077 Clear 13 1011 54 10000 3.1 110 21:57 04.01.2021
4078 Clear 13 1012 47 10000 3.1 90 21:39 04.01.2021
4079 Clear 14 1012 47 10000 3.1 100 20:58 04.01.2021
4080 Clear 13 1012 47 10000 3.1 90 20:34 04.01.2021
4081 Clear 14 1012 47 10000 3.1 80 19:59 04.01.2021
4082 Clear 14 1012 47 10000 4.1 70 19:40 04.01.2021
4083 Clear 14 1012 47 10000 4.1 90 19:19 04.01.2021
4084 Clear 14 1013 44 10000 3.6 90 18:40 04.01.2021
4085 Clear 14 1013 47 10000 3.6 90 17:47 04.01.2021
4086 Clear 14 1014 51 10000 2.6 90 17:28 04.01.2021
4087 Clear 14 1014 51 10000 2.6 90 16:57 04.01.2021
4088 Clear 15 1014 51 10000 3.6 110 16:38 04.01.2021
4089 Clear 15 1014 51 10000 3.6 100 16:20 04.01.2021
4090 Clear 15 1014 51 10000 3.6 90 15:41 04.01.2021
4091 Clear 16 1015 51 10000 3.1 110 14:54 04.01.2021
4092 Clear 16 1015 51 10000 3.1 100 13:56 04.01.2021
4093 Clear 16 1015 51 10000 3.1 100 13:35 04.01.2021
4094 Clear 15 1016 58 10000 3.6 110 12:51 04.01.2021
4095 Clear 15 1017 58 10000 4.1 100 12:25 04.01.2021
4096 Clear 15 1017 54 10000 4.6 110 11:39 04.01.2021
4097 Clear 15 1018 54 10000 3.1 100 11:18 04.01.2021
4098 Clear 14 1019 58 10000 3.6 110 10:42 04.01.2021
4099 Clear 14 1019 58 10000 4.6 120 10:21 04.01.2021
4100 Clear 12 1019 58 10000 3.6 100 09:25 04.01.2021
4101 Clear 10 1019 62 10000 4.1 110 08:50 04.01.2021
4102 Clear 10 1019 62 10000 4.1 100 08:21 04.01.2021
4103 Clear 10 1019 62 10000 3.6 100 07:45 04.01.2021
4104 Clear 10 1019 71 10000 2.6 100 05:35 04.01.2021
4105 Clear 10 1020 71 10000 2.1 100 04:50 04.01.2021
4106 Clear 11 1021 81 10000 0.5 0 01:31 04.01.2021
4107 Clear 11 1021 76 10000 0.5 0 23:57 03.01.2021
4108 Clear 11 1021 62 10000 1.52 116 23:34 03.01.2021
4109 Clear 11 1021 62 10000 1.52 116 22:57 03.01.2021
4110 Clear 11 1021 66 10000 1 70 22:39 03.01.2021
4111 Clear 11 1021 66 10000 0.5 0 22:20 03.01.2021
4112 Clear 11 1021 66 10000 1 90 21:34 03.01.2021
4113 Clear 10 1021 76 10000 1 0 20:56 03.01.2021
4114 Clear 11 1021 76 10000 1.5 120 20:38 03.01.2021
4115 Clear 11 1021 71 10000 1 0 19:59 03.01.2021
4116 Clear 11 1021 66 10000 1.5 110 19:37 03.01.2021
4117 Clear 11 1022 71 10000 1.5 100 19:19 03.01.2021
4118 Clear 11 1022 71 10000 1.5 60 18:42 03.01.2021
4119 Clear 12 1022 81 10000 1 0 18:21 03.01.2021
4120 Clear 12 1022 76 10000 0.5 0 17:49 03.01.2021
4121 Clear 12 1021 76 10000 0.5 80 17:26 03.01.2021
4122 Clear 13 1021 76 10000 0.72 158 16:44 03.01.2021
4123 Clear 13 1021 71 10000 1 0 16:20 03.01.2021
4124 Clear 14 1021 67 10000 0.99 170 15:48 03.01.2021
4125 Clear 14 1021 66 10000 0.5 0 15:29 03.01.2021
4126 Clear 14 1021 66 10000 0.5 0 14:57 03.01.2021
4127 Clear 14 1021 76 10000 1.5 210 14:30 03.01.2021
4128 Clear 14 1021 67 10000 1.5 220 13:45 03.01.2021
4129 Clear 14 1021 66 10000 2.6 250 13:23 03.01.2021
4130 Clear 15 1021 66 10000 2.1 240 12:36 03.01.2021
4131 Clear 15 1022 62 10000 1 0 11:42 03.01.2021
4132 Clear 15 1022 71 10000 1.5 290 11:24 03.01.2021
4133 Clear 14 1022 71 10000 2.1 250 10:45 03.01.2021
4134 Clear 14 1022 67 10000 1 0 10:18 03.01.2021
4135 Clear 13 1022 66 10000 1.5 180 09:41 03.01.2021
4136 Clear 12 1022 66 10000 0.5 0 09:22 03.01.2021
4137 Clear 10 1021 66 10000 2.1 100 07:49 03.01.2021
4138 Clear 7 1021 75 10000 2.1 60 05:58 03.01.2021
4139 Clear 7 1022 81 10000 0.5 30 02:28 03.01.2021
4140 Clear 7 1022 81 10000 1 30 01:45 03.01.2021
4141 Clear 8 1022 75 10000 1 0 00:19 03.01.2021
4142 Clear 8 1022 81 10000 1.5 20 23:28 02.01.2021
4143 Clear 9 1023 76 10000 2.1 40 22:55 02.01.2021
4144 Clear 9 1023 76 10000 2.1 40 22:32 02.01.2021
4145 Clear 11 1023 62 10000 3.1 60 21:51 02.01.2021
4146 Clear 11 1023 62 10000 3.1 60 21:31 02.01.2021
4147 Clear 10 1023 66 10000 3.6 60 20:50 02.01.2021
4148 Clear 11 1023 66 10000 3.6 60 20:29 02.01.2021
4149 Clear 12 1023 62 10000 3.6 60 19:59 02.01.2021
4150 Clear 11 1023 81 10000 2.1 40 19:20 02.01.2021
4151 Clear 11 1023 81 10000 1 60 18:56 02.01.2021
4152 Clear 11 1023 81 10000 1 60 18:38 02.01.2021
4153 Clear 12 1023 76 10000 0.5 40 18:19 02.01.2021
4154 Clear 12 1023 71 10000 2.69 67 17:38 02.01.2021
4155 Clear 13 1023 66 10000 2.69 67 16:53 02.01.2021
4156 Clear 15 1023 58 10000 0.5 0 16:23 02.01.2021
4157 Clear 14 1023 58 10000 0.5 0 15:54 02.01.2021
4158 Clear 15 1023 54 10000 1 0 15:31 02.01.2021
4159 Clear 16 1023 48 10000 2.1 140 14:55 02.01.2021
4160 Clear 16 1023 48 10000 2.1 140 14:34 02.01.2021
4161 Clear 16 1023 48 10000 2.1 120 13:44 02.01.2021
4162 Clear 16 1023 51 10000 2.6 130 12:59 02.01.2021
4163 Clear 15 1023 54 10000 2.6 120 12:41 02.01.2021
4164 Clear 15 1023 51 10000 2.6 110 12:22 02.01.2021
4165 Clear 15 1024 54 10000 2.6 110 11:42 02.01.2021
4166 Clear 15 1024 58 10000 2.6 110 11:20 02.01.2021
4167 Clear 14 1024 62 10000 2.6 100 10:42 02.01.2021
4168 Clear 13 1024 62 10000 3.1 90 10:23 02.01.2021
4169 Clear 12 1024 66 10000 3.1 100 09:43 02.01.2021
4170 Clear 11 1024 71 10000 2.6 100 09:21 02.01.2021
4171 Clear 8 1024 81 10000 2.6 50 08:48 02.01.2021
4172 Clear 8 1024 87 10000 2.1 60 08:19 02.01.2021
4173 Clear 7 1023 87 10000 2.1 70 07:25 02.01.2021
4174 Clear 7 1023 93 10000 2.1 50 06:58 02.01.2021
4175 Clear 6 1023 93 10000 1.5 40 06:18 02.01.2021
4176 Clear 7 1022 93 10000 1.5 100 04:26 02.01.2021
4177 Clear 8 1022 87 10000 1 100 00:49 02.01.2021
4178 Clear 8 1021 87 10000 0.5 0 00:28 02.01.2021
4179 Clear 10 1021 76 10000 2.1 260 23:39 01.01.2021
4180 Clear 10 1021 81 10000 1.5 290 23:19 01.01.2021
4181 Clear 10 1021 76 10000 2.1 250 22:46 01.01.2021
4182 Clear 10 1020 87 10000 1.5 270 22:21 01.01.2021
4183 Clear 10 1020 81 10000 1.5 260 21:43 01.01.2021
4184 Clear 10 1020 81 10000 2.1 230 21:20 01.01.2021
4185 Clear 11 1020 81 10000 2.1 230 20:51 01.01.2021
4186 Clear 11 1019 81 10000 3.1 220 20:19 01.01.2021
4187 Clear 11 1019 81 10000 2.6 220 19:42 01.01.2021
4188 Clouds 11 1019 81 10000 1 0 19:22 01.01.2021
4189 Clouds 11 1019 87 10000 1.5 270 18:48 01.01.2021
4190 Clouds 11 1019 87 10000 1.5 270 18:29 01.01.2021
4191 Clouds 12 1019 87 10000 2.1 260 17:50 01.01.2021
4192 Clouds 12 1018 87 10000 1.5 210 17:24 01.01.2021
4193 Clouds 12 1018 87 10000 1.5 210 16:53 01.01.2021
4194 Clear 13 1018 87 10000 3.1 200 16:29 01.01.2021
4195 Clear 14 1018 76 10000 4.1 200 15:43 01.01.2021
4196 Clear 14 1017 76 10000 4.1 200 14:51 01.01.2021
4197 Clear 14 1017 76 10000 4.6 210 14:32 01.01.2021
4198 Clear 14 1017 82 10000 4.6 200 13:42 01.01.2021
4199 Clear 14 1017 82 10000 4.6 200 13:23 01.01.2021
4200 Clouds 13 1016 82 10000 6.2 210 12:39 01.01.2021
4201 Clouds 13 1017 82 10000 6.2 210 12:18 01.01.2021
4202 Clouds 13 1017 82 10000 6.2 210 11:39 01.01.2021
4203 Clouds 13 1017 82 10000 6.2 210 11:18 01.01.2021
4204 Rain 12 1017 87 10000 6.2 210 10:35 01.01.2021
4205 Rain 11 1017 87 10000 2.1 180 09:47 01.01.2021
4206 Rain 11 1016 93 10000 3.1 180 09:20 01.01.2021
4207 Rain 11 1015 93 10000 3.1 210 08:25 01.01.2021
4208 Rain 12 1014 76 10000 8.2 220 04:53 01.01.2021
4209 Clouds 13 1014 71 10000 7.7 240 02:39 01.01.2021
4210 Clouds 14 1014 67 10000 6.2 230 01:35 01.01.2021
4211 Rain 13 1013 76 10000 6.2 210 00:28 01.01.2021
4212 Clouds 14 1014 71 10000 6.2 210 23:22 31.12.2020
4213 Clouds 14 1014 71 10000 6.2 210 22:58 31.12.2020
4214 Clouds 14 1014 71 10000 4.6 190 22:38 31.12.2020
4215 Clouds 14 1014 71 10000 3.6 190 22:19 31.12.2020
4216 Clouds 14 1014 71 10000 4.1 210 21:47 31.12.2020
4217 Clouds 14 1014 71 10000 4.1 210 21:47 31.12.2020
4218 Clouds 14 1013 67 10000 5.1 210 21:23 31.12.2020
4219 Clouds 14 1013 71 10000 5.1 220 20:49 31.12.2020
4220 Clouds 14 1013 67 10000 6.2 220 20:18 31.12.2020
4221 Clouds 14 1013 62 10000 6.7 220 19:46 31.12.2020
4222 Clouds 14 1013 62 10000 6.7 220 19:24 31.12.2020
4223 Clear 14 1013 67 10000 6.2 200 18:44 31.12.2020
4224 Clear 14 1013 67 10000 6.2 200 18:24 31.12.2020
4225 Clear 15 1013 62 10000 6.7 210 17:44 31.12.2020
4226 Clear 15 1013 62 10000 6.7 210 17:44 31.12.2020
4227 Clear 15 1013 71 10000 6.7 210 17:23 31.12.2020
4228 Clear 15 1013 67 10000 7.7 210 16:43 31.12.2020
4229 Clear 15 1013 67 10000 7.7 210 16:43 31.12.2020
4230 Clear 15 1013 67 10000 7.7 210 16:43 31.12.2020
4231 Clear 16 1013 67 10000 5.1 210 16:23 31.12.2020
4232 Clear 16 1013 67 10000 4.1 210 15:46 31.12.2020
4233 Clear 17 1013 63 10000 4.1 210 15:22 31.12.2020
4234 Clear 17 1013 63 10000 4.1 210 15:22 31.12.2020
4235 Clear 17 1013 63 10000 3.1 230 14:56 31.12.2020
4236 Clear 17 1013 63 10000 3.1 230 14:38 31.12.2020
4237 Clear 17 1013 55 10000 3.1 210 14:20 31.12.2020
4238 Clear 17 1013 59 10000 4.1 210 13:39 31.12.2020
4239 Clear 17 1014 59 10000 4.6 210 13:20 31.12.2020
4240 Clear 17 1014 59 10000 3.1 210 12:53 31.12.2020
4241 Clear 17 1014 59 10000 3.1 210 12:35 31.12.2020
4242 Clear 16 1015 62 10000 2.6 190 11:52 31.12.2020
4243 Clear 16 1015 62 10000 2.6 190 11:32 31.12.2020
4244 Clear 16 1015 62 10000 2.6 190 11:32 31.12.2020
4245 Clear 16 1015 62 10000 2.6 190 11:32 31.12.2020
4246 Clear 15 1016 62 10000 3.6 210 10:50 31.12.2020
4247 Clear 15 1016 62 10000 3.6 210 10:29 31.12.2020
4248 Clear 15 1016 62 10000 1 0 09:58 31.12.2020
4249 Clear 13 1016 76 10000 1.5 100 09:36 31.12.2020
4250 Clear 13 1016 81 10000 2.1 80 09:18 31.12.2020
4251 Clear 12 1016 76 10000 1.5 120 08:45 31.12.2020
4252 Clear 12 1016 76 10000 1.5 120 08:27 31.12.2020
4253 Clear 11 1016 81 10000 1.5 140 07:33 31.12.2020
4254 Clear 11 1016 81 10000 2.6 190 06:29 31.12.2020
4255 Clear 11 1016 76 10000 3.1 200 05:29 31.12.2020
4256 Clear 12 1017 67 10000 6.2 210 02:57 31.12.2020
4257 Clear 12 1017 71 10000 4.6 200 02:25 31.12.2020
4258 Clear 12 1017 76 10000 5.1 200 01:48 31.12.2020
4259 Clear 12 1017 71 10000 6.2 200 01:27 31.12.2020
4260 Clear 12 1017 71 10000 5.7 210 00:48 31.12.2020
4261 Clear 12 1017 81 10000 4.6 200 23:53 30.12.2020
4262 Clear 12 1017 87 10000 3.1 210 23:20 30.12.2020
4263 Clear 14 1017 82 10000 3.1 180 22:51 30.12.2020
4264 Clear 14 1017 82 10000 3.1 180 22:31 30.12.2020
4265 Clear 14 1017 76 10000 3.6 210 21:47 30.12.2020
4266 Clear 14 1017 67 10000 5.1 230 21:25 30.12.2020
4267 Clear 14 1017 67 10000 4.6 230 20:51 30.12.2020
4268 Clear 14 1017 67 10000 4.6 230 20:22 30.12.2020
4269 Clear 15 1017 71 10000 5.1 230 19:41 30.12.2020
4270 Clear 14 1017 62 10000 5.1 230 19:23 30.12.2020
4271 Clear 15 1017 62 10000 5.1 240 18:49 30.12.2020
4272 Clear 15 1017 62 10000 5.1 240 18:30 30.12.2020
4273 Clear 15 1017 59 10000 5.7 240 17:52 30.12.2020
4274 Clear 15 1017 59 10000 5.7 240 17:33 30.12.2020
4275 Clear 15 1017 67 10000 5.1 250 16:59 30.12.2020
4276 Clear 16 1017 59 10000 4.1 250 16:35 30.12.2020
4277 Clear 16 1017 62 10000 2.6 230 15:48 30.12.2020
4278 Clear 17 1017 63 10000 4.6 200 15:26 30.12.2020
4279 Clear 17 1017 59 10000 4.6 210 14:44 30.12.2020
4280 Clear 17 1017 59 10000 4.6 200 14:25 30.12.2020
4281 Clear 17 1017 59 10000 5.7 200 13:48 30.12.2020
4282 Clear 17 1017 63 10000 4.6 200 12:44 30.12.2020
4283 Clear 17 1018 67 10000 3.1 190 12:22 30.12.2020
4284 Clear 17 1018 59 10000 1.5 0 11:38 30.12.2020
4285 Clear 17 1019 55 10000 2.1 0 11:19 30.12.2020
4286 Clear 16 1019 59 10000 2.6 170 10:49 30.12.2020
4287 Clear 16 1019 59 10000 2.6 170 10:27 30.12.2020
4288 Clear 15 1019 67 10000 3.1 140 09:50 30.12.2020
4289 Clear 14 1019 71 10000 3.1 110 09:29 30.12.2020
4290 Clear 14 1019 71 10000 1.5 100 08:34 30.12.2020
4291 Clear 10 1019 87 10000 1.5 130 07:30 30.12.2020
4292 Clear 11 1019 76 10000 2.1 140 07:30 30.12.2020
4293 Clear 10 1019 87 10000 1.5 130 06:52 30.12.2020
4294 Clear 10 1019 87 10000 1.5 130 06:31 30.12.2020
4295 Clear 10 1019 81 10000 1.5 160 05:44 30.12.2020
4296 Clear 10 1019 81 10000 1.5 160 05:25 30.12.2020
4297 Clear 11 1019 81 10000 2.1 180 03:28 30.12.2020
4298 Clear 12 1019 71 10000 3.1 200 03:28 30.12.2020
4299 Clear 12 1019 67 10000 4.1 200 02:42 30.12.2020
4300 Clear 12 1019 76 10000 3.6 210 01:58 30.12.2020
4301 Clear 13 1019 71 10000 4.1 200 01:33 30.12.2020
4302 Clear 13 1018 67 10000 5.7 200 00:50 30.12.2020
4303 Clear 13 1018 67 10000 5.7 200 00:30 30.12.2020
4304 Clear 13 1018 71 10000 4.1 200 23:56 29.12.2020
4305 Clear 13 1018 67 10000 5.1 210 23:37 29.12.2020
4306 Clear 13 1018 67 10000 5.7 210 23:18 29.12.2020
4307 Clear 14 1018 67 10000 6.2 210 22:40 29.12.2020
4308 Clear 13 1018 76 10000 4.1 210 22:20 29.12.2020
4309 Clear 13 1018 76 10000 5.1 210 21:46 29.12.2020
4310 Clear 13 1018 76 10000 5.1 210 21:25 29.12.2020
4311 Clear 14 1018 71 10000 4.1 210 20:46 29.12.2020
4312 Clear 14 1018 76 10000 3.1 210 20:26 29.12.2020
4313 Clear 14 1018 71 10000 4.1 210 20:25 29.12.2020
4314 Clear 15 1018 76 10000 4.1 210 19:49 29.12.2020
4315 Clear 15 1017 71 10000 5.1 210 19:24 29.12.2020
4316 Clear 14 1017 67 10000 6.2 210 18:54 29.12.2020
4317 Clear 14 1017 67 10000 6.2 210 18:32 29.12.2020
4318 Clear 15 1017 67 10000 7.2 220 17:57 29.12.2020
4319 Clear 15 1017 71 10000 6.7 220 17:37 29.12.2020
4320 Clear 15 1017 67 10000 7.2 210 17:18 29.12.2020
4321 Clear 15 1017 67 10000 6.7 220 16:35 29.12.2020
4322 Clouds 15 1017 67 10000 5.7 210 15:53 29.12.2020
4323 Clouds 15 1017 67 10000 5.7 210 15:34 29.12.2020
4324 Clear 16 1017 72 10000 5.1 210 14:56 29.12.2020
4325 Clear 16 1017 72 10000 4.6 200 14:36 29.12.2020
4326 Clear 16 1017 67 10000 5.7 210 14:18 29.12.2020
4327 Clear 16 1016 63 10000 6.7 220 13:37 29.12.2020
4328 Clear 16 1017 63 10000 5.7 230 13:18 29.12.2020
4329 Clear 16 1017 63 10000 4.1 210 12:37 29.12.2020
4330 Clear 16 1017 59 10000 5.1 200 12:19 29.12.2020
4331 Clear 16 1017 59 10000 6.7 210 11:50 29.12.2020
4332 Clear 16 1017 59 10000 6.7 210 11:31 29.12.2020
4333 Clear 15 1017 62 10000 5.1 210 10:22 29.12.2020
4334 Clear 15 1017 67 10000 4.6 210 09:42 29.12.2020
4335 Clear 14 1016 67 10000 5.1 200 09:19 29.12.2020
4336 Clear 14 1016 67 10000 5.1 200 08:49 29.12.2020
4337 Clear 13 1016 66 10000 5.7 200 07:58 29.12.2020
4338 Clear 13 1016 66 10000 7.7 210 07:26 29.12.2020
4339 Clear 11 1015 66 10000 6.7 210 06:19 29.12.2020
4340 Clear 12 1015 76 10000 5.1 190 03:18 29.12.2020
4341 Clear 11 1015 66 10000 5.7 200 00:44 29.12.2020
4342 Clear 12 1015 66 10000 5.7 200 23:41 28.12.2020
4343 Clear 12 1015 81 10000 4.6 210 22:58 28.12.2020
4344 Clear 12 1015 76 10000 4.1 210 22:23 28.12.2020
4345 Clear 11 1015 81 10000 2.6 210 21:44 28.12.2020
4346 Clear 11 1015 81 10000 2.6 220 21:23 28.12.2020
4347 Clear 11 1015 81 10000 3.1 220 20:40 28.12.2020
4348 Clear 12 1015 81 10000 3.1 210 20:22 28.12.2020
4349 Clear 12 1015 76 10000 4.1 220 19:42 28.12.2020
4350 Clear 12 1015 76 10000 4.1 220 19:23 28.12.2020
4351 Clear 12 1015 81 10000 3.6 230 18:50 28.12.2020
4352 Clear 12 1014 81 10000 2.1 230 18:28 28.12.2020
4353 Clear 13 1014 76 10000 2.6 250 17:42 28.12.2020
4354 Clear 13 1014 76 10000 2.6 250 17:23 28.12.2020
4355 Clouds 13 1014 82 10000 4.6 200 16:38 28.12.2020
4356 Clouds 13 1014 82 10000 3.6 230 16:20 28.12.2020
4357 Clouds 14 1014 76 10000 4.1 220 15:45 28.12.2020
4358 Clouds 14 1013 71 10000 5.7 200 14:56 28.12.2020
4359 Clouds 14 1014 71 10000 3.1 210 13:55 28.12.2020
4360 Clouds 14 1014 71 10000 3.1 210 13:32 28.12.2020
4361 Rain 14 1013 71 10000 3.6 140 12:41 28.12.2020
4362 Clouds 14 1014 67 10000 4.1 130 12:22 28.12.2020
4363 Clouds 13 1014 71 10000 3.6 140 11:45 28.12.2020
4364 Clouds 13 1014 71 10000 3.6 140 11:24 28.12.2020
4365 Rain 14 1014 71 10000 4.1 130 10:49 28.12.2020
4366 Clouds 13 1014 71 10000 4.1 130 10:27 28.12.2020
4367 Drizzle 13 1014 67 10000 4.6 130 09:46 28.12.2020
4368 Rain 13 1014 76 10000 5.1 130 09:20 28.12.2020
4369 Rain 13 1014 67 10000 2.6 140 07:40 28.12.2020
4370 Rain 13 1014 71 10000 2.6 140 06:50 28.12.2020
4371 Rain 13 1014 67 10000 2.6 130 04:37 28.12.2020
4372 Clear 13 1015 62 10000 4.6 100 02:27 28.12.2020
4373 Clear 14 1015 62 10000 3.6 100 00:53 28.12.2020
4374 Clear 13 1015 67 10000 3.6 110 23:46 27.12.2020
4375 Clear 13 1016 71 10000 1.5 100 23:19 27.12.2020
4376 Clear 13 1016 66 10000 2.1 80 21:57 27.12.2020
4377 Clear 13 1016 66 10000 2.1 80 21:57 27.12.2020
4378 Clear 12 1016 67 10000 1.5 110 21:26 27.12.2020
4379 Clear 12 1016 58 10000 3.1 90 20:47 27.12.2020
4380 Clear 13 1016 62 7000 2.6 80 19:46 27.12.2020
4381 Clouds 13 1016 67 6000 3.6 80 19:21 27.12.2020
4382 Clouds 12 1016 81 7000 1.5 10 18:41 27.12.2020
4383 Clouds 12 1017 71 10000 2.6 60 18:19 27.12.2020
4384 Clouds 13 1017 62 10000 3.1 50 17:43 27.12.2020
4385 Clouds 13 1017 62 10000 3.1 50 17:24 27.12.2020
4386 Clouds 14 1017 55 10000 2.1 90 16:35 27.12.2020
4387 Clouds 15 1017 51 10000 2.1 70 15:54 27.12.2020
4388 Clouds 15 1017 51 10000 2.1 80 14:59 27.12.2020
4389 Clouds 15 1018 59 10000 1.5 110 14:41 27.12.2020
4390 Clouds 15 1018 51 10000 1.5 110 14:19 27.12.2020
4391 Clouds 15 1018 59 10000 1 100 13:22 27.12.2020
4392 Clouds 15 1019 55 10000 1.5 140 12:43 27.12.2020
4393 Clouds 15 1019 59 10000 2.1 120 11:56 27.12.2020
4394 Clouds 15 1019 59 10000 2.6 110 11:36 27.12.2020
4395 Clouds 14 1019 55 10000 3.1 90 10:52 27.12.2020
4396 Clouds 13 1020 67 10000 1.5 100 10:24 27.12.2020
4397 Clouds 12 1020 87 10000 1 0 09:47 27.12.2020
4398 Clouds 12 1020 87 10000 2.1 10 08:39 27.12.2020
4399 Clouds 11 1020 93 10000 2.6 20 08:20 27.12.2020
4400 Rain 11 1020 93 10000 2.6 360 07:26 27.12.2020
4401 Rain 11 1019 76 10000 0.5 0 05:44 27.12.2020
4402 Clear 11 1019 81 10000 1 0 03:59 27.12.2020
4403 Clear 13 1019 81 10000 1 10 03:19 27.12.2020
4404 Clear 14 1019 76 10000 2.1 280 01:34 27.12.2020
4405 Clear 14 1019 76 10000 2.1 280 01:34 27.12.2020
4406 Clouds 14 1019 72 10000 5.1 220 00:20 27.12.2020
4407 Clear 15 1019 72 10000 5.7 220 23:27 26.12.2020
4408 Clouds 15 1018 72 10000 4.6 250 22:50 26.12.2020
4409 Clouds 15 1018 72 10000 3.6 230 22:21 26.12.2020
4410 Clouds 15 1018 72 10000 3.6 230 21:59 26.12.2020
4411 Clear 15 1018 67 10000 5.1 240 21:40 26.12.2020
4412 Clear 15 1018 67 10000 4.1 240 21:22 26.12.2020
4413 Clear 15 1018 67 10000 6.2 240 20:41 26.12.2020
4414 Clear 16 1017 67 10000 5.7 230 20:19 26.12.2020
4415 Clear 16 1017 67 10000 5.7 220 19:27 26.12.2020
4416 Clear 16 1017 67 10000 7.2 220 18:52 26.12.2020
4417 Clear 16 1017 67 10000 7.2 220 18:28 26.12.2020
4418 Clouds 15 1017 72 10000 6.7 220 17:41 26.12.2020
4419 Clouds 16 1017 72 10000 5.7 220 17:21 26.12.2020
4420 Clouds 16 1016 67 10000 8.2 220 16:36 26.12.2020
4421 Clouds 16 1016 77 10000 4.6 220 15:27 26.12.2020
4422 Clouds 17 1016 72 10000 4.6 220 14:54 26.12.2020
4423 Clouds 16 1016 77 10000 4.1 210 14:28 26.12.2020
4424 Clouds 16 1016 77 10000 3.6 210 13:53 26.12.2020
4425 Clouds 17 1016 72 10000 4.1 210 13:32 26.12.2020
4426 Clear 17 1016 67 10000 5.1 210 12:49 26.12.2020
4427 Clear 17 1016 67 10000 5.1 210 12:30 26.12.2020
4428 Clear 17 1016 67 10000 6.2 210 11:51 26.12.2020
4429 Clear 17 1016 67 10000 6.2 210 11:22 26.12.2020
4430 Clear 16 1016 67 10000 7.7 210 10:55 26.12.2020
4431 Clear 16 1016 67 10000 7.7 210 10:28 26.12.2020
4432 Clouds 15 1016 67 10000 6.2 210 09:52 26.12.2020
4433 Clouds 15 1016 67 10000 6.2 210 09:31 26.12.2020
4434 Clouds 15 1016 76 10000 4.6 220 08:39 26.12.2020
4435 Clouds 14 1016 76 10000 4.1 230 07:55 26.12.2020
4436 Clouds 14 1016 71 10000 4.1 220 06:47 26.12.2020
4437 Clear 14 1015 76 10000 5.7 220 03:52 26.12.2020
4438 Clear 14 1016 82 10000 6.2 220 01:49 26.12.2020
4439 Clear 14 1016 82 10000 5.1 220 00:27 26.12.2020
4440 Clear 14 1015 76 10000 6.7 230 23:41 25.12.2020
4441 Clear 14 1015 76 10000 6.7 230 23:41 25.12.2020
4442 Clear 14 1015 76 10000 6.7 230 23:23 25.12.2020
4443 Clear 14 1015 76 10000 6.2 220 22:48 25.12.2020
4444 Clear 14 1015 76 10000 5.7 220 22:23 25.12.2020
4445 Clear 15 1015 67 10000 7.2 230 21:35 25.12.2020
4446 Clear 15 1015 72 10000 7.2 240 20:59 25.12.2020
4447 Clear 15 1015 72 10000 7.2 240 20:37 25.12.2020
4448 Clear 15 1015 67 10000 7.2 230 19:50 25.12.2020
4449 Clear 15 1015 67 10000 7.2 230 19:30 25.12.2020
4450 Clear 15 1015 72 10000 6.7 220 18:39 25.12.2020
4451 Clear 15 1015 72 10000 8.2 220 17:54 25.12.2020
4452 Clear 15 1015 72 10000 7.2 220 17:34 25.12.2020
4453 Clear 15 1015 72 10000 5.7 210 16:38 25.12.2020
4454 Clear 15 1015 76 10000 3.6 220 16:19 25.12.2020
4455 Clear 15 1015 76 10000 3.1 210 15:36 25.12.2020
4456 Clear 15 1015 72 10000 3.6 220 14:58 25.12.2020
4457 Clear 15 1015 67 10000 3.1 240 14:30 25.12.2020
4458 Clear 15 1015 67 10000 3.6 220 13:45 25.12.2020
4459 Clear 15 1015 67 10000 3.6 220 13:26 25.12.2020
4460 Clear 16 1015 67 10000 5.7 210 12:47 25.12.2020
4461 Clear 15 1016 62 10000 5.1 220 12:24 25.12.2020
4462 Clear 15 1016 62 10000 5.1 210 11:45 25.12.2020
4463 Clear 15 1016 62 10000 5.1 220 11:20 25.12.2020
4464 Clear 14 1017 67 10000 6.7 220 10:30 25.12.2020
4465 Clear 13 1017 71 10000 5.7 210 09:47 25.12.2020
4466 Clear 12 1016 71 10000 5.7 200 08:49 25.12.2020
4467 Clear 12 1016 71 10000 5.7 200 08:28 25.12.2020
4468 Clear 11 1016 71 10000 6.2 210 06:48 25.12.2020
4469 Clear 10 1015 76 10000 7.2 200 04:47 25.12.2020
4470 Clear 10 1017 81 10000 4.1 230 02:19 25.12.2020
4471 Clear 10 1017 76 10000 4.1 240 00:19 25.12.2020
4472 Clear 10 1017 81 10000 5.1 210 23:28 24.12.2020
4473 Clear 10 1017 81 10000 5.1 210 22:53 24.12.2020
4474 Clear 11 1017 76 10000 4.1 210 22:22 24.12.2020
4475 Clear 11 1017 76 10000 4.6 210 21:42 24.12.2020
4476 Clear 11 1018 76 10000 3.6 200 20:48 24.12.2020
4477 Clear 11 1018 76 10000 4.1 210 19:20 24.12.2020
4478 Clear 11 1018 87 10000 2.6 200 18:21 24.12.2020
4479 Clear 11 1018 87 10000 2.1 200 17:37 24.12.2020
4480 Clear 11 1018 87 10000 2.6 180 16:59 24.12.2020
4481 Clouds 12 1018 81 10000 3.1 230 16:23 24.12.2020
4482 Clouds 12 1018 81 10000 3.6 220 15:43 24.12.2020
4483 Clouds 13 1018 76 10000 4.1 210 15:20 24.12.2020
4484 Clouds 13 1019 71 10000 5.1 220 14:51 24.12.2020
4485 Clouds 13 1019 76 10000 5.1 210 14:24 24.12.2020
4486 Clouds 12 1019 71 10000 6.2 210 13:48 24.12.2020
4487 Clouds 13 1019 71 10000 6.2 210 13:30 24.12.2020
4488 Clouds 12 1019 71 10000 6.2 210 12:45 24.12.2020
4489 Clouds 12 1020 71 10000 6.2 220 12:22 24.12.2020
4490 Clouds 12 1020 76 10000 6.7 220 11:59 24.12.2020
4491 Clouds 12 1020 76 10000 6.7 220 11:37 24.12.2020
4492 Clouds 12 1021 76 10000 6.7 220 11:18 24.12.2020
4493 Clouds 12 1021 81 10000 6.2 220 10:42 24.12.2020
4494 Clouds 11 1021 76 10000 6.2 220 09:53 24.12.2020
4495 Clouds 10 1021 76 10000 7.2 220 09:32 24.12.2020
4496 Clouds 10 1021 76 10000 8.2 220 08:44 24.12.2020
4497 Clouds 10 1021 76 10000 5.1 210 07:43 24.12.2020
4498 Clouds 10 1021 76 10000 5.1 210 07:21 24.12.2020
4499 Clouds 10 1021 81 10000 6.2 210 05:56 24.12.2020
4500 Clouds 9 1022 76 10000 5.7 220 02:33 24.12.2020
4501 Clouds 9 1022 76 10000 5.1 210 01:45 24.12.2020
4502 Clouds 9 1022 76 10000 4.6 220 01:18 24.12.2020
4503 Clouds 9 1022 71 10000 4.1 230 00:23 24.12.2020
4504 Clouds 9 1023 71 10000 4.1 230 23:49 23.12.2020
4505 Clouds 9 1023 71 10000 3.1 230 23:31 23.12.2020
4506 Clouds 9 1023 71 10000 5.1 220 22:59 23.12.2020
4507 Clouds 9 1023 71 10000 5.1 220 22:40 23.12.2020
4508 Clouds 9 1023 66 10000 4.6 220 22:18 23.12.2020
4509 Clouds 9 1023 66 10000 5.1 210 21:31 23.12.2020
4510 Clouds 9 1023 66 10000 4.6 220 20:57 23.12.2020
4511 Clouds 8 1023 70 10000 4.1 220 20:37 23.12.2020
4512 Clouds 8 1023 70 10000 4.1 230 20:19 23.12.2020
4513 Clouds 8 1024 66 10000 4.1 220 19:41 23.12.2020
4514 Clouds 8 1024 70 10000 3.6 210 19:22 23.12.2020
4515 Clouds 8 1023 70 10000 3.6 210 18:51 23.12.2020
4516 Clouds 8 1023 70 10000 3.6 210 18:33 23.12.2020
4517 Clouds 8 1023 66 10000 4.6 210 17:43 23.12.2020
4518 Clouds 8 1024 70 10000 3.6 220 17:22 23.12.2020
4519 Clouds 8 1024 70 10000 3.6 220 16:52 23.12.2020
4520 Clouds 8 1024 70 10000 3.6 220 16:30 23.12.2020
4521 Clouds 8 1024 70 10000 3.6 210 15:59 23.12.2020
4522 Clouds 8 1024 70 10000 2.6 220 15:39 23.12.2020
4523 Clouds 8 1024 81 10000 3.1 210 15:20 23.12.2020
4524 Clouds 8 1024 81 10000 3.1 220 14:42 23.12.2020
4525 Clouds 8 1024 81 10000 3.1 220 14:22 23.12.2020
4526 Clouds 8 1024 81 9000 3.1 200 13:46 23.12.2020
4527 Clouds 8 1024 81 10000 3.6 220 13:20 23.12.2020
4528 Clouds 8 1024 81 10000 4.1 210 12:55 23.12.2020
4529 Clouds 8 1024 81 10000 4.1 210 12:36 23.12.2020
4530 Clouds 7 1024 81 9000 3.6 210 12:18 23.12.2020
4531 Rain 8 1024 70 10000 4.1 210 11:43 23.12.2020
4532 Clear 7 1025 75 10000 1.5 160 10:57 23.12.2020
4533 Clear 7 1025 75 10000 1.5 160 10:39 23.12.2020
4534 Clouds 7 1025 70 10000 3.17 196 09:38 23.12.2020
4535 Clear 6 1025 87 10000 2.1 360 08:58 23.12.2020
4536 Clear 6 1025 87 10000 2.1 360 08:33 23.12.2020
4537 Clouds 4 1025 86 10000 2.6 350 07:49 23.12.2020
4538 Clouds 3 1024 86 10000 0.5 30 06:53 23.12.2020
4539 Clouds 3 1024 86 10000 0.5 30 06:34 23.12.2020
4540 Clouds 3 1024 93 10000 2.1 140 05:24 23.12.2020
4541 Clear 4 1025 93 10000 1.5 360 01:59 23.12.2020
4542 Clouds 4 1025 86 10000 1.5 10 00:33 23.12.2020
4543 Clouds 4 1026 86 10000 1 0 23:45 22.12.2020
4544 Clouds 4 1026 86 10000 2.6 340 23:23 22.12.2020
4545 Clouds 4 1026 86 10000 2.1 60 22:43 22.12.2020
4546 Clouds 5 1026 86 10000 2.1 60 22:24 22.12.2020
4547 Clouds 5 1026 81 10000 3.1 40 21:52 22.12.2020
4548 Clouds 5 1026 81 10000 3.6 50 21:21 22.12.2020
4549 Clouds 6 1026 81 10000 3.1 40 20:54 22.12.2020
4550 Clouds 6 1026 81 10000 3.1 40 20:35 22.12.2020
4551 Clouds 5 1027 80 10000 3.1 20 19:59 22.12.2020
4552 Clouds 6 1027 86 10000 4.1 20 19:41 22.12.2020
4553 Clouds 6 1027 86 10000 3.1 50 19:20 22.12.2020
4554 Clouds 6 1027 75 10000 3.1 40 18:44 22.12.2020
4555 Clouds 6 1027 75 10000 2.6 50 18:24 22.12.2020
4556 Clouds 6 1027 75 10000 3.1 70 17:41 22.12.2020
4557 Clouds 7 1027 70 10000 4.6 60 17:18 22.12.2020
4558 Clouds 6 1027 70 10000 4.6 60 16:47 22.12.2020
4559 Clouds 6 1027 70 10000 4.1 50 16:21 22.12.2020
4560 Clouds 7 1026 70 10000 5.1 60 15:47 22.12.2020
4561 Clouds 7 1026 70 10000 5.1 60 15:29 22.12.2020
4562 Clouds 8 1026 70 10000 4.6 70 14:58 22.12.2020
4563 Clouds 8 1026 70 10000 4.6 70 14:39 22.12.2020
4564 Clouds 8 1026 75 10000 3.1 80 14:20 22.12.2020
4565 Clouds 7 1026 75 10000 3.1 80 13:44 22.12.2020
4566 Clouds 8 1026 70 10000 3.6 70 13:19 22.12.2020
4567 Clouds 8 1027 70 10000 3.6 60 12:52 22.12.2020
4568 Clouds 8 1027 70 10000 3.6 60 12:33 22.12.2020
4569 Clouds 8 1027 70 10000 2.6 90 11:57 22.12.2020
4570 Clouds 8 1027 70 10000 2.6 90 11:39 22.12.2020
4571 Clouds 7 1027 75 10000 3.1 60 11:20 22.12.2020
4572 Clouds 8 1028 75 10000 3.1 70 10:51 22.12.2020
4573 Clouds 7 1028 81 10000 4.6 50 10:24 22.12.2020
4574 Clouds 7 1028 81 10000 4.6 50 09:56 22.12.2020
4575 Clouds 7 1028 81 10000 5.1 60 09:23 22.12.2020
4576 Clouds 7 1028 70 10000 1.5 10 08:53 22.12.2020
4577 Clouds 7 1028 70 10000 1.5 10 08:30 22.12.2020
4578 Clouds 7 1028 75 10000 1 0 07:55 22.12.2020
4579 Clouds 7 1028 75 10000 1 0 07:55 22.12.2020
4580 Clouds 7 1027 81 10000 1 360 06:58 22.12.2020
4581 Clouds 7 1027 81 10000 1 0 05:48 22.12.2020
4582 Clouds 7 1027 70 10000 3.1 60 03:46 22.12.2020
4583 Clouds 7 1027 75 10000 3.1 60 01:35 22.12.2020
4584 Clouds 7 1028 81 10000 6.7 50 23:56 21.12.2020
4585 Clouds 8 1028 75 10000 5.1 60 23:37 21.12.2020
4586 Clouds 7 1027 87 10000 5.1 70 22:59 21.12.2020
4587 Clouds 7 1027 87 10000 5.1 70 22:36 21.12.2020
4588 Clouds 7 1027 87 10000 5.1 60 22:18 21.12.2020
4589 Clouds 7 1027 87 10000 3.1 60 21:41 21.12.2020
4590 Rain 7 1028 87 10000 4.1 60 21:22 21.12.2020
4591 Clouds 7 1028 70 10000 2.6 60 20:40 21.12.2020
4592 Clouds 7 1027 75 10000 3.1 70 20:19 21.12.2020
4593 Clouds 7 1028 81 10000 2.6 40 19:45 21.12.2020
4594 Clouds 7 1028 81 10000 3.1 30 19:20 21.12.2020
4595 Clouds 7 1028 70 10000 4.1 30 18:53 21.12.2020
4596 Clouds 7 1028 70 10000 4.1 30 18:34 21.12.2020
4597 Clouds 7 1027 70 10000 4.1 40 17:56 21.12.2020
4598 Clouds 8 1027 70 10000 5.7 30 17:37 21.12.2020
4599 Clouds 8 1027 65 10000 5.1 20 17:19 21.12.2020
4600 Clouds 8 1027 65 10000 4.1 20 16:38 21.12.2020
4601 Clouds 8 1027 61 10000 5.7 30 16:18 21.12.2020
4602 Clouds 9 1027 61 10000 5.7 30 15:40 21.12.2020
4603 Clouds 9 1027 61 10000 6.2 20 14:57 21.12.2020
4604 Clouds 9 1027 66 10000 7.2 40 14:22 21.12.2020
4605 Clouds 9 1027 61 10000 6.7 50 13:45 21.12.2020
4606 Clouds 9 1027 61 10000 6.7 50 13:27 21.12.2020
4607 Clouds 9 1027 70 10000 6.2 30 12:47 21.12.2020
4608 Clouds 9 1027 70 10000 5.7 40 12:25 21.12.2020
4609 Clouds 9 1027 66 10000 5.1 40 11:58 21.12.2020
4610 Clouds 9 1027 66 10000 5.1 40 11:40 21.12.2020
4611 Clouds 9 1028 66 10000 5.7 50 11:22 21.12.2020
4612 Clouds 9 1028 76 10000 4.6 60 10:49 21.12.2020
4613 Clouds 9 1028 76 10000 4.6 60 10:30 21.12.2020
4614 Clouds 9 1028 81 10000 5.1 50 09:49 21.12.2020
4615 Clouds 8 1028 87 10000 5.1 50 09:26 21.12.2020
4616 Clouds 8 1028 87 10000 5.1 50 08:54 21.12.2020
4617 Clouds 8 1028 87 10000 3.6 50 07:56 21.12.2020
4618 Clouds 7 1028 81 10000 3.1 40 06:47 21.12.2020
4619 Clouds 8 1028 81 10000 3.6 60 04:58 21.12.2020
4620 Clouds 8 1028 81 10000 4.6 40 02:31 21.12.2020
4621 Clouds 8 1028 87 10000 5.7 30 00:34 21.12.2020
4622 Drizzle 8 1028 87 10000 6.7 40 23:37 20.12.2020
4623 Drizzle 8 1029 93 10000 6.2 30 23:18 20.12.2020
4624 Clouds 8 1029 87 10000 7.7 40 22:42 20.12.2020
4625 Clouds 8 1029 81 10000 6.7 50 22:22 20.12.2020
4626 Clouds 8 1029 81 10000 5.7 30 21:40 20.12.2020
4627 Clouds 8 1029 81 10000 5.7 30 21:21 20.12.2020
4628 Clouds 8 1028 81 10000 5.7 40 20:51 20.12.2020
4629 Clouds 8 1028 81 10000 5.7 40 20:25 20.12.2020
4630 Clouds 8 1028 81 10000 4.1 40 19:49 20.12.2020
4631 Clouds 8 1028 81 10000 4.1 40 19:31 20.12.2020
4632 Clouds 8 1028 81 10000 5.7 40 18:58 20.12.2020
4633 Clouds 8 1028 81 10000 5.7 40 18:38 20.12.2020
4634 Clouds 8 1028 81 10000 5.7 40 18:20 20.12.2020
4635 Clouds 8 1028 81 10000 5.7 40 17:44 20.12.2020
4636 Clouds 8 1028 76 10000 5.7 40 17:23 20.12.2020
4637 Clouds 8 1028 81 10000 5.1 40 16:45 20.12.2020
4638 Clouds 8 1028 76 10000 6.2 50 16:27 20.12.2020
4639 Clouds 9 1027 76 10000 6.2 40 15:48 20.12.2020
4640 Clouds 9 1027 76 10000 5.1 50 15:25 20.12.2020
4641 Clouds 9 1027 76 10000 5.1 50 14:54 20.12.2020
4642 Clouds 10 1027 71 10000 5.7 60 14:33 20.12.2020
4643 Clouds 10 1027 66 10000 5.7 60 13:47 20.12.2020
4644 Clouds 10 1027 66 10000 5.7 60 13:25 20.12.2020
4645 Clouds 10 1027 66 10000 5.1 50 12:58 20.12.2020
4646 Clouds 10 1027 66 10000 5.7 60 12:39 20.12.2020
4647 Clouds 10 1027 71 10000 4.6 50 12:19 20.12.2020
4648 Clouds 10 1028 71 10000 4.6 60 11:42 20.12.2020
4649 Clouds 9 1028 76 10000 4.1 60 10:59 20.12.2020
4650 Clouds 10 1028 71 10000 4.6 60 10:41 20.12.2020
4651 Clouds 10 1028 76 10000 3.6 40 10:20 20.12.2020
4652 Clouds 9 1028 71 10000 3.1 60 09:45 20.12.2020
4653 Clouds 9 1028 71 10000 3.1 60 09:27 20.12.2020
4654 Clouds 8 1028 81 10000 3.1 80 08:55 20.12.2020
4655 Clouds 8 1028 81 10000 2.1 70 08:36 20.12.2020
4656 Clouds 7 1028 87 10000 2.6 50 07:24 20.12.2020
4657 Clouds 7 1027 93 10000 2.6 50 05:44 20.12.2020
4658 Clouds 7 1028 87 10000 2.6 40 01:45 20.12.2020
4659 Clouds 8 1028 87 10000 2.1 40 00:38 20.12.2020
4660 Clouds 8 1028 81 10000 3.6 70 23:20 19.12.2020
4661 Clouds 8 1028 81 10000 3.6 70 22:57 19.12.2020
4662 Clouds 8 1028 81 10000 3.1 60 22:38 19.12.2020
4663 Clouds 9 1028 81 10000 3.6 60 22:19 19.12.2020
4664 Clouds 9 1028 81 10000 4.1 70 21:42 19.12.2020
4665 Clouds 9 1028 81 10000 3.6 70 21:24 19.12.2020
4666 Clouds 9 1028 76 10000 3.1 60 20:45 19.12.2020
4667 Clouds 9 1028 76 10000 3.6 60 20:21 19.12.2020
4668 Clouds 9 1028 76 10000 3.1 60 19:53 19.12.2020
4669 Clouds 9 1028 76 10000 3.1 60 19:34 19.12.2020
4670 Clouds 9 1028 76 10000 3.6 50 18:42 19.12.2020
4671 Clouds 9 1028 76 10000 4.1 40 18:24 19.12.2020
4672 Clouds 9 1028 76 10000 4.1 40 17:48 19.12.2020
4673 Clouds 9 1028 71 10000 4.1 30 17:25 19.12.2020
4674 Clouds 9 1028 71 10000 4.1 30 16:55 19.12.2020
4675 Clouds 9 1028 71 10000 4.1 20 16:36 19.12.2020
4676 Clouds 9 1028 71 10000 3.6 40 16:18 19.12.2020
4677 Clouds 10 1028 71 10000 3.6 30 15:47 19.12.2020
4678 Clouds 10 1028 76 10000 2.6 100 14:44 19.12.2020
4679 Clouds 10 1028 71 10000 2.6 0 14:23 19.12.2020
4680 Clouds 10 1028 76 10000 1 0 13:42 19.12.2020
4681 Clouds 10 1028 76 10000 1 350 13:21 19.12.2020
4682 Clouds 10 1028 76 10000 1 350 12:54 19.12.2020
4683 Clouds 10 1028 81 10000 1.5 350 12:36 19.12.2020
4684 Clouds 10 1028 76 10000 2.1 340 12:18 19.12.2020
4685 Clouds 10 1029 81 10000 2.1 340 11:40 19.12.2020
4686 Clouds 9 1029 81 10000 2.6 360 10:47 19.12.2020
4687 Clouds 9 1029 81 10000 2.6 360 10:27 19.12.2020
4688 Clouds 8 1030 81 10000 3.1 10 09:59 19.12.2020
4689 Clouds 8 1030 81 10000 3.6 350 09:39 19.12.2020
4690 Clouds 8 1030 87 10000 4.6 350 08:56 19.12.2020
4691 Clouds 7 1029 87 10000 3.1 340 07:56 19.12.2020
4692 Clouds 7 1029 87 10000 4.6 350 07:19 19.12.2020
4693 Clouds 7 1029 87 10000 4.1 350 06:39 19.12.2020
4694 Clouds 7 1029 87 10000 3.6 350 05:19 19.12.2020
4695 Clouds 7 1028 87 10000 4.1 340 03:29 19.12.2020
4696 Clear 6 1028 93 10000 3.1 350 00:41 19.12.2020
4697 Clouds 7 1028 81 10000 3.1 30 00:20 19.12.2020
4698 Clouds 7 1029 87 10000 2.6 10 23:49 18.12.2020
4699 Clouds 7 1029 81 10000 3.6 10 23:25 18.12.2020
4700 Clouds 7 1029 81 10000 4.1 10 22:49 18.12.2020
4701 Clouds 7 1029 87 10000 3.6 10 22:25 18.12.2020
4702 Clouds 7 1029 87 10000 3.6 10 21:59 18.12.2020
4703 Clouds 7 1028 81 10000 3.6 20 21:38 18.12.2020
4704 Clouds 7 1028 81 10000 4.1 20 21:20 18.12.2020
4705 Clouds 8 1028 75 10000 4.6 10 20:24 18.12.2020
4706 Clouds 8 1028 81 10000 3.6 10 19:47 18.12.2020
4707 Clouds 8 1028 81 10000 4.1 10 19:23 18.12.2020
4708 Clouds 8 1028 81 10000 4.1 20 18:46 18.12.2020
4709 Clouds 9 1028 76 10000 5.1 10 18:26 18.12.2020
4710 Clouds 9 1028 81 10000 4.6 20 17:50 18.12.2020
4711 Clouds 9 1028 81 10000 4.6 10 17:20 18.12.2020
4712 Clouds 9 1028 81 10000 5.1 10 16:45 18.12.2020
4713 Clouds 9 1028 81 10000 5.7 10 16:20 18.12.2020
4714 Clouds 9 1027 81 10000 5.1 10 15:51 18.12.2020
4715 Clouds 9 1027 81 10000 5.1 10 15:33 18.12.2020
4716 Clouds 9 1027 81 10000 5.1 10 14:57 18.12.2020
4717 Clouds 9 1027 81 10000 5.7 360 14:24 18.12.2020
4718 Clouds 9 1027 81 10000 6.2 360 13:53 18.12.2020
4719 Clouds 9 1027 81 10000 6.2 360 13:32 18.12.2020
4720 Clouds 9 1027 81 10000 4.1 10 12:57 18.12.2020
4721 Clouds 9 1027 81 10000 4.1 10 12:34 18.12.2020
4722 Clouds 9 1027 81 10000 5.7 360 11:28 18.12.2020
4723 Clouds 10 1027 71 10000 3.1 40 10:41 18.12.2020
4724 Clouds 10 1027 71 10000 3.1 40 10:41 18.12.2020
4725 Clouds 9 1028 71 10000 3.1 30 10:21 18.12.2020
4726 Clouds 9 1028 71 10000 3.1 30 09:58 18.12.2020
4727 Clouds 9 1028 71 10000 3.1 50 09:37 18.12.2020
4728 Clouds 9 1027 76 10000 3.1 50 09:18 18.12.2020
4729 Clouds 9 1027 76 10000 2.6 30 08:46 18.12.2020
4730 Clouds 9 1027 81 10000 2.1 20 07:58 18.12.2020
4731 Clouds 9 1027 81 10000 2.1 60 07:20 18.12.2020
4732 Clouds 9 1027 81 10000 2.1 60 06:59 18.12.2020
4733 Clouds 9 1026 81 10000 2.6 50 05:44 18.12.2020
4734 Clouds 9 1026 81 10000 3.1 60 04:52 18.12.2020
4735 Clouds 9 1026 87 10000 4.6 60 03:35 18.12.2020
4736 Clouds 9 1026 81 10000 5.1 50 01:45 18.12.2020
4737 Clouds 9 1026 81 10000 5.1 50 00:29 18.12.2020
4738 Clouds 9 1026 81 10000 4.6 50 23:52 17.12.2020
4739 Clouds 10 1026 81 10000 5.7 60 23:23 17.12.2020
4740 Clouds 9 1026 81 10000 4.6 50 22:48 17.12.2020
4741 Clouds 9 1026 81 10000 4.6 50 22:28 17.12.2020
4742 Clouds 9 1026 81 10000 4.6 60 21:46 17.12.2020
4743 Clouds 9 1026 81 10000 5.7 50 21:22 17.12.2020
4744 Clouds 9 1026 81 10000 5.7 50 20:55 17.12.2020
4745 Clouds 10 1026 76 10000 5.1 60 20:36 17.12.2020
4746 Clouds 10 1026 76 10000 5.1 60 20:18 17.12.2020
4747 Clouds 10 1026 76 10000 4.6 70 19:39 17.12.2020
4748 Clouds 10 1026 76 10000 4.6 60 19:21 17.12.2020
4749 Clouds 9 1026 81 10000 4.6 70 18:40 17.12.2020
4750 Clouds 10 1026 81 10000 5.1 70 18:19 17.12.2020
4751 Clouds 9 1026 81 10000 6.2 70 17:46 17.12.2020
4752 Clouds 10 1026 81 10000 6.2 70 17:28 17.12.2020
4753 Clouds 10 1026 81 10000 4.1 60 16:41 17.12.2020
4754 Clouds 10 1026 87 10000 4.6 70 16:22 17.12.2020
4755 Clouds 10 1026 81 10000 4.6 70 15:51 17.12.2020
4756 Clouds 10 1026 81 10000 5.7 60 15:30 17.12.2020
4757 Clouds 10 1025 81 10000 4.6 60 14:54 17.12.2020
4758 Clouds 10 1025 81 10000 4.1 60 14:29 17.12.2020
4759 Clouds 10 1025 81 10000 4.1 40 13:51 17.12.2020
4760 Clouds 10 1025 81 10000 3.6 40 13:27 17.12.2020
4761 Clouds 10 1026 81 10000 2.1 70 12:44 17.12.2020
4762 Clouds 10 1026 81 10000 2.1 70 12:24 17.12.2020
4763 Clouds 10 1026 76 10000 3.1 60 11:44 17.12.2020
4764 Clouds 10 1026 81 10000 3.1 60 11:23 17.12.2020
4765 Clouds 10 1026 81 10000 3.6 60 10:49 17.12.2020
4766 Clouds 9 1026 87 10000 3.1 40 09:43 17.12.2020
4767 Clouds 9 1026 87 10000 3.6 40 09:24 17.12.2020
4768 Clouds 9 1026 87 10000 4.1 40 07:50 17.12.2020
4769 Clouds 9 1026 87 10000 4.1 40 07:31 17.12.2020
4770 Clouds 9 1026 87 10000 3.1 40 06:53 17.12.2020
4771 Clouds 9 1026 87 10000 3.1 40 06:32 17.12.2020
4772 Clouds 9 1026 87 10000 3.1 40 06:32 17.12.2020
4773 Clouds 9 1026 93 10000 3.1 30 04:45 17.12.2020
4774 Clouds 10 1026 87 10000 3.1 70 00:33 17.12.2020
4775 Clouds 10 1026 81 10000 3.6 70 23:52 16.12.2020
4776 Clouds 9 1026 81 10000 2.6 90 23:19 16.12.2020
4777 Clouds 10 1026 87 10000 2.1 90 22:52 16.12.2020
4778 Clouds 10 1026 87 10000 2.1 90 22:32 16.12.2020
4779 Clouds 9 1026 87 10000 3.6 70 21:47 16.12.2020
4780 Clouds 9 1026 87 10000 3.6 70 21:27 16.12.2020
4781 Clouds 9 1026 87 10000 3.6 70 20:54 16.12.2020
4782 Clouds 9 1026 81 10000 3.1 70 20:21 16.12.2020
4783 Clouds 9 1026 87 10000 3.1 70 19:50 16.12.2020
4784 Clouds 9 1026 87 10000 2.6 60 19:19 16.12.2020
4785 Clouds 9 1026 87 10000 4.1 60 18:52 16.12.2020
4786 Clouds 9 1026 87 10000 3.6 60 18:27 16.12.2020
4787 Clouds 9 1026 87 10000 5.1 70 17:43 16.12.2020
4788 Clouds 9 1026 87 10000 4.6 60 16:58 16.12.2020
4789 Clouds 9 1026 87 10000 4.6 60 16:39 16.12.2020
4790 Clouds 10 1026 87 10000 4.1 50 16:20 16.12.2020
4791 Clouds 10 1026 81 10000 3.1 60 15:49 16.12.2020
4792 Clouds 9 1026 87 10000 3.6 60 15:24 16.12.2020
4793 Clouds 9 1025 87 10000 3.6 50 14:46 16.12.2020
4794 Clouds 9 1025 87 10000 3.6 50 14:28 16.12.2020
4795 Clouds 9 1025 87 10000 4.1 50 13:45 16.12.2020
4796 Clouds 9 1025 87 10000 3.6 40 13:27 16.12.2020
4797 Clouds 9 1025 87 10000 3.6 40 12:48 16.12.2020
4798 Clouds 9 1025 87 10000 3.1 30 12:25 16.12.2020
4799 Clouds 9 1026 87 10000 3.1 30 11:38 16.12.2020
4800 Clouds 9 1026 87 10000 3.6 50 11:19 16.12.2020
4801 Clouds 9 1026 87 10000 3.6 40 10:43 16.12.2020
4802 Drizzle 10 1026 87 10000 3.6 20 10:18 16.12.2020
4803 Drizzle 9 1026 87 10000 3.6 40 09:39 16.12.2020
4804 Clouds 9 1025 93 8000 3.6 20 08:24 16.12.2020
4805 Clouds 9 1025 93 10000 3.1 10 07:48 16.12.2020
4806 Clouds 9 1025 93 10000 3.1 10 07:48 16.12.2020
4807 Clouds 9 1025 93 10000 3.1 10 07:30 16.12.2020
4808 Clouds 9 1025 93 10000 3.1 10 06:41 16.12.2020
4809 Clouds 9 1024 93 9000 3.1 360 02:24 16.12.2020
4810 Clouds 9 1023 87 10000 4.1 20 00:20 16.12.2020
4811 Clouds 8 1023 87 10000 5.7 10 23:42 15.12.2020
4812 Clouds 8 1023 87 10000 5.7 30 22:44 15.12.2020
4813 Clouds 8 1023 87 10000 5.7 30 22:23 15.12.2020
4814 Clouds 8 1022 87 10000 5.1 10 21:50 15.12.2020
4815 Clouds 8 1022 87 10000 5.7 20 21:24 15.12.2020
4816 Clouds 8 1022 87 10000 5.7 20 20:57 15.12.2020
4817 Clouds 8 1022 87 10000 5.7 20 20:37 15.12.2020
4818 Clouds 8 1022 87 10000 5.7 20 20:37 15.12.2020
4819 Clouds 9 1022 87 10000 6.7 20 20:18 15.12.2020
4820 Clouds 9 1022 87 8000 5.7 10 19:35 15.12.2020
4821 Mist 9 1022 87 4000 6.2 10 18:59 15.12.2020
4822 Clouds 9 1022 87 6000 5.1 10 18:39 15.12.2020
4823 Clouds 8 1021 87 7000 5.1 10 18:20 15.12.2020
4824 Clouds 9 1021 93 7000 5.1 10 17:42 15.12.2020
4825 Clouds 9 1021 87 10000 5.7 10 17:22 15.12.2020
4826 Clouds 9 1020 87 8000 5.7 10 16:37 15.12.2020
4827 Clouds 9 1020 87 8000 5.7 10 16:19 15.12.2020
4828 Clouds 9 1020 93 10000 8.2 20 15:37 15.12.2020
4829 Clouds 9 1019 93 10000 7.7 20 14:56 15.12.2020
4830 Clouds 9 1019 93 10000 7.7 20 14:37 15.12.2020
4831 Clouds 9 1019 93 10000 7.2 20 14:19 15.12.2020
4832 Clouds 9 1018 93 10000 5.7 20 13:47 15.12.2020
4833 Clouds 9 1018 93 10000 8.2 20 13:22 15.12.2020
4834 Clouds 9 1018 87 10000 8.2 20 12:44 15.12.2020
4835 Clouds 9 1018 93 10000 8.7 20 12:18 15.12.2020
4836 Rain 9 1018 93 10000 10.3 20 11:49 15.12.2020
4837 Clouds 9 1017 87 10000 10.8 20 11:20 15.12.2020
4838 Clouds 10 1017 87 10000 10.3 20 10:44 15.12.2020
4839 Clouds 10 1017 87 10000 10.8 20 10:19 15.12.2020
4840 Clouds 10 1017 87 10000 8.2 10 09:39 15.12.2020
4841 Clouds 10 1017 87 10000 8.7 10 09:21 15.12.2020
4842 Clouds 10 1016 87 8000 9.3 10 08:37 15.12.2020
4843 Clouds 10 1016 87 8000 8.7 10 08:19 15.12.2020
4844 Rain 10 1016 93 8000 7.7 10 07:40 15.12.2020
4845 Rain 10 1015 93 10000 8.7 20 06:40 15.12.2020
4846 Mist 10 1013 93 4000 8.2 20 04:55 15.12.2020
4847 Clouds 11 1011 87 10000 8.7 20 00:38 15.12.2020
4848 Clouds 12 1011 87 10000 8.2 20 23:47 14.12.2020
4849 Clouds 12 1011 87 10000 9.3 20 23:19 14.12.2020
4850 Clouds 12 1011 87 10000 10.3 30 22:39 14.12.2020
4851 Clouds 12 1010 93 8000 9.3 20 21:56 14.12.2020
4852 Clouds 12 1010 93 8000 9.3 20 21:36 14.12.2020
4853 Clouds 13 1009 87 8000 8.7 20 20:57 14.12.2020
4854 Clouds 13 1009 87 8000 8.7 20 20:39 14.12.2020
4855 Clouds 13 1009 87 8000 8.2 20 20:18 14.12.2020
4856 Clouds 13 1009 87 8000 8.2 30 19:34 14.12.2020
4857 Clouds 13 1009 87 8000 8.2 30 18:57 14.12.2020
4858 Clouds 13 1009 87 8000 8.2 30 18:38 14.12.2020
4859 Clouds 13 1008 87 8000 9.3 20 18:18 14.12.2020
4860 Clouds 13 1008 87 8000 9.8 20 17:33 14.12.2020
4861 Clouds 13 1007 87 8000 10.3 20 16:57 14.12.2020
4862 Clouds 13 1007 87 8000 10.3 20 16:38 14.12.2020
4863 Clouds 13 1007 87 8000 9.3 20 16:18 14.12.2020
4864 Clouds 13 1007 87 8000 7.7 10 15:33 14.12.2020
4865 Clouds 13 1006 87 8000 9.3 10 14:48 14.12.2020
4866 Rain 13 1006 87 8000 9.3 10 14:29 14.12.2020
4867 Clouds 13 1006 93 8000 9.3 10 13:55 14.12.2020
4868 Clouds 13 1006 93 8000 9.3 10 13:34 14.12.2020
4869 Rain 12 1006 87 8000 8.2 10 12:56 14.12.2020
4870 Rain 12 1006 87 8000 8.2 10 12:31 14.12.2020
4871 Rain 12 1007 93 8000 9.3 10 11:54 14.12.2020
4872 Rain 12 1007 93 8000 9.3 10 11:23 14.12.2020
4873 Clouds 12 1007 93 8000 8.2 10 10:27 14.12.2020
4874 Clouds 12 1007 93 10000 9.3 10 09:52 14.12.2020
4875 Clouds 12 1006 93 10000 9.3 10 08:56 14.12.2020
4876 Clouds 12 1006 93 10000 9.3 10 08:38 14.12.2020
4877 Clouds 12 1007 93 10000 8.7 20 07:59 14.12.2020
4878 Rain 12 1006 93 10000 9.3 20 07:19 14.12.2020
4879 Rain 12 1006 93 10000 9.3 20 06:42 14.12.2020
4880 Clouds 12 1006 93 10000 9.3 20 03:57 14.12.2020
4881 Clouds 12 1006 93 10000 9.3 20 03:57 14.12.2020
4882 Clouds 12 1005 87 10000 8.7 30 00:58 14.12.2020
4883 Clouds 12 1006 87 10000 9.3 40 00:39 14.12.2020
4884 Clouds 12 1006 87 10000 7.7 30 00:20 14.12.2020
4885 Clouds 12 1006 87 10000 7.2 20 23:44 13.12.2020
4886 Clouds 12 1006 93 10000 7.7 20 22:57 13.12.2020
4887 Clouds 12 1006 93 10000 7.7 20 22:39 13.12.2020
4888 Clouds 13 1006 87 10000 6.2 10 22:18 13.12.2020
4889 Rain 12 1007 93 10000 6.2 20 21:41 13.12.2020
4890 Rain 13 1007 93 10000 5.7 360 20:55 13.12.2020
4891 Rain 13 1007 93 10000 5.7 340 20:25 13.12.2020
4892 Rain 13 1007 87 8000 3.1 310 19:47 13.12.2020
4893 Rain 13 1006 76 10000 4.1 30 19:24 13.12.2020
4894 Rain 13 1006 76 10000 4.1 10 18:54 13.12.2020
4895 Rain 13 1006 76 10000 4.1 10 18:36 13.12.2020
4896 Clouds 13 1005 82 10000 3.6 10 18:18 13.12.2020
4897 Clouds 14 1005 82 10000 4.6 360 17:44 13.12.2020
4898 Clouds 14 1005 87 10000 4.6 360 17:18 13.12.2020
4899 Clouds 14 1005 87 10000 3.6 360 16:44 13.12.2020
4900 Clouds 14 1005 82 10000 3.1 20 16:21 13.12.2020
4901 Clouds 15 1005 72 10000 3.1 0 15:45 13.12.2020
4902 Clouds 15 1005 72 10000 3.1 0 15:25 13.12.2020
4903 Rain 15 1005 67 10000 3.1 80 14:46 13.12.2020
4904 Clouds 15 1005 67 10000 3.1 80 14:28 13.12.2020
4905 Rain 15 1004 67 10000 3.1 100 13:46 13.12.2020
4906 Clouds 15 1004 67 10000 3.1 100 13:27 13.12.2020
4907 Rain 14 1004 67 10000 3.1 90 12:55 13.12.2020
4908 Clouds 13 1005 82 10000 3.1 70 12:24 13.12.2020
4909 Clouds 13 1005 82 10000 3.1 70 12:24 13.12.2020
4910 Rain 13 1005 76 10000 4.1 80 11:53 13.12.2020
4911 Clouds 13 1005 76 10000 4.1 80 11:31 13.12.2020
4912 Rain 13 1006 93 10000 1.5 20 10:43 13.12.2020
4913 Rain 13 1006 82 10000 1.5 340 10:21 13.12.2020
4914 Rain 14 1006 72 10000 0.5 0 09:37 13.12.2020
4915 Rain 13 1005 76 10000 2.6 80 08:47 13.12.2020
4916 Clouds 13 1005 76 10000 2.1 80 08:28 13.12.2020
4917 Clouds 12 1005 87 10000 1.5 100 06:28 13.12.2020
4918 Clouds 12 1006 76 10000 2.1 90 02:44 13.12.2020
4919 Clouds 13 1006 76 10000 2.6 120 01:59 13.12.2020
4920 Clouds 13 1006 76 10000 2.6 120 01:34 13.12.2020
4921 Clouds 13 1006 87 10000 3.1 70 00:37 13.12.2020
4922 Clouds 13 1005 87 10000 2.1 100 23:33 12.12.2020
4923 Rain 13 1006 87 10000 2.6 120 22:59 12.12.2020
4924 Rain 13 1006 93 10000 2.1 120 22:29 12.12.2020
4925 Rain 12 1006 87 10000 2.6 170 21:46 12.12.2020
4926 Rain 13 1006 87 10000 1 0 21:19 12.12.2020
4927 Rain 13 1006 87 10000 2.1 200 20:44 12.12.2020
4928 Rain 13 1006 87 10000 2.1 190 20:21 12.12.2020
4929 Rain 13 1005 87 10000 3.72 144 19:51 12.12.2020
4930 Rain 13 1005 87 10000 3.72 144 19:33 12.12.2020
4931 Rain 13 1005 82 10000 2.1 310 18:55 12.12.2020
4932 Rain 13 1005 82 10000 2.1 310 18:36 12.12.2020
4933 Rain 13 1004 87 10000 3.1 340 18:18 12.12.2020
4934 Rain 13 1004 87 10000 2.1 30 17:40 12.12.2020
4935 Clouds 13 1004 82 10000 1.5 120 16:42 12.12.2020
4936 Rain 14 1004 76 10000 1 0 15:57 12.12.2020
4937 Rain 14 1004 87 10000 1 0 15:39 12.12.2020
4938 Rain 14 1004 82 10000 2.1 70 14:54 12.12.2020
4939 Rain 14 1003 76 10000 3.1 140 14:21 12.12.2020
4940 Rain 14 1003 67 10000 4.1 130 13:41 12.12.2020
4941 Rain 14 1003 67 10000 4.1 130 13:22 12.12.2020
4942 Rain 14 1003 71 10000 4.1 120 12:33 12.12.2020
4943 Rain 13 1004 71 10000 3.6 120 11:19 12.12.2020
4944 Rain 13 1004 71 10000 4.1 120 10:45 12.12.2020
4945 Rain 12 1005 71 10000 4.1 90 09:23 12.12.2020
4946 Rain 11 1006 87 10000 2.1 70 07:26 12.12.2020
4947 Clear 10 1009 76 10000 2.1 80 00:50 12.12.2020
4948 Clear 11 1009 81 10000 2.1 100 23:21 11.12.2020
4949 Clear 12 1010 76 10000 3.6 200 20:57 11.12.2020
4950 Clouds 13 1010 71 10000 3.6 210 19:42 11.12.2020
4951 Clouds 14 1010 71 10000 4.6 210 16:49 11.12.2020
4952 Clouds 16 1010 67 10000 4.6 220 14:29 11.12.2020
4953 Clouds 15 1010 67 10000 4.6 220 13:26 11.12.2020
4954 Clouds 15 1010 72 10000 5.7 220 12:22 11.12.2020
4955 Clouds 14 1010 76 10000 7.2 220 11:52 11.12.2020
4956 Clouds 14 1010 76 10000 7.2 220 11:30 11.12.2020
4957 Clouds 14 1011 71 10000 8.7 220 10:34 11.12.2020
4958 Clouds 12 1009 76 10000 6.7 220 07:28 11.12.2020
4959 Rain 12 1008 87 10000 2.1 190 05:20 11.12.2020
4960 Rain 13 1009 71 10000 4.1 220 02:58 11.12.2020
4961 Clouds 14 1009 71 10000 4.6 270 00:40 11.12.2020
4962 Clouds 15 1010 67 10000 3.1 140 23:25 10.12.2020
4963 Clouds 16 1010 55 10000 4.6 110 21:37 10.12.2020
4964 Clouds 15 1010 59 10000 5.1 120 20:50 10.12.2020
4965 Clouds 15 1010 55 10000 4.6 130 19:52 10.12.2020
4966 Clouds 15 1010 59 10000 4.6 130 19:21 10.12.2020
4967 Clouds 16 1010 51 10000 5.1 130 18:45 10.12.2020
4968 Clouds 16 1011 63 10000 3.1 100 17:23 10.12.2020
4969 Clouds 16 1012 59 10000 3.1 110 15:52 10.12.2020
4970 Clouds 17 1012 55 10000 4.6 120 14:59 10.12.2020
4971 Clouds 17 1012 59 10000 3.6 110 14:39 10.12.2020
4972 Clouds 18 1013 55 10000 4.1 140 13:25 10.12.2020
4973 Clouds 17 1014 59 10000 4.6 120 11:51 10.12.2020
4974 Clouds 16 1015 58 10000 6.2 130 10:29 10.12.2020
4975 Clear 14 1015 58 10000 4.1 130 08:19 10.12.2020
4976 Clear 13 1015 71 10000 3.6 120 06:57 10.12.2020
4977 Clear 13 1015 67 10000 3.1 140 04:45 10.12.2020
4978 Clear 13 1016 67 10000 2.6 90 02:31 10.12.2020
4979 Clear 14 1017 67 10000 2.1 110 01:18 10.12.2020
4980 Clear 13 1017 67 10000 4.1 110 23:35 09.12.2020
4981 Clouds 13 1017 67 10000 3.1 110 20:37 09.12.2020
4982 Clouds 13 1017 62 10000 3.1 100 19:38 09.12.2020
4983 Clouds 13 1018 62 10000 1.5 110 18:21 09.12.2020
4984 Clear 14 1017 58 10000 2.6 100 16:54 09.12.2020
4985 Clear 14 1017 58 10000 2.6 100 16:25 09.12.2020
4986 Clear 15 1018 55 10000 2.1 100 15:41 09.12.2020
4987 Clear 15 1018 51 10000 2.1 100 14:49 09.12.2020
4988 Clear 15 1018 55 10000 2.6 110 14:25 09.12.2020
4989 Clear 15 1018 58 10000 2.6 100 13:19 09.12.2020
4990 Clear 15 1018 58 10000 2.6 100 12:57 09.12.2020
4991 Clear 14 1019 67 10000 2.6 90 12:22 09.12.2020
4992 Clear 14 1019 67 10000 2.6 80 11:32 09.12.2020
4993 Clear 11 1020 76 10000 2.6 90 09:50 09.12.2020
4994 Clouds 9 1019 81 10000 3.1 60 08:34 09.12.2020
4995 Clouds 8 1019 87 10000 3.1 40 06:29 09.12.2020
4996 Clear 8 1019 87 10000 4.1 30 04:49 09.12.2020
4997 Clear 7 1019 93 10000 3.1 20 02:30 09.12.2020
4998 Clear 7 1018 93 10000 1.5 20 23:49 08.12.2020
4999 Clear 7 1018 93 10000 1 20 23:28 08.12.2020
5000 Clear 8 1017 87 10000 1 0 21:36 08.12.2020
5001 Clear 9 1017 81 10000 0.5 360 20:23 08.12.2020
5002 Clear 10 1017 71 10000 1 0 19:25 08.12.2020
5003 Clear 11 1016 71 10000 3.1 300 18:31 08.12.2020
5004 Clear 12 1015 71 10000 3.1 320 16:28 08.12.2020
5005 Clouds 14 1014 71 10000 5.7 280 14:46 08.12.2020
5006 Clouds 14 1014 76 10000 5.1 270 13:44 08.12.2020
5007 Clouds 14 1014 82 10000 6.2 270 12:37 08.12.2020
5008 Clouds 14 1014 82 10000 7.2 260 11:52 08.12.2020
5009 Clouds 14 1014 82 10000 5.7 230 10:52 08.12.2020
5010 Clouds 14 1014 82 10000 5.7 230 10:31 08.12.2020
5011 Clouds 14 1014 77 10000 4.1 230 09:34 08.12.2020
5012 Clouds 12 1013 87 10000 3.6 210 07:34 08.12.2020
5013 Mist 10 1012 93 5000 3.1 210 04:22 08.12.2020
5014 Clouds 10 1011 87 10000 1 0 01:38 08.12.2020
5015 Clouds 11 1011 81 10000 1.5 0 00:44 08.12.2020
5016 Clouds 11 1012 87 10000 1 0 22:50 07.12.2020
5017 Rain 12 1012 81 10000 2.1 60 22:18 07.12.2020
5018 Rain 12 1012 76 10000 5.7 60 20:47 07.12.2020
5019 Rain 12 1012 76 10000 7.2 70 18:58 07.12.2020
5020 Clouds 12 1013 71 10000 7.2 70 17:31 07.12.2020
5021 Clouds 12 1013 71 10000 8.2 70 16:59 07.12.2020
5022 Clouds 12 1013 76 10000 8.2 60 16:19 07.12.2020
5023 Clouds 13 1013 76 10000 7.2 50 15:24 07.12.2020
5024 Clouds 13 1013 71 10000 8.2 50 14:28 07.12.2020
5025 Clouds 14 1014 71 10000 7.2 40 13:35 07.12.2020
5026 Clouds 14 1015 67 10000 5.7 80 11:52 07.12.2020
5027 Clouds 14 1015 67 10000 5.7 80 11:32 07.12.2020
5028 Clouds 12 1016 76 10000 5.7 70 10:23 07.12.2020
5029 Clouds 11 1016 76 10000 4.6 70 08:37 07.12.2020
5030 Clear 10 1017 81 10000 3.6 80 07:23 07.12.2020
5031 Clouds 10 1017 87 10000 4.1 70 05:26 07.12.2020
5032 Clear 10 1017 87 10000 4.1 70 03:43 07.12.2020
5033 Clear 11 1018 81 10000 3.6 70 00:33 07.12.2020
5034 Clear 11 1018 87 10000 3.6 70 22:46 06.12.2020
5035 Clear 11 1018 87 10000 4.1 60 21:44 06.12.2020
5036 Clouds 11 1018 81 10000 6.2 60 20:35 06.12.2020
5037 Clouds 11 1018 81 10000 5.7 60 19:57 06.12.2020
5038 Clouds 11 1018 81 10000 6.2 60 18:53 06.12.2020
5039 Clouds 12 1019 81 10000 5.7 60 17:24 06.12.2020
5040 Clouds 12 1018 76 10000 7.2 60 16:27 06.12.2020
5041 Clouds 14 1018 71 10000 6.7 60 14:46 06.12.2020
5042 Clouds 14 1019 72 10000 6.2 60 12:53 06.12.2020
5043 Clouds 15 1019 72 10000 6.2 60 12:27 06.12.2020
5044 Clouds 15 1019 67 10000 5.7 50 11:40 06.12.2020
5045 Clouds 14 1020 72 10000 5.1 40 11:21 06.12.2020
5046 Clouds 14 1020 82 10000 2.6 70 10:32 06.12.2020
5047 Clouds 13 1020 87 10000 3.1 60 08:57 06.12.2020
5048 Clouds 11 1020 87 10000 3.1 40 07:20 06.12.2020
5049 Clouds 11 1020 87 8000 3.6 40 03:50 06.12.2020
5050 Clouds 12 1020 87 8000 3.1 40 00:43 06.12.2020
5051 Clouds 12 1020 87 8000 3.6 40 00:25 06.12.2020
5052 Clouds 12 1020 87 8000 4.1 40 23:44 05.12.2020
5053 Clouds 12 1020 82 8000 5.1 50 22:23 05.12.2020
5054 Clouds 12 1020 87 10000 5.1 60 21:51 05.12.2020
5055 Clouds 12 1020 87 10000 4.1 60 21:27 05.12.2020
5056 Clouds 13 1019 76 8000 4.1 50 19:49 05.12.2020
5057 Clouds 13 1019 76 8000 4.6 50 18:45 05.12.2020
5058 Clouds 13 1019 76 9000 6.2 50 17:35 05.12.2020
5059 Clear 13 1019 76 10000 5.1 40 16:43 05.12.2020
5060 Clear 13 1019 76 10000 5.7 40 16:20 05.12.2020
5061 Clear 15 1018 77 10000 4.6 10 14:30 05.12.2020
5062 Clear 15 1018 72 10000 4.1 20 12:32 05.12.2020
5063 Clear 14 1018 72 8000 3.6 30 11:49 05.12.2020
5064 Clear 13 1019 82 8000 4.1 30 10:33 05.12.2020
5065 Mist 10 1018 100 3500 2.6 30 07:49 05.12.2020
5066 Mist 9 1018 100 3500 1.5 20 07:25 05.12.2020
5067 Mist 9 1017 93 4500 2.1 350 04:46 05.12.2020
5068 Clear 10 1017 87 6000 2.1 20 23:56 04.12.2020
5069 Clear 12 1017 81 6000 3.1 30 22:39 04.12.2020
5070 Clear 12 1017 87 6000 4.1 30 20:29 04.12.2020
5071 Clear 12 1016 87 8000 4.6 40 18:53 04.12.2020
5072 Clear 12 1016 87 8000 4.6 40 18:21 04.12.2020
5073 Clear 13 1016 82 10000 4.1 30 17:41 04.12.2020
5074 Clear 15 1016 67 10000 4.1 40 15:54 04.12.2020
5075 Clear 16 1016 48 10000 2.1 90 13:58 04.12.2020
5076 Clear 17 1016 48 10000 2.6 90 13:31 04.12.2020
5077 Clear 16 1016 48 10000 3.1 100 12:55 04.12.2020
5078 Clear 15 1017 55 10000 2.1 90 11:33 04.12.2020
5079 Clear 13 1017 67 10000 2.1 90 10:28 04.12.2020
5080 Mist 6 1018 100 3500 1 350 07:43 04.12.2020
5081 Mist 6 1017 100 4000 1 360 06:39 04.12.2020
5082 Mist 6 1018 100 4000 1.5 360 04:50 04.12.2020
5083 Clear 8 1018 93 6000 1 10 23:51 03.12.2020
5084 Clear 8 1019 93 10000 2.1 30 22:47 03.12.2020
5085 Clear 10 1019 87 10000 2.6 40 21:20 03.12.2020
5086 Clear 10 1019 87 10000 3.6 60 19:49 03.12.2020
5087 Clear 10 1019 87 10000 3.6 60 19:20 03.12.2020
5088 Clear 10 1020 87 10000 3.6 60 18:39 03.12.2020
5089 Clouds 11 1020 81 10000 2.6 30 17:20 03.12.2020
5090 Clouds 12 1020 76 10000 3.6 40 15:59 03.12.2020
5091 Clouds 12 1020 71 10000 3.6 40 15:31 03.12.2020
5092 Clouds 13 1020 71 10000 3.6 50 14:48 03.12.2020
5093 Clouds 12 1020 71 10000 3.1 40 13:49 03.12.2020
5094 Clouds 12 1021 76 10000 2.6 10 12:33 03.12.2020
5095 Clouds 12 1021 76 10000 4.1 50 11:55 03.12.2020
5096 Clouds 11 1022 87 10000 3.1 70 10:36 03.12.2020
5097 Clouds 9 1023 87 10000 4.1 50 08:21 03.12.2020
5098 Clouds 8 1022 87 10000 3.6 60 03:41 03.12.2020
5099 Clouds 8 1023 81 10000 4.6 30 01:39 03.12.2020
5100 Clouds 8 1023 87 10000 4.1 20 23:41 02.12.2020
5101 Clouds 8 1023 87 10000 4.6 30 22:40 02.12.2020
5102 Clouds 8 1023 87 10000 3.6 20 21:37 02.12.2020
5103 Clouds 8 1023 81 10000 4.6 20 20:48 02.12.2020
5104 Clouds 8 1023 81 10000 4.6 20 20:30 02.12.2020
5105 Clouds 7 1023 87 10000 4.1 20 19:39 02.12.2020
5106 Clouds 7 1023 87 8000 4.6 10 17:48 02.12.2020
5107 Clouds 6 1023 87 8000 4.6 10 17:29 02.12.2020
5108 Clouds 7 1022 81 8000 5.1 20 15:43 02.12.2020
5109 Clouds 6 1022 87 8000 5.1 20 13:20 02.12.2020
5110 Clouds 6 1023 87 8000 5.1 10 11:20 02.12.2020
5111 Clouds 6 1023 87 8000 5.7 10 10:24 02.12.2020
5112 Clouds 6 1023 81 10000 5.7 10 07:42 02.12.2020
5113 Clouds 6 1022 87 10000 5.1 360 23:22 01.12.2020
5114 Clouds 6 1022 81 10000 5.1 10 22:20 01.12.2020
5115 Clouds 6 1021 87 10000 7.2 360 19:36 01.12.2020
5116 Clouds 6 1021 87 10000 7.2 360 18:55 01.12.2020
5117 Clouds 6 1021 87 10000 6.7 360 16:47 01.12.2020
5118 Rain 6 1020 87 10000 6.7 360 14:53 01.12.2020
5119 Clouds 6 1020 87 10000 8.2 360 12:44 01.12.2020
5120 Clouds 7 1021 81 10000 8.7 360 11:29 01.12.2020
5121 Clouds 7 1021 81 10000 8.7 360 10:52 01.12.2020
5122 Clouds 7 1021 81 10000 9.3 360 10:26 01.12.2020
5123 Clouds 7 1021 81 10000 9.3 360 07:40 01.12.2020
5124 Clouds 7 1020 87 10000 8.7 360 02:57 01.12.2020
5125 Clouds 7 1020 87 10000 8.7 360 02:57 01.12.2020
5126 Clouds 8 1020 81 10000 10.3 360 00:57 01.12.2020
5127 Clouds 8 1020 81 10000 11.3 360 00:29 01.12.2020
5128 Clouds 8 1020 87 10000 9.3 360 23:20 30.11.2020
5129 Clouds 8 1020 87 10000 9.8 360 22:40 30.11.2020
5130 Clouds 8 1020 87 10000 9.3 360 22:22 30.11.2020
5131 Clouds 9 1019 87 10000 9.8 360 19:46 30.11.2020
5132 Clouds 9 1019 87 10000 8.2 10 18:54 30.11.2020
5133 Clouds 9 1019 87 10000 8.2 360 18:21 30.11.2020
5134 Clouds 9 1019 87 10000 9.8 10 17:45 30.11.2020
5135 Clouds 9 1018 81 10000 9.3 10 16:52 30.11.2020
5136 Clouds 11 1017 81 10000 8.7 10 14:47 30.11.2020
5137 Clouds 11 1017 87 10000 9.8 10 13:55 30.11.2020
5138 Clouds 13 1017 87 10000 7.7 360 12:57 30.11.2020
5139 Clouds 13 1016 82 10000 7.7 10 12:25 30.11.2020
5140 Clouds 13 1017 82 10000 7.2 360 10:59 30.11.2020
5141 Clear 13 1017 71 10000 4.1 360 10:21 30.11.2020
5142 Clear 9 1016 81 10000 3.1 360 07:59 30.11.2020
5143 Clear 7 1017 70 10000 2.6 60 01:25 30.11.2020
5144 Clear 9 1017 61 10000 1.5 50 23:26 29.11.2020
5145 Clear 9 1017 61 10000 1.5 50 23:26 29.11.2020
5146 Clear 11 1018 58 10000 4.1 100 21:44 29.11.2020
5147 Clear 11 1018 66 10000 3.6 110 21:25 29.11.2020
5148 Clear 12 1018 50 10000 4.1 120 18:46 29.11.2020
5149 Clear 12 1018 50 10000 2.6 90 17:34 29.11.2020
5150 Clear 16 1019 47 10000 2.1 110 13:37 29.11.2020
5151 Clear 15 1019 54 10000 1 0 12:44 29.11.2020
5152 Clear 15 1020 54 10000 1.5 240 11:25 29.11.2020
5153 Clear 10 1020 58 10000 3.6 230 08:53 29.11.2020
5154 Clear 10 1020 58 10000 3.6 230 08:34 29.11.2020
5155 Clear 10 1019 66 10000 4.1 220 02:31 29.11.2020
5156 Clear 8 1020 100 10000 1 0 22:59 28.11.2020
5157 Clear 7 1020 93 10000 1.5 160 22:18 28.11.2020
5158 Clear 9 1020 76 10000 1.5 180 19:58 28.11.2020
5159 Clear 10 1020 76 10000 1.5 210 19:27 28.11.2020
5160 Clear 10 1020 71 10000 1.5 210 18:56 28.11.2020
5161 Clear 11 1020 66 10000 1.5 230 18:19 28.11.2020
5162 Clear 12 1019 62 10000 2.1 240 16:56 28.11.2020
5163 Clear 14 1019 62 10000 3.1 260 14:58 28.11.2020
5164 Clear 15 1020 54 10000 4.1 240 13:47 28.11.2020
5165 Clear 14 1020 54 10000 5.7 220 11:25 28.11.2020
5166 Clear 11 1021 66 10000 3.6 230 08:47 28.11.2020
5167 Mist 6 1020 100 4000 1 0 03:39 28.11.2020
5168 Mist 6 1020 100 4000 0.5 0 01:52 28.11.2020
5169 Mist 6 1021 87 4000 1.38 213 01:52 28.11.2020
5170 Clear 7 1021 93 8000 3.6 350 23:19 27.11.2020
5171 Clear 8 1021 93 10000 3.1 340 22:23 27.11.2020
5172 Clear 9 1021 87 10000 2.1 60 20:39 27.11.2020
5173 Clear 10 1021 76 10000 2.6 50 19:33 27.11.2020
5174 Clear 11 1021 76 10000 2.1 60 18:57 27.11.2020
5175 Clear 13 1021 44 10000 3.41 47 16:27 27.11.2020
5176 Clear 15 1021 44 10000 2.1 150 14:23 27.11.2020
5177 Clear 15 1022 36 10000 1 0 13:18 27.11.2020
5178 Clear 14 1022 38 10000 1.5 90 12:46 27.11.2020
5179 Clear 13 1023 47 10000 2.6 140 10:53 27.11.2020
5180 Clear 13 1023 50 10000 3.1 120 10:31 27.11.2020
5181 Clear 10 1023 71 10000 3.1 60 09:27 27.11.2020
5182 Clear 10 1021 77 10000 4.02 98 22:59 26.11.2020
5183 Clear 11 1022 76 10000 4.02 100 22:22 26.11.2020
5184 Clear 9 1024 76 10000 4.1 70 21:39 26.11.2020
5185 Clear 10 1025 71 10000 2.6 80 20:39 26.11.2020
5186 Clear 10 1024 71 10000 5.1 60 18:36 26.11.2020
5187 Clear 11 1024 66 10000 5.7 40 16:38 26.11.2020
5188 Clouds 13 1024 58 10000 6.2 40 13:44 26.11.2020
5189 Clouds 13 1024 62 10000 5.1 40 12:52 26.11.2020
5190 Clouds 13 1024 62 10000 4.6 40 12:29 26.11.2020
5191 Clouds 13 1025 62 10000 6.7 60 10:39 26.11.2020
5192 Clouds 13 1025 62 10000 7.2 50 10:18 26.11.2020
5193 Clouds 12 1025 66 10000 5.7 60 09:34 26.11.2020
5194 Clouds 10 1025 76 10000 4.1 50 08:44 26.11.2020
5195 Clouds 9 1025 71 10000 4.6 50 07:49 26.11.2020
5196 Clouds 9 1024 66 10000 3.1 80 02:18 26.11.2020
5197 Clouds 11 1024 62 10000 5.1 60 21:54 25.11.2020
5198 Clouds 11 1024 58 10000 4.6 70 20:31 25.11.2020
5199 Clouds 11 1024 66 10000 6.2 70 18:59 25.11.2020
5200 Clouds 11 1024 54 10000 5.1 60 17:27 25.11.2020
5201 Clouds 12 1024 50 10000 8.2 50 15:43 25.11.2020
5202 Clouds 13 1023 54 10000 9.3 50 14:46 25.11.2020
5203 Clouds 13 1023 50 10000 7.7 40 13:45 25.11.2020
5204 Clouds 13 1024 47 10000 8.2 70 12:47 25.11.2020
5205 Clouds 13 1024 47 10000 7.7 60 11:22 25.11.2020
5206 Clouds 12 1025 62 10000 8.2 70 09:20 25.11.2020
5207 Clouds 12 1025 62 10000 8.2 70 08:50 25.11.2020
5208 Clouds 10 1025 76 10000 5.7 40 07:20 25.11.2020
5209 Clouds 10 1024 76 10000 6.7 40 03:49 25.11.2020
5210 Clouds 10 1024 81 10000 5.7 40 01:48 25.11.2020
5211 Clouds 10 1025 76 10000 8.2 30 00:18 25.11.2020
5212 Clouds 10 1025 87 10000 8.7 20 23:35 24.11.2020
5213 Clouds 10 1025 87 10000 7.7 30 22:39 24.11.2020
5214 Clouds 10 1025 87 10000 7.7 30 22:39 24.11.2020
5215 Clouds 11 1025 76 10000 6.7 30 21:35 24.11.2020
5216 Clouds 11 1025 66 10000 5.7 40 20:58 24.11.2020
5217 Clouds 11 1024 62 10000 5.7 50 19:48 24.11.2020
5218 Clouds 11 1024 62 10000 4.1 40 17:32 24.11.2020
5219 Clouds 11 1024 66 10000 5.1 30 16:58 24.11.2020
5220 Clouds 11 1024 66 10000 6.2 20 16:37 24.11.2020
5221 Clouds 11 1024 62 10000 5.7 30 15:56 24.11.2020
5222 Clouds 12 1024 66 10000 6.7 20 15:19 24.11.2020
5223 Clouds 12 1023 62 10000 7.2 30 14:44 24.11.2020
5224 Clouds 12 1023 50 10000 6.7 30 13:34 24.11.2020
5225 Clouds 13 1023 47 10000 5.1 60 12:38 24.11.2020
5226 Clouds 13 1023 47 10000 6.2 70 11:59 24.11.2020
5227 Clouds 13 1024 50 10000 5.7 60 11:23 24.11.2020
5228 Clouds 13 1024 54 10000 6.2 50 10:25 24.11.2020
5229 Clouds 12 1024 58 10000 4.1 50 09:38 24.11.2020
5230 Clouds 11 1024 62 10000 4.1 40 08:57 24.11.2020
5231 Clear 4 1023 93 7000 3.1 350 04:51 24.11.2020
5232 Clear 5 1024 93 10000 2.1 20 00:41 24.11.2020
5233 Clear 7 1024 87 10000 1 20 21:56 23.11.2020
5234 Clear 8 1025 81 10000 2.6 50 21:25 23.11.2020
5235 Clear 9 1025 71 10000 3.1 60 20:29 23.11.2020
5236 Clear 9 1025 71 10000 3.1 60 19:56 23.11.2020
5237 Clear 10 1025 71 10000 4.1 60 17:53 23.11.2020
5238 Clear 11 1026 71 10000 4.6 60 16:56 23.11.2020
5239 Clear 13 1026 54 10000 1.5 140 14:50 23.11.2020
5240 Clear 13 1026 54 10000 2.1 50 13:58 23.11.2020
5241 Clear 13 1026 50 10000 2.1 120 12:41 23.11.2020
5242 Clear 13 1027 58 10000 2.6 110 11:59 23.11.2020
5243 Clear 13 1027 58 10000 2.6 110 11:40 23.11.2020
5244 Clear 11 1029 62 10000 3.6 90 09:59 23.11.2020
5245 Clear 11 1029 66 10000 3.1 70 08:59 23.11.2020
5246 Clear 9 1029 66 10000 3.1 60 08:18 23.11.2020
5247 Clear 6 1029 93 10000 2.6 30 05:22 23.11.2020
5248 Clear 8 1031 93 10000 2.1 20 23:54 22.11.2020
5249 Rain 9 1031 81 10000 2.6 50 22:40 22.11.2020
5250 Clouds 10 1031 76 10000 2.6 60 21:26 22.11.2020
5251 Clouds 9 1031 81 10000 2.1 90 20:35 22.11.2020
5252 Clouds 9 1031 76 10000 2.1 80 19:36 22.11.2020
5253 Clouds 10 1031 76 10000 3.6 50 18:25 22.11.2020
5254 Clouds 10 1031 81 10000 4.6 30 16:36 22.11.2020
5255 Clouds 10 1031 76 10000 6.2 40 15:28 22.11.2020
5256 Clouds 10 1031 76 10000 7.7 40 13:44 22.11.2020
5257 Clouds 10 1031 76 10000 7.7 30 12:43 22.11.2020
5258 Clouds 10 1032 76 10000 8.7 30 11:55 22.11.2020
5259 Clouds 11 1032 71 10000 6.2 40 10:54 22.11.2020
5260 Clouds 11 1032 71 10000 6.2 40 10:36 22.11.2020
5261 Rain 10 1031 87 7000 6.2 30 07:43 22.11.2020
5262 Clouds 10 1028 81 10000 3.1 50 01:47 22.11.2020
5263 Clouds 10 1028 76 10000 4.6 50 22:42 21.11.2020
5264 Clouds 10 1028 76 10000 4.6 50 21:32 21.11.2020
5265 Clouds 10 1028 76 10000 4.6 50 21:32 21.11.2020
5266 Clouds 11 1028 76 10000 7.2 40 20:53 21.11.2020
5267 Clouds 10 1027 81 10000 5.1 30 20:21 21.11.2020
5268 Clouds 11 1027 81 10000 5.1 30 19:49 21.11.2020
5269 Clouds 11 1027 81 10000 5.7 60 19:20 21.11.2020
5270 Clouds 11 1027 81 10000 6.7 50 17:54 21.11.2020
5271 Rain 11 1026 87 10000 6.7 30 16:47 21.11.2020
5272 Clouds 11 1025 76 10000 7.2 50 15:43 21.11.2020
5273 Clouds 11 1025 71 10000 8.2 50 15:20 21.11.2020
5274 Clouds 12 1025 66 10000 6.7 60 14:42 21.11.2020
5275 Clouds 12 1024 76 10000 6.7 60 12:59 21.11.2020
5276 Rain 12 1024 76 10000 7.2 40 12:23 21.11.2020
5277 Clouds 12 1024 76 10000 7.2 40 11:50 21.11.2020
5278 Clouds 12 1024 81 10000 3.6 60 10:28 21.11.2020
5279 Clouds 11 1024 81 10000 4.1 80 09:19 21.11.2020
5280 Clouds 11 1023 76 10000 5.1 40 08:44 21.11.2020
5281 Clouds 11 1021 62 10000 3.1 50 05:42 21.11.2020
5282 Clouds 10 1021 66 10000 4.1 40 03:28 21.11.2020
5283 Clouds 11 1020 62 10000 5.7 50 00:22 21.11.2020
5284 Clouds 11 1019 62 10000 4.1 50 23:19 20.11.2020
5285 Clouds 11 1018 62 10000 8.2 40 21:46 20.11.2020
5286 Clouds 11 1018 62 10000 8.2 40 21:22 20.11.2020
5287 Clouds 11 1018 62 10000 5.1 30 20:41 20.11.2020
5288 Clouds 11 1018 66 10000 6.2 50 19:28 20.11.2020
5289 Clouds 11 1018 62 10000 6.7 50 18:27 20.11.2020
5290 Clouds 11 1017 58 10000 4.6 40 17:31 20.11.2020
5291 Clouds 11 1017 58 10000 6.7 40 16:47 20.11.2020
5292 Clouds 12 1017 58 10000 8.2 50 15:59 20.11.2020
5293 Clouds 12 1016 54 10000 7.2 50 15:39 20.11.2020
5294 Clouds 12 1016 54 10000 7.2 60 13:57 20.11.2020
5295 Clouds 13 1016 54 10000 6.7 60 13:20 20.11.2020
5296 Clouds 13 1016 54 10000 6.7 70 12:50 20.11.2020
5297 Clouds 14 1016 54 10000 9.8 60 11:52 20.11.2020
5298 Clouds 13 1016 50 10000 9.3 50 11:21 20.11.2020
5299 Clouds 13 1016 58 10000 8.2 60 09:47 20.11.2020
5300 Clouds 12 1017 54 10000 7.2 60 08:29 20.11.2020
5301 Clouds 12 1016 62 10000 7.7 60 07:47 20.11.2020
5302 Clouds 12 1017 62 10000 7.2 40 03:45 20.11.2020
5303 Clouds 11 1019 66 10000 7.2 50 23:36 19.11.2020
5304 Clouds 12 1019 66 10000 7.7 60 22:29 19.11.2020
5305 Clouds 11 1019 62 10000 7.7 50 21:50 19.11.2020
5306 Clouds 11 1020 58 10000 8.2 50 20:53 19.11.2020
5307 Clouds 11 1020 58 10000 8.2 50 20:19 19.11.2020
5308 Clouds 11 1021 54 10000 7.7 60 19:26 19.11.2020
5309 Clouds 11 1022 54 10000 7.2 60 18:35 19.11.2020
5310 Clouds 12 1022 58 10000 7.7 50 17:18 19.11.2020
5311 Clouds 12 1022 58 10000 10.3 50 16:25 19.11.2020
5312 Clouds 12 1022 58 10000 11.8 50 15:28 19.11.2020
5313 Clouds 12 1022 62 10000 11.3 50 13:47 19.11.2020
5314 Clouds 13 1023 62 10000 12.3 60 13:27 19.11.2020
5315 Clouds 13 1023 66 10000 10.8 50 12:51 19.11.2020
5316 Clouds 13 1023 66 10000 11.3 50 12:25 19.11.2020
5317 Clouds 13 1024 58 10000 9.3 50 11:40 19.11.2020
5318 Clouds 13 1024 58 10000 9.3 50 11:40 19.11.2020
5319 Clouds 13 1024 58 10000 9.3 50 11:20 19.11.2020
5320 Clouds 13 1024 62 10000 9.3 60 10:29 19.11.2020
5321 Clouds 13 1025 54 10000 9.8 50 09:45 19.11.2020
5322 Clouds 12 1025 62 10000 8.7 60 09:26 19.11.2020
5323 Clouds 12 1025 62 10000 9.3 50 08:20 19.11.2020
5324 Clouds 12 1025 66 10000 8.2 50 07:30 19.11.2020
5325 Clouds 12 1026 66 10000 9.3 50 01:46 19.11.2020
5326 Clouds 13 1026 71 10000 9.8 50 00:31 19.11.2020
5327 Clouds 12 1026 71 10000 10.8 50 23:31 18.11.2020
5328 Clouds 13 1026 71 10000 8.7 60 22:57 18.11.2020
5329 Clouds 13 1026 76 10000 9.3 50 22:27 18.11.2020
5330 Clouds 13 1026 76 10000 7.7 50 21:41 18.11.2020
5331 Clouds 13 1026 76 10000 7.2 50 21:21 18.11.2020
5332 Clouds 13 1026 76 10000 7.7 50 20:31 18.11.2020
5333 Clouds 13 1026 76 10000 6.2 50 19:37 18.11.2020
5334 Clouds 13 1026 82 10000 5.7 50 18:57 18.11.2020
5335 Clouds 13 1026 82 10000 5.7 50 18:38 18.11.2020
5336 Clouds 13 1026 82 10000 4.1 50 17:38 18.11.2020
5337 Clouds 13 1026 82 10000 3.6 50 16:25 18.11.2020
5338 Clouds 13 1027 82 10000 5.1 30 15:57 18.11.2020
5339 Rain 14 1026 71 10000 5.1 70 14:41 18.11.2020
5340 Clouds 14 1026 77 10000 4.6 10 13:46 18.11.2020
5341 Clouds 14 1026 77 10000 4.6 10 13:46 18.11.2020
5342 Clouds 14 1026 87 10000 5.1 360 13:21 18.11.2020
5343 Clouds 14 1026 82 10000 2.1 70 12:42 18.11.2020
5344 Rain 14 1027 77 10000 5.1 30 11:41 18.11.2020
5345 Clouds 14 1027 82 10000 5.7 10 10:54 18.11.2020
5346 Clouds 14 1027 76 10000 7.7 20 10:27 18.11.2020
5347 Clouds 12 1027 82 10000 3.6 30 08:23 18.11.2020
5348 Clouds 11 1026 82 10000 4.1 30 06:36 18.11.2020
5349 Clear 10 1026 93 10000 2.1 10 00:58 18.11.2020
5350 Clear 11 1026 81 10000 1.5 70 23:47 17.11.2020
5351 Clear 11 1026 87 10000 1.5 60 22:53 17.11.2020
5352 Clear 11 1026 87 10000 2.1 40 22:29 17.11.2020
5353 Clear 12 1026 81 10000 2.6 40 21:52 17.11.2020
5354 Clear 12 1026 76 10000 2.6 60 21:30 17.11.2020
5355 Clear 12 1026 76 10000 3.6 40 20:50 17.11.2020
5356 Clear 12 1026 76 10000 3.6 40 20:27 17.11.2020
5357 Clear 12 1026 76 10000 3.1 30 19:56 17.11.2020
5358 Clear 13 1026 76 10000 3.1 60 18:34 17.11.2020
5359 Clear 13 1026 76 10000 4.6 50 17:44 17.11.2020
5360 Clear 14 1025 72 10000 6.2 60 16:54 17.11.2020
5361 Clear 15 1025 72 10000 6.7 50 16:20 17.11.2020
5362 Clear 15 1025 67 10000 6.7 40 15:41 17.11.2020
5363 Clear 16 1025 67 10000 5.7 60 15:22 17.11.2020
5364 Clear 16 1025 63 10000 5.1 60 14:54 17.11.2020
5365 Clear 17 1025 55 10000 1.5 220 14:22 17.11.2020
5366 Clear 17 1025 59 10000 2.1 220 13:35 17.11.2020
5367 Clear 17 1025 59 10000 1 0 12:48 17.11.2020
5368 Clear 16 1025 59 10000 2.1 160 12:24 17.11.2020
5369 Clear 16 1025 63 10000 2.1 150 11:42 17.11.2020
5370 Clear 15 1025 67 10000 3.1 120 10:46 17.11.2020
5371 Clear 15 1025 67 10000 3.1 120 10:23 17.11.2020
5372 Clear 14 1025 71 10000 3.1 60 09:49 17.11.2020
5373 Clear 14 1025 71 10000 3.1 60 09:24 17.11.2020
5374 Clear 10 1025 81 10000 1.5 60 08:22 17.11.2020
5375 Clear 8 1024 93 10000 1.5 50 07:43 17.11.2020
5376 Clear 7 1024 100 10000 2.1 60 05:21 17.11.2020
5377 Clear 7 1023 93 10000 1.5 20 03:31 17.11.2020
5378 Clear 7 1023 100 10000 1 30 02:31 17.11.2020
5379 Clear 8 1023 100 10000 2.1 360 00:57 17.11.2020
5380 Clear 8 1023 93 10000 1 20 00:20 17.11.2020
5381 Clear 8 1023 93 10000 2.1 30 23:41 16.11.2020
5382 Clear 9 1023 93 10000 1.5 30 23:19 16.11.2020
5383 Clear 9 1023 93 10000 2.1 30 22:29 16.11.2020
5384 Clear 9 1023 93 10000 2.1 40 21:59 16.11.2020
5385 Clear 10 1023 93 10000 2.1 60 21:40 16.11.2020
5386 Clear 10 1023 87 10000 2.1 40 21:20 16.11.2020
5387 Clear 11 1023 87 10000 2.6 50 20:26 16.11.2020
5388 Clear 11 1022 87 10000 1.5 30 19:55 16.11.2020
5389 Clear 12 1022 81 10000 2.6 40 19:30 16.11.2020
5390 Clear 12 1022 76 10000 3.1 30 18:52 16.11.2020
5391 Clouds 13 1022 76 10000 3.1 30 18:21 16.11.2020
5392 Clear 13 1022 76 10000 3.1 30 17:36 16.11.2020
5393 Clear 13 1022 76 10000 4.1 30 17:18 16.11.2020
5394 Clear 13 1022 71 10000 3.6 30 16:49 16.11.2020
5395 Clear 13 1022 71 10000 3.6 30 16:26 16.11.2020
5396 Clouds 14 1021 67 10000 3.6 30 15:45 16.11.2020
5397 Clouds 14 1021 67 10000 3.6 30 15:27 16.11.2020
5398 Clouds 15 1021 67 10000 3.1 20 14:48 16.11.2020
5399 Clouds 15 1022 67 10000 3.6 50 13:46 16.11.2020
5400 Clouds 15 1022 67 10000 2.6 20 12:59 16.11.2020
5401 Clouds 14 1022 72 10000 3.1 30 12:29 16.11.2020
5402 Clouds 14 1022 72 10000 3.6 40 11:40 16.11.2020
5403 Clouds 14 1023 71 10000 3.1 10 11:21 16.11.2020
5404 Clouds 14 1023 71 10000 3.6 20 10:44 16.11.2020
5405 Clouds 14 1023 71 10000 3.6 20 10:25 16.11.2020
5406 Clouds 12 1023 76 10000 3.6 360 09:49 16.11.2020
5407 Clouds 12 1023 82 10000 2.6 360 09:23 16.11.2020
5408 Clouds 11 1023 81 10000 3.1 350 08:41 16.11.2020
5409 Clouds 10 1023 87 10000 3.1 350 07:53 16.11.2020
5410 Clouds 8 1023 93 10000 4.1 340 06:54 16.11.2020
5411 Clouds 8 1023 93 10000 4.1 340 06:35 16.11.2020
5412 Clouds 9 1022 93 10000 3.6 350 04:53 16.11.2020
5413 Clouds 9 1022 93 10000 4.1 350 03:52 16.11.2020
5414 Clouds 9 1023 100 10000 2.6 360 01:44 16.11.2020
5415 Clouds 10 1023 93 10000 2.6 360 00:20 16.11.2020
5416 Clouds 10 1023 93 10000 2.6 350 23:28 15.11.2020
5417 Clouds 10 1024 93 10000 2.1 350 22:54 15.11.2020
5418 Clouds 11 1024 93 10000 2.1 350 22:22 15.11.2020
5419 Clouds 10 1024 93 10000 1.5 10 21:47 15.11.2020
5420 Clouds 11 1024 93 10000 1.5 360 21:27 15.11.2020
5421 Clouds 11 1024 87 10000 2.6 360 20:48 15.11.2020
5422 Clouds 12 1024 87 10000 2.1 360 20:28 15.11.2020
5423 Clouds 12 1024 87 10000 2.1 360 19:49 15.11.2020
5424 Clouds 12 1024 87 10000 2.1 360 19:24 15.11.2020
5425 Clouds 12 1024 87 10000 2.6 360 18:59 15.11.2020
5426 Clouds 12 1024 87 10000 1.5 20 18:41 15.11.2020
5427 Clouds 12 1024 81 10000 2.6 20 18:21 15.11.2020
5428 Clouds 12 1024 81 10000 2.6 10 17:46 15.11.2020
5429 Clouds 12 1024 81 10000 3.1 360 17:25 15.11.2020
5430 Clouds 12 1024 81 10000 2.6 10 16:51 15.11.2020
5431 Clouds 12 1024 81 10000 3.1 360 16:22 15.11.2020
5432 Clouds 12 1024 81 10000 3.1 360 15:56 15.11.2020
5433 Clouds 13 1023 82 10000 2.1 20 15:37 15.11.2020
5434 Clouds 13 1024 82 10000 3.6 350 15:19 15.11.2020
5435 Clouds 13 1024 82 10000 3.1 360 14:36 15.11.2020
5436 Clouds 13 1024 87 10000 3.6 350 14:18 15.11.2020
5437 Clouds 13 1024 87 10000 5.7 340 13:39 15.11.2020
5438 Clouds 13 1024 87 10000 4.6 340 12:52 15.11.2020
5439 Clouds 13 1024 87 10000 3.1 360 12:26 15.11.2020
5440 Clouds 13 1024 87 10000 3.1 360 11:55 15.11.2020
5441 Clouds 13 1024 87 10000 2.6 360 11:37 15.11.2020
5442 Clouds 13 1024 82 10000 3.1 330 11:18 15.11.2020
5443 Clouds 13 1025 82 10000 2.6 340 10:43 15.11.2020
5444 Clouds 13 1025 82 10000 2.6 340 10:24 15.11.2020
5445 Clouds 12 1024 87 10000 3.6 340 09:41 15.11.2020
5446 Clouds 11 1024 93 10000 3.1 340 09:20 15.11.2020
5447 Clouds 11 1024 93 10000 3.1 340 08:53 15.11.2020
5448 Clouds 11 1024 93 10000 3.1 340 08:28 15.11.2020
5449 Clouds 11 1024 93 10000 3.1 360 07:43 15.11.2020
5450 Clouds 11 1024 93 10000 3.1 330 04:59 15.11.2020
5451 Clouds 11 1024 93 10000 2.6 350 03:40 15.11.2020
5452 Clouds 11 1024 87 10000 4.6 360 00:49 15.11.2020
5453 Clouds 11 1024 87 10000 5.1 360 00:28 15.11.2020
5454 Clouds 11 1024 87 10000 2.1 330 23:37 14.11.2020
5455 Clouds 12 1024 87 10000 2.1 330 22:50 14.11.2020
5456 Clouds 12 1024 87 10000 2.1 330 22:30 14.11.2020
5457 Clouds 13 1024 87 10000 2.1 10 21:43 14.11.2020
5458 Clouds 12 1024 93 10000 2.1 50 21:22 14.11.2020
5459 Clouds 12 1024 93 10000 2.1 50 20:56 14.11.2020
5460 Clouds 13 1024 87 10000 4.6 40 20:28 14.11.2020
5461 Clouds 13 1024 87 10000 4.6 40 19:51 14.11.2020
5462 Clouds 12 1024 87 10000 4.1 20 19:31 14.11.2020
5463 Clouds 12 1024 87 10000 4.6 10 18:43 14.11.2020
5464 Clouds 12 1024 87 10000 4.6 10 18:24 14.11.2020
5465 Clouds 12 1024 81 10000 4.1 360 17:51 14.11.2020
5466 Clouds 12 1024 87 10000 5.1 10 17:33 14.11.2020
5467 Clouds 13 1024 82 10000 5.7 20 16:57 14.11.2020
5468 Clouds 12 1024 93 10000 4.1 20 16:37 14.11.2020
5469 Clouds 13 1024 87 10000 4.1 10 16:18 14.11.2020
5470 Clouds 13 1024 87 10000 4.1 10 15:51 14.11.2020
5471 Clouds 13 1024 87 10000 4.1 30 15:25 14.11.2020
5472 Clouds 13 1023 87 10000 5.1 20 14:41 14.11.2020
5473 Clouds 13 1023 87 10000 5.1 20 14:23 14.11.2020
5474 Clouds 13 1023 82 8000 4.6 40 13:41 14.11.2020
5475 Clouds 13 1023 76 10000 5.1 30 13:22 14.11.2020
5476 Clouds 13 1023 76 10000 5.7 20 12:46 14.11.2020
5477 Clouds 13 1023 71 10000 4.6 20 12:27 14.11.2020
5478 Clouds 13 1024 76 10000 5.7 10 11:43 14.11.2020
5479 Clouds 13 1024 76 10000 5.7 10 11:24 14.11.2020
5480 Clouds 13 1024 82 10000 4.6 10 10:43 14.11.2020
5481 Clouds 13 1024 82 10000 5.1 30 10:25 14.11.2020
5482 Clouds 13 1024 82 10000 4.6 10 09:47 14.11.2020
5483 Rain 13 1024 82 10000 4.6 10 09:28 14.11.2020
5484 Clouds 13 1024 82 10000 5.1 10 08:49 14.11.2020
5485 Clouds 13 1024 82 10000 5.7 10 08:27 14.11.2020
5486 Clouds 12 1024 82 10000 5.1 360 07:44 14.11.2020
5487 Clouds 12 1024 82 10000 5.1 360 07:25 14.11.2020
5488 Clouds 13 1023 87 10000 4.1 340 06:31 14.11.2020
5489 Clouds 13 1023 76 10000 3.6 10 05:29 14.11.2020
5490 Clouds 13 1023 71 10000 4.1 20 03:52 14.11.2020
5491 Clear 13 1024 71 10000 4.6 30 00:56 14.11.2020
5492 Clear 13 1024 71 10000 4.6 40 23:46 13.11.2020
5493 Clear 14 1024 71 10000 4.6 40 23:23 13.11.2020
5494 Clouds 13 1024 71 10000 4.1 40 22:44 13.11.2020
5495 Clouds 13 1024 71 10000 4.1 40 22:25 13.11.2020
5496 Clouds 13 1024 71 10000 5.1 40 21:51 13.11.2020
5497 Clear 13 1024 71 10000 4.1 40 21:33 13.11.2020
5498 Clear 13 1024 71 10000 5.7 50 20:59 13.11.2020
5499 Clear 14 1024 67 10000 4.6 50 20:40 13.11.2020
5500 Clear 14 1024 67 10000 4.6 40 20:20 13.11.2020
5501 Clear 14 1024 62 10000 4.1 30 19:45 13.11.2020
5502 Clear 14 1024 62 10000 4.1 30 19:23 13.11.2020
5503 Clear 14 1024 62 10000 4.1 40 18:53 13.11.2020
5504 Clouds 14 1024 62 10000 5.1 50 18:00 13.11.2020
5505 Clouds 14 1024 62 10000 5.7 50 17:39 13.11.2020
5506 Clouds 14 1024 62 10000 5.7 50 17:18 13.11.2020
5507 Clouds 15 1024 62 10000 5.7 40 16:47 13.11.2020
5508 Clouds 15 1023 59 10000 5.7 20 16:21 13.11.2020
5509 Clouds 16 1023 63 10000 5.1 40 15:47 13.11.2020
5510 Clouds 16 1023 63 10000 5.1 40 15:27 13.11.2020
5511 Clouds 16 1023 67 10000 2.6 110 14:41 13.11.2020
5512 Clouds 16 1023 67 10000 2.1 210 14:20 13.11.2020
5513 Clouds 16 1023 67 10000 1 0 13:45 13.11.2020
5514 Clouds 16 1024 67 10000 2.1 160 13:21 13.11.2020
5515 Clouds 16 1024 67 10000 2.6 170 12:45 13.11.2020
5516 Clouds 16 1024 67 10000 2.6 170 12:24 13.11.2020
5517 Clouds 16 1024 63 10000 2.1 120 11:48 13.11.2020
5518 Clouds 16 1024 72 10000 2.1 110 11:25 13.11.2020
5519 Clouds 16 1024 72 10000 2.1 110 10:55 13.11.2020
5520 Clouds 16 1025 72 10000 2.6 100 10:34 13.11.2020
5521 Clouds 15 1025 72 10000 3.1 110 09:56 13.11.2020
5522 Clouds 15 1025 72 10000 2.6 90 09:34 13.11.2020
5523 Clouds 14 1025 72 10000 3.1 90 08:59 13.11.2020
5524 Clear 14 1025 76 10000 2.6 80 08:34 13.11.2020
5525 Clear 13 1025 76 10000 3.1 60 07:57 13.11.2020
5526 Clear 12 1025 82 10000 3.1 60 07:38 13.11.2020
5527 Clear 12 1025 81 10000 2.6 50 07:20 13.11.2020
5528 Clear 11 1025 81 10000 3.1 50 06:45 13.11.2020
5529 Clear 11 1025 87 10000 3.1 50 05:42 13.11.2020
5530 Clear 11 1025 81 10000 3.1 50 04:57 13.11.2020
5531 Clear 12 1025 76 10000 4.1 60 01:45 13.11.2020
5532 Clear 13 1025 76 10000 4.1 60 00:37 13.11.2020
5533 Clear 12 1025 76 10000 3.6 70 00:18 13.11.2020
5534 Clear 12 1025 76 10000 3.6 70 23:37 12.11.2020
5535 Clear 13 1025 76 10000 4.1 70 23:18 12.11.2020
5536 Clear 13 1025 76 10000 4.1 70 22:42 12.11.2020
5537 Clear 13 1025 71 10000 4.1 70 22:22 12.11.2020
5538 Clear 13 1025 71 10000 3.6 70 21:42 12.11.2020
5539 Clear 13 1025 71 10000 4.1 70 21:24 12.11.2020
5540 Clear 13 1025 71 10000 4.1 70 20:57 12.11.2020
5541 Clouds 13 1025 71 10000 3.6 70 20:38 12.11.2020
5542 Clouds 13 1025 71 10000 4.1 70 20:18 12.11.2020
5543 Clouds 13 1025 71 10000 4.1 60 19:43 12.11.2020
5544 Clouds 13 1025 71 10000 4.1 60 19:24 12.11.2020
5545 Clouds 13 1025 76 10000 4.6 80 18:48 12.11.2020
5546 Clouds 14 1025 67 10000 5.7 80 18:23 12.11.2020
5547 Clouds 14 1025 72 10000 6.2 80 17:45 12.11.2020
5548 Clouds 14 1025 72 10000 6.2 80 17:26 12.11.2020
5549 Clouds 15 1024 63 10000 7.2 70 16:46 12.11.2020
5550 Clouds 15 1024 63 10000 7.2 70 16:26 12.11.2020
5551 Clouds 16 1024 55 10000 7.2 60 15:57 12.11.2020
5552 Clouds 16 1024 55 10000 6.7 70 15:39 12.11.2020
5553 Clouds 17 1024 55 10000 6.7 60 15:20 12.11.2020
5554 Clouds 17 1024 59 10000 6.2 70 14:43 12.11.2020
5555 Clouds 17 1024 59 10000 6.2 70 14:25 12.11.2020
5556 Clouds 17 1024 55 10000 4.1 80 13:49 12.11.2020
5557 Clouds 17 1025 55 10000 4.1 90 13:21 12.11.2020
5558 Clouds 17 1025 55 10000 4.1 90 12:59 12.11.2020
5559 Clouds 17 1025 55 10000 4.6 90 12:38 12.11.2020
5560 Clouds 17 1025 59 10000 5.7 70 12:18 12.11.2020
5561 Clouds 16 1026 63 10000 4.6 80 11:41 12.11.2020
5562 Clouds 16 1026 63 10000 5.1 80 11:22 12.11.2020
5563 Clouds 16 1026 63 10000 5.7 100 10:41 12.11.2020
5564 Clouds 16 1026 67 10000 4.6 100 10:23 12.11.2020
5565 Clouds 16 1026 67 10000 6.2 70 09:42 12.11.2020
5566 Clouds 15 1026 72 10000 5.7 90 09:22 12.11.2020
5567 Clouds 15 1026 77 10000 5.7 70 08:41 12.11.2020
5568 Clouds 14 1026 77 10000 4.6 70 08:22 12.11.2020
5569 Clouds 14 1026 77 10000 4.6 70 07:59 12.11.2020
5570 Clouds 14 1026 82 10000 4.1 50 07:40 12.11.2020
5571 Clouds 13 1026 82 10000 3.6 20 06:58 12.11.2020
5572 Clouds 13 1026 81 10000 1.5 20 06:40 12.11.2020
5573 Clouds 12 1026 71 10000 4.6 30 04:39 12.11.2020
5574 Clouds 13 1027 67 10000 4.6 40 03:20 12.11.2020
5575 Clouds 13 1027 71 10000 6.2 50 01:23 12.11.2020
5576 Clouds 13 1027 76 7000 5.1 60 23:47 11.11.2020
5577 Clouds 13 1027 76 7000 5.1 60 23:25 11.11.2020
5578 Clouds 14 1027 67 10000 4.1 60 22:57 11.11.2020
5579 Clouds 14 1027 67 10000 6.2 70 22:39 11.11.2020
5580 Clouds 14 1027 67 10000 6.2 80 22:19 11.11.2020
5581 Clouds 14 1027 67 10000 6.7 90 21:41 11.11.2020
5582 Clouds 14 1027 67 10000 5.7 80 21:23 11.11.2020
5583 Clouds 14 1027 67 10000 5.7 80 20:57 11.11.2020
5584 Clouds 14 1026 67 10000 7.7 80 20:39 11.11.2020
5585 Clouds 15 1026 72 10000 5.1 90 20:20 11.11.2020
5586 Clouds 15 1026 72 10000 8.7 60 19:48 11.11.2020
5587 Clouds 15 1026 72 10000 8.7 60 19:30 11.11.2020
5588 Clouds 15 1026 72 10000 8.7 60 19:30 11.11.2020
5589 Clouds 15 1026 72 10000 5.7 80 18:50 11.11.2020
5590 Clouds 15 1026 72 10000 5.7 80 18:31 11.11.2020
5591 Clouds 15 1026 72 10000 4.6 90 17:42 11.11.2020
5592 Clouds 15 1026 72 10000 7.7 70 17:22 11.11.2020
5593 Clouds 15 1025 72 10000 8.2 70 16:50 11.11.2020
5594 Clouds 15 1025 72 10000 8.2 70 16:32 11.11.2020
5595 Clouds 15 1025 72 10000 8.2 70 16:32 11.11.2020
5596 Clouds 15 1025 77 10000 5.7 40 15:50 11.11.2020
5597 Clouds 15 1025 77 10000 5.7 60 15:27 11.11.2020
5598 Clouds 16 1025 67 10000 4.1 20 14:56 11.11.2020
5599 Clouds 16 1025 67 10000 4.1 20 14:35 11.11.2020
5600 Clouds 15 1025 77 10000 4.6 30 13:57 11.11.2020
5601 Clouds 15 1025 72 10000 5.1 30 13:35 11.11.2020
5602 Clouds 15 1026 72 10000 6.7 30 12:48 11.11.2020
5603 Clouds 16 1026 63 10000 6.7 30 12:21 11.11.2020
5604 Clouds 16 1027 72 10000 8.2 50 11:49 11.11.2020
5605 Clouds 16 1027 72 10000 8.2 50 11:30 11.11.2020
5606 Clouds 16 1027 72 10000 8.2 50 11:30 11.11.2020
5607 Clouds 16 1027 72 10000 7.2 40 10:43 11.11.2020
5608 Clouds 16 1027 72 10000 6.7 50 10:24 11.11.2020
5609 Clouds 15 1027 72 10000 6.7 50 09:49 11.11.2020
5610 Clouds 15 1027 77 10000 5.1 40 09:28 11.11.2020
5611 Clouds 14 1027 77 10000 7.2 30 08:49 11.11.2020
5612 Clouds 14 1027 77 10000 7.2 30 08:29 11.11.2020
5613 Clouds 14 1027 76 10000 8.2 30 07:54 11.11.2020
5614 Clouds 14 1027 71 10000 8.2 30 07:36 11.11.2020
5615 Clouds 14 1026 76 10000 8.2 30 06:29 11.11.2020
5616 Clouds 14 1026 76 10000 7.2 50 04:47 11.11.2020
5617 Clouds 14 1027 76 10000 7.2 40 01:33 11.11.2020
5618 Clouds 14 1026 82 10000 7.7 30 00:42 11.11.2020
5619 Clouds 14 1026 72 10000 8.2 50 23:56 10.11.2020
5620 Clouds 14 1026 77 10000 7.7 60 23:24 10.11.2020
5621 Clouds 14 1026 77 10000 7.7 60 22:57 10.11.2020
5622 Drizzle 15 1026 82 10000 10.3 40 22:28 10.11.2020
5623 Drizzle 15 1026 82 10000 10.3 40 21:56 10.11.2020
5624 Clouds 15 1026 82 10000 9.3 50 21:38 10.11.2020
5625 Clouds 15 1026 77 10000 7.2 60 21:19 10.11.2020
5626 Clouds 15 1026 77 10000 8.2 60 20:43 10.11.2020
5627 Clouds 15 1026 77 10000 8.2 60 20:23 10.11.2020
5628 Clouds 15 1026 77 10000 5.1 60 19:56 10.11.2020
5629 Clouds 15 1026 77 10000 6.2 60 19:37 10.11.2020
5630 Clouds 15 1026 77 10000 5.7 60 19:18 10.11.2020
5631 Clouds 15 1026 77 10000 6.2 60 18:41 10.11.2020
5632 Clouds 15 1026 72 10000 6.2 50 18:20 10.11.2020
5633 Clouds 15 1026 72 10000 6.7 50 17:44 10.11.2020
5634 Clouds 15 1026 72 10000 6.7 50 17:26 10.11.2020
5635 Clouds 15 1025 77 10000 8.7 50 16:58 10.11.2020
5636 Clouds 16 1025 77 10000 6.7 50 16:38 10.11.2020
5637 Clouds 16 1025 77 10000 7.2 40 16:20 10.11.2020
5638 Clouds 16 1025 77 10000 7.2 40 15:46 10.11.2020
5639 Clouds 16 1025 77 10000 7.2 40 15:25 10.11.2020
5640 Drizzle 16 1025 72 10000 9.3 40 14:42 10.11.2020
5641 Clouds 16 1025 67 10000 10.3 60 14:23 10.11.2020
5642 Clouds 16 1025 67 10000 8.7 50 13:57 10.11.2020
5643 Clouds 16 1025 67 10000 8.7 50 13:36 10.11.2020
5644 Clouds 17 1025 72 10000 8.7 50 13:18 10.11.2020
5645 Clouds 17 1025 72 10000 8.7 50 12:44 10.11.2020
5646 Clouds 17 1025 72 10000 8.7 50 12:24 10.11.2020
5647 Clouds 16 1025 63 10000 7.7 50 11:40 10.11.2020
5648 Clouds 16 1025 63 10000 8.7 60 11:21 10.11.2020
5649 Clouds 16 1025 63 10000 7.7 50 10:46 10.11.2020
5650 Clouds 16 1025 67 10000 8.2 50 10:27 10.11.2020
5651 Clouds 16 1025 67 10000 8.2 50 09:55 10.11.2020
5652 Clouds 16 1025 72 10000 8.7 50 09:37 10.11.2020
5653 Clouds 16 1025 67 10000 8.2 50 09:19 10.11.2020
5654 Clouds 16 1025 67 10000 9.3 50 08:45 10.11.2020
5655 Clouds 16 1025 67 10000 9.3 50 08:24 10.11.2020
5656 Clouds 15 1024 72 10000 8.2 40 07:42 10.11.2020
5657 Clouds 15 1024 77 10000 8.2 50 07:20 10.11.2020
5658 Clouds 15 1024 77 10000 7.2 50 06:39 10.11.2020
5659 Clouds 15 1024 77 10000 7.7 50 05:34 10.11.2020
5660 Clouds 15 1024 82 10000 7.2 30 04:36 10.11.2020
5661 Clouds 15 1023 82 10000 4.6 70 01:41 10.11.2020
5662 Clouds 15 1023 82 10000 5.1 60 00:55 10.11.2020
5663 Clouds 15 1023 82 10000 3.1 60 23:51 09.11.2020
5664 Clouds 15 1023 82 10000 3.1 60 23:23 09.11.2020
5665 Clouds 15 1023 82 10000 3.6 70 22:42 09.11.2020
5666 Clouds 15 1023 82 10000 3.6 70 22:22 09.11.2020
5667 Clouds 15 1023 82 10000 4.1 60 21:45 09.11.2020
5668 Clear 15 1023 82 10000 4.1 60 21:27 09.11.2020
5669 Clear 15 1023 77 10000 4.1 60 20:44 09.11.2020
5670 Clouds 15 1023 77 10000 4.6 70 20:22 09.11.2020
5671 Clear 15 1023 77 10000 3.6 70 19:49 09.11.2020
5672 Clear 15 1023 77 10000 3.6 70 19:24 09.11.2020
5673 Clouds 15 1023 77 10000 3.6 60 18:59 09.11.2020
5674 Clouds 15 1023 77 10000 4.6 70 18:40 09.11.2020
5675 Clouds 16 1023 77 10000 4.1 60 18:19 09.11.2020
5676 Clouds 16 1023 72 10000 5.1 50 17:44 09.11.2020
5677 Clouds 16 1023 72 10000 5.1 50 17:26 09.11.2020
5678 Clouds 16 1022 77 10000 6.7 50 16:44 09.11.2020
5679 Clouds 17 1022 77 10000 6.7 50 16:24 09.11.2020
5680 Clouds 17 1022 68 10000 7.7 40 15:48 09.11.2020
5681 Clouds 17 1022 68 10000 7.7 40 15:29 09.11.2020
5682 Clouds 18 1022 72 10000 7.2 30 14:53 09.11.2020
5683 Clouds 18 1022 68 10000 7.2 30 14:29 09.11.2020
5684 Clouds 18 1022 68 10000 7.2 30 13:59 09.11.2020
5685 Clouds 18 1022 63 10000 7.2 50 13:38 09.11.2020
5686 Clouds 18 1022 63 10000 7.7 50 13:18 09.11.2020
5687 Clouds 18 1023 63 10000 6.7 50 12:41 09.11.2020
5688 Clouds 18 1023 68 10000 6.2 50 12:21 09.11.2020
5689 Clouds 18 1023 68 10000 6.7 30 11:43 09.11.2020
5690 Clouds 18 1023 68 9000 6.2 50 11:24 09.11.2020
5691 Clouds 18 1023 68 9000 6.2 50 10:58 09.11.2020
5692 Clouds 18 1023 68 9000 6.2 50 10:58 09.11.2020
5693 Clouds 17 1023 72 10000 5.1 20 10:40 09.11.2020
5694 Clouds 17 1023 72 10000 5.1 20 10:21 09.11.2020
5695 Clouds 17 1023 67 10000 4.1 30 09:30 09.11.2020
5696 Clouds 16 1023 67 10000 4.1 40 08:55 09.11.2020
5697 Clouds 16 1024 72 10000 3.6 50 08:28 09.11.2020
5698 Clouds 15 1023 82 10000 3.1 40 07:57 09.11.2020
5699 Clouds 13 1023 82 10000 3.1 30 07:23 09.11.2020
5700 Clouds 13 1023 82 10000 3.1 30 06:55 09.11.2020
5701 Clouds 14 1023 82 10000 3.1 20 05:38 09.11.2020
5702 Clear 14 1023 82 10000 5.1 30 01:59 09.11.2020
5703 Clear 14 1023 82 10000 4.1 30 01:41 09.11.2020
5704 Clear 14 1023 82 10000 4.6 30 00:55 09.11.2020
5705 Clear 14 1023 77 10000 5.7 60 23:47 08.11.2020
5706 Clear 14 1023 77 10000 5.7 60 23:28 08.11.2020
5707 Clear 15 1023 72 10000 5.1 70 22:43 08.11.2020
5708 Clear 15 1023 72 10000 5.1 70 22:22 08.11.2020
5709 Clear 15 1024 72 10000 4.6 70 21:47 08.11.2020
5710 Clear 15 1024 72 10000 4.6 70 21:23 08.11.2020
5711 Clear 15 1024 72 10000 4.6 70 20:57 08.11.2020
5712 Clear 15 1024 72 10000 4.6 70 20:38 08.11.2020
5713 Clouds 15 1024 72 10000 4.1 60 20:20 08.11.2020
5714 Clouds 15 1024 72 10000 4.1 60 19:45 08.11.2020
5715 Clouds 15 1024 72 10000 4.1 40 19:22 08.11.2020
5716 Clouds 15 1024 72 10000 4.1 40 18:57 08.11.2020
5717 Clouds 15 1024 77 10000 4.1 60 18:39 08.11.2020
5718 Clouds 15 1024 77 10000 4.1 60 18:20 08.11.2020
5719 Clouds 15 1024 72 10000 5.7 70 17:42 08.11.2020
5720 Clouds 15 1024 72 10000 5.7 70 17:42 08.11.2020
5721 Clouds 16 1024 72 10000 7.2 70 17:20 08.11.2020
5722 Clouds 16 1024 72 10000 7.7 70 16:59 08.11.2020
5723 Clouds 16 1024 72 10000 7.7 70 16:38 08.11.2020
5724 Clouds 16 1024 77 10000 7.2 60 16:20 08.11.2020
5725 Clouds 17 1024 67 10000 8.7 70 15:46 08.11.2020
5726 Clouds 17 1024 67 10000 8.7 70 15:27 08.11.2020
5727 Clouds 17 1024 67 10000 8.7 60 14:43 08.11.2020
5728 Clouds 17 1024 67 10000 8.7 60 14:24 08.11.2020
5729 Clouds 17 1025 67 10000 7.7 60 13:56 08.11.2020
5730 Clouds 17 1025 67 10000 7.7 60 13:56 08.11.2020
5731 Clouds 17 1025 67 10000 6.7 60 13:26 08.11.2020
5732 Clouds 17 1025 67 10000 6.7 60 13:26 08.11.2020
5733 Clouds 17 1025 67 10000 6.7 60 12:57 08.11.2020
5734 Clouds 17 1026 67 10000 6.7 60 12:39 08.11.2020
5735 Clouds 17 1026 67 10000 7.7 60 12:19 08.11.2020
5736 Clouds 17 1026 67 10000 7.7 60 11:55 08.11.2020
5737 Clouds 17 1026 67 10000 7.2 70 11:36 08.11.2020
5738 Clouds 16 1027 72 10000 6.2 70 11:18 08.11.2020
5739 Clouds 16 1027 77 10000 6.7 70 10:41 08.11.2020
5740 Clouds 16 1027 77 10000 7.2 70 10:18 08.11.2020
5741 Clouds 16 1027 72 10000 5.7 80 09:41 08.11.2020
5742 Clouds 15 1028 72 10000 6.2 80 09:19 08.11.2020
5743 Clouds 15 1028 77 10000 6.7 70 08:45 08.11.2020
5744 Clouds 14 1028 77 10000 5.1 70 08:23 08.11.2020
5745 Clouds 14 1028 77 10000 5.1 70 07:53 08.11.2020
5746 Clouds 14 1028 82 10000 3.1 60 07:31 08.11.2020
5747 Clouds 13 1028 87 10000 4.1 60 06:29 08.11.2020
5748 Clouds 13 1028 87 10000 4.1 60 05:54 08.11.2020
5749 Clouds 13 1028 82 10000 4.1 50 04:51 08.11.2020
5750 Clouds 13 1028 87 8000 4.6 40 02:44 08.11.2020
5751 Clouds 13 1029 87 10000 4.1 30 01:19 08.11.2020
5752 Clouds 13 1029 82 10000 2.6 30 00:31 08.11.2020
5753 Clouds 13 1029 82 10000 2.6 30 23:56 07.11.2020
5754 Clouds 13 1029 82 10000 3.1 60 23:37 07.11.2020
5755 Clouds 13 1029 82 10000 4.6 50 23:18 07.11.2020
5756 Clouds 13 1029 82 10000 5.7 60 22:39 07.11.2020
5757 Clouds 14 1029 82 10000 5.1 50 22:20 07.11.2020
5758 Clouds 13 1029 87 10000 6.7 40 21:40 07.11.2020
5759 Clouds 13 1029 87 10000 5.7 30 21:19 07.11.2020
5760 Clouds 13 1029 87 10000 4.6 20 20:46 07.11.2020
5761 Clouds 13 1029 87 10000 4.6 20 20:28 07.11.2020
5762 Clouds 13 1029 82 10000 2.6 50 19:48 07.11.2020
5763 Clouds 12 1029 82 10000 2.6 50 19:27 07.11.2020
5764 Clouds 13 1029 76 10000 4.6 30 18:45 07.11.2020
5765 Clouds 13 1029 76 10000 4.6 30 18:27 07.11.2020
5766 Clouds 13 1029 71 10000 4.6 20 17:57 07.11.2020
5767 Clouds 13 1029 76 10000 5.1 20 17:37 07.11.2020
5768 Clouds 13 1029 76 10000 3.6 30 16:54 07.11.2020
5769 Clouds 13 1029 76 10000 5.1 30 16:36 07.11.2020
5770 Clouds 13 1029 76 10000 4.1 40 16:18 07.11.2020
5771 Clouds 13 1029 82 10000 5.7 30 15:41 07.11.2020
5772 Clouds 13 1029 82 10000 5.7 30 15:22 07.11.2020
5773 Clouds 13 1029 82 10000 4.6 30 14:45 07.11.2020
5774 Clouds 13 1029 82 10000 3.1 40 14:26 07.11.2020
5775 Clouds 13 1029 82 10000 3.1 40 13:55 07.11.2020
5776 Clouds 13 1029 82 10000 3.1 70 13:30 07.11.2020
5777 Clouds 13 1030 87 10000 3.1 80 12:47 07.11.2020
5778 Clouds 13 1030 93 10000 3.1 80 12:25 07.11.2020
5779 Clouds 13 1030 93 7000 4.1 60 11:43 07.11.2020
5780 Clouds 13 1030 93 7000 4.1 60 11:22 07.11.2020
5781 Clouds 14 1030 71 10000 4.6 60 10:45 07.11.2020
5782 Clouds 14 1030 71 10000 4.6 50 10:27 07.11.2020
5783 Clouds 14 1030 67 10000 4.6 50 09:53 07.11.2020
5784 Clouds 14 1030 67 10000 4.6 50 09:34 07.11.2020
5785 Clouds 15 1030 62 10000 4.6 50 08:53 07.11.2020
5786 Clouds 14 1030 62 10000 4.1 40 08:35 07.11.2020
5787 Clouds 14 1030 62 10000 4.6 40 07:55 07.11.2020
5788 Clouds 13 1030 66 10000 4.6 40 07:29 07.11.2020
5789 Clouds 12 1029 71 10000 4.1 20 06:47 07.11.2020
5790 Clouds 12 1029 76 10000 4.6 20 05:24 07.11.2020
5791 Clouds 12 1028 76 10000 4.6 30 03:24 07.11.2020
5792 Clouds 13 1028 71 10000 7.2 30 01:29 07.11.2020
5793 Clouds 13 1028 76 10000 6.2 30 00:59 07.11.2020
5794 Clouds 13 1028 82 10000 5.7 20 23:56 06.11.2020
5795 Clouds 13 1028 87 10000 6.2 20 23:22 06.11.2020
5796 Clouds 13 1028 93 10000 5.7 30 22:42 06.11.2020
5797 Clouds 13 1028 93 10000 6.7 30 22:19 06.11.2020
5798 Clouds 13 1028 93 6000 5.7 30 21:46 06.11.2020
5799 Clouds 13 1028 93 6000 5.7 30 21:22 06.11.2020
5800 Clouds 13 1028 93 6000 5.7 30 20:56 06.11.2020
5801 Clouds 13 1027 93 7000 5.7 30 20:38 06.11.2020
5802 Clouds 14 1027 93 10000 5.1 30 20:18 06.11.2020
5803 Clouds 14 1027 82 10000 6.7 30 19:44 06.11.2020
5804 Clouds 14 1027 82 10000 6.7 30 19:26 06.11.2020
5805 Clouds 14 1027 82 10000 5.7 10 18:46 06.11.2020
5806 Clouds 14 1027 82 10000 4.6 20 18:24 06.11.2020
5807 Clouds 14 1027 82 10000 6.7 20 17:51 06.11.2020
5808 Clouds 14 1027 82 10000 6.7 20 17:27 06.11.2020
5809 Clouds 14 1027 82 10000 6.7 20 17:27 06.11.2020
5810 Clouds 14 1027 82 10000 5.7 20 16:50 06.11.2020
5811 Clouds 14 1027 82 10000 6.2 20 16:32 06.11.2020
5812 Clouds 15 1027 72 10000 5.7 20 15:54 06.11.2020
5813 Clouds 15 1027 72 10000 5.7 20 15:33 06.11.2020
5814 Clouds 15 1027 72 10000 6.2 20 14:54 06.11.2020
5815 Clouds 15 1027 72 10000 6.2 20 14:28 06.11.2020
5816 Clouds 15 1027 77 10000 8.2 20 13:49 06.11.2020
5817 Clouds 15 1027 77 10000 8.2 20 13:49 06.11.2020
5818 Clouds 15 1027 77 10000 8.2 20 13:25 06.11.2020
5819 Clouds 15 1026 77 10000 7.7 30 12:47 06.11.2020
5820 Clouds 15 1026 77 10000 6.7 20 12:25 06.11.2020
5821 Clouds 15 1026 77 10000 7.2 30 11:59 06.11.2020
5822 Clouds 15 1027 82 10000 7.7 30 11:36 06.11.2020
5823 Clouds 15 1027 87 10000 6.2 30 10:51 06.11.2020
5824 Clouds 15 1027 87 10000 6.7 20 10:30 06.11.2020
5825 Clouds 15 1027 87 7000 5.7 30 09:50 06.11.2020
5826 Clouds 15 1027 87 7000 6.7 20 09:27 06.11.2020
5827 Clouds 15 1027 87 10000 5.7 20 08:53 06.11.2020
5828 Clouds 15 1026 87 10000 5.7 20 08:31 06.11.2020
5829 Clouds 14 1026 93 10000 7.2 20 07:56 06.11.2020
5830 Clouds 14 1026 87 10000 7.2 20 07:37 06.11.2020
5831 Clouds 14 1025 87 10000 5.7 20 07:18 06.11.2020
5832 Clouds 14 1025 93 7000 5.1 40 06:39 06.11.2020
5833 Clouds 14 1025 82 10000 6.2 30 05:36 06.11.2020
5834 Clouds 15 1024 77 10000 9.3 30 01:45 06.11.2020
5835 Clouds 15 1024 72 10000 8.7 40 00:23 06.11.2020
5836 Clouds 15 1024 72 10000 9.3 40 23:47 05.11.2020
5837 Clouds 15 1024 72 10000 7.2 40 23:19 05.11.2020
5838 Clouds 15 1024 82 10000 7.7 40 22:42 05.11.2020
5839 Clouds 15 1024 77 10000 7.2 50 22:24 05.11.2020
5840 Clouds 16 1024 77 10000 7.2 40 21:44 05.11.2020
5841 Clouds 16 1024 77 10000 6.7 40 21:24 05.11.2020
5842 Clouds 16 1024 77 10000 6.7 40 20:59 05.11.2020
5843 Clouds 16 1024 72 10000 6.7 40 20:41 05.11.2020
5844 Clouds 16 1024 72 10000 6.7 40 20:41 05.11.2020
5845 Clouds 16 1024 72 10000 7.2 40 20:21 05.11.2020
5846 Clouds 16 1024 72 10000 7.2 40 19:43 05.11.2020
5847 Clouds 16 1024 72 10000 7.2 40 19:25 05.11.2020
5848 Clouds 16 1024 72 10000 7.2 40 18:50 05.11.2020
5849 Clouds 16 1023 77 9000 7.7 30 18:32 05.11.2020
5850 Clouds 16 1023 77 9000 7.7 30 17:56 05.11.2020
5851 Clouds 16 1023 77 10000 8.7 30 17:38 05.11.2020
5852 Clouds 16 1023 72 10000 7.7 30 17:20 05.11.2020
5853 Clouds 16 1022 82 10000 7.2 30 16:43 05.11.2020
5854 Clouds 16 1022 82 10000 7.2 30 16:43 05.11.2020
5855 Clouds 16 1022 82 10000 7.2 30 16:22 05.11.2020
5856 Clouds 16 1022 82 10000 8.2 30 15:50 05.11.2020
5857 Clouds 16 1022 82 10000 8.2 30 15:50 05.11.2020
5858 Clouds 16 1022 87 10000 7.2 30 15:26 05.11.2020
5859 Clouds 16 1022 87 7000 6.2 20 14:49 05.11.2020
5860 Clouds 16 1022 87 7000 6.2 20 14:31 05.11.2020
5861 Clouds 16 1022 82 10000 8.2 20 13:49 05.11.2020
5862 Clouds 16 1022 82 10000 8.2 20 13:31 05.11.2020
5863 Clouds 16 1022 82 10000 8.2 20 13:31 05.11.2020
5864 Clouds 17 1022 82 10000 6.7 10 12:53 05.11.2020
5865 Clouds 17 1022 82 10000 6.7 10 12:29 05.11.2020
5866 Clouds 17 1022 82 10000 6.2 360 11:57 05.11.2020
5867 Clouds 16 1023 87 10000 6.7 10 11:37 05.11.2020
5868 Clouds 15 1023 93 9000 6.2 10 11:19 05.11.2020
5869 Clouds 15 1023 87 9000 6.2 360 10:43 05.11.2020
5870 Clouds 15 1023 87 9000 6.2 360 10:25 05.11.2020
5871 Clouds 15 1023 87 10000 8.2 360 09:47 05.11.2020
5872 Clouds 14 1023 87 10000 9.3 360 09:22 05.11.2020
5873 Clouds 14 1023 87 10000 7.7 360 08:44 05.11.2020
5874 Clouds 14 1023 87 10000 7.7 360 08:26 05.11.2020
5875 Rain 14 1023 93 7000 4.1 50 07:42 05.11.2020
5876 Rain 14 1023 93 7000 4.1 30 07:22 05.11.2020
5877 Clouds 14 1023 93 8000 4.6 10 06:42 05.11.2020
5878 Clouds 14 1023 93 7000 4.1 10 05:53 05.11.2020
5879 Clouds 13 1023 87 10000 2.6 360 01:38 05.11.2020
5880 Clouds 14 1023 93 10000 3.1 350 00:33 05.11.2020
5881 Clouds 13 1023 100 10000 3.1 350 23:45 04.11.2020
5882 Clouds 13 1023 100 10000 3.1 350 23:45 04.11.2020
5883 Clouds 13 1023 100 10000 3.1 350 23:26 04.11.2020
5884 Clouds 13 1023 93 10000 3.1 10 22:53 04.11.2020
5885 Clouds 14 1023 87 10000 3.6 360 22:31 04.11.2020
5886 Clouds 13 1023 93 10000 3.6 360 21:59 04.11.2020
5887 Clouds 13 1023 87 10000 3.1 360 21:41 04.11.2020
5888 Clouds 13 1023 87 10000 3.1 360 21:22 04.11.2020
5889 Clouds 14 1022 87 10000 3.6 10 20:44 04.11.2020
5890 Clouds 14 1022 87 10000 3.6 10 20:26 04.11.2020
5891 Clouds 14 1022 87 10000 4.6 340 19:49 04.11.2020
5892 Clouds 14 1022 87 10000 4.6 340 19:30 04.11.2020
5893 Clouds 14 1022 87 10000 4.6 340 19:30 04.11.2020
5894 Clouds 14 1022 87 10000 3.1 20 18:55 04.11.2020
5895 Clouds 14 1022 87 10000 3.1 20 18:55 04.11.2020
5896 Rain 14 1022 87 10000 2.1 360 18:37 04.11.2020
5897 Clouds 15 1021 77 10000 4.6 20 18:18 04.11.2020
5898 Clouds 14 1021 77 10000 4.1 20 17:40 04.11.2020
5899 Clouds 14 1021 87 10000 4.1 10 17:22 04.11.2020
5900 Clouds 14 1021 87 10000 4.6 10 16:41 04.11.2020
5901 Clouds 14 1021 82 10000 5.1 350 16:23 04.11.2020
5902 Rain 15 1020 87 10000 5.7 360 15:48 04.11.2020
5903 Clouds 16 1020 77 10000 7.2 10 15:25 04.11.2020
5904 Clouds 16 1020 77 10000 7.2 10 14:59 04.11.2020
5905 Clouds 15 1020 82 10000 5.7 360 14:41 04.11.2020
5906 Clouds 15 1020 77 10000 6.2 350 14:21 04.11.2020
5907 Clouds 15 1020 87 10000 7.2 350 13:45 04.11.2020
5908 Clouds 14 1020 82 10000 6.7 20 13:20 04.11.2020
5909 Clouds 14 1020 82 10000 6.7 20 12:53 04.11.2020
5910 Clouds 15 1020 67 10000 8.2 60 12:27 04.11.2020
5911 Clouds 15 1020 67 10000 8.2 60 11:56 04.11.2020
5912 Clouds 16 1020 59 10000 7.2 10 11:38 04.11.2020
5913 Clouds 16 1020 63 10000 7.2 10 11:20 04.11.2020
5914 Clouds 15 1020 72 10000 4.1 360 10:46 04.11.2020
5915 Clouds 15 1020 67 10000 4.1 30 10:22 04.11.2020
5916 Clouds 15 1020 67 10000 4.1 30 09:51 04.11.2020
5917 Clouds 14 1019 72 10000 5.1 40 09:23 04.11.2020
5918 Clouds 15 1019 77 10000 6.7 30 08:46 04.11.2020
5919 Clouds 14 1019 87 10000 2.6 360 08:20 04.11.2020
5920 Rain 14 1019 93 10000 2.1 10 07:50 04.11.2020
5921 Clouds 14 1019 93 10000 2.1 10 07:27 04.11.2020
5922 Clouds 12 1019 93 10000 1.5 360 06:45 04.11.2020
5923 Clouds 12 1019 93 10000 1.5 360 06:26 04.11.2020
5924 Rain 13 1018 82 10000 4.1 330 03:46 04.11.2020
5925 Clouds 12 1019 81 10000 3.6 0 02:20 04.11.2020
5926 Clouds 13 1019 87 10000 3.6 340 00:43 04.11.2020
5927 Clouds 12 1019 93 10000 3.1 350 23:44 03.11.2020
5928 Clouds 12 1019 93 10000 3.1 350 23:21 03.11.2020
5929 Clouds 13 1019 87 10000 1.5 350 22:41 03.11.2020
5930 Clouds 13 1019 87 10000 2.1 330 22:21 03.11.2020
5931 Clouds 14 1019 93 10000 1.5 340 21:56 03.11.2020
5932 Clouds 14 1019 93 10000 1.5 340 21:37 03.11.2020
5933 Clouds 14 1019 87 10000 2.1 350 21:19 03.11.2020
5934 Clouds 13 1019 93 10000 1.5 350 20:43 03.11.2020
5935 Clouds 13 1019 93 10000 1.5 350 20:22 03.11.2020
5936 Clouds 14 1019 87 10000 3.6 350 19:43 03.11.2020
5937 Clouds 14 1019 87 10000 3.6 350 19:22 03.11.2020
5938 Clouds 14 1019 87 10000 3.1 340 18:45 03.11.2020
5939 Clouds 14 1019 87 10000 3.6 340 18:21 03.11.2020
5940 Clouds 14 1019 87 10000 3.6 340 17:58 03.11.2020
5941 Clouds 14 1019 77 10000 1 0 17:40 03.11.2020
5942 Clouds 14 1019 77 10000 1 0 17:21 03.11.2020
5943 Clouds 14 1019 77 10000 1 0 16:44 03.11.2020
5944 Clouds 15 1019 77 10000 1 0 16:22 03.11.2020
5945 Rain 15 1019 72 10000 1 0 15:43 03.11.2020
5946 Clouds 15 1019 72 10000 1.5 260 15:24 03.11.2020
5947 Clouds 15 1019 72 10000 1.5 220 14:49 03.11.2020
5948 Clouds 15 1019 72 10000 1.5 220 14:30 03.11.2020
5949 Clouds 16 1019 67 10000 2.1 230 13:46 03.11.2020
5950 Clouds 16 1019 67 10000 2.1 230 13:23 03.11.2020
5951 Clouds 16 1019 72 10000 2.1 230 12:59 03.11.2020
5952 Clouds 16 1020 67 10000 2.1 240 12:37 03.11.2020
5953 Clear 15 1020 72 10000 2.6 230 12:18 03.11.2020
5954 Clear 15 1020 72 10000 2.1 230 11:41 03.11.2020
5955 Clouds 15 1020 67 10000 2.6 210 11:20 03.11.2020
5956 Clouds 15 1020 77 10000 3.1 220 10:39 03.11.2020
5957 Clear 14 1020 72 10000 1.5 230 10:21 03.11.2020
5958 Clouds 14 1020 77 10000 2.6 230 09:51 03.11.2020
5959 Rain 14 1020 77 10000 2.6 230 09:33 03.11.2020
5960 Rain 13 1020 77 10000 0.5 0 08:56 03.11.2020
5961 Clear 12 1020 82 10000 1.5 270 08:35 03.11.2020
5962 Clear 10 1020 93 10000 0.8 198 07:54 03.11.2020
5963 Clear 10 1020 93 10000 0.98 174 07:27 03.11.2020
5964 Clouds 9 1020 100 8000 1.5 350 06:49 03.11.2020
5965 Clear 9 1020 93 10000 1.5 360 05:38 03.11.2020
5966 Clear 9 1021 93 10000 1 360 02:43 03.11.2020
5967 Clear 10 1021 87 10000 2.1 340 00:41 03.11.2020
5968 Clear 9 1022 87 10000 1.5 350 23:52 02.11.2020
5969 Clear 9 1022 87 10000 1.5 350 23:33 02.11.2020
5970 Clear 10 1022 87 10000 1 0 22:55 02.11.2020
5971 Clear 10 1022 87 10000 1 0 22:36 02.11.2020
5972 Clear 10 1022 87 10000 1 0 21:59 02.11.2020
5973 Clear 10 1022 93 10000 1 10 21:38 02.11.2020
5974 Clear 10 1022 87 10000 1 360 21:19 02.11.2020
5975 Clear 11 1022 87 10000 1 0 20:40 02.11.2020
5976 Clear 11 1022 87 10000 1 0 20:20 02.11.2020
5977 Clear 11 1022 81 10000 1.5 330 19:48 02.11.2020
5978 Clear 11 1022 81 10000 1.5 330 19:48 02.11.2020
5979 Clear 11 1022 81 10000 1.5 330 19:27 02.11.2020
5980 Clear 11 1022 81 10000 1 0 18:56 02.11.2020
5981 Clear 11 1022 81 10000 1 0 18:56 02.11.2020
5982 Clear 12 1022 81 10000 0.6 292 18:38 02.11.2020
5983 Clear 13 1022 76 10000 0.6 292 18:19 02.11.2020
5984 Clear 14 1022 71 10000 0.5 0 17:42 02.11.2020
5985 Clear 14 1022 71 10000 0.5 0 17:24 02.11.2020
5986 Clear 15 1022 67 10000 1.5 270 16:51 02.11.2020
5987 Clear 15 1022 67 10000 1.5 270 16:32 02.11.2020
5988 Clear 16 1022 67 10000 2.1 250 15:57 02.11.2020
5989 Clear 16 1022 67 10000 2.1 250 15:39 02.11.2020
5990 Clouds 16 1022 63 10000 2.6 240 15:19 02.11.2020
5991 Clouds 16 1022 63 10000 2.6 240 14:48 02.11.2020
5992 Clouds 17 1022 67 10000 3.1 230 14:19 02.11.2020
5993 Clouds 17 1022 67 10000 3.1 230 13:48 02.11.2020
5994 Clouds 17 1023 67 10000 2.6 230 13:22 02.11.2020
5995 Clouds 16 1023 67 10000 2.6 230 12:51 02.11.2020
5996 Clouds 16 1023 67 10000 2.6 230 12:28 02.11.2020
5997 Clouds 16 1023 63 10000 2.6 220 11:46 02.11.2020
5998 Clouds 15 1023 72 10000 3.1 140 11:21 02.11.2020
5999 Clouds 16 1024 67 10000 3.1 150 10:48 02.11.2020
6000 Clouds 16 1024 67 10000 3.1 150 10:26 02.11.2020
6001 Clouds 15 1023 67 10000 2.6 150 09:56 02.11.2020
6002 Clouds 15 1023 67 10000 2.6 150 09:30 02.11.2020
6003 Clouds 14 1024 72 10000 0.5 0 08:59 02.11.2020
6004 Clouds 13 1024 82 8000 1 80 08:39 02.11.2020
6005 Clear 12 1023 81 8000 1 0 08:19 02.11.2020
6006 Clear 10 1023 81 7000 1.5 360 07:42 02.11.2020
6007 Clouds 8 1023 93 10000 2.1 360 06:46 02.11.2020
6008 Clouds 8 1022 87 7000 1.5 360 05:39 02.11.2020
6009 Clear 7 1023 87 8000 2.6 340 01:35 02.11.2020
6010 Clear 8 1023 81 8000 2.6 350 00:41 02.11.2020
6011 Clear 7 1023 81 8000 2.6 350 00:23 02.11.2020
6012 Clear 8 1023 75 10000 2.6 350 23:40 01.11.2020
6013 Clear 8 1023 81 8000 2.6 350 23:21 01.11.2020
6014 Clear 9 1023 81 8000 2.1 350 22:44 01.11.2020
6015 Clear 9 1023 81 8000 2.1 350 22:23 01.11.2020
6016 Clear 9 1023 76 8000 1.5 20 21:46 01.11.2020
6017 Clear 9 1023 76 10000 2.1 350 21:26 01.11.2020
6018 Clear 10 1022 76 10000 2.6 350 20:51 01.11.2020
6019 Clear 10 1022 76 10000 2.6 350 20:29 01.11.2020
6020 Clear 10 1022 62 10000 0.5 0 19:58 01.11.2020
6021 Clear 10 1022 66 10000 1 360 19:38 01.11.2020
6022 Clear 10 1022 66 10000 1 360 19:20 01.11.2020
6023 Clear 12 1022 47 10000 1 80 18:40 01.11.2020
6024 Clear 12 1022 47 10000 2.1 70 18:19 01.11.2020
6025 Clear 13 1022 44 10000 2.1 70 17:47 01.11.2020
6026 Clear 13 1022 44 10000 2.1 70 17:29 01.11.2020
6027 Clear 12 1022 54 10000 1.5 50 16:59 01.11.2020
6028 Clear 13 1022 50 10000 2.1 30 16:39 01.11.2020
6029 Clear 14 1022 47 10000 2.6 360 16:18 01.11.2020
6030 Clouds 14 1022 41 10000 3.1 330 15:39 01.11.2020
6031 Clouds 14 1022 47 10000 5.1 340 15:21 01.11.2020
6032 Clouds 14 1022 47 10000 5.1 340 14:48 01.11.2020
6033 Clouds 14 1022 41 10000 4.6 330 14:24 01.11.2020
6034 Clouds 14 1022 41 10000 4.6 330 13:59 01.11.2020
6035 Clouds 14 1022 44 10000 4.1 340 13:40 01.11.2020
6036 Clouds 14 1022 44 10000 4.1 340 13:40 01.11.2020
6037 Clouds 14 1022 51 10000 4.6 320 13:22 01.11.2020
6038 Clouds 14 1022 51 10000 5.1 310 12:43 01.11.2020
6039 Clouds 13 1022 58 10000 5.7 320 12:22 01.11.2020
6040 Clouds 13 1022 54 10000 6.2 330 11:49 01.11.2020
6041 Clouds 13 1022 62 10000 5.1 350 11:18 01.11.2020
6042 Clouds 14 1022 62 10000 5.7 320 10:42 01.11.2020
6043 Clouds 13 1022 66 10000 5.1 330 10:24 01.11.2020
6044 Clouds 13 1022 66 10000 5.1 330 09:50 01.11.2020
6045 Clouds 13 1022 71 10000 4.6 330 09:30 01.11.2020
6046 Clouds 11 1021 76 10000 4.6 340 08:44 01.11.2020
6047 Clouds 11 1021 76 10000 3.1 330 08:18 01.11.2020
6048 Clouds 11 1021 81 10000 4.1 320 07:33 01.11.2020
6049 Clouds 12 1018 76 10000 8.7 340 03:25 01.11.2020
6050 Clouds 13 1017 87 10000 7.7 330 01:46 01.11.2020
6051 Clouds 15 1016 72 10000 7.2 270 00:23 01.11.2020
6052 Clouds 15 1016 67 10000 7.2 250 23:24 31.10.2020
6053 Clouds 15 1016 63 10000 6.7 250 22:46 31.10.2020
6054 Clouds 15 1016 59 10000 6.7 240 22:25 31.10.2020
6055 Clouds 15 1016 55 10000 5.7 230 21:47 31.10.2020
6056 Clouds 15 1016 55 10000 5.7 230 21:26 31.10.2020
6057 Clouds 15 1017 55 10000 5.7 250 20:59 31.10.2020
6058 Clouds 15 1017 63 10000 6.2 240 20:38 31.10.2020
6059 Clouds 15 1017 67 10000 6.2 230 20:18 31.10.2020
6060 Clouds 14 1017 63 10000 5.1 230 19:39 31.10.2020
6061 Clouds 14 1017 63 10000 5.1 230 19:19 31.10.2020
6062 Clouds 15 1017 59 10000 4.1 240 18:46 31.10.2020
6063 Clouds 14 1017 58 10000 4.1 230 17:58 31.10.2020
6064 Clouds 14 1018 62 10000 3.6 230 17:40 31.10.2020
6065 Clouds 14 1018 62 10000 3.6 230 17:19 31.10.2020
6066 Clouds 14 1018 58 10000 3.6 230 16:42 31.10.2020
6067 Clouds 14 1018 58 10000 3.6 230 16:42 31.10.2020
6068 Clouds 15 1018 58 10000 4.1 230 16:20 31.10.2020
6069 Clouds 16 1018 55 10000 4.6 230 15:43 31.10.2020
6070 Clouds 16 1019 59 10000 4.6 250 15:23 31.10.2020
6071 Clouds 16 1019 55 10000 5.1 260 14:47 31.10.2020
6072 Clouds 16 1019 55 10000 5.1 260 14:28 31.10.2020
6073 Clouds 16 1019 55 10000 5.1 250 13:50 31.10.2020
6074 Clouds 16 1019 59 10000 4.6 240 13:26 31.10.2020
6075 Clouds 15 1020 59 10000 3.1 230 12:42 31.10.2020
6076 Clouds 14 1020 67 10000 3.1 310 11:48 31.10.2020
6077 Clouds 14 1020 67 10000 3.1 310 11:29 31.10.2020
6078 Clouds 14 1020 67 10000 3.1 300 10:58 31.10.2020
6079 Clouds 14 1020 71 10000 4.6 340 10:36 31.10.2020
6080 Clouds 13 1021 71 10000 4.1 320 09:45 31.10.2020
6081 Clouds 12 1020 71 10000 5.1 310 09:27 31.10.2020
6082 Clouds 12 1020 76 10000 5.1 310 08:47 31.10.2020
6083 Clouds 12 1020 76 10000 3.6 320 07:59 31.10.2020
6084 Clouds 12 1020 76 10000 3.6 300 07:27 31.10.2020
6085 Clouds 12 1020 76 10000 3.6 300 06:42 31.10.2020
6086 Clouds 12 1020 76 10000 3.6 300 06:20 31.10.2020
6087 Clouds 11 1019 76 10000 3.6 320 03:46 31.10.2020
6088 Clouds 12 1019 81 10000 4.6 280 01:30 31.10.2020
6089 Clouds 12 1019 76 10000 3.6 300 01:30 31.10.2020
6090 Clear 12 1019 76 10000 3.1 300 00:47 31.10.2020
6091 Clouds 13 1019 76 10000 4.6 300 23:53 30.10.2020
6092 Clouds 13 1019 76 10000 4.6 300 23:26 30.10.2020
6093 Clouds 13 1018 76 10000 4.6 320 22:53 30.10.2020
6094 Clouds 13 1018 82 10000 4.1 320 22:27 30.10.2020
6095 Clouds 13 1018 82 10000 4.1 320 21:59 30.10.2020
6096 Rain 13 1018 87 8000 4.6 330 21:40 30.10.2020
6097 Rain 13 1018 87 8000 5.1 330 21:21 30.10.2020
6098 Clouds 14 1018 87 8000 3.6 320 20:42 30.10.2020
6099 Rain 14 1018 87 8000 3.6 320 20:24 30.10.2020
6100 Clouds 14 1018 87 10000 5.1 340 19:52 30.10.2020
6101 Clouds 14 1017 93 10000 3.1 330 19:19 30.10.2020
6102 Clouds 14 1017 93 10000 2.6 310 18:52 30.10.2020
6103 Clouds 14 1017 93 10000 2.6 310 18:33 30.10.2020
6104 Clouds 14 1017 93 10000 3.1 330 17:56 30.10.2020
6105 Clouds 14 1017 87 10000 2.1 310 17:36 30.10.2020
6106 Clouds 14 1017 93 10000 1 0 17:18 30.10.2020
6107 Clouds 14 1017 87 10000 3.1 350 16:49 30.10.2020
6108 Clouds 14 1016 87 10000 2.6 10 16:19 30.10.2020
6109 Rain 14 1016 93 10000 3.1 10 15:41 30.10.2020
6110 Rain 14 1016 93 10000 4.6 10 15:20 30.10.2020
6111 Rain 14 1016 93 7000 7.7 350 14:45 30.10.2020
6112 Clouds 14 1016 93 7000 7.7 350 14:26 30.10.2020
6113 Rain 16 1016 93 4000 8.7 320 13:47 30.10.2020
6114 Rain 16 1016 93 4000 8.7 320 13:23 30.10.2020
6115 Clouds 17 1015 88 7000 3.6 330 12:58 30.10.2020
6116 Clouds 18 1016 88 10000 0.5 0 12:23 30.10.2020
6117 Clouds 18 1016 88 10000 0.5 0 11:57 30.10.2020
6118 Clouds 18 1016 88 10000 0.5 0 11:57 30.10.2020
6119 Clouds 18 1016 93 6000 1.5 360 11:38 30.10.2020
6120 Thunderstorm 18 1016 88 6000 3.6 310 11:18 30.10.2020
6121 Rain 18 1017 82 6000 0.5 0 10:40 30.10.2020
6122 Clouds 18 1017 77 10000 0.5 0 10:21 30.10.2020
6123 Clouds 17 1017 77 10000 1 0 09:44 30.10.2020
6124 Clouds 17 1017 82 10000 2.1 50 09:22 30.10.2020
6125 Clouds 16 1017 88 10000 2.1 360 08:41 30.10.2020
6126 Clouds 17 1017 88 10000 2.1 360 08:23 30.10.2020
6127 Clouds 16 1017 87 10000 2.6 360 07:49 30.10.2020
6128 Clouds 16 1017 87 10000 2.6 360 07:30 30.10.2020
6129 Clouds 14 1017 93 10000 1.5 360 06:38 30.10.2020
6130 Clouds 14 1017 93 10000 2.1 360 04:47 30.10.2020
6131 Clouds 14 1017 93 10000 1 0 02:26 30.10.2020
6132 Clouds 14 1017 100 10000 1.47 46 00:39 30.10.2020
6133 Clouds 15 1017 93 10000 1.71 41 23:49 29.10.2020
6134 Clouds 15 1017 93 10000 1.71 41 23:30 29.10.2020
6135 Clouds 16 1017 87 10000 1.8 29 22:57 29.10.2020
6136 Clouds 16 1017 82 10000 1.8 29 22:38 29.10.2020
6137 Clouds 16 1017 82 10000 0.5 0 22:20 29.10.2020
6138 Clouds 17 1017 82 10000 1 30 21:36 29.10.2020
6139 Clouds 17 1017 82 10000 2.1 10 21:18 29.10.2020
6140 Clouds 17 1017 82 10000 0.5 0 20:40 29.10.2020
6141 Clouds 17 1017 82 10000 2.6 10 20:19 29.10.2020
6142 Clouds 17 1017 82 10000 3.6 360 19:42 29.10.2020
6143 Clouds 17 1017 82 10000 3.6 360 19:22 29.10.2020
6144 Clouds 16 1016 82 10000 4.6 340 18:49 29.10.2020
6145 Clouds 17 1016 82 10000 4.6 340 18:29 29.10.2020
6146 Clouds 17 1016 82 10000 4.1 350 17:57 29.10.2020
6147 Clouds 17 1016 82 10000 2.1 340 17:38 29.10.2020
6148 Clouds 17 1015 82 10000 2.6 340 17:19 29.10.2020
6149 Clouds 17 1015 77 10000 2.1 310 16:45 29.10.2020
6150 Clouds 18 1015 72 10000 2.1 270 16:19 29.10.2020
6151 Clouds 18 1015 72 10000 2.1 270 15:56 29.10.2020
6152 Clouds 18 1015 77 10000 2.6 260 15:37 29.10.2020
6153 Clouds 18 1015 72 10000 2.6 300 15:18 29.10.2020
6154 Clouds 19 1015 72 10000 3.6 250 14:42 29.10.2020
6155 Clouds 18 1015 72 10000 3.6 250 14:21 29.10.2020
6156 Clouds 19 1015 72 10000 3.6 260 13:46 29.10.2020
6157 Clouds 19 1015 72 10000 3.6 260 13:27 29.10.2020
6158 Clouds 19 1015 72 10000 3.1 240 12:43 29.10.2020
6159 Clouds 19 1015 64 10000 2.6 250 12:20 29.10.2020
6160 Clouds 19 1015 64 10000 2.6 260 11:54 29.10.2020
6161 Clouds 19 1015 64 10000 2.6 260 11:36 29.10.2020
6162 Clouds 18 1015 68 10000 3.6 320 11:18 29.10.2020
6163 Clouds 18 1015 77 10000 4.1 340 10:37 29.10.2020
6164 Clouds 18 1015 77 10000 4.1 340 10:37 29.10.2020
6165 Clouds 17 1015 82 10000 5.1 340 10:18 29.10.2020
6166 Clouds 17 1015 82 10000 5.1 340 10:18 29.10.2020
6167 Clouds 17 1015 82 10000 5.1 340 09:47 29.10.2020
6168 Clouds 16 1015 87 10000 4.6 350 09:24 29.10.2020
6169 Thunderstorm 15 1015 87 10000 4.6 350 08:41 29.10.2020
6170 Thunderstorm 16 1015 87 10000 4.6 350 08:23 29.10.2020
6171 Rain 16 1014 93 10000 5.7 350 07:49 29.10.2020
6172 Rain 16 1013 100 4000 5.1 310 07:19 29.10.2020
6173 Thunderstorm 16 1014 100 1000 8.2 270 06:30 29.10.2020
6174 Clouds 19 1013 88 10000 3.6 50 04:48 29.10.2020
6175 Rain 19 1011 90 10000 1.79 123 02:28 29.10.2020
6176 Clouds 19 1011 89 10000 0.89 168 00:41 29.10.2020
6177 Clouds 19 1011 88 10000 0.89 167 00:21 29.10.2020
6178 Clouds 19 1012 88 10000 2.24 101 23:41 28.10.2020
6179 Rain 19 1012 88 10000 3.58 108 23:20 28.10.2020
6180 Clouds 19 1015 88 10000 4.1 60 22:43 28.10.2020
6181 Clouds 19 1015 88 10000 4.1 60 22:23 28.10.2020
6182 Clouds 19 1015 88 10000 2.6 60 21:45 28.10.2020
6183 Clouds 19 1015 88 10000 2.6 60 21:26 28.10.2020
6184 Clouds 19 1015 88 10000 4.1 80 20:44 28.10.2020
6185 Clouds 19 1015 88 10000 4.1 80 20:24 28.10.2020
6186 Clouds 19 1015 88 10000 4.1 60 19:57 28.10.2020
6187 Clouds 19 1015 82 10000 4.1 70 19:39 28.10.2020
6188 Clouds 19 1016 82 10000 4.1 60 19:20 28.10.2020
6189 Clouds 19 1016 82 10000 4.1 70 18:43 28.10.2020
6190 Clouds 19 1016 82 10000 2.6 40 18:20 28.10.2020
6191 Clouds 19 1016 82 10000 2.6 40 18:20 28.10.2020
6192 Clouds 20 1016 82 10000 3.1 70 17:43 28.10.2020
6193 Clouds 20 1015 82 10000 4.1 70 17:21 28.10.2020
6194 Rain 20 1015 77 10000 4.1 60 16:47 28.10.2020
6195 Clouds 20 1015 77 10000 4.1 60 16:29 28.10.2020
6196 Clouds 21 1015 77 10000 3.1 270 15:43 28.10.2020
6197 Clouds 20 1012 87 10000 5.36 59 15:20 28.10.2020
6198 Clouds 21 1015 77 7000 3.1 240 14:50 28.10.2020
6199 Clouds 21 1015 77 7000 3.1 240 14:32 28.10.2020
6200 Clouds 21 1012 86 10000 4.92 53 13:59 28.10.2020
6201 Clouds 21 1012 85 10000 4.92 39 12:38 28.10.2020
6202 Clouds 21 1012 85 10000 4.47 51 12:20 28.10.2020
6203 Clouds 21 1012 85 10000 4.47 53 11:43 28.10.2020
6204 Clouds 21 1012 84 10000 4.47 47 11:22 28.10.2020
6205 Clouds 21 1015 77 10000 2.1 50 10:57 28.10.2020
6206 Clouds 21 1015 77 10000 2.1 50 10:39 28.10.2020
6207 Clouds 20 1015 73 10000 3.6 40 10:21 28.10.2020
6208 Clouds 20 1015 73 10000 3.6 40 09:38 28.10.2020
6209 Clouds 20 1015 77 10000 4.1 60 09:20 28.10.2020
6210 Clouds 20 1015 77 10000 3.6 40 08:47 28.10.2020
6211 Clouds 19 1015 82 10000 3.6 40 08:25 28.10.2020
6212 Clouds 19 1014 82 10000 4.1 40 07:48 28.10.2020
6213 Clouds 19 1014 82 10000 4.1 40 07:30 28.10.2020
6214 Clouds 19 1014 82 10000 2.6 70 06:40 28.10.2020
6215 Clouds 19 1014 82 10000 3.1 50 05:49 28.10.2020
6216 Clouds 18 1014 88 10000 3.6 30 04:52 28.10.2020
6217 Clouds 18 1014 88 10000 3.6 30 04:25 28.10.2020
6218 Clouds 18 1014 93 10000 3.1 20 02:25 28.10.2020
6219 Clouds 18 1014 88 10000 3.1 30 01:26 28.10.2020
6220 Clouds 19 1014 82 10000 3.6 50 23:52 27.10.2020
6221 Clouds 19 1014 82 10000 4.6 60 23:25 27.10.2020
6222 Clouds 19 1014 82 10000 4.1 60 22:55 27.10.2020
6223 Clouds 19 1014 82 10000 5.1 60 22:37 27.10.2020
6224 Clouds 19 1014 82 10000 4.6 70 22:18 27.10.2020
6225 Clouds 19 1014 82 10000 4.6 70 21:55 27.10.2020
6226 Clouds 19 1014 82 10000 4.1 70 21:36 27.10.2020
6227 Clouds 19 1014 82 10000 4.6 70 21:18 27.10.2020
6228 Clouds 19 1014 82 10000 4.6 70 21:18 27.10.2020
6229 Clouds 19 1014 82 10000 4.6 70 21:18 27.10.2020
6230 Clouds 19 1014 82 10000 4.6 70 20:39 27.10.2020
6231 Clouds 19 1014 82 10000 5.1 70 20:21 27.10.2020
6232 Clouds 19 1014 77 10000 6.2 60 19:39 27.10.2020
6233 Clouds 19 1014 77 10000 6.2 60 19:21 27.10.2020
6234 Clouds 19 1014 77 10000 6.2 70 18:58 27.10.2020
6235 Clouds 19 1014 77 10000 6.2 70 18:58 27.10.2020
6236 Clouds 19 1015 72 10000 6.2 60 18:39 27.10.2020
6237 Clouds 19 1015 72 10000 6.2 60 18:18 27.10.2020
6238 Clouds 19 1014 72 10000 6.2 70 17:43 27.10.2020
6239 Clouds 20 1014 68 10000 6.7 70 17:21 27.10.2020
6240 Clouds 20 1014 68 10000 6.7 70 17:21 27.10.2020
6241 Clouds 20 1014 68 10000 6.2 70 16:48 27.10.2020
6242 Clouds 20 1014 68 10000 6.2 70 16:27 27.10.2020
6243 Clouds 21 1014 68 10000 5.7 40 15:49 27.10.2020
6244 Clouds 21 1014 68 10000 5.7 40 15:30 27.10.2020
6245 Clouds 22 1014 64 10000 5.7 60 14:57 27.10.2020
6246 Clouds 22 1014 64 10000 5.7 40 14:39 27.10.2020
6247 Clouds 22 1014 64 10000 4.6 30 14:20 27.10.2020
6248 Clouds 22 1014 60 10000 4.1 50 13:41 27.10.2020
6249 Clouds 22 1014 64 10000 4.1 30 13:21 27.10.2020
6250 Clouds 21 1014 68 8000 4.1 70 12:40 27.10.2020
6251 Clouds 21 1014 68 7000 3.1 110 12:21 27.10.2020
6252 Clear 21 1015 64 7000 1.5 120 11:42 27.10.2020
6253 Clear 21 1015 68 7000 2.1 80 11:22 27.10.2020
6254 Clear 20 1015 72 7000 2.6 120 10:47 27.10.2020
6255 Clear 20 1015 72 7000 2.6 120 10:28 27.10.2020
6256 Clear 19 1015 77 8000 3.1 110 09:46 27.10.2020
6257 Clear 19 1015 82 8000 2.6 90 09:26 27.10.2020
6258 Clear 17 1016 88 8000 3.1 90 08:39 27.10.2020
6259 Clear 17 1015 88 8000 3.6 70 08:20 27.10.2020
6260 Clear 16 1015 88 7000 3.1 60 07:45 27.10.2020
6261 Clear 16 1015 88 7000 3.1 60 07:45 27.10.2020
6262 Clear 16 1015 88 7000 3.1 60 07:45 27.10.2020
6263 Clear 16 1015 93 7000 2.6 40 07:26 27.10.2020
6264 Mist 14 1015 93 4000 1 0 06:22 27.10.2020
6265 Mist 14 1015 93 4000 1 0 06:22 27.10.2020
6266 Mist 14 1015 93 4000 1 0 06:22 27.10.2020
6267 Mist 13 1015 100 5000 1 20 05:52 27.10.2020
6268 Mist 13 1015 100 5000 1 20 05:52 27.10.2020
6269 Mist 13 1015 100 5000 1 20 05:34 27.10.2020
6270 Mist 13 1015 93 4500 1 20 04:44 27.10.2020
6271 Mist 14 1015 93 2500 1 0 02:33 27.10.2020
6272 Mist 15 1016 93 4000 1.5 360 00:58 27.10.2020
6273 Mist 15 1015 93 4000 1 0 23:46 26.10.2020
6274 Mist 15 1015 87 4000 2.1 70 23:26 26.10.2020
6275 Clear 16 1015 87 6000 1.5 70 22:49 26.10.2020
6276 Clear 16 1015 87 6000 1.5 70 22:27 26.10.2020
6277 Clear 16 1015 93 7000 0.5 110 21:50 26.10.2020
6278 Clear 17 1016 88 7000 1 110 21:21 26.10.2020
6279 Clear 18 1016 88 6000 1.5 130 20:58 26.10.2020
6280 Clear 18 1015 82 6000 2.1 120 20:39 26.10.2020
6281 Clear 18 1015 82 7000 2.1 80 20:19 26.10.2020
6282 Clear 18 1015 82 7000 2.1 80 19:47 26.10.2020
6283 Clear 18 1015 82 8000 3.1 60 19:24 26.10.2020
6284 Clear 18 1015 82 8000 3.1 60 18:45 26.10.2020
6285 Clouds 19 1015 82 8000 4.1 40 18:24 26.10.2020
6286 Clouds 19 1015 82 8000 4.1 40 17:59 26.10.2020
6287 Clouds 19 1015 77 10000 3.1 10 17:39 26.10.2020
6288 Clouds 19 1014 77 10000 3.1 270 17:21 26.10.2020
6289 Clouds 19 1014 72 10000 3.1 260 16:40 26.10.2020
6290 Clear 20 1014 72 10000 4.1 260 16:21 26.10.2020
6291 Clear 20 1014 68 10000 5.1 260 15:42 26.10.2020
6292 Clear 20 1014 68 10000 5.1 260 15:22 26.10.2020
6293 Clear 20 1014 68 10000 5.1 260 14:53 26.10.2020
6294 Clear 20 1014 68 10000 5.1 250 14:32 26.10.2020
6295 Clear 20 1014 68 10000 4.6 250 13:44 26.10.2020
6296 Clear 20 1014 68 10000 4.6 250 13:24 26.10.2020
6297 Clear 21 1014 68 10000 4.6 250 12:52 26.10.2020
6298 Clear 20 1014 68 10000 4.6 250 12:30 26.10.2020
6299 Clear 21 1014 68 10000 4.6 250 11:57 26.10.2020
6300 Clear 21 1014 77 10000 4.6 250 11:39 26.10.2020
6301 Clear 21 1014 77 10000 4.6 250 11:39 26.10.2020
6302 Clear 21 1014 72 10000 4.1 250 11:21 26.10.2020
6303 Clouds 20 1015 77 10000 5.1 270 10:48 26.10.2020
6304 Clouds 20 1015 77 10000 5.1 270 10:26 26.10.2020
6305 Clouds 20 1014 77 10000 4.6 260 09:51 26.10.2020
6306 Clouds 20 1014 77 10000 4.6 260 09:28 26.10.2020
6307 Clouds 19 1014 77 10000 4.1 270 08:50 26.10.2020
6308 Clouds 19 1014 77 10000 4.1 270 08:22 26.10.2020
6309 Clouds 18 1014 93 10000 2.1 290 07:38 26.10.2020
6310 Clouds 17 1013 88 8000 1 0 07:18 26.10.2020
6311 Clear 17 1013 87 8000 1.5 230 05:31 26.10.2020
6312 Clear 16 1012 87 8000 1 0 04:19 26.10.2020
6313 Clear 17 1012 82 8000 1.5 280 03:20 26.10.2020
6314 Clear 17 1012 82 8000 1.5 280 03:20 26.10.2020
6315 Clear 18 1012 88 10000 1.5 250 01:34 26.10.2020
6316 Clear 17 1012 93 10000 2.18 208 00:33 26.10.2020
6317 Clear 18 1012 88 10000 1 250 23:46 25.10.2020
6318 Clear 18 1012 88 10000 1 260 23:24 25.10.2020
6319 Clear 19 1012 82 10000 0.89 162 22:45 25.10.2020
6320 Clear 19 1012 82 10000 0.6 189 22:26 25.10.2020
6321 Clear 20 1012 77 10000 1 0 21:49 25.10.2020
6322 Clear 20 1012 77 10000 1 0 21:30 25.10.2020
6323 Clear 20 1012 82 10000 1.5 30 20:58 25.10.2020
6324 Clear 21 1011 68 10000 2.1 70 20:39 25.10.2020
6325 Clear 20 1012 77 10000 1 30 20:19 25.10.2020
6326 Clear 20 1012 77 10000 2.6 360 19:49 25.10.2020
6327 Clear 20 1012 77 10000 2.6 360 19:26 25.10.2020
6328 Clear 21 1012 73 10000 2.6 80 18:58 25.10.2020
6329 Clear 21 1012 64 10000 1.5 80 18:39 25.10.2020
6330 Clear 22 1012 64 10000 2.1 80 18:20 25.10.2020
6331 Clear 21 1012 60 10000 2.1 80 17:40 25.10.2020
6332 Clouds 21 1012 72 10000 0.5 0 17:22 25.10.2020
6333 Clouds 21 1012 72 10000 0.5 0 16:59 25.10.2020
6334 Clear 22 1012 68 10000 1 0 16:39 25.10.2020
6335 Clear 22 1012 68 10000 1 0 16:20 25.10.2020
6336 Clear 22 1012 68 10000 1.5 210 15:47 25.10.2020
6337 Clear 22 1012 68 10000 1.5 210 15:26 25.10.2020
6338 Clear 22 1012 68 10000 1.5 210 15:26 25.10.2020
6339 Clear 25 1012 60 10000 1 0 14:49 25.10.2020
6340 Clear 25 1012 60 10000 1 0 14:28 25.10.2020
6341 Clear 24 1012 64 10000 1 230 13:44 25.10.2020
6342 Clear 25 1012 64 10000 1.5 230 13:22 25.10.2020
6343 Clear 24 1013 69 10000 2.1 240 12:49 25.10.2020
6344 Clear 24 1013 69 10000 2.1 240 12:27 25.10.2020
6345 Clear 24 1013 64 10000 1.5 260 11:58 25.10.2020
6346 Clouds 24 1013 68 8000 1 0 11:39 25.10.2020
6347 Clouds 24 1014 64 6000 0.5 0 11:19 25.10.2020
6348 Fog 23 1014 68 3500 1 0 10:44 25.10.2020
6349 Mist 23 1014 73 3000 1 0 10:25 25.10.2020
6350 Fog 22 1014 77 2000 1 0 09:48 25.10.2020
6351 Fog 20 1014 82 1800 1 0 09:20 25.10.2020
6352 Fog 20 1014 82 1800 1 0 08:55 25.10.2020
6353 Fog 18 1014 88 1500 0.5 0 08:36 25.10.2020
6354 Fog 17 1014 100 1500 1.5 40 08:18 25.10.2020
6355 Fog 16 1014 100 1500 1 0 07:41 25.10.2020
6356 Fog 15 1014 100 100 2.1 350 06:52 25.10.2020
6357 Drizzle 15 1014 100 100 2.6 350 06:19 25.10.2020
6358 Drizzle 15 1014 100 150 1.5 40 04:53 25.10.2020
6359 Drizzle 15 1014 100 150 1.5 40 04:20 25.10.2020
6360 Fog 16 1015 93 1700 0.5 60 02:19 25.10.2020
6361 Fog 15 1015 93 2000 0.5 0 00:49 25.10.2020
6362 Fog 16 1015 100 4000 0.5 0 00:26 25.10.2020
6363 Fog 17 1016 93 3000 1.32 181 23:54 24.10.2020
6364 Fog 17 1016 93 3000 1.01 175 23:29 24.10.2020
6365 Mist 17 1016 93 2000 1.01 175 22:57 24.10.2020
6366 Mist 17 1015 93 4000 1.01 175 22:38 24.10.2020
6367 Mist 17 1015 93 3800 1 110 22:20 24.10.2020
6368 Mist 17 1015 93 4000 0.5 0 21:43 24.10.2020
6369 Clear 18 1015 93 6000 0.5 110 21:21 24.10.2020
6370 Clear 18 1015 93 6000 0.5 0 20:49 24.10.2020
6371 Clear 18 1015 93 6000 0.5 0 20:25 24.10.2020
6372 Clear 18 1016 93 10000 0.5 0 19:57 24.10.2020
6373 Clear 18 1016 93 10000 0.73 168 19:37 24.10.2020
6374 Clear 19 1016 93 10000 1 200 19:19 24.10.2020
6375 Clear 19 1015 88 10000 1 200 18:44 24.10.2020
6376 Clear 20 1015 88 10000 1 200 18:24 24.10.2020
6377 Clear 20 1015 88 10000 1 250 17:41 24.10.2020
6378 Clear 21 1015 88 10000 1 250 17:22 24.10.2020
6379 Clear 22 1015 82 10000 2.1 200 16:45 24.10.2020
6380 Clear 22 1015 82 10000 2.6 210 16:25 24.10.2020
6381 Clear 22 1016 77 10000 2.1 220 15:41 24.10.2020
6382 Clear 22 1016 77 10000 2.6 210 15:20 24.10.2020
6383 Clear 22 1016 77 10000 2.6 210 14:56 24.10.2020
6384 Clear 22 1016 77 10000 2.6 210 14:29 24.10.2020
6385 Clear 22 1016 82 10000 2.6 210 13:49 24.10.2020
6386 Clear 22 1016 82 10000 2.6 230 13:31 24.10.2020
6387 Clear 21 1017 82 10000 2.6 220 12:58 24.10.2020
6388 Clear 21 1017 82 10000 2.6 210 12:37 24.10.2020
6389 Clear 21 1017 82 10000 2.6 210 12:19 24.10.2020
6390 Clouds 20 1017 82 8000 3.1 250 11:43 24.10.2020
6391 Clouds 19 1018 82 6000 3.1 250 10:59 24.10.2020
6392 Mist 19 1018 82 4000 3.1 230 10:39 24.10.2020
6393 Mist 18 1018 82 4000 2.6 210 09:58 24.10.2020
6394 Mist 18 1018 93 4000 2.6 200 09:40 24.10.2020
6395 Mist 18 1018 93 3500 2.1 230 09:21 24.10.2020
6396 Mist 17 1018 93 2500 0.5 0 08:40 24.10.2020
6397 Mist 17 1018 93 2500 0.5 0 08:18 24.10.2020
6398 Mist 16 1017 100 2000 0.95 204 07:45 24.10.2020
6399 Mist 16 1017 93 4000 0.5 0 07:19 24.10.2020
6400 Clouds 16 1018 100 10000 0.8 219 06:36 24.10.2020
6401 Clouds 15 1017 93 10000 0.5 0 03:51 24.10.2020
6402 Clear 15 1018 100 10000 0.5 0 02:20 24.10.2020
6403 Clear 15 1018 93 10000 0.5 140 00:44 24.10.2020
6404 Clear 15 1018 93 10000 0.5 140 00:23 24.10.2020
6405 Clear 15 1018 93 10000 1 100 23:59 23.10.2020
6406 Clear 15 1019 93 8000 0.5 0 23:37 23.10.2020
6407 Clear 15 1019 93 8000 1 0 23:18 23.10.2020
6408 Clear 16 1019 93 8000 1.5 350 22:42 23.10.2020
6409 Clear 16 1019 93 8000 1.5 350 22:21 23.10.2020
6410 Clear 17 1019 100 8000 1 0 21:52 23.10.2020
6411 Clear 17 1019 100 8000 1 0 21:29 23.10.2020
6412 Clear 17 1019 93 8000 0.5 0 20:57 23.10.2020
6413 Clear 17 1019 93 8000 1.52 57 20:37 23.10.2020
6414 Clear 18 1019 88 8000 1.94 60 20:18 23.10.2020
6415 Clear 18 1019 88 8000 1 170 19:42 23.10.2020
6416 Clear 19 1019 88 8000 1.5 280 19:23 23.10.2020
6417 Clear 19 1019 88 8000 1.5 280 18:42 23.10.2020
6418 Clear 19 1019 88 8000 1.5 280 18:22 23.10.2020
6419 Clear 19 1019 82 10000 1 230 17:44 23.10.2020
6420 Clear 20 1019 88 10000 1.5 250 17:21 23.10.2020
6421 Clear 20 1019 82 10000 2.1 240 16:47 23.10.2020
6422 Clear 20 1019 82 10000 2.1 240 16:26 23.10.2020
6423 Clear 20 1020 77 10000 2.6 240 15:55 23.10.2020
6424 Clear 20 1020 77 10000 2.6 240 15:36 23.10.2020
6425 Clear 21 1020 77 10000 3.1 220 15:18 23.10.2020
6426 Clear 20 1020 77 10000 3.1 220 14:40 23.10.2020
6427 Clear 21 1021 77 10000 2.6 230 14:22 23.10.2020
6428 Clear 21 1021 77 10000 2.6 230 14:22 23.10.2020
6429 Clear 21 1021 77 10000 2.1 230 13:39 23.10.2020
6430 Clear 21 1021 77 10000 2.1 230 13:21 23.10.2020
6431 Clear 21 1022 77 10000 2.6 180 12:48 23.10.2020
6432 Clear 21 1022 77 10000 2.6 180 12:28 23.10.2020
6433 Clear 20 1022 72 10000 2.1 160 11:48 23.10.2020
6434 Clear 20 1022 72 10000 2.1 160 11:23 23.10.2020
6435 Clouds 19 1022 82 10000 1.5 140 10:48 23.10.2020
6436 Clouds 19 1022 82 10000 1.5 140 10:26 23.10.2020
6437 Clouds 18 1022 88 10000 1.5 110 09:50 23.10.2020
6438 Clouds 18 1022 88 10000 1.5 110 09:27 23.10.2020
6439 Clear 16 1022 88 10000 1 0 08:56 23.10.2020
6440 Clear 16 1022 88 10000 1 0 08:37 23.10.2020
6441 Clouds 15 1022 100 10000 1.5 10 07:47 23.10.2020
6442 Clear 14 1022 100 8000 1 0 07:26 23.10.2020
6443 Clear 15 1022 93 10000 2.1 20 06:40 23.10.2020
6444 Clouds 15 1022 93 10000 1 0 05:58 23.10.2020
6445 Clear 15 1022 93 10000 1 0 02:54 23.10.2020
6446 Clear 16 1022 87 10000 2.1 40 02:26 23.10.2020
6447 Clear 16 1022 93 10000 2.1 350 00:48 23.10.2020
6448 Clear 17 1022 82 10000 2.1 30 23:54 22.10.2020
6449 Clear 17 1022 82 10000 2.1 30 23:31 22.10.2020
6450 Clear 17 1022 82 10000 2.1 40 22:56 22.10.2020
6451 Clear 17 1022 82 10000 3.1 40 22:38 22.10.2020
6452 Clear 18 1022 82 10000 3.1 30 22:19 22.10.2020
6453 Clear 18 1022 82 10000 3.1 40 21:43 22.10.2020
6454 Clear 17 1022 82 10000 3.1 40 21:23 22.10.2020
6455 Clear 18 1022 82 10000 3.1 30 20:57 22.10.2020
6456 Clear 18 1022 77 10000 3.6 40 20:39 22.10.2020
6457 Clear 18 1022 77 10000 3.6 50 20:18 22.10.2020
6458 Clear 18 1022 77 10000 4.6 40 19:41 22.10.2020
6459 Clear 18 1022 77 10000 5.7 40 19:19 22.10.2020
6460 Clear 19 1022 77 10000 6.2 40 18:43 22.10.2020
6461 Clear 19 1022 72 10000 5.7 40 18:20 22.10.2020
6462 Clear 20 1022 72 10000 5.1 30 17:46 22.10.2020
6463 Clear 20 1022 72 10000 5.1 30 17:26 22.10.2020
6464 Clear 20 1022 68 10000 5.7 30 16:56 22.10.2020
6465 Clear 20 1022 68 10000 5.7 50 16:37 22.10.2020
6466 Clouds 21 1022 64 10000 4.1 50 16:19 22.10.2020
6467 Clouds 21 1022 68 10000 5.1 50 15:43 22.10.2020
6468 Clouds 21 1022 64 10000 5.1 40 15:22 22.10.2020
6469 Clouds 21 1022 64 10000 3.6 40 14:47 22.10.2020
6470 Clouds 21 1022 73 10000 4.1 30 14:24 22.10.2020
6471 Clouds 21 1023 68 10000 4.6 40 13:48 22.10.2020
6472 Clouds 21 1023 68 10000 4.6 40 13:24 22.10.2020
6473 Clouds 21 1023 68 10000 4.6 40 13:24 22.10.2020
6474 Clouds 21 1023 68 10000 1 0 12:47 22.10.2020
6475 Clouds 21 1023 73 10000 2.1 120 12:23 22.10.2020
6476 Clouds 20 1023 73 10000 2.1 120 11:50 22.10.2020
6477 Clouds 20 1023 72 10000 3.6 60 11:20 22.10.2020
6478 Clouds 20 1023 72 10000 4.1 60 10:51 22.10.2020
6479 Clouds 20 1023 72 10000 4.1 60 10:29 22.10.2020
6480 Clouds 19 1023 77 10000 4.6 50 09:52 22.10.2020
6481 Clouds 19 1023 77 10000 4.6 50 09:33 22.10.2020
6482 Clouds 18 1023 77 10000 3.1 30 08:51 22.10.2020
6483 Clouds 18 1023 77 10000 3.1 30 08:31 22.10.2020
6484 Clouds 17 1023 82 10000 3.1 20 07:58 22.10.2020
6485 Clouds 17 1022 82 10000 2.6 20 07:36 22.10.2020
6486 Clouds 16 1022 87 10000 2.6 10 06:58 22.10.2020
6487 Clouds 16 1022 88 10000 1.5 20 06:27 22.10.2020
6488 Clouds 16 1022 88 10000 2.1 40 05:41 22.10.2020
6489 Clouds 17 1022 82 10000 2.6 20 05:18 22.10.2020
6490 Clear 17 1022 88 10000 2.1 40 01:50 22.10.2020
6491 Clear 17 1022 82 10000 3.6 50 00:26 22.10.2020
6492 Clear 17 1022 82 10000 3.6 50 23:51 21.10.2020
6493 Clear 18 1022 82 10000 4.1 40 23:32 21.10.2020
6494 Clouds 18 1022 77 10000 4.6 30 22:43 21.10.2020
6495 Clouds 18 1022 77 10000 4.6 40 22:19 21.10.2020
6496 Clouds 18 1023 77 10000 4.1 50 21:56 21.10.2020
6497 Clouds 18 1023 77 10000 4.1 50 21:56 21.10.2020
6498 Clouds 18 1023 77 10000 4.1 50 21:38 21.10.2020
6499 Clouds 18 1022 77 10000 6.2 50 21:18 21.10.2020
6500 Clouds 18 1022 77 10000 6.2 50 20:48 21.10.2020
6501 Clouds 18 1023 72 10000 6.7 60 20:19 21.10.2020
6502 Clouds 18 1023 77 10000 8.2 50 19:47 21.10.2020
6503 Clouds 18 1023 77 10000 8.2 50 19:26 21.10.2020
6504 Clouds 19 1022 72 10000 7.2 60 18:54 21.10.2020
6505 Clouds 19 1022 72 10000 7.2 60 18:36 21.10.2020
6506 Clouds 19 1021 72 10000 6.7 60 18:18 21.10.2020
6507 Clouds 19 1021 68 10000 7.7 70 17:41 21.10.2020
6508 Clouds 20 1021 68 10000 9.8 60 17:19 21.10.2020
6509 Clouds 20 1021 68 10000 9.8 60 16:41 21.10.2020
6510 Clouds 20 1021 60 10000 10.8 60 16:21 21.10.2020
6511 Clouds 20 1022 64 10000 10.8 40 15:55 21.10.2020
6512 Clouds 20 1022 64 10000 10.3 40 15:37 21.10.2020
6513 Clouds 20 1022 64 10000 10.3 40 15:18 21.10.2020
6514 Clouds 20 1022 68 10000 9.8 40 14:43 21.10.2020
6515 Clouds 21 1022 68 10000 9.3 50 14:23 21.10.2020
6516 Clouds 20 1023 72 10000 8.2 50 13:42 21.10.2020
6517 Clouds 20 1023 72 10000 8.2 50 13:23 21.10.2020
6518 Clouds 20 1023 72 10000 8.7 60 12:46 21.10.2020
6519 Clouds 20 1023 72 10000 7.2 70 12:24 21.10.2020
6520 Clouds 20 1024 72 10000 7.7 80 11:59 21.10.2020
6521 Clouds 20 1024 72 10000 7.7 80 11:39 21.10.2020
6522 Clouds 20 1024 77 10000 7.2 70 11:19 21.10.2020
6523 Clouds 19 1024 72 10000 8.2 60 10:41 21.10.2020
6524 Clouds 19 1024 72 10000 8.2 60 10:21 21.10.2020
6525 Clouds 18 1024 72 10000 8.7 60 09:51 21.10.2020
6526 Clouds 18 1024 72 10000 9.8 60 09:28 21.10.2020
6527 Clouds 18 1024 72 10000 8.2 50 08:42 21.10.2020
6528 Clouds 18 1024 72 10000 8.2 50 08:24 21.10.2020
6529 Clouds 18 1024 77 10000 7.7 50 07:57 21.10.2020
6530 Clouds 18 1023 77 10000 7.2 50 07:29 21.10.2020
6531 Clouds 17 1023 77 10000 7.2 50 06:48 21.10.2020
6532 Clouds 17 1023 77 10000 6.7 60 06:26 21.10.2020
6533 Clouds 17 1023 77 10000 7.2 60 04:45 21.10.2020
6534 Clouds 17 1023 72 10000 8.2 60 00:50 21.10.2020
6535 Clouds 17 1024 72 10000 6.2 60 23:41 20.10.2020
6536 Rain 17 1024 72 10000 6.2 60 22:52 20.10.2020
6537 Clouds 17 1024 72 10000 6.7 40 22:27 20.10.2020
6538 Clouds 17 1024 63 10000 5.7 30 21:48 20.10.2020
6539 Clouds 17 1024 63 10000 5.7 30 21:20 20.10.2020
6540 Clouds 18 1024 63 10000 5.7 40 20:44 20.10.2020
6541 Clouds 18 1024 63 10000 5.1 40 20:25 20.10.2020
6542 Clouds 18 1024 63 10000 5.1 40 20:25 20.10.2020
6543 Clouds 18 1024 63 10000 5.1 40 20:25 20.10.2020
6544 Clouds 18 1024 63 10000 4.1 40 19:57 20.10.2020
6545 Clouds 17 1024 63 10000 4.1 40 19:39 20.10.2020
6546 Clouds 17 1024 63 10000 5.1 40 19:21 20.10.2020
6547 Clouds 17 1024 63 10000 4.6 40 18:46 20.10.2020
6548 Clouds 17 1024 63 10000 4.6 40 18:26 20.10.2020
6549 Clouds 17 1024 59 10000 6.2 50 17:42 20.10.2020
6550 Clouds 17 1024 59 10000 6.2 50 17:24 20.10.2020
6551 Clouds 17 1024 59 10000 7.7 50 16:48 20.10.2020
6552 Clouds 17 1023 59 10000 6.7 50 16:26 20.10.2020
6553 Clouds 18 1023 55 10000 9.8 50 15:50 20.10.2020
6554 Clouds 18 1023 59 10000 10.3 60 15:32 20.10.2020
6555 Clouds 17 1023 63 10000 9.8 50 14:56 20.10.2020
6556 Clouds 17 1023 68 10000 9.3 60 14:37 20.10.2020
6557 Clouds 17 1023 68 10000 9.3 60 14:19 20.10.2020
6558 Clouds 18 1023 63 10000 9.8 60 13:42 20.10.2020
6559 Clouds 17 1023 77 10000 7.2 60 13:22 20.10.2020
6560 Clouds 17 1023 72 10000 6.2 60 12:54 20.10.2020
6561 Clouds 17 1023 72 10000 7.2 60 12:36 20.10.2020
6562 Clouds 17 1023 72 10000 7.2 60 12:18 20.10.2020
6563 Rain 16 1023 87 10000 5.1 50 11:36 20.10.2020
6564 Clouds 16 1023 87 10000 5.1 50 11:18 20.10.2020
6565 Clouds 16 1023 87 9000 4.1 70 10:29 20.10.2020
6566 Clouds 17 1023 77 10000 5.7 70 09:50 20.10.2020
6567 Rain 17 1023 72 10000 8.7 50 09:21 20.10.2020
6568 Clouds 17 1023 68 10000 7.7 60 08:57 20.10.2020
6569 Clouds 16 1023 72 10000 4.1 50 08:30 20.10.2020
6570 Rain 16 1023 67 10000 4.1 60 07:50 20.10.2020
6571 Clouds 16 1023 72 10000 4.1 80 07:25 20.10.2020
6572 Clouds 16 1022 72 10000 4.1 70 06:25 20.10.2020
6573 Clouds 16 1022 72 10000 2.6 40 05:21 20.10.2020
6574 Clouds 16 1023 67 10000 3.1 20 02:33 20.10.2020
6575 Clouds 17 1023 67 10000 3.1 40 01:59 20.10.2020
6576 Clouds 16 1023 67 10000 4.6 50 00:57 20.10.2020
6577 Clouds 16 1024 67 10000 4.1 40 00:39 20.10.2020
6578 Clouds 16 1024 63 10000 5.1 40 00:18 20.10.2020
6579 Clouds 16 1024 67 10000 4.1 40 00:18 20.10.2020
6580 Clouds 16 1024 63 10000 5.1 30 23:39 19.10.2020
6581 Clouds 16 1024 63 10000 5.1 30 23:18 19.10.2020
6582 Clouds 17 1024 63 10000 6.2 30 22:42 19.10.2020
6583 Clouds 16 1024 63 10000 6.2 40 22:20 19.10.2020
6584 Clouds 16 1024 63 10000 5.7 30 21:41 19.10.2020
6585 Clouds 16 1024 63 10000 5.7 30 21:19 19.10.2020
6586 Clouds 16 1024 63 10000 5.1 30 20:45 19.10.2020
6587 Clouds 16 1024 63 10000 5.1 30 20:26 19.10.2020
6588 Clouds 16 1024 59 10000 6.2 30 19:47 19.10.2020
6589 Clouds 16 1024 59 10000 6.2 20 19:22 19.10.2020
6590 Clouds 16 1024 59 10000 6.2 20 19:22 19.10.2020
6591 Clouds 16 1024 59 10000 6.2 30 18:51 19.10.2020
6592 Clouds 16 1024 59 10000 6.7 20 18:32 19.10.2020
6593 Clouds 16 1024 59 10000 7.2 30 17:56 19.10.2020
6594 Clouds 16 1024 59 10000 7.2 30 17:38 19.10.2020
6595 Clouds 16 1024 59 10000 8.2 20 17:19 19.10.2020
6596 Clouds 16 1024 63 10000 7.7 30 16:42 19.10.2020
6597 Clouds 17 1024 63 10000 6.2 20 16:20 19.10.2020
6598 Clouds 17 1022 66 10000 5.36 2 15:40 19.10.2020
6599 Clouds 17 1022 66 10000 4.92 15 15:21 19.10.2020
6600 Clouds 18 1022 66 10000 4.47 6 14:50 19.10.2020
6601 Clouds 18 1021 65 10000 4.92 359 14:24 19.10.2020
6602 Clouds 18 1021 65 10000 4.47 352 13:49 19.10.2020
6603 Clouds 18 1021 65 10000 4.47 356 13:31 19.10.2020
6604 Clouds 18 1021 64 10000 4.92 336 12:49 19.10.2020
6605 Clouds 18 1021 65 10000 5.81 297 12:31 19.10.2020
6606 Clouds 16 1024 59 10000 7.2 20 11:51 19.10.2020
6607 Clouds 16 1024 59 10000 7.2 20 11:25 19.10.2020
6608 Clouds 16 1024 59 10000 7.2 20 10:56 19.10.2020
6609 Clouds 16 1023 59 10000 6.7 20 10:36 19.10.2020
6610 Clouds 15 1023 63 10000 6.2 20 10:18 19.10.2020
6611 Clouds 15 1023 63 10000 7.7 30 09:42 19.10.2020
6612 Clouds 15 1023 67 10000 6.2 20 09:18 19.10.2020
6613 Clouds 15 1023 63 10000 5.1 20 08:47 19.10.2020
6614 Clouds 15 1023 63 10000 5.1 20 08:47 19.10.2020
6615 Clouds 15 1022 67 10000 5.7 30 08:21 19.10.2020
6616 Clouds 15 1022 63 10000 5.1 20 07:21 19.10.2020
6617 Clouds 15 1021 72 10000 4.6 20 06:50 19.10.2020
6618 Clouds 15 1021 82 10000 6.2 20 05:42 19.10.2020
6619 Clouds 16 1020 63 10000 6.7 10 03:47 19.10.2020
6620 Rain 16 1019 67 10000 5.1 30 01:57 19.10.2020
6621 Rain 16 1019 63 10000 5.1 30 00:43 19.10.2020
6622 Clouds 16 1019 67 10000 5.7 30 23:59 18.10.2020
6623 Clouds 16 1019 72 10000 5.1 20 23:40 18.10.2020
6624 Clouds 16 1019 72 10000 5.1 20 23:21 18.10.2020
6625 Rain 17 1018 68 10000 5.1 30 22:45 18.10.2020
6626 Clouds 17 1018 77 10000 5.1 30 22:19 18.10.2020
6627 Clouds 17 1018 82 10000 4.6 30 21:48 18.10.2020
6628 Clouds 17 1018 82 10000 4.6 30 21:29 18.10.2020
6629 Clouds 17 1018 77 10000 6.2 40 20:47 18.10.2020
6630 Clouds 17 1018 77 10000 6.2 40 20:24 18.10.2020
6631 Clouds 17 1018 77 10000 4.6 40 19:56 18.10.2020
6632 Clouds 17 1017 77 10000 6.2 30 19:38 18.10.2020
6633 Clouds 17 1017 77 10000 6.7 30 19:19 18.10.2020
6634 Clouds 17 1017 77 10000 6.7 30 19:19 18.10.2020
6635 Clouds 17 1017 77 10000 7.2 30 18:46 18.10.2020
6636 Clouds 17 1017 77 10000 7.2 30 18:24 18.10.2020
6637 Clouds 18 1016 72 10000 6.7 30 17:41 18.10.2020
6638 Clouds 18 1016 72 10000 6.7 30 17:22 18.10.2020
6639 Clouds 18 1016 68 10000 8.2 30 16:44 18.10.2020
6640 Clouds 18 1016 63 10000 7.2 40 16:25 18.10.2020
6641 Clouds 18 1016 63 10000 7.7 30 15:45 18.10.2020
6642 Clouds 18 1016 63 10000 7.7 30 15:27 18.10.2020
6643 Clouds 18 1016 63 10000 7.7 40 14:58 18.10.2020
6644 Clouds 18 1016 63 10000 8.7 30 14:39 18.10.2020
6645 Clouds 18 1016 63 10000 8.7 30 14:39 18.10.2020
6646 Clouds 18 1016 63 10000 8.7 30 14:39 18.10.2020
6647 Clouds 19 1016 64 10000 8.7 40 14:21 18.10.2020
6648 Clouds 19 1016 64 10000 8.2 50 13:43 18.10.2020
6649 Clouds 19 1016 68 10000 8.2 30 13:25 18.10.2020
6650 Clouds 19 1016 64 10000 6.7 30 12:44 18.10.2020
6651 Clouds 19 1016 64 10000 6.7 30 12:24 18.10.2020
6652 Clouds 19 1016 72 10000 8.2 40 11:55 18.10.2020
6653 Clouds 18 1016 72 10000 6.2 40 11:37 18.10.2020
6654 Clouds 18 1016 72 10000 6.2 40 11:18 18.10.2020
6655 Clouds 18 1016 82 10000 7.2 40 10:39 18.10.2020
6656 Clouds 18 1016 88 10000 7.7 30 10:19 18.10.2020
6657 Clouds 18 1016 93 10000 7.2 30 09:47 18.10.2020
6658 Rain 18 1016 88 7000 7.7 50 09:21 18.10.2020
6659 Rain 18 1016 88 7000 7.7 50 08:52 18.10.2020
6660 Clouds 19 1015 82 10000 5.1 30 08:26 18.10.2020
6661 Rain 19 1015 82 10000 4.1 20 07:56 18.10.2020
6662 Clouds 19 1014 88 10000 4.1 40 05:58 18.10.2020
6663 Clouds 19 1015 88 10000 2.1 20 03:55 18.10.2020
6664 Clouds 18 1015 93 10000 2.1 10 02:54 18.10.2020
6665 Clouds 19 1015 88 10000 2.1 360 01:33 18.10.2020
6666 Clouds 19 1015 82 10000 1.5 310 00:46 18.10.2020
6667 Clouds 19 1015 82 10000 1.5 310 00:22 18.10.2020
6668 Clouds 20 1015 82 10000 1 340 23:41 17.10.2020
6669 Clouds 20 1015 82 10000 1 340 23:21 17.10.2020
6670 Clouds 20 1014 83 10000 4.6 280 22:57 17.10.2020
6671 Clouds 21 1014 73 10000 5.7 280 22:38 17.10.2020
6672 Clouds 21 1014 68 10000 4.6 280 22:18 17.10.2020
6673 Clouds 21 1014 78 10000 4.1 270 21:43 17.10.2020
6674 Clouds 21 1014 78 10000 4.1 270 21:21 17.10.2020
6675 Clouds 21 1013 73 10000 4.1 240 20:46 17.10.2020
6676 Clouds 21 1013 73 10000 4.1 250 20:21 17.10.2020
6677 Clouds 20 1013 73 10000 6.2 260 19:45 17.10.2020
6678 Clouds 21 1013 68 10000 6.7 230 19:23 17.10.2020
6679 Clouds 20 1013 64 10000 6.2 230 18:47 17.10.2020
6680 Clouds 20 1013 77 10000 7.7 240 18:28 17.10.2020
6681 Clouds 20 1013 77 10000 7.7 240 17:57 17.10.2020
6682 Rain 21 1013 68 10000 8.2 230 17:38 17.10.2020
6683 Rain 21 1013 73 10000 7.7 210 17:19 17.10.2020
668